<?xml version="1.0" encoding="UTF-8" standalone="no" ?>
<gpx xmlns="http://www.topografix.com/GPX/1/1" xmlns:xsi="http://www.w3.org/2001/XMLSchema-instance" xsi:schemaLocation="http://www.topografix.com/GPX/1/1 http://www.topografix.com/GPX/1/1/gpx.xsd" version="1.1" creator="VisuGPX - https://www.visugpx.com">
  <metadata>
    <name>E-O-La Varenne Champtoceaux Oudon Nantes</name>
    <desc><![CDATA[E-O-La Varenne Champtoceaux Oudon Nantes]]></desc>
  </metadata>
  <trk>
    <name><![CDATA[2020-05-21 10:17]]></name>
    <desc><![CDATA[<p>Heure de départ: 05/21/2020 10:17<br/>Heure d'arrivée: 05/21/2020 13:08<br/>Distance: 74,7 km (02:51)<br/>Temps déplacement: 02:50<br/>Vitesse moyenne: 26,18 km/h<br/>Vitesse moyenne mouv.: 26,28 km/h<br/>Vitesse Max.: 46,63 km/h<br/>Altitude minimale: -4 m<br/>Altitude maximale: 67 m<br/>Vitesse de montée: 704,8 m/h<br/>Vitesse de descente: -709,3 m/h<br/>Gain d'altitude: 836 m<br/>Perte d'altitude: -849 m<br/>Temps de montée: 01:11<br/>Temps de descente: 01:11<br/></p><hr align="center" width="480" style="height: 2px; width: 517px"/>]]></desc>
    <trkseg>
      <trkpt lat="47.16782" lon="-1.62642">
        <ele>28.31</ele>
        <time>2020-05-21T08:17:27Z</time>
      </trkpt>
      <trkpt lat="47.16777" lon="-1.62659">
        <ele>26.73</ele>
        <time>2020-05-21T08:17:42Z</time>
      </trkpt>
      <trkpt lat="47.16789" lon="-1.62654">
        <ele>21</ele>
        <time>2020-05-21T08:17:47Z</time>
      </trkpt>
      <trkpt lat="47.16795" lon="-1.62641">
        <ele>19.34</ele>
        <time>2020-05-21T08:17:49Z</time>
      </trkpt>
      <trkpt lat="47.16801" lon="-1.62625">
        <ele>18.39</ele>
        <time>2020-05-21T08:17:51Z</time>
      </trkpt>
      <trkpt lat="47.16813" lon="-1.62612">
        <ele>17.81</ele>
        <time>2020-05-21T08:17:53Z</time>
      </trkpt>
      <trkpt lat="47.1682" lon="-1.62598">
        <ele>17.03</ele>
        <time>2020-05-21T08:17:55Z</time>
      </trkpt>
      <trkpt lat="47.16826" lon="-1.62586">
        <ele>17.65</ele>
        <time>2020-05-21T08:17:57Z</time>
      </trkpt>
      <trkpt lat="47.16825" lon="-1.62568">
        <ele>16.98</ele>
        <time>2020-05-21T08:18:00Z</time>
      </trkpt>
      <trkpt lat="47.16817" lon="-1.62557">
        <ele>16.76</ele>
        <time>2020-05-21T08:18:02Z</time>
      </trkpt>
      <trkpt lat="47.16806" lon="-1.62548">
        <ele>16.82</ele>
        <time>2020-05-21T08:18:04Z</time>
      </trkpt>
      <trkpt lat="47.16795" lon="-1.6254">
        <ele>17.15</ele>
        <time>2020-05-21T08:18:06Z</time>
      </trkpt>
      <trkpt lat="47.16785" lon="-1.62533">
        <ele>17.19</ele>
        <time>2020-05-21T08:18:08Z</time>
      </trkpt>
      <trkpt lat="47.16774" lon="-1.62525">
        <ele>16.8</ele>
        <time>2020-05-21T08:18:10Z</time>
      </trkpt>
      <trkpt lat="47.16763" lon="-1.62518">
        <ele>15.95</ele>
        <time>2020-05-21T08:18:12Z</time>
      </trkpt>
      <trkpt lat="47.16752" lon="-1.62511">
        <ele>15.16</ele>
        <time>2020-05-21T08:18:14Z</time>
      </trkpt>
      <trkpt lat="47.16741" lon="-1.62506">
        <ele>14.25</ele>
        <time>2020-05-21T08:18:16Z</time>
      </trkpt>
      <trkpt lat="47.1673" lon="-1.62502">
        <ele>14.03</ele>
        <time>2020-05-21T08:18:18Z</time>
      </trkpt>
      <trkpt lat="47.16718" lon="-1.62496">
        <ele>14.43</ele>
        <time>2020-05-21T08:18:20Z</time>
      </trkpt>
      <trkpt lat="47.16712" lon="-1.62483">
        <ele>15.94</ele>
        <time>2020-05-21T08:18:22Z</time>
      </trkpt>
      <trkpt lat="47.16713" lon="-1.62468">
        <ele>17.13</ele>
        <time>2020-05-21T08:18:24Z</time>
      </trkpt>
      <trkpt lat="47.16715" lon="-1.62453">
        <ele>17.77</ele>
        <time>2020-05-21T08:18:26Z</time>
      </trkpt>
      <trkpt lat="47.16717" lon="-1.62435">
        <ele>17.44</ele>
        <time>2020-05-21T08:18:28Z</time>
      </trkpt>
      <trkpt lat="47.16722" lon="-1.62419">
        <ele>17.38</ele>
        <time>2020-05-21T08:18:30Z</time>
      </trkpt>
      <trkpt lat="47.16728" lon="-1.62401">
        <ele>17.14</ele>
        <time>2020-05-21T08:18:32Z</time>
      </trkpt>
      <trkpt lat="47.16733" lon="-1.62384">
        <ele>17.4</ele>
        <time>2020-05-21T08:18:34Z</time>
      </trkpt>
      <trkpt lat="47.16741" lon="-1.62367">
        <ele>17.41</ele>
        <time>2020-05-21T08:18:36Z</time>
      </trkpt>
      <trkpt lat="47.1675" lon="-1.62355">
        <ele>17.87</ele>
        <time>2020-05-21T08:18:38Z</time>
      </trkpt>
      <trkpt lat="47.16761" lon="-1.62346">
        <ele>18.41</ele>
        <time>2020-05-21T08:18:40Z</time>
      </trkpt>
      <trkpt lat="47.16774" lon="-1.62337">
        <ele>18.7</ele>
        <time>2020-05-21T08:18:42Z</time>
      </trkpt>
      <trkpt lat="47.16785" lon="-1.6233">
        <ele>19.07</ele>
        <time>2020-05-21T08:18:44Z</time>
      </trkpt>
      <trkpt lat="47.16795" lon="-1.62326">
        <ele>19.95</ele>
        <time>2020-05-21T08:18:46Z</time>
      </trkpt>
      <trkpt lat="47.16808" lon="-1.62319">
        <ele>21.33</ele>
        <time>2020-05-21T08:18:48Z</time>
      </trkpt>
      <trkpt lat="47.16819" lon="-1.62311">
        <ele>21.8</ele>
        <time>2020-05-21T08:18:50Z</time>
      </trkpt>
      <trkpt lat="47.16832" lon="-1.62301">
        <ele>22.03</ele>
        <time>2020-05-21T08:18:52Z</time>
      </trkpt>
      <trkpt lat="47.16844" lon="-1.62289">
        <ele>21.98</ele>
        <time>2020-05-21T08:18:54Z</time>
      </trkpt>
      <trkpt lat="47.16855" lon="-1.62276">
        <ele>22.08</ele>
        <time>2020-05-21T08:18:56Z</time>
      </trkpt>
      <trkpt lat="47.16866" lon="-1.62263">
        <ele>22.1</ele>
        <time>2020-05-21T08:18:58Z</time>
      </trkpt>
      <trkpt lat="47.16875" lon="-1.62251">
        <ele>21.86</ele>
        <time>2020-05-21T08:19:00Z</time>
      </trkpt>
      <trkpt lat="47.16885" lon="-1.62237">
        <ele>21.43</ele>
        <time>2020-05-21T08:19:02Z</time>
      </trkpt>
      <trkpt lat="47.16895" lon="-1.62223">
        <ele>21.19</ele>
        <time>2020-05-21T08:19:04Z</time>
      </trkpt>
      <trkpt lat="47.16905" lon="-1.62208">
        <ele>21.44</ele>
        <time>2020-05-21T08:19:06Z</time>
      </trkpt>
      <trkpt lat="47.16915" lon="-1.62192">
        <ele>21.61</ele>
        <time>2020-05-21T08:19:08Z</time>
      </trkpt>
      <trkpt lat="47.16924" lon="-1.62177">
        <ele>21.05</ele>
        <time>2020-05-21T08:19:10Z</time>
      </trkpt>
      <trkpt lat="47.16934" lon="-1.62159">
        <ele>20.49</ele>
        <time>2020-05-21T08:19:12Z</time>
      </trkpt>
      <trkpt lat="47.16942" lon="-1.62144">
        <ele>20.73</ele>
        <time>2020-05-21T08:19:14Z</time>
      </trkpt>
      <trkpt lat="47.1695" lon="-1.62126">
        <ele>20.99</ele>
        <time>2020-05-21T08:19:16Z</time>
      </trkpt>
      <trkpt lat="47.16958" lon="-1.62109">
        <ele>21.12</ele>
        <time>2020-05-21T08:19:18Z</time>
      </trkpt>
      <trkpt lat="47.16967" lon="-1.62092">
        <ele>21.6</ele>
        <time>2020-05-21T08:19:20Z</time>
      </trkpt>
      <trkpt lat="47.16975" lon="-1.62076">
        <ele>22.11</ele>
        <time>2020-05-21T08:19:22Z</time>
      </trkpt>
      <trkpt lat="47.16984" lon="-1.62059">
        <ele>22.35</ele>
        <time>2020-05-21T08:19:24Z</time>
      </trkpt>
      <trkpt lat="47.16992" lon="-1.62044">
        <ele>22.08</ele>
        <time>2020-05-21T08:19:26Z</time>
      </trkpt>
      <trkpt lat="47.17" lon="-1.62029">
        <ele>21.34</ele>
        <time>2020-05-21T08:19:28Z</time>
      </trkpt>
      <trkpt lat="47.17009" lon="-1.62015">
        <ele>20.41</ele>
        <time>2020-05-21T08:19:30Z</time>
      </trkpt>
      <trkpt lat="47.17019" lon="-1.62">
        <ele>19.53</ele>
        <time>2020-05-21T08:19:32Z</time>
      </trkpt>
      <trkpt lat="47.17028" lon="-1.61985">
        <ele>18.9</ele>
        <time>2020-05-21T08:19:34Z</time>
      </trkpt>
      <trkpt lat="47.17038" lon="-1.6197">
        <ele>18.43</ele>
        <time>2020-05-21T08:19:36Z</time>
      </trkpt>
      <trkpt lat="47.17049" lon="-1.61956">
        <ele>18.4</ele>
        <time>2020-05-21T08:19:38Z</time>
      </trkpt>
      <trkpt lat="47.1706" lon="-1.61942">
        <ele>18.51</ele>
        <time>2020-05-21T08:19:40Z</time>
      </trkpt>
      <trkpt lat="47.1707" lon="-1.61929">
        <ele>18.18</ele>
        <time>2020-05-21T08:19:42Z</time>
      </trkpt>
      <trkpt lat="47.17081" lon="-1.61917">
        <ele>17.6</ele>
        <time>2020-05-21T08:19:44Z</time>
      </trkpt>
      <trkpt lat="47.17092" lon="-1.61906">
        <ele>17.03</ele>
        <time>2020-05-21T08:19:46Z</time>
      </trkpt>
      <trkpt lat="47.17104" lon="-1.61895">
        <ele>16.76</ele>
        <time>2020-05-21T08:19:48Z</time>
      </trkpt>
      <trkpt lat="47.17115" lon="-1.61885">
        <ele>16.59</ele>
        <time>2020-05-21T08:19:50Z</time>
      </trkpt>
      <trkpt lat="47.17125" lon="-1.61876">
        <ele>16.5</ele>
        <time>2020-05-21T08:19:52Z</time>
      </trkpt>
      <trkpt lat="47.17137" lon="-1.61865">
        <ele>17.04</ele>
        <time>2020-05-21T08:19:54Z</time>
      </trkpt>
      <trkpt lat="47.17148" lon="-1.61855">
        <ele>17.64</ele>
        <time>2020-05-21T08:19:56Z</time>
      </trkpt>
      <trkpt lat="47.1716" lon="-1.61845">
        <ele>17.96</ele>
        <time>2020-05-21T08:19:58Z</time>
      </trkpt>
      <trkpt lat="47.17172" lon="-1.61834">
        <ele>18.26</ele>
        <time>2020-05-21T08:20:00Z</time>
      </trkpt>
      <trkpt lat="47.17182" lon="-1.61823">
        <ele>18.22</ele>
        <time>2020-05-21T08:20:02Z</time>
      </trkpt>
      <trkpt lat="47.17192" lon="-1.61813">
        <ele>18.36</ele>
        <time>2020-05-21T08:20:04Z</time>
      </trkpt>
      <trkpt lat="47.17203" lon="-1.61802">
        <ele>18.62</ele>
        <time>2020-05-21T08:20:06Z</time>
      </trkpt>
      <trkpt lat="47.17214" lon="-1.6179">
        <ele>18.8</ele>
        <time>2020-05-21T08:20:08Z</time>
      </trkpt>
      <trkpt lat="47.17221" lon="-1.61774">
        <ele>18.23</ele>
        <time>2020-05-21T08:20:10Z</time>
      </trkpt>
      <trkpt lat="47.17227" lon="-1.61757">
        <ele>18.37</ele>
        <time>2020-05-21T08:20:12Z</time>
      </trkpt>
      <trkpt lat="47.17235" lon="-1.61744">
        <ele>18.66</ele>
        <time>2020-05-21T08:20:14Z</time>
      </trkpt>
      <trkpt lat="47.17245" lon="-1.61729">
        <ele>18.84</ele>
        <time>2020-05-21T08:20:16Z</time>
      </trkpt>
      <trkpt lat="47.17253" lon="-1.61714">
        <ele>19.52</ele>
        <time>2020-05-21T08:20:18Z</time>
      </trkpt>
      <trkpt lat="47.17261" lon="-1.61699">
        <ele>20.15</ele>
        <time>2020-05-21T08:20:20Z</time>
      </trkpt>
      <trkpt lat="47.1727" lon="-1.61683">
        <ele>20.08</ele>
        <time>2020-05-21T08:20:22Z</time>
      </trkpt>
      <trkpt lat="47.17277" lon="-1.61666">
        <ele>20.23</ele>
        <time>2020-05-21T08:20:24Z</time>
      </trkpt>
      <trkpt lat="47.17285" lon="-1.61651">
        <ele>20.02</ele>
        <time>2020-05-21T08:20:26Z</time>
      </trkpt>
      <trkpt lat="47.17294" lon="-1.61636">
        <ele>19.59</ele>
        <time>2020-05-21T08:20:28Z</time>
      </trkpt>
      <trkpt lat="47.17301" lon="-1.61622">
        <ele>19.53</ele>
        <time>2020-05-21T08:20:30Z</time>
      </trkpt>
      <trkpt lat="47.1731" lon="-1.61608">
        <ele>19.39</ele>
        <time>2020-05-21T08:20:32Z</time>
      </trkpt>
      <trkpt lat="47.1732" lon="-1.61594">
        <ele>19.73</ele>
        <time>2020-05-21T08:20:34Z</time>
      </trkpt>
      <trkpt lat="47.17329" lon="-1.61581">
        <ele>20.34</ele>
        <time>2020-05-21T08:20:36Z</time>
      </trkpt>
      <trkpt lat="47.1734" lon="-1.61568">
        <ele>20.25</ele>
        <time>2020-05-21T08:20:38Z</time>
      </trkpt>
      <trkpt lat="47.1735" lon="-1.61556">
        <ele>19.76</ele>
        <time>2020-05-21T08:20:40Z</time>
      </trkpt>
      <trkpt lat="47.17361" lon="-1.61545">
        <ele>19.31</ele>
        <time>2020-05-21T08:20:42Z</time>
      </trkpt>
      <trkpt lat="47.17372" lon="-1.61535">
        <ele>19.57</ele>
        <time>2020-05-21T08:20:44Z</time>
      </trkpt>
      <trkpt lat="47.17383" lon="-1.61523">
        <ele>19.57</ele>
        <time>2020-05-21T08:20:46Z</time>
      </trkpt>
      <trkpt lat="47.17396" lon="-1.61513">
        <ele>19.19</ele>
        <time>2020-05-21T08:20:48Z</time>
      </trkpt>
      <trkpt lat="47.17409" lon="-1.61503">
        <ele>18.68</ele>
        <time>2020-05-21T08:20:50Z</time>
      </trkpt>
      <trkpt lat="47.17422" lon="-1.61494">
        <ele>18.2</ele>
        <time>2020-05-21T08:20:52Z</time>
      </trkpt>
      <trkpt lat="47.17436" lon="-1.61485">
        <ele>17.76</ele>
        <time>2020-05-21T08:20:54Z</time>
      </trkpt>
      <trkpt lat="47.1745" lon="-1.61477">
        <ele>16.94</ele>
        <time>2020-05-21T08:20:56Z</time>
      </trkpt>
      <trkpt lat="47.17464" lon="-1.6147">
        <ele>16.54</ele>
        <time>2020-05-21T08:20:58Z</time>
      </trkpt>
      <trkpt lat="47.17478" lon="-1.61463">
        <ele>15.84</ele>
        <time>2020-05-21T08:21:00Z</time>
      </trkpt>
      <trkpt lat="47.17491" lon="-1.61458">
        <ele>15.6</ele>
        <time>2020-05-21T08:21:02Z</time>
      </trkpt>
      <trkpt lat="47.17504" lon="-1.61451">
        <ele>15.9</ele>
        <time>2020-05-21T08:21:04Z</time>
      </trkpt>
      <trkpt lat="47.17508" lon="-1.61439">
        <ele>16.23</ele>
        <time>2020-05-21T08:21:06Z</time>
      </trkpt>
      <trkpt lat="47.17512" lon="-1.61419">
        <ele>16</ele>
        <time>2020-05-21T08:21:08Z</time>
      </trkpt>
      <trkpt lat="47.17517" lon="-1.61396">
        <ele>15.03</ele>
        <time>2020-05-21T08:21:10Z</time>
      </trkpt>
      <trkpt lat="47.17523" lon="-1.61373">
        <ele>13.63</ele>
        <time>2020-05-21T08:21:12Z</time>
      </trkpt>
      <trkpt lat="47.17525" lon="-1.61353">
        <ele>12.65</ele>
        <time>2020-05-21T08:21:14Z</time>
      </trkpt>
      <trkpt lat="47.17523" lon="-1.61331">
        <ele>12.58</ele>
        <time>2020-05-21T08:21:16Z</time>
      </trkpt>
      <trkpt lat="47.17521" lon="-1.61312">
        <ele>13.1</ele>
        <time>2020-05-21T08:21:18Z</time>
      </trkpt>
      <trkpt lat="47.17518" lon="-1.61293">
        <ele>13.53</ele>
        <time>2020-05-21T08:21:20Z</time>
      </trkpt>
      <trkpt lat="47.17509" lon="-1.61277">
        <ele>13.55</ele>
        <time>2020-05-21T08:21:22Z</time>
      </trkpt>
      <trkpt lat="47.175" lon="-1.61259">
        <ele>13.46</ele>
        <time>2020-05-21T08:21:24Z</time>
      </trkpt>
      <trkpt lat="47.17493" lon="-1.61241">
        <ele>12.85</ele>
        <time>2020-05-21T08:21:26Z</time>
      </trkpt>
      <trkpt lat="47.17485" lon="-1.61223">
        <ele>12.21</ele>
        <time>2020-05-21T08:21:28Z</time>
      </trkpt>
      <trkpt lat="47.17478" lon="-1.61205">
        <ele>11.87</ele>
        <time>2020-05-21T08:21:30Z</time>
      </trkpt>
      <trkpt lat="47.17471" lon="-1.61187">
        <ele>11.63</ele>
        <time>2020-05-21T08:21:32Z</time>
      </trkpt>
      <trkpt lat="47.17464" lon="-1.61169">
        <ele>11.6</ele>
        <time>2020-05-21T08:21:34Z</time>
      </trkpt>
      <trkpt lat="47.17456" lon="-1.61152">
        <ele>11.65</ele>
        <time>2020-05-21T08:21:36Z</time>
      </trkpt>
      <trkpt lat="47.17449" lon="-1.61133">
        <ele>11.51</ele>
        <time>2020-05-21T08:21:38Z</time>
      </trkpt>
      <trkpt lat="47.17442" lon="-1.61115">
        <ele>11.22</ele>
        <time>2020-05-21T08:21:40Z</time>
      </trkpt>
      <trkpt lat="47.17434" lon="-1.61096">
        <ele>11.18</ele>
        <time>2020-05-21T08:21:42Z</time>
      </trkpt>
      <trkpt lat="47.17427" lon="-1.61077">
        <ele>10.73</ele>
        <time>2020-05-21T08:21:44Z</time>
      </trkpt>
      <trkpt lat="47.1742" lon="-1.6106">
        <ele>9.82</ele>
        <time>2020-05-21T08:21:46Z</time>
      </trkpt>
      <trkpt lat="47.17417" lon="-1.61047">
        <ele>9.17</ele>
        <time>2020-05-21T08:21:48Z</time>
      </trkpt>
      <trkpt lat="47.17419" lon="-1.6103">
        <ele>8.3</ele>
        <time>2020-05-21T08:21:51Z</time>
      </trkpt>
      <trkpt lat="47.17426" lon="-1.61019">
        <ele>8.01</ele>
        <time>2020-05-21T08:21:54Z</time>
      </trkpt>
      <trkpt lat="47.17431" lon="-1.61032">
        <ele>8.3</ele>
        <time>2020-05-21T08:21:56Z</time>
      </trkpt>
      <trkpt lat="47.17436" lon="-1.61049">
        <ele>8.73</ele>
        <time>2020-05-21T08:21:58Z</time>
      </trkpt>
      <trkpt lat="47.17441" lon="-1.61068">
        <ele>8.52</ele>
        <time>2020-05-21T08:22:00Z</time>
      </trkpt>
      <trkpt lat="47.1745" lon="-1.61084">
        <ele>8.03</ele>
        <time>2020-05-21T08:22:02Z</time>
      </trkpt>
      <trkpt lat="47.17461" lon="-1.61096">
        <ele>7.63</ele>
        <time>2020-05-21T08:22:04Z</time>
      </trkpt>
      <trkpt lat="47.17475" lon="-1.61107">
        <ele>7.28</ele>
        <time>2020-05-21T08:22:06Z</time>
      </trkpt>
      <trkpt lat="47.17491" lon="-1.6111">
        <ele>7.13</ele>
        <time>2020-05-21T08:22:08Z</time>
      </trkpt>
      <trkpt lat="47.17507" lon="-1.61106">
        <ele>6.33</ele>
        <time>2020-05-21T08:22:10Z</time>
      </trkpt>
      <trkpt lat="47.17522" lon="-1.61096">
        <ele>5.91</ele>
        <time>2020-05-21T08:22:12Z</time>
      </trkpt>
      <trkpt lat="47.17536" lon="-1.61082">
        <ele>5.62</ele>
        <time>2020-05-21T08:22:14Z</time>
      </trkpt>
      <trkpt lat="47.17549" lon="-1.61068">
        <ele>5.34</ele>
        <time>2020-05-21T08:22:16Z</time>
      </trkpt>
      <trkpt lat="47.17562" lon="-1.61057">
        <ele>4.62</ele>
        <time>2020-05-21T08:22:18Z</time>
      </trkpt>
      <trkpt lat="47.17574" lon="-1.61045">
        <ele>4.13</ele>
        <time>2020-05-21T08:22:20Z</time>
      </trkpt>
      <trkpt lat="47.17585" lon="-1.61036">
        <ele>3.46</ele>
        <time>2020-05-21T08:22:22Z</time>
      </trkpt>
      <trkpt lat="47.17596" lon="-1.61026">
        <ele>3.19</ele>
        <time>2020-05-21T08:22:24Z</time>
      </trkpt>
      <trkpt lat="47.17609" lon="-1.61015">
        <ele>3.14</ele>
        <time>2020-05-21T08:22:26Z</time>
      </trkpt>
      <trkpt lat="47.17621" lon="-1.61005">
        <ele>2.84</ele>
        <time>2020-05-21T08:22:28Z</time>
      </trkpt>
      <trkpt lat="47.17633" lon="-1.60993">
        <ele>2.7</ele>
        <time>2020-05-21T08:22:30Z</time>
      </trkpt>
      <trkpt lat="47.17646" lon="-1.60982">
        <ele>2.33</ele>
        <time>2020-05-21T08:22:32Z</time>
      </trkpt>
      <trkpt lat="47.17659" lon="-1.60971">
        <ele>1.84</ele>
        <time>2020-05-21T08:22:34Z</time>
      </trkpt>
      <trkpt lat="47.17674" lon="-1.60965">
        <ele>1.71</ele>
        <time>2020-05-21T08:22:36Z</time>
      </trkpt>
      <trkpt lat="47.17688" lon="-1.60968">
        <ele>1.09</ele>
        <time>2020-05-21T08:22:38Z</time>
      </trkpt>
      <trkpt lat="47.17697" lon="-1.60968">
        <ele>1.01</ele>
        <time>2020-05-21T08:22:40Z</time>
      </trkpt>
      <trkpt lat="47.17711" lon="-1.60965">
        <ele>1.73</ele>
        <time>2020-05-21T08:22:42Z</time>
      </trkpt>
      <trkpt lat="47.17723" lon="-1.60956">
        <ele>2.27</ele>
        <time>2020-05-21T08:22:44Z</time>
      </trkpt>
      <trkpt lat="47.17734" lon="-1.6095">
        <ele>2.25</ele>
        <time>2020-05-21T08:22:46Z</time>
      </trkpt>
      <trkpt lat="47.17746" lon="-1.60941">
        <ele>3.5</ele>
        <time>2020-05-21T08:22:48Z</time>
      </trkpt>
      <trkpt lat="47.17757" lon="-1.60933">
        <ele>3.55</ele>
        <time>2020-05-21T08:22:50Z</time>
      </trkpt>
      <trkpt lat="47.17769" lon="-1.60923">
        <ele>4.09</ele>
        <time>2020-05-21T08:22:52Z</time>
      </trkpt>
      <trkpt lat="47.17782" lon="-1.60913">
        <ele>3.66</ele>
        <time>2020-05-21T08:22:54Z</time>
      </trkpt>
      <trkpt lat="47.17794" lon="-1.60904">
        <ele>3.75</ele>
        <time>2020-05-21T08:22:56Z</time>
      </trkpt>
      <trkpt lat="47.17805" lon="-1.60895">
        <ele>3.99</ele>
        <time>2020-05-21T08:22:58Z</time>
      </trkpt>
      <trkpt lat="47.17816" lon="-1.60885">
        <ele>4.34</ele>
        <time>2020-05-21T08:23:00Z</time>
      </trkpt>
      <trkpt lat="47.17827" lon="-1.60869">
        <ele>4.5</ele>
        <time>2020-05-21T08:23:02Z</time>
      </trkpt>
      <trkpt lat="47.17836" lon="-1.60854">
        <ele>4.67</ele>
        <time>2020-05-21T08:23:04Z</time>
      </trkpt>
      <trkpt lat="47.17844" lon="-1.60837">
        <ele>5.83</ele>
        <time>2020-05-21T08:23:05Z</time>
      </trkpt>
      <trkpt lat="47.1785" lon="-1.60819">
        <ele>6.37</ele>
        <time>2020-05-21T08:23:07Z</time>
      </trkpt>
      <trkpt lat="47.17856" lon="-1.60799">
        <ele>6.63</ele>
        <time>2020-05-21T08:23:09Z</time>
      </trkpt>
      <trkpt lat="47.17861" lon="-1.60779">
        <ele>6.17</ele>
        <time>2020-05-21T08:23:11Z</time>
      </trkpt>
      <trkpt lat="47.17865" lon="-1.60761">
        <ele>6.98</ele>
        <time>2020-05-21T08:23:13Z</time>
      </trkpt>
      <trkpt lat="47.17869" lon="-1.60742">
        <ele>7.43</ele>
        <time>2020-05-21T08:23:15Z</time>
      </trkpt>
      <trkpt lat="47.17873" lon="-1.60723">
        <ele>7.54</ele>
        <time>2020-05-21T08:23:17Z</time>
      </trkpt>
      <trkpt lat="47.17878" lon="-1.60702">
        <ele>7.25</ele>
        <time>2020-05-21T08:23:19Z</time>
      </trkpt>
      <trkpt lat="47.17882" lon="-1.60684">
        <ele>6.65</ele>
        <time>2020-05-21T08:23:21Z</time>
      </trkpt>
      <trkpt lat="47.17887" lon="-1.60666">
        <ele>5.88</ele>
        <time>2020-05-21T08:23:23Z</time>
      </trkpt>
      <trkpt lat="47.17892" lon="-1.60651">
        <ele>6.2</ele>
        <time>2020-05-21T08:23:25Z</time>
      </trkpt>
      <trkpt lat="47.17898" lon="-1.60633">
        <ele>6.89</ele>
        <time>2020-05-21T08:23:27Z</time>
      </trkpt>
      <trkpt lat="47.17903" lon="-1.60616">
        <ele>6.58</ele>
        <time>2020-05-21T08:23:29Z</time>
      </trkpt>
      <trkpt lat="47.17907" lon="-1.60601">
        <ele>6.19</ele>
        <time>2020-05-21T08:23:31Z</time>
      </trkpt>
      <trkpt lat="47.17911" lon="-1.60586">
        <ele>5.79</ele>
        <time>2020-05-21T08:23:33Z</time>
      </trkpt>
      <trkpt lat="47.1792" lon="-1.6058">
        <ele>6.5</ele>
        <time>2020-05-21T08:23:35Z</time>
      </trkpt>
      <trkpt lat="47.1793" lon="-1.60581">
        <ele>6.67</ele>
        <time>2020-05-21T08:23:37Z</time>
      </trkpt>
      <trkpt lat="47.17943" lon="-1.60577">
        <ele>6.56</ele>
        <time>2020-05-21T08:23:39Z</time>
      </trkpt>
      <trkpt lat="47.17956" lon="-1.60573">
        <ele>7.09</ele>
        <time>2020-05-21T08:23:41Z</time>
      </trkpt>
      <trkpt lat="47.17968" lon="-1.60567">
        <ele>5.99</ele>
        <time>2020-05-21T08:23:44Z</time>
      </trkpt>
      <trkpt lat="47.17986" lon="-1.6056">
        <ele>5.75</ele>
        <time>2020-05-21T08:23:46Z</time>
      </trkpt>
      <trkpt lat="47.18" lon="-1.60554">
        <ele>5.82</ele>
        <time>2020-05-21T08:23:48Z</time>
      </trkpt>
      <trkpt lat="47.18015" lon="-1.6055">
        <ele>5.83</ele>
        <time>2020-05-21T08:23:50Z</time>
      </trkpt>
      <trkpt lat="47.1803" lon="-1.60551">
        <ele>6.1</ele>
        <time>2020-05-21T08:23:52Z</time>
      </trkpt>
      <trkpt lat="47.18044" lon="-1.60556">
        <ele>5.71</ele>
        <time>2020-05-21T08:23:54Z</time>
      </trkpt>
      <trkpt lat="47.18055" lon="-1.60563">
        <ele>4.78</ele>
        <time>2020-05-21T08:23:56Z</time>
      </trkpt>
      <trkpt lat="47.18068" lon="-1.60571">
        <ele>5.49</ele>
        <time>2020-05-21T08:23:58Z</time>
      </trkpt>
      <trkpt lat="47.18079" lon="-1.60578">
        <ele>5.66</ele>
        <time>2020-05-21T08:24:00Z</time>
      </trkpt>
      <trkpt lat="47.18091" lon="-1.60585">
        <ele>5.49</ele>
        <time>2020-05-21T08:24:02Z</time>
      </trkpt>
      <trkpt lat="47.18105" lon="-1.60592">
        <ele>5.28</ele>
        <time>2020-05-21T08:24:04Z</time>
      </trkpt>
      <trkpt lat="47.18118" lon="-1.60598">
        <ele>4.6</ele>
        <time>2020-05-21T08:24:06Z</time>
      </trkpt>
      <trkpt lat="47.18131" lon="-1.60602">
        <ele>3.51</ele>
        <time>2020-05-21T08:24:08Z</time>
      </trkpt>
      <trkpt lat="47.18142" lon="-1.60606">
        <ele>3.11</ele>
        <time>2020-05-21T08:24:10Z</time>
      </trkpt>
      <trkpt lat="47.18154" lon="-1.60607">
        <ele>3.96</ele>
        <time>2020-05-21T08:24:12Z</time>
      </trkpt>
      <trkpt lat="47.18167" lon="-1.60607">
        <ele>5.72</ele>
        <time>2020-05-21T08:24:14Z</time>
      </trkpt>
      <trkpt lat="47.18182" lon="-1.60605">
        <ele>5.49</ele>
        <time>2020-05-21T08:24:16Z</time>
      </trkpt>
      <trkpt lat="47.18191" lon="-1.60593">
        <ele>5.64</ele>
        <time>2020-05-21T08:24:18Z</time>
      </trkpt>
      <trkpt lat="47.18195" lon="-1.60577">
        <ele>5.82</ele>
        <time>2020-05-21T08:24:20Z</time>
      </trkpt>
      <trkpt lat="47.18206" lon="-1.6057">
        <ele>5.21</ele>
        <time>2020-05-21T08:24:22Z</time>
      </trkpt>
      <trkpt lat="47.18219" lon="-1.60566">
        <ele>4.43</ele>
        <time>2020-05-21T08:24:24Z</time>
      </trkpt>
      <trkpt lat="47.18231" lon="-1.60559">
        <ele>5.03</ele>
        <time>2020-05-21T08:24:26Z</time>
      </trkpt>
      <trkpt lat="47.18245" lon="-1.60551">
        <ele>5.56</ele>
        <time>2020-05-21T08:24:28Z</time>
      </trkpt>
      <trkpt lat="47.18257" lon="-1.60542">
        <ele>6.28</ele>
        <time>2020-05-21T08:24:30Z</time>
      </trkpt>
      <trkpt lat="47.18268" lon="-1.60532">
        <ele>6.19</ele>
        <time>2020-05-21T08:24:32Z</time>
      </trkpt>
      <trkpt lat="47.1828" lon="-1.6052">
        <ele>6.8</ele>
        <time>2020-05-21T08:24:34Z</time>
      </trkpt>
      <trkpt lat="47.18291" lon="-1.60509">
        <ele>6.41</ele>
        <time>2020-05-21T08:24:36Z</time>
      </trkpt>
      <trkpt lat="47.18301" lon="-1.60498">
        <ele>6.2</ele>
        <time>2020-05-21T08:24:38Z</time>
      </trkpt>
      <trkpt lat="47.18314" lon="-1.60484">
        <ele>5.73</ele>
        <time>2020-05-21T08:24:40Z</time>
      </trkpt>
      <trkpt lat="47.18325" lon="-1.6047">
        <ele>5.99</ele>
        <time>2020-05-21T08:24:42Z</time>
      </trkpt>
      <trkpt lat="47.18335" lon="-1.60458">
        <ele>5.78</ele>
        <time>2020-05-21T08:24:44Z</time>
      </trkpt>
      <trkpt lat="47.18345" lon="-1.60445">
        <ele>5.14</ele>
        <time>2020-05-21T08:24:46Z</time>
      </trkpt>
      <trkpt lat="47.18356" lon="-1.60432">
        <ele>5.11</ele>
        <time>2020-05-21T08:24:48Z</time>
      </trkpt>
      <trkpt lat="47.18366" lon="-1.60419">
        <ele>5.28</ele>
        <time>2020-05-21T08:24:50Z</time>
      </trkpt>
      <trkpt lat="47.18376" lon="-1.60407">
        <ele>5.47</ele>
        <time>2020-05-21T08:24:52Z</time>
      </trkpt>
      <trkpt lat="47.18385" lon="-1.60394">
        <ele>5.17</ele>
        <time>2020-05-21T08:24:54Z</time>
      </trkpt>
      <trkpt lat="47.18393" lon="-1.60382">
        <ele>4.8</ele>
        <time>2020-05-21T08:24:56Z</time>
      </trkpt>
      <trkpt lat="47.18402" lon="-1.60369">
        <ele>5.04</ele>
        <time>2020-05-21T08:24:58Z</time>
      </trkpt>
      <trkpt lat="47.18412" lon="-1.60356">
        <ele>5.12</ele>
        <time>2020-05-21T08:25:00Z</time>
      </trkpt>
      <trkpt lat="47.18422" lon="-1.60342">
        <ele>5.03</ele>
        <time>2020-05-21T08:25:02Z</time>
      </trkpt>
      <trkpt lat="47.18432" lon="-1.60329">
        <ele>5.75</ele>
        <time>2020-05-21T08:25:04Z</time>
      </trkpt>
      <trkpt lat="47.18442" lon="-1.60313">
        <ele>6.18</ele>
        <time>2020-05-21T08:25:06Z</time>
      </trkpt>
      <trkpt lat="47.18452" lon="-1.60299">
        <ele>6.51</ele>
        <time>2020-05-21T08:25:08Z</time>
      </trkpt>
      <trkpt lat="47.1846" lon="-1.60285">
        <ele>6.71</ele>
        <time>2020-05-21T08:25:10Z</time>
      </trkpt>
      <trkpt lat="47.18469" lon="-1.6027">
        <ele>6.7</ele>
        <time>2020-05-21T08:25:12Z</time>
      </trkpt>
      <trkpt lat="47.18477" lon="-1.60255">
        <ele>6.43</ele>
        <time>2020-05-21T08:25:14Z</time>
      </trkpt>
      <trkpt lat="47.18484" lon="-1.60239">
        <ele>5.57</ele>
        <time>2020-05-21T08:25:16Z</time>
      </trkpt>
      <trkpt lat="47.18491" lon="-1.60225">
        <ele>5.72</ele>
        <time>2020-05-21T08:25:18Z</time>
      </trkpt>
      <trkpt lat="47.185" lon="-1.60209">
        <ele>6.02</ele>
        <time>2020-05-21T08:25:20Z</time>
      </trkpt>
      <trkpt lat="47.18509" lon="-1.60192">
        <ele>5.92</ele>
        <time>2020-05-21T08:25:22Z</time>
      </trkpt>
      <trkpt lat="47.18517" lon="-1.60175">
        <ele>5.58</ele>
        <time>2020-05-21T08:25:24Z</time>
      </trkpt>
      <trkpt lat="47.18525" lon="-1.60158">
        <ele>5.09</ele>
        <time>2020-05-21T08:25:26Z</time>
      </trkpt>
      <trkpt lat="47.18532" lon="-1.60143">
        <ele>5.13</ele>
        <time>2020-05-21T08:25:28Z</time>
      </trkpt>
      <trkpt lat="47.18539" lon="-1.60128">
        <ele>5.9</ele>
        <time>2020-05-21T08:25:30Z</time>
      </trkpt>
      <trkpt lat="47.18546" lon="-1.6011">
        <ele>6.51</ele>
        <time>2020-05-21T08:25:32Z</time>
      </trkpt>
      <trkpt lat="47.18553" lon="-1.60093">
        <ele>6.72</ele>
        <time>2020-05-21T08:25:34Z</time>
      </trkpt>
      <trkpt lat="47.18559" lon="-1.60079">
        <ele>6</ele>
        <time>2020-05-21T08:25:36Z</time>
      </trkpt>
      <trkpt lat="47.18566" lon="-1.60061">
        <ele>5.48</ele>
        <time>2020-05-21T08:25:38Z</time>
      </trkpt>
      <trkpt lat="47.18573" lon="-1.60043">
        <ele>5.22</ele>
        <time>2020-05-21T08:25:40Z</time>
      </trkpt>
      <trkpt lat="47.18578" lon="-1.60028">
        <ele>5.62</ele>
        <time>2020-05-21T08:25:42Z</time>
      </trkpt>
      <trkpt lat="47.18585" lon="-1.60011">
        <ele>5.04</ele>
        <time>2020-05-21T08:25:44Z</time>
      </trkpt>
      <trkpt lat="47.1859" lon="-1.59995">
        <ele>4.95</ele>
        <time>2020-05-21T08:25:46Z</time>
      </trkpt>
      <trkpt lat="47.18596" lon="-1.59976">
        <ele>4.52</ele>
        <time>2020-05-21T08:25:48Z</time>
      </trkpt>
      <trkpt lat="47.186" lon="-1.59959">
        <ele>4.08</ele>
        <time>2020-05-21T08:25:50Z</time>
      </trkpt>
      <trkpt lat="47.18606" lon="-1.59941">
        <ele>4.46</ele>
        <time>2020-05-21T08:25:52Z</time>
      </trkpt>
      <trkpt lat="47.1861" lon="-1.59924">
        <ele>4.08</ele>
        <time>2020-05-21T08:25:54Z</time>
      </trkpt>
      <trkpt lat="47.18614" lon="-1.59907">
        <ele>3.85</ele>
        <time>2020-05-21T08:25:56Z</time>
      </trkpt>
      <trkpt lat="47.18619" lon="-1.59888">
        <ele>4.21</ele>
        <time>2020-05-21T08:25:58Z</time>
      </trkpt>
      <trkpt lat="47.18623" lon="-1.59873">
        <ele>4.11</ele>
        <time>2020-05-21T08:26:00Z</time>
      </trkpt>
      <trkpt lat="47.18623" lon="-1.59856">
        <ele>4.5</ele>
        <time>2020-05-21T08:26:02Z</time>
      </trkpt>
      <trkpt lat="47.18617" lon="-1.59837">
        <ele>4.02</ele>
        <time>2020-05-21T08:26:04Z</time>
      </trkpt>
      <trkpt lat="47.18619" lon="-1.5982">
        <ele>3.63</ele>
        <time>2020-05-21T08:26:06Z</time>
      </trkpt>
      <trkpt lat="47.18627" lon="-1.59808">
        <ele>3.54</ele>
        <time>2020-05-21T08:26:08Z</time>
      </trkpt>
      <trkpt lat="47.1863" lon="-1.5979">
        <ele>4</ele>
        <time>2020-05-21T08:26:10Z</time>
      </trkpt>
      <trkpt lat="47.18637" lon="-1.59771">
        <ele>4.68</ele>
        <time>2020-05-21T08:26:12Z</time>
      </trkpt>
      <trkpt lat="47.18645" lon="-1.59755">
        <ele>4.9</ele>
        <time>2020-05-21T08:26:14Z</time>
      </trkpt>
      <trkpt lat="47.18654" lon="-1.5974">
        <ele>4.55</ele>
        <time>2020-05-21T08:26:16Z</time>
      </trkpt>
      <trkpt lat="47.18658" lon="-1.5972">
        <ele>4.5</ele>
        <time>2020-05-21T08:26:18Z</time>
      </trkpt>
      <trkpt lat="47.18661" lon="-1.59701">
        <ele>5.06</ele>
        <time>2020-05-21T08:26:20Z</time>
      </trkpt>
      <trkpt lat="47.18664" lon="-1.59682">
        <ele>5.42</ele>
        <time>2020-05-21T08:26:22Z</time>
      </trkpt>
      <trkpt lat="47.18668" lon="-1.59663">
        <ele>5.81</ele>
        <time>2020-05-21T08:26:24Z</time>
      </trkpt>
      <trkpt lat="47.18672" lon="-1.59646">
        <ele>5.92</ele>
        <time>2020-05-21T08:26:26Z</time>
      </trkpt>
      <trkpt lat="47.18676" lon="-1.59626">
        <ele>6.29</ele>
        <time>2020-05-21T08:26:28Z</time>
      </trkpt>
      <trkpt lat="47.1868" lon="-1.59605">
        <ele>5.53</ele>
        <time>2020-05-21T08:26:30Z</time>
      </trkpt>
      <trkpt lat="47.18682" lon="-1.59585">
        <ele>4.35</ele>
        <time>2020-05-21T08:26:32Z</time>
      </trkpt>
      <trkpt lat="47.18685" lon="-1.59565">
        <ele>3.6</ele>
        <time>2020-05-21T08:26:34Z</time>
      </trkpt>
      <trkpt lat="47.18687" lon="-1.59547">
        <ele>3.79</ele>
        <time>2020-05-21T08:26:36Z</time>
      </trkpt>
      <trkpt lat="47.18689" lon="-1.59525">
        <ele>4.39</ele>
        <time>2020-05-21T08:26:38Z</time>
      </trkpt>
      <trkpt lat="47.18691" lon="-1.59506">
        <ele>4.74</ele>
        <time>2020-05-21T08:26:40Z</time>
      </trkpt>
      <trkpt lat="47.18693" lon="-1.59487">
        <ele>5.11</ele>
        <time>2020-05-21T08:26:42Z</time>
      </trkpt>
      <trkpt lat="47.18696" lon="-1.59467">
        <ele>5.75</ele>
        <time>2020-05-21T08:26:44Z</time>
      </trkpt>
      <trkpt lat="47.18699" lon="-1.59444">
        <ele>5.18</ele>
        <time>2020-05-21T08:26:46Z</time>
      </trkpt>
      <trkpt lat="47.187" lon="-1.59427">
        <ele>4.54</ele>
        <time>2020-05-21T08:26:48Z</time>
      </trkpt>
      <trkpt lat="47.18703" lon="-1.59406">
        <ele>4.77</ele>
        <time>2020-05-21T08:26:50Z</time>
      </trkpt>
      <trkpt lat="47.18704" lon="-1.59387">
        <ele>5.3</ele>
        <time>2020-05-21T08:26:52Z</time>
      </trkpt>
      <trkpt lat="47.18706" lon="-1.5937">
        <ele>5.6</ele>
        <time>2020-05-21T08:26:54Z</time>
      </trkpt>
      <trkpt lat="47.18708" lon="-1.59347">
        <ele>5.74</ele>
        <time>2020-05-21T08:26:56Z</time>
      </trkpt>
      <trkpt lat="47.1871" lon="-1.59329">
        <ele>6.05</ele>
        <time>2020-05-21T08:26:58Z</time>
      </trkpt>
      <trkpt lat="47.18712" lon="-1.5931">
        <ele>5.25</ele>
        <time>2020-05-21T08:27:00Z</time>
      </trkpt>
      <trkpt lat="47.18715" lon="-1.59288">
        <ele>4.62</ele>
        <time>2020-05-21T08:27:02Z</time>
      </trkpt>
      <trkpt lat="47.18717" lon="-1.59267">
        <ele>4.29</ele>
        <time>2020-05-21T08:27:04Z</time>
      </trkpt>
      <trkpt lat="47.18719" lon="-1.59247">
        <ele>4.89</ele>
        <time>2020-05-21T08:27:06Z</time>
      </trkpt>
      <trkpt lat="47.18721" lon="-1.59231">
        <ele>5.74</ele>
        <time>2020-05-21T08:27:08Z</time>
      </trkpt>
      <trkpt lat="47.18722" lon="-1.59213">
        <ele>5.62</ele>
        <time>2020-05-21T08:27:10Z</time>
      </trkpt>
      <trkpt lat="47.18724" lon="-1.59193">
        <ele>5.79</ele>
        <time>2020-05-21T08:27:12Z</time>
      </trkpt>
      <trkpt lat="47.18725" lon="-1.59174">
        <ele>5.71</ele>
        <time>2020-05-21T08:27:14Z</time>
      </trkpt>
      <trkpt lat="47.18727" lon="-1.59153">
        <ele>5.51</ele>
        <time>2020-05-21T08:27:16Z</time>
      </trkpt>
      <trkpt lat="47.1873" lon="-1.59133">
        <ele>5.49</ele>
        <time>2020-05-21T08:27:18Z</time>
      </trkpt>
      <trkpt lat="47.18732" lon="-1.59116">
        <ele>5.24</ele>
        <time>2020-05-21T08:27:20Z</time>
      </trkpt>
      <trkpt lat="47.18735" lon="-1.59095">
        <ele>4.62</ele>
        <time>2020-05-21T08:27:22Z</time>
      </trkpt>
      <trkpt lat="47.18737" lon="-1.59074">
        <ele>4.2</ele>
        <time>2020-05-21T08:27:24Z</time>
      </trkpt>
      <trkpt lat="47.1874" lon="-1.59052">
        <ele>3.38</ele>
        <time>2020-05-21T08:27:26Z</time>
      </trkpt>
      <trkpt lat="47.18741" lon="-1.59034">
        <ele>2.68</ele>
        <time>2020-05-21T08:27:28Z</time>
      </trkpt>
      <trkpt lat="47.18743" lon="-1.59015">
        <ele>2.91</ele>
        <time>2020-05-21T08:27:30Z</time>
      </trkpt>
      <trkpt lat="47.18745" lon="-1.58995">
        <ele>3.13</ele>
        <time>2020-05-21T08:27:32Z</time>
      </trkpt>
      <trkpt lat="47.18749" lon="-1.58975">
        <ele>4.3</ele>
        <time>2020-05-21T08:27:34Z</time>
      </trkpt>
      <trkpt lat="47.18751" lon="-1.58956">
        <ele>5.44</ele>
        <time>2020-05-21T08:27:36Z</time>
      </trkpt>
      <trkpt lat="47.18753" lon="-1.58936">
        <ele>5.82</ele>
        <time>2020-05-21T08:27:38Z</time>
      </trkpt>
      <trkpt lat="47.18756" lon="-1.58918">
        <ele>5.42</ele>
        <time>2020-05-21T08:27:40Z</time>
      </trkpt>
      <trkpt lat="47.18759" lon="-1.58896">
        <ele>5.28</ele>
        <time>2020-05-21T08:27:42Z</time>
      </trkpt>
      <trkpt lat="47.18761" lon="-1.58878">
        <ele>4.87</ele>
        <time>2020-05-21T08:27:44Z</time>
      </trkpt>
      <trkpt lat="47.18763" lon="-1.58858">
        <ele>4.78</ele>
        <time>2020-05-21T08:27:46Z</time>
      </trkpt>
      <trkpt lat="47.18765" lon="-1.5884">
        <ele>5.31</ele>
        <time>2020-05-21T08:27:48Z</time>
      </trkpt>
      <trkpt lat="47.18766" lon="-1.58821">
        <ele>5.73</ele>
        <time>2020-05-21T08:27:50Z</time>
      </trkpt>
      <trkpt lat="47.18767" lon="-1.588">
        <ele>5.18</ele>
        <time>2020-05-21T08:27:52Z</time>
      </trkpt>
      <trkpt lat="47.18767" lon="-1.58778">
        <ele>4.93</ele>
        <time>2020-05-21T08:27:54Z</time>
      </trkpt>
      <trkpt lat="47.18761" lon="-1.58759">
        <ele>5.14</ele>
        <time>2020-05-21T08:27:56Z</time>
      </trkpt>
      <trkpt lat="47.1876" lon="-1.58739">
        <ele>5.98</ele>
        <time>2020-05-21T08:27:58Z</time>
      </trkpt>
      <trkpt lat="47.18765" lon="-1.58722">
        <ele>6.2</ele>
        <time>2020-05-21T08:28:00Z</time>
      </trkpt>
      <trkpt lat="47.18775" lon="-1.58704">
        <ele>6.33</ele>
        <time>2020-05-21T08:28:02Z</time>
      </trkpt>
      <trkpt lat="47.18785" lon="-1.5869">
        <ele>6.96</ele>
        <time>2020-05-21T08:28:04Z</time>
      </trkpt>
      <trkpt lat="47.18789" lon="-1.5867">
        <ele>7.56</ele>
        <time>2020-05-21T08:28:06Z</time>
      </trkpt>
      <trkpt lat="47.18794" lon="-1.5865">
        <ele>7.66</ele>
        <time>2020-05-21T08:28:08Z</time>
      </trkpt>
      <trkpt lat="47.18797" lon="-1.58633">
        <ele>7.49</ele>
        <time>2020-05-21T08:28:10Z</time>
      </trkpt>
      <trkpt lat="47.18802" lon="-1.58615">
        <ele>8.41</ele>
        <time>2020-05-21T08:28:12Z</time>
      </trkpt>
      <trkpt lat="47.18807" lon="-1.58597">
        <ele>8.25</ele>
        <time>2020-05-21T08:28:14Z</time>
      </trkpt>
      <trkpt lat="47.18811" lon="-1.58579">
        <ele>6.44</ele>
        <time>2020-05-21T08:28:16Z</time>
      </trkpt>
      <trkpt lat="47.18817" lon="-1.5856">
        <ele>5.48</ele>
        <time>2020-05-21T08:28:18Z</time>
      </trkpt>
      <trkpt lat="47.18822" lon="-1.58541">
        <ele>5.26</ele>
        <time>2020-05-21T08:28:20Z</time>
      </trkpt>
      <trkpt lat="47.18828" lon="-1.58521">
        <ele>5</ele>
        <time>2020-05-21T08:28:22Z</time>
      </trkpt>
      <trkpt lat="47.18835" lon="-1.58501">
        <ele>4.91</ele>
        <time>2020-05-21T08:28:24Z</time>
      </trkpt>
      <trkpt lat="47.1884" lon="-1.58483">
        <ele>4.93</ele>
        <time>2020-05-21T08:28:26Z</time>
      </trkpt>
      <trkpt lat="47.18845" lon="-1.58468">
        <ele>5.82</ele>
        <time>2020-05-21T08:28:28Z</time>
      </trkpt>
      <trkpt lat="47.18851" lon="-1.58449">
        <ele>6.19</ele>
        <time>2020-05-21T08:28:30Z</time>
      </trkpt>
      <trkpt lat="47.18857" lon="-1.58428">
        <ele>6.02</ele>
        <time>2020-05-21T08:28:32Z</time>
      </trkpt>
      <trkpt lat="47.18862" lon="-1.5841">
        <ele>4.93</ele>
        <time>2020-05-21T08:28:34Z</time>
      </trkpt>
      <trkpt lat="47.18867" lon="-1.58393">
        <ele>3.55</ele>
        <time>2020-05-21T08:28:36Z</time>
      </trkpt>
      <trkpt lat="47.18873" lon="-1.58376">
        <ele>3.32</ele>
        <time>2020-05-21T08:28:38Z</time>
      </trkpt>
      <trkpt lat="47.18879" lon="-1.58358">
        <ele>3.63</ele>
        <time>2020-05-21T08:28:40Z</time>
      </trkpt>
      <trkpt lat="47.18885" lon="-1.5834">
        <ele>4.32</ele>
        <time>2020-05-21T08:28:42Z</time>
      </trkpt>
      <trkpt lat="47.18891" lon="-1.58322">
        <ele>4.83</ele>
        <time>2020-05-21T08:28:44Z</time>
      </trkpt>
      <trkpt lat="47.18897" lon="-1.58305">
        <ele>4.58</ele>
        <time>2020-05-21T08:28:46Z</time>
      </trkpt>
      <trkpt lat="47.18903" lon="-1.58288">
        <ele>4.47</ele>
        <time>2020-05-21T08:28:48Z</time>
      </trkpt>
      <trkpt lat="47.1891" lon="-1.58269">
        <ele>4.85</ele>
        <time>2020-05-21T08:28:50Z</time>
      </trkpt>
      <trkpt lat="47.18916" lon="-1.58252">
        <ele>5.24</ele>
        <time>2020-05-21T08:28:52Z</time>
      </trkpt>
      <trkpt lat="47.18923" lon="-1.58232">
        <ele>5.38</ele>
        <time>2020-05-21T08:28:54Z</time>
      </trkpt>
      <trkpt lat="47.1893" lon="-1.58215">
        <ele>6.26</ele>
        <time>2020-05-21T08:28:56Z</time>
      </trkpt>
      <trkpt lat="47.18938" lon="-1.58196">
        <ele>7.47</ele>
        <time>2020-05-21T08:28:58Z</time>
      </trkpt>
      <trkpt lat="47.18944" lon="-1.58179">
        <ele>8.37</ele>
        <time>2020-05-21T08:29:00Z</time>
      </trkpt>
      <trkpt lat="47.18951" lon="-1.5816">
        <ele>7.91</ele>
        <time>2020-05-21T08:29:02Z</time>
      </trkpt>
      <trkpt lat="47.18957" lon="-1.58142">
        <ele>6.65</ele>
        <time>2020-05-21T08:29:04Z</time>
      </trkpt>
      <trkpt lat="47.18963" lon="-1.58124">
        <ele>5.96</ele>
        <time>2020-05-21T08:29:06Z</time>
      </trkpt>
      <trkpt lat="47.18968" lon="-1.58106">
        <ele>4.93</ele>
        <time>2020-05-21T08:29:08Z</time>
      </trkpt>
      <trkpt lat="47.18975" lon="-1.58087">
        <ele>4.55</ele>
        <time>2020-05-21T08:29:10Z</time>
      </trkpt>
      <trkpt lat="47.18981" lon="-1.58069">
        <ele>4.5</ele>
        <time>2020-05-21T08:29:12Z</time>
      </trkpt>
      <trkpt lat="47.18988" lon="-1.5805">
        <ele>4.59</ele>
        <time>2020-05-21T08:29:14Z</time>
      </trkpt>
      <trkpt lat="47.18995" lon="-1.58031">
        <ele>5.72</ele>
        <time>2020-05-21T08:29:16Z</time>
      </trkpt>
      <trkpt lat="47.19002" lon="-1.58013">
        <ele>6.86</ele>
        <time>2020-05-21T08:29:18Z</time>
      </trkpt>
      <trkpt lat="47.19009" lon="-1.57995">
        <ele>7.21</ele>
        <time>2020-05-21T08:29:20Z</time>
      </trkpt>
      <trkpt lat="47.19016" lon="-1.57976">
        <ele>7.06</ele>
        <time>2020-05-21T08:29:22Z</time>
      </trkpt>
      <trkpt lat="47.19022" lon="-1.57958">
        <ele>7.1</ele>
        <time>2020-05-21T08:29:24Z</time>
      </trkpt>
      <trkpt lat="47.19029" lon="-1.5794">
        <ele>7.12</ele>
        <time>2020-05-21T08:29:26Z</time>
      </trkpt>
      <trkpt lat="47.19035" lon="-1.57923">
        <ele>6.74</ele>
        <time>2020-05-21T08:29:28Z</time>
      </trkpt>
      <trkpt lat="47.19043" lon="-1.57902">
        <ele>6.49</ele>
        <time>2020-05-21T08:29:30Z</time>
      </trkpt>
      <trkpt lat="47.1905" lon="-1.57883">
        <ele>6.81</ele>
        <time>2020-05-21T08:29:32Z</time>
      </trkpt>
      <trkpt lat="47.19056" lon="-1.57865">
        <ele>6.98</ele>
        <time>2020-05-21T08:29:34Z</time>
      </trkpt>
      <trkpt lat="47.19062" lon="-1.57847">
        <ele>6.88</ele>
        <time>2020-05-21T08:29:36Z</time>
      </trkpt>
      <trkpt lat="47.19069" lon="-1.57828">
        <ele>6.67</ele>
        <time>2020-05-21T08:29:38Z</time>
      </trkpt>
      <trkpt lat="47.19076" lon="-1.57809">
        <ele>6.53</ele>
        <time>2020-05-21T08:29:40Z</time>
      </trkpt>
      <trkpt lat="47.19082" lon="-1.57791">
        <ele>6.86</ele>
        <time>2020-05-21T08:29:42Z</time>
      </trkpt>
      <trkpt lat="47.19088" lon="-1.57775">
        <ele>6.89</ele>
        <time>2020-05-21T08:29:44Z</time>
      </trkpt>
      <trkpt lat="47.19095" lon="-1.57756">
        <ele>7.06</ele>
        <time>2020-05-21T08:29:46Z</time>
      </trkpt>
      <trkpt lat="47.19102" lon="-1.57736">
        <ele>6.71</ele>
        <time>2020-05-21T08:29:48Z</time>
      </trkpt>
      <trkpt lat="47.19109" lon="-1.57718">
        <ele>6.98</ele>
        <time>2020-05-21T08:29:50Z</time>
      </trkpt>
      <trkpt lat="47.19115" lon="-1.57699">
        <ele>7.08</ele>
        <time>2020-05-21T08:29:52Z</time>
      </trkpt>
      <trkpt lat="47.19122" lon="-1.5768">
        <ele>6.97</ele>
        <time>2020-05-21T08:29:54Z</time>
      </trkpt>
      <trkpt lat="47.19128" lon="-1.57663">
        <ele>6.26</ele>
        <time>2020-05-21T08:29:56Z</time>
      </trkpt>
      <trkpt lat="47.19134" lon="-1.57645">
        <ele>5.27</ele>
        <time>2020-05-21T08:29:58Z</time>
      </trkpt>
      <trkpt lat="47.1914" lon="-1.57627">
        <ele>4.34</ele>
        <time>2020-05-21T08:30:00Z</time>
      </trkpt>
      <trkpt lat="47.19147" lon="-1.57609">
        <ele>4.71</ele>
        <time>2020-05-21T08:30:02Z</time>
      </trkpt>
      <trkpt lat="47.19154" lon="-1.57591">
        <ele>4.71</ele>
        <time>2020-05-21T08:30:04Z</time>
      </trkpt>
      <trkpt lat="47.19161" lon="-1.57571">
        <ele>5.14</ele>
        <time>2020-05-21T08:30:06Z</time>
      </trkpt>
      <trkpt lat="47.19166" lon="-1.57554">
        <ele>6.05</ele>
        <time>2020-05-21T08:30:08Z</time>
      </trkpt>
      <trkpt lat="47.19173" lon="-1.57536">
        <ele>6.24</ele>
        <time>2020-05-21T08:30:10Z</time>
      </trkpt>
      <trkpt lat="47.19179" lon="-1.57515">
        <ele>6.6</ele>
        <time>2020-05-21T08:30:12Z</time>
      </trkpt>
      <trkpt lat="47.19184" lon="-1.57499">
        <ele>6.6</ele>
        <time>2020-05-21T08:30:14Z</time>
      </trkpt>
      <trkpt lat="47.19189" lon="-1.5748">
        <ele>7.54</ele>
        <time>2020-05-21T08:30:16Z</time>
      </trkpt>
      <trkpt lat="47.19195" lon="-1.57461">
        <ele>7.27</ele>
        <time>2020-05-21T08:30:18Z</time>
      </trkpt>
      <trkpt lat="47.192" lon="-1.57442">
        <ele>6.14</ele>
        <time>2020-05-21T08:30:20Z</time>
      </trkpt>
      <trkpt lat="47.19206" lon="-1.57424">
        <ele>5.71</ele>
        <time>2020-05-21T08:30:22Z</time>
      </trkpt>
      <trkpt lat="47.19211" lon="-1.57405">
        <ele>6.53</ele>
        <time>2020-05-21T08:30:24Z</time>
      </trkpt>
      <trkpt lat="47.19216" lon="-1.57387">
        <ele>6.79</ele>
        <time>2020-05-21T08:30:26Z</time>
      </trkpt>
      <trkpt lat="47.19221" lon="-1.57368">
        <ele>6.52</ele>
        <time>2020-05-21T08:30:28Z</time>
      </trkpt>
      <trkpt lat="47.19226" lon="-1.57348">
        <ele>6.24</ele>
        <time>2020-05-21T08:30:30Z</time>
      </trkpt>
      <trkpt lat="47.19231" lon="-1.57327">
        <ele>6.32</ele>
        <time>2020-05-21T08:30:32Z</time>
      </trkpt>
      <trkpt lat="47.19235" lon="-1.57311">
        <ele>7.4</ele>
        <time>2020-05-21T08:30:34Z</time>
      </trkpt>
      <trkpt lat="47.19238" lon="-1.57291">
        <ele>7.91</ele>
        <time>2020-05-21T08:30:36Z</time>
      </trkpt>
      <trkpt lat="47.19241" lon="-1.57271">
        <ele>7.96</ele>
        <time>2020-05-21T08:30:38Z</time>
      </trkpt>
      <trkpt lat="47.19243" lon="-1.57252">
        <ele>7.17</ele>
        <time>2020-05-21T08:30:40Z</time>
      </trkpt>
      <trkpt lat="47.19245" lon="-1.57234">
        <ele>5.8</ele>
        <time>2020-05-21T08:30:42Z</time>
      </trkpt>
      <trkpt lat="47.19247" lon="-1.57215">
        <ele>5.45</ele>
        <time>2020-05-21T08:30:44Z</time>
      </trkpt>
      <trkpt lat="47.19249" lon="-1.57197">
        <ele>4.62</ele>
        <time>2020-05-21T08:30:46Z</time>
      </trkpt>
      <trkpt lat="47.19251" lon="-1.5718">
        <ele>4.44</ele>
        <time>2020-05-21T08:30:48Z</time>
      </trkpt>
      <trkpt lat="47.19253" lon="-1.5716">
        <ele>4.56</ele>
        <time>2020-05-21T08:30:50Z</time>
      </trkpt>
      <trkpt lat="47.19256" lon="-1.5714">
        <ele>4.49</ele>
        <time>2020-05-21T08:30:52Z</time>
      </trkpt>
      <trkpt lat="47.19258" lon="-1.57122">
        <ele>5.11</ele>
        <time>2020-05-21T08:30:54Z</time>
      </trkpt>
      <trkpt lat="47.19261" lon="-1.571">
        <ele>6.06</ele>
        <time>2020-05-21T08:30:56Z</time>
      </trkpt>
      <trkpt lat="47.19263" lon="-1.5708">
        <ele>6.24</ele>
        <time>2020-05-21T08:30:58Z</time>
      </trkpt>
      <trkpt lat="47.1926" lon="-1.57061">
        <ele>5.31</ele>
        <time>2020-05-21T08:31:00Z</time>
      </trkpt>
      <trkpt lat="47.1926" lon="-1.57041">
        <ele>3.95</ele>
        <time>2020-05-21T08:31:02Z</time>
      </trkpt>
      <trkpt lat="47.19266" lon="-1.57025">
        <ele>3.04</ele>
        <time>2020-05-21T08:31:04Z</time>
      </trkpt>
      <trkpt lat="47.19273" lon="-1.57009">
        <ele>2.39</ele>
        <time>2020-05-21T08:31:06Z</time>
      </trkpt>
      <trkpt lat="47.19275" lon="-1.56987">
        <ele>2.19</ele>
        <time>2020-05-21T08:31:08Z</time>
      </trkpt>
      <trkpt lat="47.19277" lon="-1.56966">
        <ele>3.47</ele>
        <time>2020-05-21T08:31:10Z</time>
      </trkpt>
      <trkpt lat="47.1928" lon="-1.56947">
        <ele>4.37</ele>
        <time>2020-05-21T08:31:12Z</time>
      </trkpt>
      <trkpt lat="47.19282" lon="-1.56927">
        <ele>3.81</ele>
        <time>2020-05-21T08:31:14Z</time>
      </trkpt>
      <trkpt lat="47.19284" lon="-1.56907">
        <ele>3.48</ele>
        <time>2020-05-21T08:31:16Z</time>
      </trkpt>
      <trkpt lat="47.19285" lon="-1.56887">
        <ele>3.26</ele>
        <time>2020-05-21T08:31:18Z</time>
      </trkpt>
      <trkpt lat="47.19287" lon="-1.56865">
        <ele>3.14</ele>
        <time>2020-05-21T08:31:20Z</time>
      </trkpt>
      <trkpt lat="47.19288" lon="-1.56846">
        <ele>3.61</ele>
        <time>2020-05-21T08:31:22Z</time>
      </trkpt>
      <trkpt lat="47.19289" lon="-1.56823">
        <ele>4.66</ele>
        <time>2020-05-21T08:31:24Z</time>
      </trkpt>
      <trkpt lat="47.19291" lon="-1.568">
        <ele>5.33</ele>
        <time>2020-05-21T08:31:26Z</time>
      </trkpt>
      <trkpt lat="47.19292" lon="-1.56779">
        <ele>5.63</ele>
        <time>2020-05-21T08:31:28Z</time>
      </trkpt>
      <trkpt lat="47.19292" lon="-1.56758">
        <ele>5.19</ele>
        <time>2020-05-21T08:31:30Z</time>
      </trkpt>
      <trkpt lat="47.19293" lon="-1.56737">
        <ele>4.87</ele>
        <time>2020-05-21T08:31:32Z</time>
      </trkpt>
      <trkpt lat="47.19292" lon="-1.56718">
        <ele>5.42</ele>
        <time>2020-05-21T08:31:34Z</time>
      </trkpt>
      <trkpt lat="47.19291" lon="-1.56698">
        <ele>6.25</ele>
        <time>2020-05-21T08:31:36Z</time>
      </trkpt>
      <trkpt lat="47.1929" lon="-1.56675">
        <ele>6.68</ele>
        <time>2020-05-21T08:31:38Z</time>
      </trkpt>
      <trkpt lat="47.19288" lon="-1.56656">
        <ele>6.9</ele>
        <time>2020-05-21T08:31:40Z</time>
      </trkpt>
      <trkpt lat="47.19286" lon="-1.56632">
        <ele>6.49</ele>
        <time>2020-05-21T08:31:42Z</time>
      </trkpt>
      <trkpt lat="47.19284" lon="-1.56612">
        <ele>6.32</ele>
        <time>2020-05-21T08:31:44Z</time>
      </trkpt>
      <trkpt lat="47.19282" lon="-1.56593">
        <ele>6.53</ele>
        <time>2020-05-21T08:31:46Z</time>
      </trkpt>
      <trkpt lat="47.1928" lon="-1.56573">
        <ele>6.3</ele>
        <time>2020-05-21T08:31:48Z</time>
      </trkpt>
      <trkpt lat="47.19278" lon="-1.5655">
        <ele>5.99</ele>
        <time>2020-05-21T08:31:50Z</time>
      </trkpt>
      <trkpt lat="47.19276" lon="-1.56529">
        <ele>7.07</ele>
        <time>2020-05-21T08:31:52Z</time>
      </trkpt>
      <trkpt lat="47.19274" lon="-1.56511">
        <ele>7.82</ele>
        <time>2020-05-21T08:31:54Z</time>
      </trkpt>
      <trkpt lat="47.19272" lon="-1.56489">
        <ele>8.73</ele>
        <time>2020-05-21T08:31:56Z</time>
      </trkpt>
      <trkpt lat="47.1927" lon="-1.56469">
        <ele>9.27</ele>
        <time>2020-05-21T08:31:58Z</time>
      </trkpt>
      <trkpt lat="47.19267" lon="-1.56448">
        <ele>9.29</ele>
        <time>2020-05-21T08:32:00Z</time>
      </trkpt>
      <trkpt lat="47.19265" lon="-1.56426">
        <ele>9.39</ele>
        <time>2020-05-21T08:32:02Z</time>
      </trkpt>
      <trkpt lat="47.19263" lon="-1.56408">
        <ele>9.3</ele>
        <time>2020-05-21T08:32:04Z</time>
      </trkpt>
      <trkpt lat="47.19263" lon="-1.56389">
        <ele>9.81</ele>
        <time>2020-05-21T08:32:06Z</time>
      </trkpt>
      <trkpt lat="47.19261" lon="-1.56369">
        <ele>10.04</ele>
        <time>2020-05-21T08:32:08Z</time>
      </trkpt>
      <trkpt lat="47.19258" lon="-1.56349">
        <ele>9.93</ele>
        <time>2020-05-21T08:32:11Z</time>
      </trkpt>
      <trkpt lat="47.19254" lon="-1.56332">
        <ele>9.55</ele>
        <time>2020-05-21T08:32:12Z</time>
      </trkpt>
      <trkpt lat="47.19244" lon="-1.56318">
        <ele>9.49</ele>
        <time>2020-05-21T08:32:14Z</time>
      </trkpt>
      <trkpt lat="47.19235" lon="-1.56302">
        <ele>9.43</ele>
        <time>2020-05-21T08:32:16Z</time>
      </trkpt>
      <trkpt lat="47.19232" lon="-1.56282">
        <ele>8.06</ele>
        <time>2020-05-21T08:32:19Z</time>
      </trkpt>
      <trkpt lat="47.19235" lon="-1.56266">
        <ele>8.24</ele>
        <time>2020-05-21T08:32:21Z</time>
      </trkpt>
      <trkpt lat="47.19241" lon="-1.56248">
        <ele>9</ele>
        <time>2020-05-21T08:32:23Z</time>
      </trkpt>
      <trkpt lat="47.19243" lon="-1.56227">
        <ele>8.69</ele>
        <time>2020-05-21T08:32:25Z</time>
      </trkpt>
      <trkpt lat="47.19242" lon="-1.56207">
        <ele>8.68</ele>
        <time>2020-05-21T08:32:27Z</time>
      </trkpt>
      <trkpt lat="47.19242" lon="-1.56187">
        <ele>8.89</ele>
        <time>2020-05-21T08:32:29Z</time>
      </trkpt>
      <trkpt lat="47.19242" lon="-1.56164">
        <ele>9.66</ele>
        <time>2020-05-21T08:32:31Z</time>
      </trkpt>
      <trkpt lat="47.19243" lon="-1.56147">
        <ele>9.4</ele>
        <time>2020-05-21T08:32:33Z</time>
      </trkpt>
      <trkpt lat="47.19243" lon="-1.56125">
        <ele>9.13</ele>
        <time>2020-05-21T08:32:35Z</time>
      </trkpt>
      <trkpt lat="47.19243" lon="-1.56104">
        <ele>9.39</ele>
        <time>2020-05-21T08:32:37Z</time>
      </trkpt>
      <trkpt lat="47.19242" lon="-1.56084">
        <ele>9.29</ele>
        <time>2020-05-21T08:32:39Z</time>
      </trkpt>
      <trkpt lat="47.19242" lon="-1.56063">
        <ele>9.34</ele>
        <time>2020-05-21T08:32:41Z</time>
      </trkpt>
      <trkpt lat="47.1924" lon="-1.56042">
        <ele>9.83</ele>
        <time>2020-05-21T08:32:43Z</time>
      </trkpt>
      <trkpt lat="47.19239" lon="-1.56023">
        <ele>10.45</ele>
        <time>2020-05-21T08:32:45Z</time>
      </trkpt>
      <trkpt lat="47.19236" lon="-1.56">
        <ele>10.41</ele>
        <time>2020-05-21T08:32:47Z</time>
      </trkpt>
      <trkpt lat="47.19234" lon="-1.55981">
        <ele>9.96</ele>
        <time>2020-05-21T08:32:49Z</time>
      </trkpt>
      <trkpt lat="47.19231" lon="-1.55961">
        <ele>9.85</ele>
        <time>2020-05-21T08:32:51Z</time>
      </trkpt>
      <trkpt lat="47.19228" lon="-1.5594">
        <ele>9.98</ele>
        <time>2020-05-21T08:32:53Z</time>
      </trkpt>
      <trkpt lat="47.19226" lon="-1.55923">
        <ele>9.61</ele>
        <time>2020-05-21T08:32:55Z</time>
      </trkpt>
      <trkpt lat="47.19224" lon="-1.55903">
        <ele>9.41</ele>
        <time>2020-05-21T08:32:57Z</time>
      </trkpt>
      <trkpt lat="47.19222" lon="-1.55883">
        <ele>10.11</ele>
        <time>2020-05-21T08:32:59Z</time>
      </trkpt>
      <trkpt lat="47.19221" lon="-1.55864">
        <ele>10.02</ele>
        <time>2020-05-21T08:33:01Z</time>
      </trkpt>
      <trkpt lat="47.1922" lon="-1.55845">
        <ele>10.34</ele>
        <time>2020-05-21T08:33:03Z</time>
      </trkpt>
      <trkpt lat="47.19219" lon="-1.55824">
        <ele>10.98</ele>
        <time>2020-05-21T08:33:05Z</time>
      </trkpt>
      <trkpt lat="47.19218" lon="-1.55805">
        <ele>11.15</ele>
        <time>2020-05-21T08:33:07Z</time>
      </trkpt>
      <trkpt lat="47.19218" lon="-1.55785">
        <ele>10.38</ele>
        <time>2020-05-21T08:33:09Z</time>
      </trkpt>
      <trkpt lat="47.19218" lon="-1.55765">
        <ele>9.64</ele>
        <time>2020-05-21T08:33:11Z</time>
      </trkpt>
      <trkpt lat="47.19218" lon="-1.55745">
        <ele>9</ele>
        <time>2020-05-21T08:33:13Z</time>
      </trkpt>
      <trkpt lat="47.19218" lon="-1.55726">
        <ele>8.41</ele>
        <time>2020-05-21T08:33:15Z</time>
      </trkpt>
      <trkpt lat="47.19219" lon="-1.55704">
        <ele>7.55</ele>
        <time>2020-05-21T08:33:17Z</time>
      </trkpt>
      <trkpt lat="47.1922" lon="-1.55682">
        <ele>6.31</ele>
        <time>2020-05-21T08:33:19Z</time>
      </trkpt>
      <trkpt lat="47.1922" lon="-1.55665">
        <ele>6.05</ele>
        <time>2020-05-21T08:33:21Z</time>
      </trkpt>
      <trkpt lat="47.1922" lon="-1.55649">
        <ele>5.84</ele>
        <time>2020-05-21T08:33:23Z</time>
      </trkpt>
      <trkpt lat="47.19222" lon="-1.55628">
        <ele>5.57</ele>
        <time>2020-05-21T08:33:25Z</time>
      </trkpt>
      <trkpt lat="47.19223" lon="-1.55608">
        <ele>5.7</ele>
        <time>2020-05-21T08:33:27Z</time>
      </trkpt>
      <trkpt lat="47.19224" lon="-1.5559">
        <ele>6.01</ele>
        <time>2020-05-21T08:33:29Z</time>
      </trkpt>
      <trkpt lat="47.19225" lon="-1.55572">
        <ele>6.09</ele>
        <time>2020-05-21T08:33:31Z</time>
      </trkpt>
      <trkpt lat="47.19228" lon="-1.55553">
        <ele>6.19</ele>
        <time>2020-05-21T08:33:33Z</time>
      </trkpt>
      <trkpt lat="47.1923" lon="-1.55535">
        <ele>7.15</ele>
        <time>2020-05-21T08:33:35Z</time>
      </trkpt>
      <trkpt lat="47.19231" lon="-1.55515">
        <ele>7.85</ele>
        <time>2020-05-21T08:33:37Z</time>
      </trkpt>
      <trkpt lat="47.19232" lon="-1.55495">
        <ele>7.68</ele>
        <time>2020-05-21T08:33:39Z</time>
      </trkpt>
      <trkpt lat="47.19232" lon="-1.55477">
        <ele>7.58</ele>
        <time>2020-05-21T08:33:41Z</time>
      </trkpt>
      <trkpt lat="47.19225" lon="-1.55461">
        <ele>7.23</ele>
        <time>2020-05-21T08:33:43Z</time>
      </trkpt>
      <trkpt lat="47.19218" lon="-1.55445">
        <ele>6.96</ele>
        <time>2020-05-21T08:33:45Z</time>
      </trkpt>
      <trkpt lat="47.19217" lon="-1.55427">
        <ele>7.32</ele>
        <time>2020-05-21T08:33:47Z</time>
      </trkpt>
      <trkpt lat="47.1922" lon="-1.55411">
        <ele>7.64</ele>
        <time>2020-05-21T08:33:49Z</time>
      </trkpt>
      <trkpt lat="47.1923" lon="-1.554">
        <ele>7.59</ele>
        <time>2020-05-21T08:33:51Z</time>
      </trkpt>
      <trkpt lat="47.19238" lon="-1.55384">
        <ele>7.45</ele>
        <time>2020-05-21T08:33:53Z</time>
      </trkpt>
      <trkpt lat="47.19244" lon="-1.55367">
        <ele>7.53</ele>
        <time>2020-05-21T08:33:55Z</time>
      </trkpt>
      <trkpt lat="47.19251" lon="-1.5535">
        <ele>7.85</ele>
        <time>2020-05-21T08:33:57Z</time>
      </trkpt>
      <trkpt lat="47.19257" lon="-1.55331">
        <ele>8.31</ele>
        <time>2020-05-21T08:33:59Z</time>
      </trkpt>
      <trkpt lat="47.19261" lon="-1.55314">
        <ele>7.89</ele>
        <time>2020-05-21T08:34:01Z</time>
      </trkpt>
      <trkpt lat="47.19265" lon="-1.55298">
        <ele>7.06</ele>
        <time>2020-05-21T08:34:03Z</time>
      </trkpt>
      <trkpt lat="47.1927" lon="-1.55277">
        <ele>6.51</ele>
        <time>2020-05-21T08:34:05Z</time>
      </trkpt>
      <trkpt lat="47.19274" lon="-1.55259">
        <ele>7.17</ele>
        <time>2020-05-21T08:34:07Z</time>
      </trkpt>
      <trkpt lat="47.19278" lon="-1.5524">
        <ele>6.93</ele>
        <time>2020-05-21T08:34:09Z</time>
      </trkpt>
      <trkpt lat="47.19281" lon="-1.55222">
        <ele>7.52</ele>
        <time>2020-05-21T08:34:11Z</time>
      </trkpt>
      <trkpt lat="47.19284" lon="-1.55207">
        <ele>7.88</ele>
        <time>2020-05-21T08:34:13Z</time>
      </trkpt>
      <trkpt lat="47.19288" lon="-1.5519">
        <ele>8.28</ele>
        <time>2020-05-21T08:34:15Z</time>
      </trkpt>
      <trkpt lat="47.19293" lon="-1.55174">
        <ele>7.96</ele>
        <time>2020-05-21T08:34:17Z</time>
      </trkpt>
      <trkpt lat="47.19298" lon="-1.55156">
        <ele>8.72</ele>
        <time>2020-05-21T08:34:19Z</time>
      </trkpt>
      <trkpt lat="47.19302" lon="-1.55138">
        <ele>8.05</ele>
        <time>2020-05-21T08:34:21Z</time>
      </trkpt>
      <trkpt lat="47.19306" lon="-1.5512">
        <ele>7.46</ele>
        <time>2020-05-21T08:34:23Z</time>
      </trkpt>
      <trkpt lat="47.19311" lon="-1.55101">
        <ele>7.98</ele>
        <time>2020-05-21T08:34:25Z</time>
      </trkpt>
      <trkpt lat="47.19316" lon="-1.55085">
        <ele>9.12</ele>
        <time>2020-05-21T08:34:27Z</time>
      </trkpt>
      <trkpt lat="47.19321" lon="-1.55067">
        <ele>10.17</ele>
        <time>2020-05-21T08:34:29Z</time>
      </trkpt>
      <trkpt lat="47.19325" lon="-1.55051">
        <ele>10.53</ele>
        <time>2020-05-21T08:34:31Z</time>
      </trkpt>
      <trkpt lat="47.1933" lon="-1.55034">
        <ele>10.18</ele>
        <time>2020-05-21T08:34:33Z</time>
      </trkpt>
      <trkpt lat="47.19333" lon="-1.55018">
        <ele>10.45</ele>
        <time>2020-05-21T08:34:35Z</time>
      </trkpt>
      <trkpt lat="47.19338" lon="-1.55">
        <ele>10.84</ele>
        <time>2020-05-21T08:34:37Z</time>
      </trkpt>
      <trkpt lat="47.19342" lon="-1.54983">
        <ele>11.75</ele>
        <time>2020-05-21T08:34:39Z</time>
      </trkpt>
      <trkpt lat="47.19346" lon="-1.54969">
        <ele>11.95</ele>
        <time>2020-05-21T08:34:41Z</time>
      </trkpt>
      <trkpt lat="47.19352" lon="-1.54949">
        <ele>12.2</ele>
        <time>2020-05-21T08:34:43Z</time>
      </trkpt>
      <trkpt lat="47.19356" lon="-1.54932">
        <ele>11.87</ele>
        <time>2020-05-21T08:34:45Z</time>
      </trkpt>
      <trkpt lat="47.1936" lon="-1.54914">
        <ele>12.08</ele>
        <time>2020-05-21T08:34:47Z</time>
      </trkpt>
      <trkpt lat="47.19363" lon="-1.54899">
        <ele>13.49</ele>
        <time>2020-05-21T08:34:49Z</time>
      </trkpt>
      <trkpt lat="47.19368" lon="-1.5488">
        <ele>13.97</ele>
        <time>2020-05-21T08:34:51Z</time>
      </trkpt>
      <trkpt lat="47.19372" lon="-1.54863">
        <ele>14.19</ele>
        <time>2020-05-21T08:34:53Z</time>
      </trkpt>
      <trkpt lat="47.19376" lon="-1.54846">
        <ele>13.81</ele>
        <time>2020-05-21T08:34:55Z</time>
      </trkpt>
      <trkpt lat="47.19381" lon="-1.54826">
        <ele>14.13</ele>
        <time>2020-05-21T08:34:57Z</time>
      </trkpt>
      <trkpt lat="47.19388" lon="-1.54802">
        <ele>14.08</ele>
        <time>2020-05-21T08:34:59Z</time>
      </trkpt>
      <trkpt lat="47.19394" lon="-1.54782">
        <ele>14.23</ele>
        <time>2020-05-21T08:35:01Z</time>
      </trkpt>
      <trkpt lat="47.19399" lon="-1.54758">
        <ele>13.93</ele>
        <time>2020-05-21T08:35:03Z</time>
      </trkpt>
      <trkpt lat="47.19404" lon="-1.54737">
        <ele>13.2</ele>
        <time>2020-05-21T08:35:05Z</time>
      </trkpt>
      <trkpt lat="47.1941" lon="-1.54713">
        <ele>10.86</ele>
        <time>2020-05-21T08:35:07Z</time>
      </trkpt>
      <trkpt lat="47.19415" lon="-1.54692">
        <ele>9.12</ele>
        <time>2020-05-21T08:35:09Z</time>
      </trkpt>
      <trkpt lat="47.1942" lon="-1.54673">
        <ele>8.8</ele>
        <time>2020-05-21T08:35:11Z</time>
      </trkpt>
      <trkpt lat="47.19425" lon="-1.54655">
        <ele>9.04</ele>
        <time>2020-05-21T08:35:13Z</time>
      </trkpt>
      <trkpt lat="47.1943" lon="-1.5464">
        <ele>8.39</ele>
        <time>2020-05-21T08:35:15Z</time>
      </trkpt>
      <trkpt lat="47.19435" lon="-1.54622">
        <ele>9.74</ele>
        <time>2020-05-21T08:35:17Z</time>
      </trkpt>
      <trkpt lat="47.19431" lon="-1.54603">
        <ele>10.49</ele>
        <time>2020-05-21T08:35:19Z</time>
      </trkpt>
      <trkpt lat="47.19427" lon="-1.54587">
        <ele>9.96</ele>
        <time>2020-05-21T08:35:21Z</time>
      </trkpt>
      <trkpt lat="47.1943" lon="-1.54573">
        <ele>8.73</ele>
        <time>2020-05-21T08:35:23Z</time>
      </trkpt>
      <trkpt lat="47.19438" lon="-1.5456">
        <ele>8.23</ele>
        <time>2020-05-21T08:35:25Z</time>
      </trkpt>
      <trkpt lat="47.1945" lon="-1.54548">
        <ele>7.85</ele>
        <time>2020-05-21T08:35:27Z</time>
      </trkpt>
      <trkpt lat="47.19457" lon="-1.54531">
        <ele>7.86</ele>
        <time>2020-05-21T08:35:29Z</time>
      </trkpt>
      <trkpt lat="47.19463" lon="-1.54515">
        <ele>7.54</ele>
        <time>2020-05-21T08:35:31Z</time>
      </trkpt>
      <trkpt lat="47.19469" lon="-1.54496">
        <ele>7.35</ele>
        <time>2020-05-21T08:35:33Z</time>
      </trkpt>
      <trkpt lat="47.19474" lon="-1.54477">
        <ele>7.2</ele>
        <time>2020-05-21T08:35:35Z</time>
      </trkpt>
      <trkpt lat="47.19481" lon="-1.54463">
        <ele>6.48</ele>
        <time>2020-05-21T08:35:37Z</time>
      </trkpt>
      <trkpt lat="47.19491" lon="-1.54454">
        <ele>6.67</ele>
        <time>2020-05-21T08:35:39Z</time>
      </trkpt>
      <trkpt lat="47.19503" lon="-1.54444">
        <ele>7.07</ele>
        <time>2020-05-21T08:35:41Z</time>
      </trkpt>
      <trkpt lat="47.19516" lon="-1.54434">
        <ele>6.69</ele>
        <time>2020-05-21T08:35:43Z</time>
      </trkpt>
      <trkpt lat="47.19526" lon="-1.54427">
        <ele>6.31</ele>
        <time>2020-05-21T08:35:45Z</time>
      </trkpt>
      <trkpt lat="47.19539" lon="-1.54417">
        <ele>7.32</ele>
        <time>2020-05-21T08:35:47Z</time>
      </trkpt>
      <trkpt lat="47.19553" lon="-1.54407">
        <ele>7.87</ele>
        <time>2020-05-21T08:35:49Z</time>
      </trkpt>
      <trkpt lat="47.19566" lon="-1.54398">
        <ele>7.45</ele>
        <time>2020-05-21T08:35:51Z</time>
      </trkpt>
      <trkpt lat="47.19577" lon="-1.54389">
        <ele>8.15</ele>
        <time>2020-05-21T08:35:53Z</time>
      </trkpt>
      <trkpt lat="47.19592" lon="-1.54378">
        <ele>9.39</ele>
        <time>2020-05-21T08:35:55Z</time>
      </trkpt>
      <trkpt lat="47.19605" lon="-1.54367">
        <ele>9.76</ele>
        <time>2020-05-21T08:35:57Z</time>
      </trkpt>
      <trkpt lat="47.19615" lon="-1.54354">
        <ele>10.34</ele>
        <time>2020-05-21T08:35:59Z</time>
      </trkpt>
      <trkpt lat="47.19624" lon="-1.54341">
        <ele>9.85</ele>
        <time>2020-05-21T08:36:01Z</time>
      </trkpt>
      <trkpt lat="47.19633" lon="-1.54329">
        <ele>10.1</ele>
        <time>2020-05-21T08:36:03Z</time>
      </trkpt>
      <trkpt lat="47.19644" lon="-1.54314">
        <ele>10.91</ele>
        <time>2020-05-21T08:36:05Z</time>
      </trkpt>
      <trkpt lat="47.19654" lon="-1.54303">
        <ele>11.4</ele>
        <time>2020-05-21T08:36:07Z</time>
      </trkpt>
      <trkpt lat="47.19666" lon="-1.54293">
        <ele>11.17</ele>
        <time>2020-05-21T08:36:09Z</time>
      </trkpt>
      <trkpt lat="47.19679" lon="-1.54283">
        <ele>10.18</ele>
        <time>2020-05-21T08:36:11Z</time>
      </trkpt>
      <trkpt lat="47.19691" lon="-1.54273">
        <ele>9.31</ele>
        <time>2020-05-21T08:36:13Z</time>
      </trkpt>
      <trkpt lat="47.19703" lon="-1.54265">
        <ele>8.38</ele>
        <time>2020-05-21T08:36:15Z</time>
      </trkpt>
      <trkpt lat="47.19715" lon="-1.54257">
        <ele>7.88</ele>
        <time>2020-05-21T08:36:17Z</time>
      </trkpt>
      <trkpt lat="47.19726" lon="-1.54249">
        <ele>7.84</ele>
        <time>2020-05-21T08:36:19Z</time>
      </trkpt>
      <trkpt lat="47.19736" lon="-1.54241">
        <ele>7.91</ele>
        <time>2020-05-21T08:36:21Z</time>
      </trkpt>
      <trkpt lat="47.19746" lon="-1.54231">
        <ele>7.7</ele>
        <time>2020-05-21T08:36:23Z</time>
      </trkpt>
      <trkpt lat="47.19755" lon="-1.54221">
        <ele>7.42</ele>
        <time>2020-05-21T08:36:25Z</time>
      </trkpt>
      <trkpt lat="47.19765" lon="-1.5421">
        <ele>7.21</ele>
        <time>2020-05-21T08:36:27Z</time>
      </trkpt>
      <trkpt lat="47.19773" lon="-1.54201">
        <ele>5.68</ele>
        <time>2020-05-21T08:36:29Z</time>
      </trkpt>
      <trkpt lat="47.19783" lon="-1.5419">
        <ele>4.7</ele>
        <time>2020-05-21T08:36:32Z</time>
      </trkpt>
      <trkpt lat="47.1979" lon="-1.54171">
        <ele>4.97</ele>
        <time>2020-05-21T08:36:34Z</time>
      </trkpt>
      <trkpt lat="47.19795" lon="-1.54154">
        <ele>5.42</ele>
        <time>2020-05-21T08:36:36Z</time>
      </trkpt>
      <trkpt lat="47.19799" lon="-1.54135">
        <ele>6.9</ele>
        <time>2020-05-21T08:36:38Z</time>
      </trkpt>
      <trkpt lat="47.19805" lon="-1.54118">
        <ele>7.6</ele>
        <time>2020-05-21T08:36:40Z</time>
      </trkpt>
      <trkpt lat="47.19815" lon="-1.54106">
        <ele>7.25</ele>
        <time>2020-05-21T08:36:42Z</time>
      </trkpt>
      <trkpt lat="47.19827" lon="-1.5409">
        <ele>5.9</ele>
        <time>2020-05-21T08:36:44Z</time>
      </trkpt>
      <trkpt lat="47.19834" lon="-1.54073">
        <ele>4.12</ele>
        <time>2020-05-21T08:36:46Z</time>
      </trkpt>
      <trkpt lat="47.19842" lon="-1.54058">
        <ele>3.97</ele>
        <time>2020-05-21T08:36:48Z</time>
      </trkpt>
      <trkpt lat="47.19851" lon="-1.54038">
        <ele>3.91</ele>
        <time>2020-05-21T08:36:50Z</time>
      </trkpt>
      <trkpt lat="47.19858" lon="-1.54019">
        <ele>4.07</ele>
        <time>2020-05-21T08:36:52Z</time>
      </trkpt>
      <trkpt lat="47.19864" lon="-1.54">
        <ele>4.35</ele>
        <time>2020-05-21T08:36:54Z</time>
      </trkpt>
      <trkpt lat="47.19871" lon="-1.53979">
        <ele>4.36</ele>
        <time>2020-05-21T08:36:56Z</time>
      </trkpt>
      <trkpt lat="47.19876" lon="-1.53962">
        <ele>4.62</ele>
        <time>2020-05-21T08:36:58Z</time>
      </trkpt>
      <trkpt lat="47.1988" lon="-1.53944">
        <ele>4.67</ele>
        <time>2020-05-21T08:37:00Z</time>
      </trkpt>
      <trkpt lat="47.19886" lon="-1.53922">
        <ele>4.34</ele>
        <time>2020-05-21T08:37:02Z</time>
      </trkpt>
      <trkpt lat="47.19891" lon="-1.53901">
        <ele>3.48</ele>
        <time>2020-05-21T08:37:04Z</time>
      </trkpt>
      <trkpt lat="47.19895" lon="-1.53881">
        <ele>2.36</ele>
        <time>2020-05-21T08:37:06Z</time>
      </trkpt>
      <trkpt lat="47.19897" lon="-1.53861">
        <ele>1.05</ele>
        <time>2020-05-21T08:37:08Z</time>
      </trkpt>
      <trkpt lat="47.199" lon="-1.53842">
        <ele>-0.2</ele>
        <time>2020-05-21T08:37:10Z</time>
      </trkpt>
      <trkpt lat="47.19904" lon="-1.53823">
        <ele>-1.67</ele>
        <time>2020-05-21T08:37:12Z</time>
      </trkpt>
      <trkpt lat="47.19908" lon="-1.53804">
        <ele>-3.69</ele>
        <time>2020-05-21T08:37:14Z</time>
      </trkpt>
      <trkpt lat="47.19914" lon="-1.53783">
        <ele>-4.47</ele>
        <time>2020-05-21T08:37:16Z</time>
      </trkpt>
      <trkpt lat="47.19917" lon="-1.53764">
        <ele>-4.9</ele>
        <time>2020-05-21T08:37:18Z</time>
      </trkpt>
      <trkpt lat="47.19921" lon="-1.53743">
        <ele>-3.87</ele>
        <time>2020-05-21T08:37:20Z</time>
      </trkpt>
      <trkpt lat="47.19927" lon="-1.53724">
        <ele>-2.27</ele>
        <time>2020-05-21T08:37:22Z</time>
      </trkpt>
      <trkpt lat="47.19932" lon="-1.53702">
        <ele>-0.41</ele>
        <time>2020-05-21T08:37:24Z</time>
      </trkpt>
      <trkpt lat="47.19936" lon="-1.53684">
        <ele>0.73</ele>
        <time>2020-05-21T08:37:26Z</time>
      </trkpt>
      <trkpt lat="47.19941" lon="-1.53664">
        <ele>1.52</ele>
        <time>2020-05-21T08:37:28Z</time>
      </trkpt>
      <trkpt lat="47.19946" lon="-1.53646">
        <ele>3.46</ele>
        <time>2020-05-21T08:37:30Z</time>
      </trkpt>
      <trkpt lat="47.19951" lon="-1.53626">
        <ele>4.58</ele>
        <time>2020-05-21T08:37:32Z</time>
      </trkpt>
      <trkpt lat="47.19956" lon="-1.53607">
        <ele>4.69</ele>
        <time>2020-05-21T08:37:34Z</time>
      </trkpt>
      <trkpt lat="47.19961" lon="-1.53587">
        <ele>3.93</ele>
        <time>2020-05-21T08:37:36Z</time>
      </trkpt>
      <trkpt lat="47.19965" lon="-1.53569">
        <ele>3.21</ele>
        <time>2020-05-21T08:37:38Z</time>
      </trkpt>
      <trkpt lat="47.19971" lon="-1.5355">
        <ele>2.61</ele>
        <time>2020-05-21T08:37:40Z</time>
      </trkpt>
      <trkpt lat="47.19977" lon="-1.53532">
        <ele>1.88</ele>
        <time>2020-05-21T08:37:42Z</time>
      </trkpt>
      <trkpt lat="47.19982" lon="-1.53516">
        <ele>2.84</ele>
        <time>2020-05-21T08:37:44Z</time>
      </trkpt>
      <trkpt lat="47.19985" lon="-1.53498">
        <ele>3.1</ele>
        <time>2020-05-21T08:37:46Z</time>
      </trkpt>
      <trkpt lat="47.19987" lon="-1.53483">
        <ele>2.48</ele>
        <time>2020-05-21T08:37:48Z</time>
      </trkpt>
      <trkpt lat="47.19997" lon="-1.53473">
        <ele>3.69</ele>
        <time>2020-05-21T08:37:50Z</time>
      </trkpt>
      <trkpt lat="47.20011" lon="-1.53473">
        <ele>4.78</ele>
        <time>2020-05-21T08:37:52Z</time>
      </trkpt>
      <trkpt lat="47.20023" lon="-1.53466">
        <ele>5.34</ele>
        <time>2020-05-21T08:37:54Z</time>
      </trkpt>
      <trkpt lat="47.20029" lon="-1.5345">
        <ele>6.05</ele>
        <time>2020-05-21T08:37:56Z</time>
      </trkpt>
      <trkpt lat="47.20035" lon="-1.53434">
        <ele>6.01</ele>
        <time>2020-05-21T08:37:58Z</time>
      </trkpt>
      <trkpt lat="47.20041" lon="-1.53418">
        <ele>6.39</ele>
        <time>2020-05-21T08:38:00Z</time>
      </trkpt>
      <trkpt lat="47.20047" lon="-1.534">
        <ele>5.6</ele>
        <time>2020-05-21T08:38:02Z</time>
      </trkpt>
      <trkpt lat="47.20053" lon="-1.53386">
        <ele>5.14</ele>
        <time>2020-05-21T08:38:04Z</time>
      </trkpt>
      <trkpt lat="47.20061" lon="-1.53369">
        <ele>4.83</ele>
        <time>2020-05-21T08:38:06Z</time>
      </trkpt>
      <trkpt lat="47.2007" lon="-1.53356">
        <ele>5.36</ele>
        <time>2020-05-21T08:38:08Z</time>
      </trkpt>
      <trkpt lat="47.20078" lon="-1.53344">
        <ele>5.71</ele>
        <time>2020-05-21T08:38:10Z</time>
      </trkpt>
      <trkpt lat="47.20086" lon="-1.53327">
        <ele>5.45</ele>
        <time>2020-05-21T08:38:12Z</time>
      </trkpt>
      <trkpt lat="47.20092" lon="-1.53309">
        <ele>4.66</ele>
        <time>2020-05-21T08:38:14Z</time>
      </trkpt>
      <trkpt lat="47.20099" lon="-1.5329">
        <ele>3.39</ele>
        <time>2020-05-21T08:38:16Z</time>
      </trkpt>
      <trkpt lat="47.20105" lon="-1.53273">
        <ele>3.09</ele>
        <time>2020-05-21T08:38:18Z</time>
      </trkpt>
      <trkpt lat="47.20112" lon="-1.53254">
        <ele>3.6</ele>
        <time>2020-05-21T08:38:20Z</time>
      </trkpt>
      <trkpt lat="47.20117" lon="-1.53236">
        <ele>2.5</ele>
        <time>2020-05-21T08:38:22Z</time>
      </trkpt>
      <trkpt lat="47.20122" lon="-1.53215">
        <ele>2.41</ele>
        <time>2020-05-21T08:38:24Z</time>
      </trkpt>
      <trkpt lat="47.20125" lon="-1.53198">
        <ele>3.17</ele>
        <time>2020-05-21T08:38:26Z</time>
      </trkpt>
      <trkpt lat="47.20129" lon="-1.53177">
        <ele>4.75</ele>
        <time>2020-05-21T08:38:28Z</time>
      </trkpt>
      <trkpt lat="47.20134" lon="-1.53159">
        <ele>5.94</ele>
        <time>2020-05-21T08:38:30Z</time>
      </trkpt>
      <trkpt lat="47.20141" lon="-1.53141">
        <ele>6.04</ele>
        <time>2020-05-21T08:38:32Z</time>
      </trkpt>
      <trkpt lat="47.20147" lon="-1.53124">
        <ele>5.94</ele>
        <time>2020-05-21T08:38:34Z</time>
      </trkpt>
      <trkpt lat="47.20155" lon="-1.53107">
        <ele>5.84</ele>
        <time>2020-05-21T08:38:36Z</time>
      </trkpt>
      <trkpt lat="47.20163" lon="-1.53091">
        <ele>5.8</ele>
        <time>2020-05-21T08:38:38Z</time>
      </trkpt>
      <trkpt lat="47.20171" lon="-1.53076">
        <ele>5.97</ele>
        <time>2020-05-21T08:38:40Z</time>
      </trkpt>
      <trkpt lat="47.2018" lon="-1.53061">
        <ele>5.64</ele>
        <time>2020-05-21T08:38:42Z</time>
      </trkpt>
      <trkpt lat="47.20191" lon="-1.53045">
        <ele>5.89</ele>
        <time>2020-05-21T08:38:44Z</time>
      </trkpt>
      <trkpt lat="47.20202" lon="-1.5303">
        <ele>6.62</ele>
        <time>2020-05-21T08:38:46Z</time>
      </trkpt>
      <trkpt lat="47.20212" lon="-1.53019">
        <ele>6.55</ele>
        <time>2020-05-21T08:38:48Z</time>
      </trkpt>
      <trkpt lat="47.20223" lon="-1.53008">
        <ele>6.56</ele>
        <time>2020-05-21T08:38:50Z</time>
      </trkpt>
      <trkpt lat="47.20234" lon="-1.52995">
        <ele>6.56</ele>
        <time>2020-05-21T08:38:52Z</time>
      </trkpt>
      <trkpt lat="47.20244" lon="-1.52978">
        <ele>6.42</ele>
        <time>2020-05-21T08:38:54Z</time>
      </trkpt>
      <trkpt lat="47.20253" lon="-1.52963">
        <ele>5.78</ele>
        <time>2020-05-21T08:38:56Z</time>
      </trkpt>
      <trkpt lat="47.20261" lon="-1.52948">
        <ele>5.24</ele>
        <time>2020-05-21T08:38:58Z</time>
      </trkpt>
      <trkpt lat="47.20269" lon="-1.52934">
        <ele>4.91</ele>
        <time>2020-05-21T08:39:00Z</time>
      </trkpt>
      <trkpt lat="47.20278" lon="-1.52917">
        <ele>4.69</ele>
        <time>2020-05-21T08:39:02Z</time>
      </trkpt>
      <trkpt lat="47.20285" lon="-1.529">
        <ele>5.37</ele>
        <time>2020-05-21T08:39:04Z</time>
      </trkpt>
      <trkpt lat="47.20292" lon="-1.52881">
        <ele>5.27</ele>
        <time>2020-05-21T08:39:06Z</time>
      </trkpt>
      <trkpt lat="47.20299" lon="-1.52862">
        <ele>5.18</ele>
        <time>2020-05-21T08:39:08Z</time>
      </trkpt>
      <trkpt lat="47.20305" lon="-1.52845">
        <ele>4.13</ele>
        <time>2020-05-21T08:39:10Z</time>
      </trkpt>
      <trkpt lat="47.20312" lon="-1.52829">
        <ele>3.62</ele>
        <time>2020-05-21T08:39:12Z</time>
      </trkpt>
      <trkpt lat="47.2032" lon="-1.52811">
        <ele>3.42</ele>
        <time>2020-05-21T08:39:14Z</time>
      </trkpt>
      <trkpt lat="47.20327" lon="-1.52795">
        <ele>4.02</ele>
        <time>2020-05-21T08:39:16Z</time>
      </trkpt>
      <trkpt lat="47.20335" lon="-1.52779">
        <ele>4.36</ele>
        <time>2020-05-21T08:39:18Z</time>
      </trkpt>
      <trkpt lat="47.20342" lon="-1.52762">
        <ele>5.59</ele>
        <time>2020-05-21T08:39:20Z</time>
      </trkpt>
      <trkpt lat="47.20351" lon="-1.52746">
        <ele>6.67</ele>
        <time>2020-05-21T08:39:22Z</time>
      </trkpt>
      <trkpt lat="47.20359" lon="-1.52731">
        <ele>7.34</ele>
        <time>2020-05-21T08:39:24Z</time>
      </trkpt>
      <trkpt lat="47.20368" lon="-1.52713">
        <ele>7.87</ele>
        <time>2020-05-21T08:39:26Z</time>
      </trkpt>
      <trkpt lat="47.20377" lon="-1.52698">
        <ele>7.8</ele>
        <time>2020-05-21T08:39:28Z</time>
      </trkpt>
      <trkpt lat="47.20386" lon="-1.52683">
        <ele>7.84</ele>
        <time>2020-05-21T08:39:30Z</time>
      </trkpt>
      <trkpt lat="47.20394" lon="-1.52666">
        <ele>7.96</ele>
        <time>2020-05-21T08:39:32Z</time>
      </trkpt>
      <trkpt lat="47.204" lon="-1.52652">
        <ele>7.06</ele>
        <time>2020-05-21T08:39:34Z</time>
      </trkpt>
      <trkpt lat="47.20408" lon="-1.52635">
        <ele>6.63</ele>
        <time>2020-05-21T08:39:36Z</time>
      </trkpt>
      <trkpt lat="47.20416" lon="-1.52617">
        <ele>6.8</ele>
        <time>2020-05-21T08:39:38Z</time>
      </trkpt>
      <trkpt lat="47.20422" lon="-1.52598">
        <ele>6.36</ele>
        <time>2020-05-21T08:39:40Z</time>
      </trkpt>
      <trkpt lat="47.20427" lon="-1.52578">
        <ele>6.82</ele>
        <time>2020-05-21T08:39:42Z</time>
      </trkpt>
      <trkpt lat="47.20432" lon="-1.5256">
        <ele>7.15</ele>
        <time>2020-05-21T08:39:44Z</time>
      </trkpt>
      <trkpt lat="47.20437" lon="-1.52542">
        <ele>7.71</ele>
        <time>2020-05-21T08:39:46Z</time>
      </trkpt>
      <trkpt lat="47.20442" lon="-1.52524">
        <ele>7.35</ele>
        <time>2020-05-21T08:39:48Z</time>
      </trkpt>
      <trkpt lat="47.20449" lon="-1.52507">
        <ele>7.66</ele>
        <time>2020-05-21T08:39:50Z</time>
      </trkpt>
      <trkpt lat="47.20455" lon="-1.52491">
        <ele>7.92</ele>
        <time>2020-05-21T08:39:52Z</time>
      </trkpt>
      <trkpt lat="47.20461" lon="-1.52477">
        <ele>7.41</ele>
        <time>2020-05-21T08:39:54Z</time>
      </trkpt>
      <trkpt lat="47.20467" lon="-1.52461">
        <ele>6.36</ele>
        <time>2020-05-21T08:39:56Z</time>
      </trkpt>
      <trkpt lat="47.20476" lon="-1.5244">
        <ele>6.05</ele>
        <time>2020-05-21T08:39:58Z</time>
      </trkpt>
      <trkpt lat="47.20483" lon="-1.52423">
        <ele>5.25</ele>
        <time>2020-05-21T08:40:00Z</time>
      </trkpt>
      <trkpt lat="47.2049" lon="-1.52405">
        <ele>4.91</ele>
        <time>2020-05-21T08:40:02Z</time>
      </trkpt>
      <trkpt lat="47.20496" lon="-1.52385">
        <ele>4.19</ele>
        <time>2020-05-21T08:40:04Z</time>
      </trkpt>
      <trkpt lat="47.20499" lon="-1.52366">
        <ele>2.57</ele>
        <time>2020-05-21T08:40:06Z</time>
      </trkpt>
      <trkpt lat="47.20503" lon="-1.52346">
        <ele>2.55</ele>
        <time>2020-05-21T08:40:08Z</time>
      </trkpt>
      <trkpt lat="47.20509" lon="-1.52329">
        <ele>3.08</ele>
        <time>2020-05-21T08:40:10Z</time>
      </trkpt>
      <trkpt lat="47.20516" lon="-1.52311">
        <ele>3.51</ele>
        <time>2020-05-21T08:40:12Z</time>
      </trkpt>
      <trkpt lat="47.2052" lon="-1.52297">
        <ele>3.14</ele>
        <time>2020-05-21T08:40:14Z</time>
      </trkpt>
      <trkpt lat="47.20523" lon="-1.52277">
        <ele>3.35</ele>
        <time>2020-05-21T08:40:16Z</time>
      </trkpt>
      <trkpt lat="47.20528" lon="-1.52262">
        <ele>4.1</ele>
        <time>2020-05-21T08:40:18Z</time>
      </trkpt>
      <trkpt lat="47.20535" lon="-1.52247">
        <ele>4.75</ele>
        <time>2020-05-21T08:40:20Z</time>
      </trkpt>
      <trkpt lat="47.20542" lon="-1.52231">
        <ele>4.83</ele>
        <time>2020-05-21T08:40:22Z</time>
      </trkpt>
      <trkpt lat="47.20551" lon="-1.52215">
        <ele>4.77</ele>
        <time>2020-05-21T08:40:24Z</time>
      </trkpt>
      <trkpt lat="47.2056" lon="-1.52198">
        <ele>5.06</ele>
        <time>2020-05-21T08:40:26Z</time>
      </trkpt>
      <trkpt lat="47.20569" lon="-1.52183">
        <ele>5.15</ele>
        <time>2020-05-21T08:40:28Z</time>
      </trkpt>
      <trkpt lat="47.20577" lon="-1.5217">
        <ele>5.76</ele>
        <time>2020-05-21T08:40:30Z</time>
      </trkpt>
      <trkpt lat="47.20586" lon="-1.52155">
        <ele>6.82</ele>
        <time>2020-05-21T08:40:32Z</time>
      </trkpt>
      <trkpt lat="47.20594" lon="-1.52141">
        <ele>7.35</ele>
        <time>2020-05-21T08:40:34Z</time>
      </trkpt>
      <trkpt lat="47.20602" lon="-1.52126">
        <ele>7.1</ele>
        <time>2020-05-21T08:40:36Z</time>
      </trkpt>
      <trkpt lat="47.2061" lon="-1.52113">
        <ele>6.97</ele>
        <time>2020-05-21T08:40:38Z</time>
      </trkpt>
      <trkpt lat="47.2062" lon="-1.52096">
        <ele>6.98</ele>
        <time>2020-05-21T08:40:40Z</time>
      </trkpt>
      <trkpt lat="47.20629" lon="-1.5208">
        <ele>6.99</ele>
        <time>2020-05-21T08:40:42Z</time>
      </trkpt>
      <trkpt lat="47.20636" lon="-1.52066">
        <ele>7.12</ele>
        <time>2020-05-21T08:40:44Z</time>
      </trkpt>
      <trkpt lat="47.20644" lon="-1.52052">
        <ele>6.93</ele>
        <time>2020-05-21T08:40:46Z</time>
      </trkpt>
      <trkpt lat="47.20654" lon="-1.52036">
        <ele>6.61</ele>
        <time>2020-05-21T08:40:48Z</time>
      </trkpt>
      <trkpt lat="47.20664" lon="-1.52022">
        <ele>7.62</ele>
        <time>2020-05-21T08:40:50Z</time>
      </trkpt>
      <trkpt lat="47.20674" lon="-1.52005">
        <ele>7.6</ele>
        <time>2020-05-21T08:40:52Z</time>
      </trkpt>
      <trkpt lat="47.20683" lon="-1.51988">
        <ele>6.39</ele>
        <time>2020-05-21T08:40:54Z</time>
      </trkpt>
      <trkpt lat="47.20691" lon="-1.51973">
        <ele>6.31</ele>
        <time>2020-05-21T08:40:56Z</time>
      </trkpt>
      <trkpt lat="47.20702" lon="-1.51959">
        <ele>6.6</ele>
        <time>2020-05-21T08:40:58Z</time>
      </trkpt>
      <trkpt lat="47.20712" lon="-1.51944">
        <ele>7.18</ele>
        <time>2020-05-21T08:41:00Z</time>
      </trkpt>
      <trkpt lat="47.20718" lon="-1.51926">
        <ele>6.98</ele>
        <time>2020-05-21T08:41:02Z</time>
      </trkpt>
      <trkpt lat="47.20724" lon="-1.51912">
        <ele>6</ele>
        <time>2020-05-21T08:41:04Z</time>
      </trkpt>
      <trkpt lat="47.20731" lon="-1.51893">
        <ele>5.31</ele>
        <time>2020-05-21T08:41:06Z</time>
      </trkpt>
      <trkpt lat="47.20739" lon="-1.51876">
        <ele>5.41</ele>
        <time>2020-05-21T08:41:08Z</time>
      </trkpt>
      <trkpt lat="47.20747" lon="-1.51858">
        <ele>4.97</ele>
        <time>2020-05-21T08:41:10Z</time>
      </trkpt>
      <trkpt lat="47.20753" lon="-1.51842">
        <ele>5.43</ele>
        <time>2020-05-21T08:41:12Z</time>
      </trkpt>
      <trkpt lat="47.2076" lon="-1.51826">
        <ele>6.51</ele>
        <time>2020-05-21T08:41:14Z</time>
      </trkpt>
      <trkpt lat="47.20764" lon="-1.51807">
        <ele>6.91</ele>
        <time>2020-05-21T08:41:16Z</time>
      </trkpt>
      <trkpt lat="47.20768" lon="-1.51789">
        <ele>5.88</ele>
        <time>2020-05-21T08:41:18Z</time>
      </trkpt>
      <trkpt lat="47.20771" lon="-1.5177">
        <ele>5.32</ele>
        <time>2020-05-21T08:41:20Z</time>
      </trkpt>
      <trkpt lat="47.20775" lon="-1.51752">
        <ele>5.32</ele>
        <time>2020-05-21T08:41:22Z</time>
      </trkpt>
      <trkpt lat="47.20781" lon="-1.51731">
        <ele>5.59</ele>
        <time>2020-05-21T08:41:24Z</time>
      </trkpt>
      <trkpt lat="47.20785" lon="-1.51712">
        <ele>6.06</ele>
        <time>2020-05-21T08:41:26Z</time>
      </trkpt>
      <trkpt lat="47.20789" lon="-1.51696">
        <ele>6.15</ele>
        <time>2020-05-21T08:41:28Z</time>
      </trkpt>
      <trkpt lat="47.20793" lon="-1.51677">
        <ele>6.19</ele>
        <time>2020-05-21T08:41:29Z</time>
      </trkpt>
      <trkpt lat="47.20796" lon="-1.5166">
        <ele>6.65</ele>
        <time>2020-05-21T08:41:31Z</time>
      </trkpt>
      <trkpt lat="47.208" lon="-1.51641">
        <ele>6.75</ele>
        <time>2020-05-21T08:41:33Z</time>
      </trkpt>
      <trkpt lat="47.20803" lon="-1.51622">
        <ele>6.55</ele>
        <time>2020-05-21T08:41:35Z</time>
      </trkpt>
      <trkpt lat="47.20804" lon="-1.51606">
        <ele>5.37</ele>
        <time>2020-05-21T08:41:37Z</time>
      </trkpt>
      <trkpt lat="47.20806" lon="-1.5159">
        <ele>4.2</ele>
        <time>2020-05-21T08:41:39Z</time>
      </trkpt>
      <trkpt lat="47.20808" lon="-1.5157">
        <ele>4.3</ele>
        <time>2020-05-21T08:41:41Z</time>
      </trkpt>
      <trkpt lat="47.20811" lon="-1.51547">
        <ele>4.92</ele>
        <time>2020-05-21T08:41:43Z</time>
      </trkpt>
      <trkpt lat="47.20815" lon="-1.51525">
        <ele>5.07</ele>
        <time>2020-05-21T08:41:45Z</time>
      </trkpt>
      <trkpt lat="47.20817" lon="-1.515">
        <ele>4.93</ele>
        <time>2020-05-21T08:41:47Z</time>
      </trkpt>
      <trkpt lat="47.2082" lon="-1.51476">
        <ele>5.01</ele>
        <time>2020-05-21T08:41:49Z</time>
      </trkpt>
      <trkpt lat="47.20824" lon="-1.51455">
        <ele>4.68</ele>
        <time>2020-05-21T08:41:51Z</time>
      </trkpt>
      <trkpt lat="47.20828" lon="-1.51433">
        <ele>4.4</ele>
        <time>2020-05-21T08:41:53Z</time>
      </trkpt>
      <trkpt lat="47.20832" lon="-1.5141">
        <ele>4.47</ele>
        <time>2020-05-21T08:41:55Z</time>
      </trkpt>
      <trkpt lat="47.20837" lon="-1.51389">
        <ele>4.75</ele>
        <time>2020-05-21T08:41:57Z</time>
      </trkpt>
      <trkpt lat="47.20842" lon="-1.51369">
        <ele>4.58</ele>
        <time>2020-05-21T08:41:59Z</time>
      </trkpt>
      <trkpt lat="47.20847" lon="-1.51352">
        <ele>4.03</ele>
        <time>2020-05-21T08:42:01Z</time>
      </trkpt>
      <trkpt lat="47.20852" lon="-1.51332">
        <ele>3.77</ele>
        <time>2020-05-21T08:42:03Z</time>
      </trkpt>
      <trkpt lat="47.2086" lon="-1.51314">
        <ele>4.1</ele>
        <time>2020-05-21T08:42:05Z</time>
      </trkpt>
      <trkpt lat="47.20868" lon="-1.51296">
        <ele>4.08</ele>
        <time>2020-05-21T08:42:07Z</time>
      </trkpt>
      <trkpt lat="47.20877" lon="-1.51278">
        <ele>4.74</ele>
        <time>2020-05-21T08:42:09Z</time>
      </trkpt>
      <trkpt lat="47.20882" lon="-1.51265">
        <ele>5.31</ele>
        <time>2020-05-21T08:42:11Z</time>
      </trkpt>
      <trkpt lat="47.20888" lon="-1.51247">
        <ele>5.39</ele>
        <time>2020-05-21T08:42:13Z</time>
      </trkpt>
      <trkpt lat="47.20895" lon="-1.51227">
        <ele>5</ele>
        <time>2020-05-21T08:42:15Z</time>
      </trkpt>
      <trkpt lat="47.20902" lon="-1.51207">
        <ele>4.64</ele>
        <time>2020-05-21T08:42:17Z</time>
      </trkpt>
      <trkpt lat="47.2091" lon="-1.51188">
        <ele>4.52</ele>
        <time>2020-05-21T08:42:19Z</time>
      </trkpt>
      <trkpt lat="47.20915" lon="-1.51173">
        <ele>4.76</ele>
        <time>2020-05-21T08:42:21Z</time>
      </trkpt>
      <trkpt lat="47.20921" lon="-1.51155">
        <ele>5.39</ele>
        <time>2020-05-21T08:42:23Z</time>
      </trkpt>
      <trkpt lat="47.20927" lon="-1.51138">
        <ele>6.2</ele>
        <time>2020-05-21T08:42:25Z</time>
      </trkpt>
      <trkpt lat="47.20933" lon="-1.51119">
        <ele>7.63</ele>
        <time>2020-05-21T08:42:27Z</time>
      </trkpt>
      <trkpt lat="47.20938" lon="-1.51102">
        <ele>8.72</ele>
        <time>2020-05-21T08:42:29Z</time>
      </trkpt>
      <trkpt lat="47.20943" lon="-1.51085">
        <ele>9.14</ele>
        <time>2020-05-21T08:42:31Z</time>
      </trkpt>
      <trkpt lat="47.20947" lon="-1.5107">
        <ele>8.37</ele>
        <time>2020-05-21T08:42:33Z</time>
      </trkpt>
      <trkpt lat="47.20952" lon="-1.51049">
        <ele>8.13</ele>
        <time>2020-05-21T08:42:35Z</time>
      </trkpt>
      <trkpt lat="47.20955" lon="-1.51031">
        <ele>8.43</ele>
        <time>2020-05-21T08:42:37Z</time>
      </trkpt>
      <trkpt lat="47.20959" lon="-1.51014">
        <ele>7.69</ele>
        <time>2020-05-21T08:42:39Z</time>
      </trkpt>
      <trkpt lat="47.20965" lon="-1.50996">
        <ele>6.62</ele>
        <time>2020-05-21T08:42:41Z</time>
      </trkpt>
      <trkpt lat="47.20967" lon="-1.50978">
        <ele>5.54</ele>
        <time>2020-05-21T08:42:43Z</time>
      </trkpt>
      <trkpt lat="47.20969" lon="-1.50956">
        <ele>6</ele>
        <time>2020-05-21T08:42:45Z</time>
      </trkpt>
      <trkpt lat="47.20971" lon="-1.50937">
        <ele>5.79</ele>
        <time>2020-05-21T08:42:47Z</time>
      </trkpt>
      <trkpt lat="47.20973" lon="-1.50919">
        <ele>5.27</ele>
        <time>2020-05-21T08:42:49Z</time>
      </trkpt>
      <trkpt lat="47.20975" lon="-1.50898">
        <ele>6.1</ele>
        <time>2020-05-21T08:42:51Z</time>
      </trkpt>
      <trkpt lat="47.20977" lon="-1.50877">
        <ele>6.57</ele>
        <time>2020-05-21T08:42:53Z</time>
      </trkpt>
      <trkpt lat="47.2098" lon="-1.50858">
        <ele>5.97</ele>
        <time>2020-05-21T08:42:55Z</time>
      </trkpt>
      <trkpt lat="47.20982" lon="-1.50836">
        <ele>6.16</ele>
        <time>2020-05-21T08:42:57Z</time>
      </trkpt>
      <trkpt lat="47.20984" lon="-1.50816">
        <ele>5.65</ele>
        <time>2020-05-21T08:42:59Z</time>
      </trkpt>
      <trkpt lat="47.20986" lon="-1.50798">
        <ele>5.11</ele>
        <time>2020-05-21T08:43:01Z</time>
      </trkpt>
      <trkpt lat="47.20989" lon="-1.50779">
        <ele>4.19</ele>
        <time>2020-05-21T08:43:03Z</time>
      </trkpt>
      <trkpt lat="47.20991" lon="-1.5076">
        <ele>3.8</ele>
        <time>2020-05-21T08:43:05Z</time>
      </trkpt>
      <trkpt lat="47.20993" lon="-1.5074">
        <ele>3.96</ele>
        <time>2020-05-21T08:43:07Z</time>
      </trkpt>
      <trkpt lat="47.20995" lon="-1.50721">
        <ele>4.5</ele>
        <time>2020-05-21T08:43:09Z</time>
      </trkpt>
      <trkpt lat="47.20997" lon="-1.50701">
        <ele>5.39</ele>
        <time>2020-05-21T08:43:11Z</time>
      </trkpt>
      <trkpt lat="47.20998" lon="-1.50682">
        <ele>6.29</ele>
        <time>2020-05-21T08:43:13Z</time>
      </trkpt>
      <trkpt lat="47.20999" lon="-1.50663">
        <ele>6.59</ele>
        <time>2020-05-21T08:43:15Z</time>
      </trkpt>
      <trkpt lat="47.21001" lon="-1.50641">
        <ele>5.72</ele>
        <time>2020-05-21T08:43:17Z</time>
      </trkpt>
      <trkpt lat="47.21002" lon="-1.50622">
        <ele>5.48</ele>
        <time>2020-05-21T08:43:19Z</time>
      </trkpt>
      <trkpt lat="47.21004" lon="-1.50602">
        <ele>5.25</ele>
        <time>2020-05-21T08:43:21Z</time>
      </trkpt>
      <trkpt lat="47.21004" lon="-1.50581">
        <ele>6.03</ele>
        <time>2020-05-21T08:43:23Z</time>
      </trkpt>
      <trkpt lat="47.21004" lon="-1.50563">
        <ele>6.49</ele>
        <time>2020-05-21T08:43:25Z</time>
      </trkpt>
      <trkpt lat="47.21004" lon="-1.50543">
        <ele>6.98</ele>
        <time>2020-05-21T08:43:27Z</time>
      </trkpt>
      <trkpt lat="47.21004" lon="-1.50523">
        <ele>7.52</ele>
        <time>2020-05-21T08:43:29Z</time>
      </trkpt>
      <trkpt lat="47.21004" lon="-1.50503">
        <ele>7.81</ele>
        <time>2020-05-21T08:43:31Z</time>
      </trkpt>
      <trkpt lat="47.21003" lon="-1.50484">
        <ele>7.28</ele>
        <time>2020-05-21T08:43:33Z</time>
      </trkpt>
      <trkpt lat="47.21003" lon="-1.50465">
        <ele>7.01</ele>
        <time>2020-05-21T08:43:35Z</time>
      </trkpt>
      <trkpt lat="47.21003" lon="-1.50449">
        <ele>7</ele>
        <time>2020-05-21T08:43:37Z</time>
      </trkpt>
      <trkpt lat="47.21002" lon="-1.50436">
        <ele>6.8</ele>
        <time>2020-05-21T08:43:39Z</time>
      </trkpt>
      <trkpt lat="47.21002" lon="-1.50419">
        <ele>5</ele>
        <time>2020-05-21T08:43:41Z</time>
      </trkpt>
      <trkpt lat="47.21002" lon="-1.50403">
        <ele>4.25</ele>
        <time>2020-05-21T08:43:43Z</time>
      </trkpt>
      <trkpt lat="47.21002" lon="-1.50387">
        <ele>4.38</ele>
        <time>2020-05-21T08:43:45Z</time>
      </trkpt>
      <trkpt lat="47.21002" lon="-1.50363">
        <ele>4.7</ele>
        <time>2020-05-21T08:43:47Z</time>
      </trkpt>
      <trkpt lat="47.21002" lon="-1.5034">
        <ele>4.48</ele>
        <time>2020-05-21T08:43:49Z</time>
      </trkpt>
      <trkpt lat="47.21002" lon="-1.5032">
        <ele>3.49</ele>
        <time>2020-05-21T08:43:51Z</time>
      </trkpt>
      <trkpt lat="47.21001" lon="-1.50302">
        <ele>3.59</ele>
        <time>2020-05-21T08:43:53Z</time>
      </trkpt>
      <trkpt lat="47.21002" lon="-1.50282">
        <ele>3.19</ele>
        <time>2020-05-21T08:43:55Z</time>
      </trkpt>
      <trkpt lat="47.21004" lon="-1.50263">
        <ele>3.61</ele>
        <time>2020-05-21T08:43:57Z</time>
      </trkpt>
      <trkpt lat="47.21011" lon="-1.50249">
        <ele>4.33</ele>
        <time>2020-05-21T08:43:59Z</time>
      </trkpt>
      <trkpt lat="47.21019" lon="-1.50233">
        <ele>4.73</ele>
        <time>2020-05-21T08:44:01Z</time>
      </trkpt>
      <trkpt lat="47.21018" lon="-1.50214">
        <ele>4.41</ele>
        <time>2020-05-21T08:44:03Z</time>
      </trkpt>
      <trkpt lat="47.21017" lon="-1.50192">
        <ele>4.56</ele>
        <time>2020-05-21T08:44:05Z</time>
      </trkpt>
      <trkpt lat="47.21019" lon="-1.50174">
        <ele>3.61</ele>
        <time>2020-05-21T08:44:07Z</time>
      </trkpt>
      <trkpt lat="47.21022" lon="-1.50156">
        <ele>3.4</ele>
        <time>2020-05-21T08:44:09Z</time>
      </trkpt>
      <trkpt lat="47.21025" lon="-1.50136">
        <ele>2.67</ele>
        <time>2020-05-21T08:44:11Z</time>
      </trkpt>
      <trkpt lat="47.2103" lon="-1.50117">
        <ele>2.68</ele>
        <time>2020-05-21T08:44:13Z</time>
      </trkpt>
      <trkpt lat="47.21035" lon="-1.50099">
        <ele>3.55</ele>
        <time>2020-05-21T08:44:15Z</time>
      </trkpt>
      <trkpt lat="47.2104" lon="-1.50082">
        <ele>4.08</ele>
        <time>2020-05-21T08:44:17Z</time>
      </trkpt>
      <trkpt lat="47.21045" lon="-1.50063">
        <ele>4.37</ele>
        <time>2020-05-21T08:44:19Z</time>
      </trkpt>
      <trkpt lat="47.2105" lon="-1.50045">
        <ele>4.28</ele>
        <time>2020-05-21T08:44:21Z</time>
      </trkpt>
      <trkpt lat="47.21054" lon="-1.50025">
        <ele>4.07</ele>
        <time>2020-05-21T08:44:23Z</time>
      </trkpt>
      <trkpt lat="47.21059" lon="-1.50006">
        <ele>3.22</ele>
        <time>2020-05-21T08:44:25Z</time>
      </trkpt>
      <trkpt lat="47.21063" lon="-1.49989">
        <ele>2.39</ele>
        <time>2020-05-21T08:44:27Z</time>
      </trkpt>
      <trkpt lat="47.21068" lon="-1.49969">
        <ele>2.01</ele>
        <time>2020-05-21T08:44:29Z</time>
      </trkpt>
      <trkpt lat="47.21074" lon="-1.4995">
        <ele>1.72</ele>
        <time>2020-05-21T08:44:31Z</time>
      </trkpt>
      <trkpt lat="47.21079" lon="-1.49932">
        <ele>2.54</ele>
        <time>2020-05-21T08:44:33Z</time>
      </trkpt>
      <trkpt lat="47.21083" lon="-1.49914">
        <ele>2.97</ele>
        <time>2020-05-21T08:44:35Z</time>
      </trkpt>
      <trkpt lat="47.21089" lon="-1.49897">
        <ele>2.99</ele>
        <time>2020-05-21T08:44:37Z</time>
      </trkpt>
      <trkpt lat="47.21095" lon="-1.49879">
        <ele>3.17</ele>
        <time>2020-05-21T08:44:39Z</time>
      </trkpt>
      <trkpt lat="47.21099" lon="-1.49863">
        <ele>1.93</ele>
        <time>2020-05-21T08:44:41Z</time>
      </trkpt>
      <trkpt lat="47.211" lon="-1.49843">
        <ele>1.48</ele>
        <time>2020-05-21T08:44:43Z</time>
      </trkpt>
      <trkpt lat="47.21105" lon="-1.49824">
        <ele>1.46</ele>
        <time>2020-05-21T08:44:45Z</time>
      </trkpt>
      <trkpt lat="47.21109" lon="-1.49801">
        <ele>1.46</ele>
        <time>2020-05-21T08:44:47Z</time>
      </trkpt>
      <trkpt lat="47.21111" lon="-1.49782">
        <ele>0.89</ele>
        <time>2020-05-21T08:44:49Z</time>
      </trkpt>
      <trkpt lat="47.21113" lon="-1.49761">
        <ele>1.12</ele>
        <time>2020-05-21T08:44:51Z</time>
      </trkpt>
      <trkpt lat="47.21114" lon="-1.49743">
        <ele>1.04</ele>
        <time>2020-05-21T08:44:53Z</time>
      </trkpt>
      <trkpt lat="47.21115" lon="-1.49725">
        <ele>0.8</ele>
        <time>2020-05-21T08:44:55Z</time>
      </trkpt>
      <trkpt lat="47.21115" lon="-1.49706">
        <ele>1.07</ele>
        <time>2020-05-21T08:44:57Z</time>
      </trkpt>
      <trkpt lat="47.21116" lon="-1.49687">
        <ele>1.67</ele>
        <time>2020-05-21T08:44:59Z</time>
      </trkpt>
      <trkpt lat="47.21117" lon="-1.49671">
        <ele>3.6</ele>
        <time>2020-05-21T08:45:01Z</time>
      </trkpt>
      <trkpt lat="47.21118" lon="-1.49657">
        <ele>4.67</ele>
        <time>2020-05-21T08:45:04Z</time>
      </trkpt>
      <trkpt lat="47.21119" lon="-1.49636">
        <ele>5.9</ele>
        <time>2020-05-21T08:45:07Z</time>
      </trkpt>
      <trkpt lat="47.21121" lon="-1.49618">
        <ele>5.61</ele>
        <time>2020-05-21T08:45:09Z</time>
      </trkpt>
      <trkpt lat="47.21126" lon="-1.49605">
        <ele>5.72</ele>
        <time>2020-05-21T08:45:10Z</time>
      </trkpt>
      <trkpt lat="47.21134" lon="-1.49588">
        <ele>5.13</ele>
        <time>2020-05-21T08:45:12Z</time>
      </trkpt>
      <trkpt lat="47.21135" lon="-1.49566">
        <ele>3.81</ele>
        <time>2020-05-21T08:45:14Z</time>
      </trkpt>
      <trkpt lat="47.21131" lon="-1.49546">
        <ele>2.89</ele>
        <time>2020-05-21T08:45:16Z</time>
      </trkpt>
      <trkpt lat="47.21127" lon="-1.49527">
        <ele>3.12</ele>
        <time>2020-05-21T08:45:18Z</time>
      </trkpt>
      <trkpt lat="47.21125" lon="-1.49507">
        <ele>3.23</ele>
        <time>2020-05-21T08:45:20Z</time>
      </trkpt>
      <trkpt lat="47.21124" lon="-1.49487">
        <ele>3.75</ele>
        <time>2020-05-21T08:45:22Z</time>
      </trkpt>
      <trkpt lat="47.21124" lon="-1.49465">
        <ele>4.1</ele>
        <time>2020-05-21T08:45:24Z</time>
      </trkpt>
      <trkpt lat="47.21125" lon="-1.49443">
        <ele>4.12</ele>
        <time>2020-05-21T08:45:26Z</time>
      </trkpt>
      <trkpt lat="47.21126" lon="-1.49424">
        <ele>3.68</ele>
        <time>2020-05-21T08:45:28Z</time>
      </trkpt>
      <trkpt lat="47.21127" lon="-1.49402">
        <ele>3.76</ele>
        <time>2020-05-21T08:45:30Z</time>
      </trkpt>
      <trkpt lat="47.21129" lon="-1.49383">
        <ele>3.8</ele>
        <time>2020-05-21T08:45:32Z</time>
      </trkpt>
      <trkpt lat="47.2113" lon="-1.49363">
        <ele>3.95</ele>
        <time>2020-05-21T08:45:34Z</time>
      </trkpt>
      <trkpt lat="47.21131" lon="-1.49342">
        <ele>4.34</ele>
        <time>2020-05-21T08:45:36Z</time>
      </trkpt>
      <trkpt lat="47.21131" lon="-1.49322">
        <ele>5.22</ele>
        <time>2020-05-21T08:45:38Z</time>
      </trkpt>
      <trkpt lat="47.21132" lon="-1.49302">
        <ele>6.57</ele>
        <time>2020-05-21T08:45:40Z</time>
      </trkpt>
      <trkpt lat="47.21133" lon="-1.49283">
        <ele>7.24</ele>
        <time>2020-05-21T08:45:42Z</time>
      </trkpt>
      <trkpt lat="47.21134" lon="-1.49263">
        <ele>7.84</ele>
        <time>2020-05-21T08:45:44Z</time>
      </trkpt>
      <trkpt lat="47.21135" lon="-1.49242">
        <ele>7.4</ele>
        <time>2020-05-21T08:45:46Z</time>
      </trkpt>
      <trkpt lat="47.21137" lon="-1.49221">
        <ele>6.69</ele>
        <time>2020-05-21T08:45:48Z</time>
      </trkpt>
      <trkpt lat="47.21139" lon="-1.492">
        <ele>6.18</ele>
        <time>2020-05-21T08:45:50Z</time>
      </trkpt>
      <trkpt lat="47.21141" lon="-1.49181">
        <ele>6.57</ele>
        <time>2020-05-21T08:45:52Z</time>
      </trkpt>
      <trkpt lat="47.21144" lon="-1.49162">
        <ele>6.18</ele>
        <time>2020-05-21T08:45:54Z</time>
      </trkpt>
      <trkpt lat="47.21147" lon="-1.49143">
        <ele>5.26</ele>
        <time>2020-05-21T08:45:56Z</time>
      </trkpt>
      <trkpt lat="47.2115" lon="-1.49124">
        <ele>5.43</ele>
        <time>2020-05-21T08:45:58Z</time>
      </trkpt>
      <trkpt lat="47.21154" lon="-1.49104">
        <ele>6.04</ele>
        <time>2020-05-21T08:46:00Z</time>
      </trkpt>
      <trkpt lat="47.21162" lon="-1.49086">
        <ele>5.71</ele>
        <time>2020-05-21T08:46:02Z</time>
      </trkpt>
      <trkpt lat="47.2116" lon="-1.49065">
        <ele>3.94</ele>
        <time>2020-05-21T08:46:04Z</time>
      </trkpt>
      <trkpt lat="47.21155" lon="-1.49048">
        <ele>4.03</ele>
        <time>2020-05-21T08:46:06Z</time>
      </trkpt>
      <trkpt lat="47.21153" lon="-1.49028">
        <ele>4.51</ele>
        <time>2020-05-21T08:46:08Z</time>
      </trkpt>
      <trkpt lat="47.21155" lon="-1.49008">
        <ele>4.37</ele>
        <time>2020-05-21T08:46:10Z</time>
      </trkpt>
      <trkpt lat="47.21159" lon="-1.48987">
        <ele>3.2</ele>
        <time>2020-05-21T08:46:12Z</time>
      </trkpt>
      <trkpt lat="47.21162" lon="-1.48968">
        <ele>3.43</ele>
        <time>2020-05-21T08:46:14Z</time>
      </trkpt>
      <trkpt lat="47.21166" lon="-1.4895">
        <ele>4.75</ele>
        <time>2020-05-21T08:46:16Z</time>
      </trkpt>
      <trkpt lat="47.21171" lon="-1.48931">
        <ele>6.12</ele>
        <time>2020-05-21T08:46:18Z</time>
      </trkpt>
      <trkpt lat="47.21176" lon="-1.48908">
        <ele>7.69</ele>
        <time>2020-05-21T08:46:20Z</time>
      </trkpt>
      <trkpt lat="47.21179" lon="-1.48889">
        <ele>8.98</ele>
        <time>2020-05-21T08:46:22Z</time>
      </trkpt>
      <trkpt lat="47.21183" lon="-1.4887">
        <ele>10.22</ele>
        <time>2020-05-21T08:46:24Z</time>
      </trkpt>
      <trkpt lat="47.21187" lon="-1.4885">
        <ele>9.96</ele>
        <time>2020-05-21T08:46:26Z</time>
      </trkpt>
      <trkpt lat="47.21189" lon="-1.48836">
        <ele>9.22</ele>
        <time>2020-05-21T08:46:27Z</time>
      </trkpt>
      <trkpt lat="47.21192" lon="-1.48815">
        <ele>8.81</ele>
        <time>2020-05-21T08:46:29Z</time>
      </trkpt>
      <trkpt lat="47.21197" lon="-1.48793">
        <ele>8.54</ele>
        <time>2020-05-21T08:46:31Z</time>
      </trkpt>
      <trkpt lat="47.21201" lon="-1.48775">
        <ele>8.09</ele>
        <time>2020-05-21T08:46:33Z</time>
      </trkpt>
      <trkpt lat="47.21205" lon="-1.48754">
        <ele>8.38</ele>
        <time>2020-05-21T08:46:35Z</time>
      </trkpt>
      <trkpt lat="47.2121" lon="-1.48737">
        <ele>8.74</ele>
        <time>2020-05-21T08:46:37Z</time>
      </trkpt>
      <trkpt lat="47.21215" lon="-1.48722">
        <ele>7.57</ele>
        <time>2020-05-21T08:46:39Z</time>
      </trkpt>
      <trkpt lat="47.21219" lon="-1.48705">
        <ele>6.85</ele>
        <time>2020-05-21T08:46:42Z</time>
      </trkpt>
      <trkpt lat="47.21225" lon="-1.48687">
        <ele>8.73</ele>
        <time>2020-05-21T08:46:45Z</time>
      </trkpt>
      <trkpt lat="47.21231" lon="-1.48664">
        <ele>8.78</ele>
        <time>2020-05-21T08:46:47Z</time>
      </trkpt>
      <trkpt lat="47.21235" lon="-1.48649">
        <ele>8.21</ele>
        <time>2020-05-21T08:46:48Z</time>
      </trkpt>
      <trkpt lat="47.21238" lon="-1.48637">
        <ele>7.73</ele>
        <time>2020-05-21T08:46:49Z</time>
      </trkpt>
      <trkpt lat="47.21242" lon="-1.48622">
        <ele>7.44</ele>
        <time>2020-05-21T08:46:50Z</time>
      </trkpt>
      <trkpt lat="47.21248" lon="-1.48601">
        <ele>6.39</ele>
        <time>2020-05-21T08:46:52Z</time>
      </trkpt>
      <trkpt lat="47.21253" lon="-1.48579">
        <ele>6.19</ele>
        <time>2020-05-21T08:46:54Z</time>
      </trkpt>
      <trkpt lat="47.21259" lon="-1.48558">
        <ele>5.57</ele>
        <time>2020-05-21T08:46:56Z</time>
      </trkpt>
      <trkpt lat="47.21266" lon="-1.4854">
        <ele>4.75</ele>
        <time>2020-05-21T08:46:58Z</time>
      </trkpt>
      <trkpt lat="47.21273" lon="-1.48522">
        <ele>5.04</ele>
        <time>2020-05-21T08:47:00Z</time>
      </trkpt>
      <trkpt lat="47.21283" lon="-1.48512">
        <ele>5.09</ele>
        <time>2020-05-21T08:47:02Z</time>
      </trkpt>
      <trkpt lat="47.21291" lon="-1.48497">
        <ele>3.76</ele>
        <time>2020-05-21T08:47:04Z</time>
      </trkpt>
      <trkpt lat="47.21295" lon="-1.48479">
        <ele>2.84</ele>
        <time>2020-05-21T08:47:06Z</time>
      </trkpt>
      <trkpt lat="47.21299" lon="-1.48457">
        <ele>3</ele>
        <time>2020-05-21T08:47:08Z</time>
      </trkpt>
      <trkpt lat="47.21305" lon="-1.48434">
        <ele>3.15</ele>
        <time>2020-05-21T08:47:10Z</time>
      </trkpt>
      <trkpt lat="47.2131" lon="-1.48415">
        <ele>2.69</ele>
        <time>2020-05-21T08:47:12Z</time>
      </trkpt>
      <trkpt lat="47.21316" lon="-1.48393">
        <ele>2.08</ele>
        <time>2020-05-21T08:47:14Z</time>
      </trkpt>
      <trkpt lat="47.21323" lon="-1.48374">
        <ele>1.82</ele>
        <time>2020-05-21T08:47:16Z</time>
      </trkpt>
      <trkpt lat="47.2133" lon="-1.48354">
        <ele>1.95</ele>
        <time>2020-05-21T08:47:18Z</time>
      </trkpt>
      <trkpt lat="47.21337" lon="-1.48334">
        <ele>1.91</ele>
        <time>2020-05-21T08:47:20Z</time>
      </trkpt>
      <trkpt lat="47.21343" lon="-1.48313">
        <ele>2.17</ele>
        <time>2020-05-21T08:47:22Z</time>
      </trkpt>
      <trkpt lat="47.21349" lon="-1.48296">
        <ele>3.23</ele>
        <time>2020-05-21T08:47:24Z</time>
      </trkpt>
      <trkpt lat="47.21355" lon="-1.48277">
        <ele>4.03</ele>
        <time>2020-05-21T08:47:26Z</time>
      </trkpt>
      <trkpt lat="47.21362" lon="-1.48257">
        <ele>4.07</ele>
        <time>2020-05-21T08:47:28Z</time>
      </trkpt>
      <trkpt lat="47.21369" lon="-1.48237">
        <ele>3.49</ele>
        <time>2020-05-21T08:47:30Z</time>
      </trkpt>
      <trkpt lat="47.21376" lon="-1.4822">
        <ele>2.43</ele>
        <time>2020-05-21T08:47:32Z</time>
      </trkpt>
      <trkpt lat="47.21384" lon="-1.48201">
        <ele>1.66</ele>
        <time>2020-05-21T08:47:34Z</time>
      </trkpt>
      <trkpt lat="47.21392" lon="-1.48183">
        <ele>2.05</ele>
        <time>2020-05-21T08:47:36Z</time>
      </trkpt>
      <trkpt lat="47.21399" lon="-1.48167">
        <ele>3.22</ele>
        <time>2020-05-21T08:47:38Z</time>
      </trkpt>
      <trkpt lat="47.21409" lon="-1.48149">
        <ele>4.09</ele>
        <time>2020-05-21T08:47:40Z</time>
      </trkpt>
      <trkpt lat="47.21419" lon="-1.48131">
        <ele>5.39</ele>
        <time>2020-05-21T08:47:42Z</time>
      </trkpt>
      <trkpt lat="47.21426" lon="-1.48117">
        <ele>5.98</ele>
        <time>2020-05-21T08:47:44Z</time>
      </trkpt>
      <trkpt lat="47.21436" lon="-1.48102">
        <ele>5</ele>
        <time>2020-05-21T08:47:46Z</time>
      </trkpt>
      <trkpt lat="47.21446" lon="-1.48085">
        <ele>4.37</ele>
        <time>2020-05-21T08:47:48Z</time>
      </trkpt>
      <trkpt lat="47.21456" lon="-1.48069">
        <ele>4.41</ele>
        <time>2020-05-21T08:47:50Z</time>
      </trkpt>
      <trkpt lat="47.21466" lon="-1.48054">
        <ele>4.22</ele>
        <time>2020-05-21T08:47:52Z</time>
      </trkpt>
      <trkpt lat="47.21477" lon="-1.48039">
        <ele>3.95</ele>
        <time>2020-05-21T08:47:54Z</time>
      </trkpt>
      <trkpt lat="47.2149" lon="-1.48026">
        <ele>3.38</ele>
        <time>2020-05-21T08:47:56Z</time>
      </trkpt>
      <trkpt lat="47.21503" lon="-1.48013">
        <ele>3.04</ele>
        <time>2020-05-21T08:47:58Z</time>
      </trkpt>
      <trkpt lat="47.21514" lon="-1.47999">
        <ele>2.22</ele>
        <time>2020-05-21T08:48:00Z</time>
      </trkpt>
      <trkpt lat="47.21524" lon="-1.47986">
        <ele>2.45</ele>
        <time>2020-05-21T08:48:02Z</time>
      </trkpt>
      <trkpt lat="47.21534" lon="-1.47974">
        <ele>3.48</ele>
        <time>2020-05-21T08:48:04Z</time>
      </trkpt>
      <trkpt lat="47.21546" lon="-1.47961">
        <ele>3.69</ele>
        <time>2020-05-21T08:48:06Z</time>
      </trkpt>
      <trkpt lat="47.21558" lon="-1.47951">
        <ele>4.47</ele>
        <time>2020-05-21T08:48:08Z</time>
      </trkpt>
      <trkpt lat="47.21571" lon="-1.47939">
        <ele>5.11</ele>
        <time>2020-05-21T08:48:10Z</time>
      </trkpt>
      <trkpt lat="47.21582" lon="-1.47929">
        <ele>5.76</ele>
        <time>2020-05-21T08:48:12Z</time>
      </trkpt>
      <trkpt lat="47.21593" lon="-1.4792">
        <ele>6.07</ele>
        <time>2020-05-21T08:48:14Z</time>
      </trkpt>
      <trkpt lat="47.21605" lon="-1.4791">
        <ele>5.75</ele>
        <time>2020-05-21T08:48:16Z</time>
      </trkpt>
      <trkpt lat="47.21616" lon="-1.47901">
        <ele>5.24</ele>
        <time>2020-05-21T08:48:18Z</time>
      </trkpt>
      <trkpt lat="47.21628" lon="-1.4789">
        <ele>5.41</ele>
        <time>2020-05-21T08:48:20Z</time>
      </trkpt>
      <trkpt lat="47.2164" lon="-1.47879">
        <ele>6.45</ele>
        <time>2020-05-21T08:48:22Z</time>
      </trkpt>
      <trkpt lat="47.21651" lon="-1.47868">
        <ele>7.95</ele>
        <time>2020-05-21T08:48:24Z</time>
      </trkpt>
      <trkpt lat="47.21663" lon="-1.47857">
        <ele>8.19</ele>
        <time>2020-05-21T08:48:26Z</time>
      </trkpt>
      <trkpt lat="47.21673" lon="-1.47847">
        <ele>7.5</ele>
        <time>2020-05-21T08:48:28Z</time>
      </trkpt>
      <trkpt lat="47.21687" lon="-1.47834">
        <ele>7.43</ele>
        <time>2020-05-21T08:48:30Z</time>
      </trkpt>
      <trkpt lat="47.21699" lon="-1.47824">
        <ele>7.22</ele>
        <time>2020-05-21T08:48:32Z</time>
      </trkpt>
      <trkpt lat="47.2171" lon="-1.47814">
        <ele>7.1</ele>
        <time>2020-05-21T08:48:34Z</time>
      </trkpt>
      <trkpt lat="47.21721" lon="-1.47803">
        <ele>6.22</ele>
        <time>2020-05-21T08:48:36Z</time>
      </trkpt>
      <trkpt lat="47.21733" lon="-1.47793">
        <ele>5.57</ele>
        <time>2020-05-21T08:48:38Z</time>
      </trkpt>
      <trkpt lat="47.21744" lon="-1.47784">
        <ele>5.56</ele>
        <time>2020-05-21T08:48:40Z</time>
      </trkpt>
      <trkpt lat="47.21756" lon="-1.47774">
        <ele>5.84</ele>
        <time>2020-05-21T08:48:42Z</time>
      </trkpt>
      <trkpt lat="47.21767" lon="-1.47764">
        <ele>6.25</ele>
        <time>2020-05-21T08:48:44Z</time>
      </trkpt>
      <trkpt lat="47.21779" lon="-1.47753">
        <ele>7.11</ele>
        <time>2020-05-21T08:48:46Z</time>
      </trkpt>
      <trkpt lat="47.21791" lon="-1.47743">
        <ele>7.18</ele>
        <time>2020-05-21T08:48:48Z</time>
      </trkpt>
      <trkpt lat="47.21802" lon="-1.47733">
        <ele>6.86</ele>
        <time>2020-05-21T08:48:50Z</time>
      </trkpt>
      <trkpt lat="47.21815" lon="-1.47723">
        <ele>7.05</ele>
        <time>2020-05-21T08:48:52Z</time>
      </trkpt>
      <trkpt lat="47.21827" lon="-1.47714">
        <ele>7.91</ele>
        <time>2020-05-21T08:48:54Z</time>
      </trkpt>
      <trkpt lat="47.21839" lon="-1.47704">
        <ele>8.42</ele>
        <time>2020-05-21T08:48:56Z</time>
      </trkpt>
      <trkpt lat="47.21851" lon="-1.47694">
        <ele>8.24</ele>
        <time>2020-05-21T08:48:58Z</time>
      </trkpt>
      <trkpt lat="47.21865" lon="-1.47682">
        <ele>8.19</ele>
        <time>2020-05-21T08:49:00Z</time>
      </trkpt>
      <trkpt lat="47.21878" lon="-1.4767">
        <ele>7.82</ele>
        <time>2020-05-21T08:49:02Z</time>
      </trkpt>
      <trkpt lat="47.2189" lon="-1.47658">
        <ele>6.61</ele>
        <time>2020-05-21T08:49:04Z</time>
      </trkpt>
      <trkpt lat="47.21902" lon="-1.47647">
        <ele>5.68</ele>
        <time>2020-05-21T08:49:06Z</time>
      </trkpt>
      <trkpt lat="47.21914" lon="-1.47635">
        <ele>5.31</ele>
        <time>2020-05-21T08:49:08Z</time>
      </trkpt>
      <trkpt lat="47.21926" lon="-1.47624">
        <ele>5.03</ele>
        <time>2020-05-21T08:49:10Z</time>
      </trkpt>
      <trkpt lat="47.21938" lon="-1.47614">
        <ele>4.81</ele>
        <time>2020-05-21T08:49:12Z</time>
      </trkpt>
      <trkpt lat="47.2195" lon="-1.47602">
        <ele>4.5</ele>
        <time>2020-05-21T08:49:14Z</time>
      </trkpt>
      <trkpt lat="47.21961" lon="-1.47592">
        <ele>4.25</ele>
        <time>2020-05-21T08:49:16Z</time>
      </trkpt>
      <trkpt lat="47.21973" lon="-1.47581">
        <ele>3.95</ele>
        <time>2020-05-21T08:49:18Z</time>
      </trkpt>
      <trkpt lat="47.21986" lon="-1.4757">
        <ele>3.75</ele>
        <time>2020-05-21T08:49:20Z</time>
      </trkpt>
      <trkpt lat="47.21999" lon="-1.47559">
        <ele>4.26</ele>
        <time>2020-05-21T08:49:22Z</time>
      </trkpt>
      <trkpt lat="47.22011" lon="-1.47548">
        <ele>4.43</ele>
        <time>2020-05-21T08:49:24Z</time>
      </trkpt>
      <trkpt lat="47.22023" lon="-1.47537">
        <ele>4.18</ele>
        <time>2020-05-21T08:49:26Z</time>
      </trkpt>
      <trkpt lat="47.22035" lon="-1.47527">
        <ele>4.05</ele>
        <time>2020-05-21T08:49:28Z</time>
      </trkpt>
      <trkpt lat="47.22046" lon="-1.47515">
        <ele>3.88</ele>
        <time>2020-05-21T08:49:30Z</time>
      </trkpt>
      <trkpt lat="47.22058" lon="-1.47503">
        <ele>4.23</ele>
        <time>2020-05-21T08:49:32Z</time>
      </trkpt>
      <trkpt lat="47.22069" lon="-1.47492">
        <ele>4.77</ele>
        <time>2020-05-21T08:49:34Z</time>
      </trkpt>
      <trkpt lat="47.2208" lon="-1.4748">
        <ele>5.49</ele>
        <time>2020-05-21T08:49:36Z</time>
      </trkpt>
      <trkpt lat="47.22093" lon="-1.47468">
        <ele>5.7</ele>
        <time>2020-05-21T08:49:38Z</time>
      </trkpt>
      <trkpt lat="47.22108" lon="-1.47456">
        <ele>5.76</ele>
        <time>2020-05-21T08:49:40Z</time>
      </trkpt>
      <trkpt lat="47.22121" lon="-1.47446">
        <ele>6.13</ele>
        <time>2020-05-21T08:49:42Z</time>
      </trkpt>
      <trkpt lat="47.22134" lon="-1.47435">
        <ele>6.13</ele>
        <time>2020-05-21T08:49:44Z</time>
      </trkpt>
      <trkpt lat="47.22146" lon="-1.47425">
        <ele>5.75</ele>
        <time>2020-05-21T08:49:46Z</time>
      </trkpt>
      <trkpt lat="47.22159" lon="-1.47415">
        <ele>5.41</ele>
        <time>2020-05-21T08:49:48Z</time>
      </trkpt>
      <trkpt lat="47.22171" lon="-1.47405">
        <ele>5.62</ele>
        <time>2020-05-21T08:49:50Z</time>
      </trkpt>
      <trkpt lat="47.22183" lon="-1.47394">
        <ele>4.81</ele>
        <time>2020-05-21T08:49:52Z</time>
      </trkpt>
      <trkpt lat="47.22194" lon="-1.47385">
        <ele>4.87</ele>
        <time>2020-05-21T08:49:54Z</time>
      </trkpt>
      <trkpt lat="47.22207" lon="-1.47374">
        <ele>4.46</ele>
        <time>2020-05-21T08:49:56Z</time>
      </trkpt>
      <trkpt lat="47.22218" lon="-1.47364">
        <ele>4.73</ele>
        <time>2020-05-21T08:49:58Z</time>
      </trkpt>
      <trkpt lat="47.2223" lon="-1.47356">
        <ele>5.45</ele>
        <time>2020-05-21T08:50:00Z</time>
      </trkpt>
      <trkpt lat="47.22243" lon="-1.47349">
        <ele>5.12</ele>
        <time>2020-05-21T08:50:02Z</time>
      </trkpt>
      <trkpt lat="47.22258" lon="-1.4734">
        <ele>4.55</ele>
        <time>2020-05-21T08:50:04Z</time>
      </trkpt>
      <trkpt lat="47.22273" lon="-1.47332">
        <ele>5.1</ele>
        <time>2020-05-21T08:50:06Z</time>
      </trkpt>
      <trkpt lat="47.22286" lon="-1.47322">
        <ele>6.19</ele>
        <time>2020-05-21T08:50:08Z</time>
      </trkpt>
      <trkpt lat="47.22296" lon="-1.47313">
        <ele>6.88</ele>
        <time>2020-05-21T08:50:10Z</time>
      </trkpt>
      <trkpt lat="47.22307" lon="-1.47303">
        <ele>6.95</ele>
        <time>2020-05-21T08:50:12Z</time>
      </trkpt>
      <trkpt lat="47.2232" lon="-1.47292">
        <ele>6.15</ele>
        <time>2020-05-21T08:50:14Z</time>
      </trkpt>
      <trkpt lat="47.22332" lon="-1.47281">
        <ele>5.41</ele>
        <time>2020-05-21T08:50:16Z</time>
      </trkpt>
      <trkpt lat="47.22345" lon="-1.47271">
        <ele>5.07</ele>
        <time>2020-05-21T08:50:18Z</time>
      </trkpt>
      <trkpt lat="47.22356" lon="-1.47262">
        <ele>4.62</ele>
        <time>2020-05-21T08:50:20Z</time>
      </trkpt>
      <trkpt lat="47.22369" lon="-1.4725">
        <ele>4.16</ele>
        <time>2020-05-21T08:50:22Z</time>
      </trkpt>
      <trkpt lat="47.22381" lon="-1.4724">
        <ele>3.38</ele>
        <time>2020-05-21T08:50:24Z</time>
      </trkpt>
      <trkpt lat="47.22391" lon="-1.4723">
        <ele>3.16</ele>
        <time>2020-05-21T08:50:26Z</time>
      </trkpt>
      <trkpt lat="47.22402" lon="-1.47218">
        <ele>3.42</ele>
        <time>2020-05-21T08:50:28Z</time>
      </trkpt>
      <trkpt lat="47.22413" lon="-1.47205">
        <ele>4.29</ele>
        <time>2020-05-21T08:50:30Z</time>
      </trkpt>
      <trkpt lat="47.22422" lon="-1.47194">
        <ele>5.27</ele>
        <time>2020-05-21T08:50:32Z</time>
      </trkpt>
      <trkpt lat="47.22432" lon="-1.47183">
        <ele>5.85</ele>
        <time>2020-05-21T08:50:34Z</time>
      </trkpt>
      <trkpt lat="47.22443" lon="-1.47173">
        <ele>5.8</ele>
        <time>2020-05-21T08:50:36Z</time>
      </trkpt>
      <trkpt lat="47.22453" lon="-1.47164">
        <ele>5.38</ele>
        <time>2020-05-21T08:50:38Z</time>
      </trkpt>
      <trkpt lat="47.22465" lon="-1.47153">
        <ele>5.35</ele>
        <time>2020-05-21T08:50:40Z</time>
      </trkpt>
      <trkpt lat="47.22476" lon="-1.47144">
        <ele>5.67</ele>
        <time>2020-05-21T08:50:42Z</time>
      </trkpt>
      <trkpt lat="47.22487" lon="-1.47137">
        <ele>6.29</ele>
        <time>2020-05-21T08:50:44Z</time>
      </trkpt>
      <trkpt lat="47.225" lon="-1.47131">
        <ele>6.23</ele>
        <time>2020-05-21T08:50:47Z</time>
      </trkpt>
      <trkpt lat="47.22512" lon="-1.47128">
        <ele>6.08</ele>
        <time>2020-05-21T08:50:48Z</time>
      </trkpt>
      <trkpt lat="47.22526" lon="-1.47124">
        <ele>6.35</ele>
        <time>2020-05-21T08:50:50Z</time>
      </trkpt>
      <trkpt lat="47.2254" lon="-1.47121">
        <ele>5.96</ele>
        <time>2020-05-21T08:50:53Z</time>
      </trkpt>
      <trkpt lat="47.22555" lon="-1.47118">
        <ele>6.2</ele>
        <time>2020-05-21T08:50:55Z</time>
      </trkpt>
      <trkpt lat="47.2257" lon="-1.47116">
        <ele>6.38</ele>
        <time>2020-05-21T08:50:57Z</time>
      </trkpt>
      <trkpt lat="47.22582" lon="-1.4711">
        <ele>6.27</ele>
        <time>2020-05-21T08:50:59Z</time>
      </trkpt>
      <trkpt lat="47.22593" lon="-1.47101">
        <ele>6.03</ele>
        <time>2020-05-21T08:51:01Z</time>
      </trkpt>
      <trkpt lat="47.22604" lon="-1.47085">
        <ele>5.83</ele>
        <time>2020-05-21T08:51:03Z</time>
      </trkpt>
      <trkpt lat="47.22615" lon="-1.47067">
        <ele>6.17</ele>
        <time>2020-05-21T08:51:05Z</time>
      </trkpt>
      <trkpt lat="47.22623" lon="-1.47049">
        <ele>5.05</ele>
        <time>2020-05-21T08:51:07Z</time>
      </trkpt>
      <trkpt lat="47.22632" lon="-1.47031">
        <ele>4.07</ele>
        <time>2020-05-21T08:51:09Z</time>
      </trkpt>
      <trkpt lat="47.22641" lon="-1.47016">
        <ele>3.92</ele>
        <time>2020-05-21T08:51:11Z</time>
      </trkpt>
      <trkpt lat="47.22651" lon="-1.47004">
        <ele>4.87</ele>
        <time>2020-05-21T08:51:13Z</time>
      </trkpt>
      <trkpt lat="47.22662" lon="-1.46992">
        <ele>5.74</ele>
        <time>2020-05-21T08:51:15Z</time>
      </trkpt>
      <trkpt lat="47.22673" lon="-1.46982">
        <ele>5.35</ele>
        <time>2020-05-21T08:51:17Z</time>
      </trkpt>
      <trkpt lat="47.22686" lon="-1.46973">
        <ele>5.5</ele>
        <time>2020-05-21T08:51:19Z</time>
      </trkpt>
      <trkpt lat="47.22699" lon="-1.46965">
        <ele>5.31</ele>
        <time>2020-05-21T08:51:21Z</time>
      </trkpt>
      <trkpt lat="47.22711" lon="-1.46959">
        <ele>4.87</ele>
        <time>2020-05-21T08:51:23Z</time>
      </trkpt>
      <trkpt lat="47.22724" lon="-1.46956">
        <ele>4.62</ele>
        <time>2020-05-21T08:51:25Z</time>
      </trkpt>
      <trkpt lat="47.2274" lon="-1.46952">
        <ele>4.55</ele>
        <time>2020-05-21T08:51:27Z</time>
      </trkpt>
      <trkpt lat="47.22753" lon="-1.4695">
        <ele>3.55</ele>
        <time>2020-05-21T08:51:29Z</time>
      </trkpt>
      <trkpt lat="47.22766" lon="-1.46949">
        <ele>2.36</ele>
        <time>2020-05-21T08:51:31Z</time>
      </trkpt>
      <trkpt lat="47.22778" lon="-1.4695">
        <ele>2.95</ele>
        <time>2020-05-21T08:51:33Z</time>
      </trkpt>
      <trkpt lat="47.22791" lon="-1.46952">
        <ele>3.26</ele>
        <time>2020-05-21T08:51:35Z</time>
      </trkpt>
      <trkpt lat="47.22804" lon="-1.46956">
        <ele>2.7</ele>
        <time>2020-05-21T08:51:37Z</time>
      </trkpt>
      <trkpt lat="47.22818" lon="-1.46961">
        <ele>1.78</ele>
        <time>2020-05-21T08:51:39Z</time>
      </trkpt>
      <trkpt lat="47.2283" lon="-1.46968">
        <ele>1.67</ele>
        <time>2020-05-21T08:51:41Z</time>
      </trkpt>
      <trkpt lat="47.22843" lon="-1.46977">
        <ele>2.02</ele>
        <time>2020-05-21T08:51:43Z</time>
      </trkpt>
      <trkpt lat="47.22856" lon="-1.46984">
        <ele>2.93</ele>
        <time>2020-05-21T08:51:45Z</time>
      </trkpt>
      <trkpt lat="47.2287" lon="-1.46992">
        <ele>3.99</ele>
        <time>2020-05-21T08:51:47Z</time>
      </trkpt>
      <trkpt lat="47.22883" lon="-1.46999">
        <ele>4.46</ele>
        <time>2020-05-21T08:51:49Z</time>
      </trkpt>
      <trkpt lat="47.22898" lon="-1.47001">
        <ele>4.5</ele>
        <time>2020-05-21T08:51:51Z</time>
      </trkpt>
      <trkpt lat="47.22911" lon="-1.46992">
        <ele>5.38</ele>
        <time>2020-05-21T08:51:53Z</time>
      </trkpt>
      <trkpt lat="47.22914" lon="-1.46972">
        <ele>3.97</ele>
        <time>2020-05-21T08:51:55Z</time>
      </trkpt>
      <trkpt lat="47.22917" lon="-1.46951">
        <ele>3.3</ele>
        <time>2020-05-21T08:51:57Z</time>
      </trkpt>
      <trkpt lat="47.22921" lon="-1.4693">
        <ele>2.72</ele>
        <time>2020-05-21T08:51:59Z</time>
      </trkpt>
      <trkpt lat="47.22925" lon="-1.46913">
        <ele>0.81</ele>
        <time>2020-05-21T08:52:01Z</time>
      </trkpt>
      <trkpt lat="47.2293" lon="-1.46887">
        <ele>-2.74</ele>
        <time>2020-05-21T08:52:03Z</time>
      </trkpt>
      <trkpt lat="47.22933" lon="-1.46875">
        <ele>-4.34</ele>
        <time>2020-05-21T08:52:04Z</time>
      </trkpt>
      <trkpt lat="47.22937" lon="-1.46859">
        <ele>-3.85</ele>
        <time>2020-05-21T08:52:06Z</time>
      </trkpt>
      <trkpt lat="47.22942" lon="-1.46844">
        <ele>-2.92</ele>
        <time>2020-05-21T08:52:08Z</time>
      </trkpt>
      <trkpt lat="47.22948" lon="-1.46827">
        <ele>-0.67</ele>
        <time>2020-05-21T08:52:11Z</time>
      </trkpt>
      <trkpt lat="47.22958" lon="-1.46826">
        <ele>-0.19</ele>
        <time>2020-05-21T08:52:13Z</time>
      </trkpt>
      <trkpt lat="47.22966" lon="-1.46817">
        <ele>0.06</ele>
        <time>2020-05-21T08:52:15Z</time>
      </trkpt>
      <trkpt lat="47.22973" lon="-1.468">
        <ele>0.31</ele>
        <time>2020-05-21T08:52:17Z</time>
      </trkpt>
      <trkpt lat="47.22979" lon="-1.46784">
        <ele>0.84</ele>
        <time>2020-05-21T08:52:19Z</time>
      </trkpt>
      <trkpt lat="47.2299" lon="-1.46768">
        <ele>3.15</ele>
        <time>2020-05-21T08:52:22Z</time>
      </trkpt>
      <trkpt lat="47.22997" lon="-1.46761">
        <ele>3.9</ele>
        <time>2020-05-21T08:52:24Z</time>
      </trkpt>
      <trkpt lat="47.23006" lon="-1.46752">
        <ele>4.25</ele>
        <time>2020-05-21T08:52:26Z</time>
      </trkpt>
      <trkpt lat="47.23015" lon="-1.46745">
        <ele>4.44</ele>
        <time>2020-05-21T08:52:28Z</time>
      </trkpt>
      <trkpt lat="47.23024" lon="-1.4674">
        <ele>5.11</ele>
        <time>2020-05-21T08:52:30Z</time>
      </trkpt>
      <trkpt lat="47.23034" lon="-1.46737">
        <ele>5.22</ele>
        <time>2020-05-21T08:52:33Z</time>
      </trkpt>
      <trkpt lat="47.23042" lon="-1.46732">
        <ele>5.2</ele>
        <time>2020-05-21T08:52:35Z</time>
      </trkpt>
      <trkpt lat="47.23047" lon="-1.46715">
        <ele>5.5</ele>
        <time>2020-05-21T08:52:38Z</time>
      </trkpt>
      <trkpt lat="47.23047" lon="-1.467">
        <ele>5.56</ele>
        <time>2020-05-21T08:52:40Z</time>
      </trkpt>
      <trkpt lat="47.23051" lon="-1.46682">
        <ele>5.97</ele>
        <time>2020-05-21T08:52:42Z</time>
      </trkpt>
      <trkpt lat="47.23058" lon="-1.46663">
        <ele>6.01</ele>
        <time>2020-05-21T08:52:44Z</time>
      </trkpt>
      <trkpt lat="47.23064" lon="-1.46644">
        <ele>5.91</ele>
        <time>2020-05-21T08:52:46Z</time>
      </trkpt>
      <trkpt lat="47.23074" lon="-1.46627">
        <ele>6.27</ele>
        <time>2020-05-21T08:52:48Z</time>
      </trkpt>
      <trkpt lat="47.23086" lon="-1.46612">
        <ele>6.74</ele>
        <time>2020-05-21T08:52:50Z</time>
      </trkpt>
      <trkpt lat="47.23097" lon="-1.46598">
        <ele>6.77</ele>
        <time>2020-05-21T08:52:52Z</time>
      </trkpt>
      <trkpt lat="47.23109" lon="-1.46587">
        <ele>6.44</ele>
        <time>2020-05-21T08:52:54Z</time>
      </trkpt>
      <trkpt lat="47.2312" lon="-1.46575">
        <ele>6.59</ele>
        <time>2020-05-21T08:52:56Z</time>
      </trkpt>
      <trkpt lat="47.23132" lon="-1.46562">
        <ele>6.15</ele>
        <time>2020-05-21T08:52:58Z</time>
      </trkpt>
      <trkpt lat="47.23144" lon="-1.46548">
        <ele>5.39</ele>
        <time>2020-05-21T08:53:00Z</time>
      </trkpt>
      <trkpt lat="47.23155" lon="-1.46537">
        <ele>4.98</ele>
        <time>2020-05-21T08:53:02Z</time>
      </trkpt>
      <trkpt lat="47.23167" lon="-1.46524">
        <ele>4.87</ele>
        <time>2020-05-21T08:53:04Z</time>
      </trkpt>
      <trkpt lat="47.23178" lon="-1.4651">
        <ele>5.02</ele>
        <time>2020-05-21T08:53:06Z</time>
      </trkpt>
      <trkpt lat="47.2319" lon="-1.46496">
        <ele>5.09</ele>
        <time>2020-05-21T08:53:08Z</time>
      </trkpt>
      <trkpt lat="47.23199" lon="-1.46485">
        <ele>4.75</ele>
        <time>2020-05-21T08:53:10Z</time>
      </trkpt>
      <trkpt lat="47.23209" lon="-1.46471">
        <ele>4.52</ele>
        <time>2020-05-21T08:53:12Z</time>
      </trkpt>
      <trkpt lat="47.23219" lon="-1.46458">
        <ele>4.23</ele>
        <time>2020-05-21T08:53:14Z</time>
      </trkpt>
      <trkpt lat="47.23228" lon="-1.46447">
        <ele>4.67</ele>
        <time>2020-05-21T08:53:16Z</time>
      </trkpt>
      <trkpt lat="47.23239" lon="-1.46434">
        <ele>5.29</ele>
        <time>2020-05-21T08:53:18Z</time>
      </trkpt>
      <trkpt lat="47.23249" lon="-1.46421">
        <ele>6.18</ele>
        <time>2020-05-21T08:53:20Z</time>
      </trkpt>
      <trkpt lat="47.23259" lon="-1.46408">
        <ele>6.34</ele>
        <time>2020-05-21T08:53:22Z</time>
      </trkpt>
      <trkpt lat="47.2327" lon="-1.46394">
        <ele>6.23</ele>
        <time>2020-05-21T08:53:24Z</time>
      </trkpt>
      <trkpt lat="47.23279" lon="-1.46383">
        <ele>6.28</ele>
        <time>2020-05-21T08:53:26Z</time>
      </trkpt>
      <trkpt lat="47.23291" lon="-1.4637">
        <ele>6.51</ele>
        <time>2020-05-21T08:53:28Z</time>
      </trkpt>
      <trkpt lat="47.23301" lon="-1.46356">
        <ele>6.5</ele>
        <time>2020-05-21T08:53:30Z</time>
      </trkpt>
      <trkpt lat="47.23311" lon="-1.46342">
        <ele>6.16</ele>
        <time>2020-05-21T08:53:32Z</time>
      </trkpt>
      <trkpt lat="47.2332" lon="-1.46327">
        <ele>4.85</ele>
        <time>2020-05-21T08:53:34Z</time>
      </trkpt>
      <trkpt lat="47.23331" lon="-1.4631">
        <ele>4.4</ele>
        <time>2020-05-21T08:53:36Z</time>
      </trkpt>
      <trkpt lat="47.2334" lon="-1.46297">
        <ele>4.21</ele>
        <time>2020-05-21T08:53:38Z</time>
      </trkpt>
      <trkpt lat="47.23351" lon="-1.46284">
        <ele>3.71</ele>
        <time>2020-05-21T08:53:40Z</time>
      </trkpt>
      <trkpt lat="47.23361" lon="-1.46272">
        <ele>3.79</ele>
        <time>2020-05-21T08:53:42Z</time>
      </trkpt>
      <trkpt lat="47.23373" lon="-1.46257">
        <ele>4.73</ele>
        <time>2020-05-21T08:53:44Z</time>
      </trkpt>
      <trkpt lat="47.23383" lon="-1.46244">
        <ele>5.23</ele>
        <time>2020-05-21T08:53:46Z</time>
      </trkpt>
      <trkpt lat="47.23392" lon="-1.46234">
        <ele>5.97</ele>
        <time>2020-05-21T08:53:48Z</time>
      </trkpt>
      <trkpt lat="47.23402" lon="-1.46221">
        <ele>6.27</ele>
        <time>2020-05-21T08:53:50Z</time>
      </trkpt>
      <trkpt lat="47.23411" lon="-1.4621">
        <ele>6.35</ele>
        <time>2020-05-21T08:53:52Z</time>
      </trkpt>
      <trkpt lat="47.23422" lon="-1.46195">
        <ele>6.36</ele>
        <time>2020-05-21T08:53:54Z</time>
      </trkpt>
      <trkpt lat="47.23435" lon="-1.46182">
        <ele>6.47</ele>
        <time>2020-05-21T08:53:56Z</time>
      </trkpt>
      <trkpt lat="47.23447" lon="-1.46169">
        <ele>6.78</ele>
        <time>2020-05-21T08:53:58Z</time>
      </trkpt>
      <trkpt lat="47.23459" lon="-1.46157">
        <ele>6.65</ele>
        <time>2020-05-21T08:54:00Z</time>
      </trkpt>
      <trkpt lat="47.2347" lon="-1.46147">
        <ele>6.2</ele>
        <time>2020-05-21T08:54:02Z</time>
      </trkpt>
      <trkpt lat="47.2348" lon="-1.46137">
        <ele>5.71</ele>
        <time>2020-05-21T08:54:04Z</time>
      </trkpt>
      <trkpt lat="47.23491" lon="-1.46127">
        <ele>5.77</ele>
        <time>2020-05-21T08:54:06Z</time>
      </trkpt>
      <trkpt lat="47.23499" lon="-1.46119">
        <ele>6.1</ele>
        <time>2020-05-21T08:54:08Z</time>
      </trkpt>
      <trkpt lat="47.23508" lon="-1.46108">
        <ele>5.1</ele>
        <time>2020-05-21T08:54:11Z</time>
      </trkpt>
      <trkpt lat="47.23518" lon="-1.46098">
        <ele>5.06</ele>
        <time>2020-05-21T08:54:13Z</time>
      </trkpt>
      <trkpt lat="47.23526" lon="-1.4609">
        <ele>5.41</ele>
        <time>2020-05-21T08:54:15Z</time>
      </trkpt>
      <trkpt lat="47.23536" lon="-1.4608">
        <ele>6.34</ele>
        <time>2020-05-21T08:54:17Z</time>
      </trkpt>
      <trkpt lat="47.23549" lon="-1.46069">
        <ele>6.21</ele>
        <time>2020-05-21T08:54:19Z</time>
      </trkpt>
      <trkpt lat="47.23561" lon="-1.46059">
        <ele>6.46</ele>
        <time>2020-05-21T08:54:21Z</time>
      </trkpt>
      <trkpt lat="47.23574" lon="-1.46056">
        <ele>5.92</ele>
        <time>2020-05-21T08:54:23Z</time>
      </trkpt>
      <trkpt lat="47.23588" lon="-1.46047">
        <ele>4.85</ele>
        <time>2020-05-21T08:54:25Z</time>
      </trkpt>
      <trkpt lat="47.23602" lon="-1.46035">
        <ele>4.13</ele>
        <time>2020-05-21T08:54:27Z</time>
      </trkpt>
      <trkpt lat="47.23614" lon="-1.46025">
        <ele>3.74</ele>
        <time>2020-05-21T08:54:29Z</time>
      </trkpt>
      <trkpt lat="47.23628" lon="-1.46016">
        <ele>3.49</ele>
        <time>2020-05-21T08:54:31Z</time>
      </trkpt>
      <trkpt lat="47.23641" lon="-1.4601">
        <ele>2.65</ele>
        <time>2020-05-21T08:54:33Z</time>
      </trkpt>
      <trkpt lat="47.23654" lon="-1.46006">
        <ele>2.08</ele>
        <time>2020-05-21T08:54:35Z</time>
      </trkpt>
      <trkpt lat="47.23669" lon="-1.46003">
        <ele>2.69</ele>
        <time>2020-05-21T08:54:37Z</time>
      </trkpt>
      <trkpt lat="47.23682" lon="-1.46">
        <ele>2.27</ele>
        <time>2020-05-21T08:54:39Z</time>
      </trkpt>
      <trkpt lat="47.23695" lon="-1.45998">
        <ele>2.19</ele>
        <time>2020-05-21T08:54:41Z</time>
      </trkpt>
      <trkpt lat="47.23708" lon="-1.45995">
        <ele>3.76</ele>
        <time>2020-05-21T08:54:43Z</time>
      </trkpt>
      <trkpt lat="47.2372" lon="-1.45993">
        <ele>4.77</ele>
        <time>2020-05-21T08:54:47Z</time>
      </trkpt>
      <trkpt lat="47.23729" lon="-1.45994">
        <ele>4.93</ele>
        <time>2020-05-21T08:54:49Z</time>
      </trkpt>
      <trkpt lat="47.23742" lon="-1.45988">
        <ele>4.52</ele>
        <time>2020-05-21T08:54:51Z</time>
      </trkpt>
      <trkpt lat="47.23754" lon="-1.45984">
        <ele>4.5</ele>
        <time>2020-05-21T08:54:53Z</time>
      </trkpt>
      <trkpt lat="47.23764" lon="-1.4598">
        <ele>4.66</ele>
        <time>2020-05-21T08:54:55Z</time>
      </trkpt>
      <trkpt lat="47.23774" lon="-1.45977">
        <ele>4.27</ele>
        <time>2020-05-21T08:54:58Z</time>
      </trkpt>
      <trkpt lat="47.23786" lon="-1.45973">
        <ele>4.09</ele>
        <time>2020-05-21T08:55:02Z</time>
      </trkpt>
      <trkpt lat="47.238" lon="-1.4597">
        <ele>3.41</ele>
        <time>2020-05-21T08:55:04Z</time>
      </trkpt>
      <trkpt lat="47.23812" lon="-1.45965">
        <ele>2.51</ele>
        <time>2020-05-21T08:55:06Z</time>
      </trkpt>
      <trkpt lat="47.23822" lon="-1.45959">
        <ele>2.91</ele>
        <time>2020-05-21T08:55:08Z</time>
      </trkpt>
      <trkpt lat="47.23837" lon="-1.45954">
        <ele>2.89</ele>
        <time>2020-05-21T08:55:10Z</time>
      </trkpt>
      <trkpt lat="47.23853" lon="-1.4595">
        <ele>3.29</ele>
        <time>2020-05-21T08:55:12Z</time>
      </trkpt>
      <trkpt lat="47.23865" lon="-1.45947">
        <ele>3.33</ele>
        <time>2020-05-21T08:55:14Z</time>
      </trkpt>
      <trkpt lat="47.23879" lon="-1.45943">
        <ele>2.91</ele>
        <time>2020-05-21T08:55:16Z</time>
      </trkpt>
      <trkpt lat="47.23893" lon="-1.4594">
        <ele>2.32</ele>
        <time>2020-05-21T08:55:18Z</time>
      </trkpt>
      <trkpt lat="47.23905" lon="-1.45937">
        <ele>2.98</ele>
        <time>2020-05-21T08:55:20Z</time>
      </trkpt>
      <trkpt lat="47.2392" lon="-1.45934">
        <ele>4.41</ele>
        <time>2020-05-21T08:55:22Z</time>
      </trkpt>
      <trkpt lat="47.23931" lon="-1.45931">
        <ele>4.99</ele>
        <time>2020-05-21T08:55:24Z</time>
      </trkpt>
      <trkpt lat="47.23944" lon="-1.45924">
        <ele>4.4</ele>
        <time>2020-05-21T08:55:26Z</time>
      </trkpt>
      <trkpt lat="47.23957" lon="-1.45913">
        <ele>5.31</ele>
        <time>2020-05-21T08:55:28Z</time>
      </trkpt>
      <trkpt lat="47.23968" lon="-1.45901">
        <ele>5.16</ele>
        <time>2020-05-21T08:55:30Z</time>
      </trkpt>
      <trkpt lat="47.23979" lon="-1.45886">
        <ele>6.03</ele>
        <time>2020-05-21T08:55:32Z</time>
      </trkpt>
      <trkpt lat="47.23989" lon="-1.45871">
        <ele>6.12</ele>
        <time>2020-05-21T08:55:34Z</time>
      </trkpt>
      <trkpt lat="47.23998" lon="-1.45856">
        <ele>5.65</ele>
        <time>2020-05-21T08:55:36Z</time>
      </trkpt>
      <trkpt lat="47.24008" lon="-1.4584">
        <ele>5.34</ele>
        <time>2020-05-21T08:55:38Z</time>
      </trkpt>
      <trkpt lat="47.24017" lon="-1.45825">
        <ele>4.68</ele>
        <time>2020-05-21T08:55:40Z</time>
      </trkpt>
      <trkpt lat="47.24027" lon="-1.4581">
        <ele>3.34</ele>
        <time>2020-05-21T08:55:42Z</time>
      </trkpt>
      <trkpt lat="47.24037" lon="-1.45796">
        <ele>2.83</ele>
        <time>2020-05-21T08:55:44Z</time>
      </trkpt>
      <trkpt lat="47.24048" lon="-1.45779">
        <ele>2.74</ele>
        <time>2020-05-21T08:55:46Z</time>
      </trkpt>
      <trkpt lat="47.24058" lon="-1.45762">
        <ele>2.4</ele>
        <time>2020-05-21T08:55:48Z</time>
      </trkpt>
      <trkpt lat="47.24068" lon="-1.45744">
        <ele>2.8</ele>
        <time>2020-05-21T08:55:50Z</time>
      </trkpt>
      <trkpt lat="47.24079" lon="-1.45724">
        <ele>3.58</ele>
        <time>2020-05-21T08:55:52Z</time>
      </trkpt>
      <trkpt lat="47.24088" lon="-1.45708">
        <ele>3.87</ele>
        <time>2020-05-21T08:55:54Z</time>
      </trkpt>
      <trkpt lat="47.24099" lon="-1.4569">
        <ele>3.68</ele>
        <time>2020-05-21T08:55:56Z</time>
      </trkpt>
      <trkpt lat="47.2411" lon="-1.4567">
        <ele>3.33</ele>
        <time>2020-05-21T08:55:58Z</time>
      </trkpt>
      <trkpt lat="47.24118" lon="-1.45654">
        <ele>3.57</ele>
        <time>2020-05-21T08:56:00Z</time>
      </trkpt>
      <trkpt lat="47.24125" lon="-1.45637">
        <ele>4.3</ele>
        <time>2020-05-21T08:56:02Z</time>
      </trkpt>
      <trkpt lat="47.24133" lon="-1.45618">
        <ele>4.88</ele>
        <time>2020-05-21T08:56:04Z</time>
      </trkpt>
      <trkpt lat="47.24139" lon="-1.45601">
        <ele>4.83</ele>
        <time>2020-05-21T08:56:06Z</time>
      </trkpt>
      <trkpt lat="47.24147" lon="-1.45581">
        <ele>4.91</ele>
        <time>2020-05-21T08:56:08Z</time>
      </trkpt>
      <trkpt lat="47.24153" lon="-1.45562">
        <ele>4.82</ele>
        <time>2020-05-21T08:56:10Z</time>
      </trkpt>
      <trkpt lat="47.24159" lon="-1.45543">
        <ele>3.88</ele>
        <time>2020-05-21T08:56:12Z</time>
      </trkpt>
      <trkpt lat="47.24164" lon="-1.45525">
        <ele>3.87</ele>
        <time>2020-05-21T08:56:14Z</time>
      </trkpt>
      <trkpt lat="47.24169" lon="-1.45506">
        <ele>4.21</ele>
        <time>2020-05-21T08:56:16Z</time>
      </trkpt>
      <trkpt lat="47.24175" lon="-1.45487">
        <ele>3.61</ele>
        <time>2020-05-21T08:56:18Z</time>
      </trkpt>
      <trkpt lat="47.2418" lon="-1.45471">
        <ele>3.58</ele>
        <time>2020-05-21T08:56:20Z</time>
      </trkpt>
      <trkpt lat="47.24185" lon="-1.45456">
        <ele>3.52</ele>
        <time>2020-05-21T08:56:22Z</time>
      </trkpt>
      <trkpt lat="47.24191" lon="-1.45437">
        <ele>2.99</ele>
        <time>2020-05-21T08:56:24Z</time>
      </trkpt>
      <trkpt lat="47.24197" lon="-1.45417">
        <ele>4.05</ele>
        <time>2020-05-21T08:56:26Z</time>
      </trkpt>
      <trkpt lat="47.24203" lon="-1.45398">
        <ele>4.45</ele>
        <time>2020-05-21T08:56:28Z</time>
      </trkpt>
      <trkpt lat="47.24208" lon="-1.4538">
        <ele>4.13</ele>
        <time>2020-05-21T08:56:30Z</time>
      </trkpt>
      <trkpt lat="47.24214" lon="-1.45362">
        <ele>4.49</ele>
        <time>2020-05-21T08:56:32Z</time>
      </trkpt>
      <trkpt lat="47.2422" lon="-1.45345">
        <ele>4.65</ele>
        <time>2020-05-21T08:56:34Z</time>
      </trkpt>
      <trkpt lat="47.24226" lon="-1.45328">
        <ele>4.28</ele>
        <time>2020-05-21T08:56:36Z</time>
      </trkpt>
      <trkpt lat="47.24233" lon="-1.4531">
        <ele>3.61</ele>
        <time>2020-05-21T08:56:38Z</time>
      </trkpt>
      <trkpt lat="47.2424" lon="-1.45291">
        <ele>3.73</ele>
        <time>2020-05-21T08:56:40Z</time>
      </trkpt>
      <trkpt lat="47.24245" lon="-1.45273">
        <ele>3.44</ele>
        <time>2020-05-21T08:56:42Z</time>
      </trkpt>
      <trkpt lat="47.24253" lon="-1.45261">
        <ele>2.54</ele>
        <time>2020-05-21T08:56:44Z</time>
      </trkpt>
      <trkpt lat="47.2426" lon="-1.45242">
        <ele>1.48</ele>
        <time>2020-05-21T08:56:46Z</time>
      </trkpt>
      <trkpt lat="47.24263" lon="-1.45228">
        <ele>0.86</ele>
        <time>2020-05-21T08:56:47Z</time>
      </trkpt>
      <trkpt lat="47.24265" lon="-1.45206">
        <ele>-0.11</ele>
        <time>2020-05-21T08:56:49Z</time>
      </trkpt>
      <trkpt lat="47.24267" lon="-1.45185">
        <ele>-0.54</ele>
        <time>2020-05-21T08:56:51Z</time>
      </trkpt>
      <trkpt lat="47.24268" lon="-1.45166">
        <ele>-0.48</ele>
        <time>2020-05-21T08:56:53Z</time>
      </trkpt>
      <trkpt lat="47.24269" lon="-1.45143">
        <ele>-0.05</ele>
        <time>2020-05-21T08:56:55Z</time>
      </trkpt>
      <trkpt lat="47.24271" lon="-1.45122">
        <ele>0.01</ele>
        <time>2020-05-21T08:56:57Z</time>
      </trkpt>
      <trkpt lat="47.24273" lon="-1.45102">
        <ele>0.04</ele>
        <time>2020-05-21T08:56:59Z</time>
      </trkpt>
      <trkpt lat="47.24274" lon="-1.45082">
        <ele>0.55</ele>
        <time>2020-05-21T08:57:01Z</time>
      </trkpt>
      <trkpt lat="47.24275" lon="-1.45064">
        <ele>1.38</ele>
        <time>2020-05-21T08:57:03Z</time>
      </trkpt>
      <trkpt lat="47.24276" lon="-1.45043">
        <ele>1.31</ele>
        <time>2020-05-21T08:57:05Z</time>
      </trkpt>
      <trkpt lat="47.24278" lon="-1.45022">
        <ele>2.46</ele>
        <time>2020-05-21T08:57:07Z</time>
      </trkpt>
      <trkpt lat="47.2428" lon="-1.45001">
        <ele>3</ele>
        <time>2020-05-21T08:57:09Z</time>
      </trkpt>
      <trkpt lat="47.24282" lon="-1.44982">
        <ele>2.72</ele>
        <time>2020-05-21T08:57:11Z</time>
      </trkpt>
      <trkpt lat="47.24284" lon="-1.44958">
        <ele>2.46</ele>
        <time>2020-05-21T08:57:13Z</time>
      </trkpt>
      <trkpt lat="47.24286" lon="-1.44937">
        <ele>2.39</ele>
        <time>2020-05-21T08:57:15Z</time>
      </trkpt>
      <trkpt lat="47.24288" lon="-1.44917">
        <ele>1.59</ele>
        <time>2020-05-21T08:57:17Z</time>
      </trkpt>
      <trkpt lat="47.24289" lon="-1.44895">
        <ele>2.29</ele>
        <time>2020-05-21T08:57:19Z</time>
      </trkpt>
      <trkpt lat="47.2429" lon="-1.44877">
        <ele>2.47</ele>
        <time>2020-05-21T08:57:21Z</time>
      </trkpt>
      <trkpt lat="47.24292" lon="-1.44856">
        <ele>1.63</ele>
        <time>2020-05-21T08:57:23Z</time>
      </trkpt>
      <trkpt lat="47.24293" lon="-1.44836">
        <ele>0.91</ele>
        <time>2020-05-21T08:57:25Z</time>
      </trkpt>
      <trkpt lat="47.24295" lon="-1.44815">
        <ele>0.73</ele>
        <time>2020-05-21T08:57:27Z</time>
      </trkpt>
      <trkpt lat="47.24296" lon="-1.44796">
        <ele>1.02</ele>
        <time>2020-05-21T08:57:29Z</time>
      </trkpt>
      <trkpt lat="47.24297" lon="-1.44776">
        <ele>1.91</ele>
        <time>2020-05-21T08:57:31Z</time>
      </trkpt>
      <trkpt lat="47.24299" lon="-1.44755">
        <ele>1.55</ele>
        <time>2020-05-21T08:57:33Z</time>
      </trkpt>
      <trkpt lat="47.24301" lon="-1.44732">
        <ele>1.38</ele>
        <time>2020-05-21T08:57:35Z</time>
      </trkpt>
      <trkpt lat="47.24303" lon="-1.44711">
        <ele>1.81</ele>
        <time>2020-05-21T08:57:37Z</time>
      </trkpt>
      <trkpt lat="47.24304" lon="-1.44692">
        <ele>2.56</ele>
        <time>2020-05-21T08:57:39Z</time>
      </trkpt>
      <trkpt lat="47.24306" lon="-1.4467">
        <ele>1.68</ele>
        <time>2020-05-21T08:57:41Z</time>
      </trkpt>
      <trkpt lat="47.24307" lon="-1.4465">
        <ele>0.93</ele>
        <time>2020-05-21T08:57:43Z</time>
      </trkpt>
      <trkpt lat="47.2431" lon="-1.4463">
        <ele>0.91</ele>
        <time>2020-05-21T08:57:45Z</time>
      </trkpt>
      <trkpt lat="47.24313" lon="-1.4461">
        <ele>0.78</ele>
        <time>2020-05-21T08:57:47Z</time>
      </trkpt>
      <trkpt lat="47.24315" lon="-1.4459">
        <ele>0.45</ele>
        <time>2020-05-21T08:57:49Z</time>
      </trkpt>
      <trkpt lat="47.24316" lon="-1.44567">
        <ele>0.63</ele>
        <time>2020-05-21T08:57:51Z</time>
      </trkpt>
      <trkpt lat="47.24317" lon="-1.44549">
        <ele>0.9</ele>
        <time>2020-05-21T08:57:53Z</time>
      </trkpt>
      <trkpt lat="47.24317" lon="-1.4453">
        <ele>1.2</ele>
        <time>2020-05-21T08:57:55Z</time>
      </trkpt>
      <trkpt lat="47.24319" lon="-1.44509">
        <ele>1.06</ele>
        <time>2020-05-21T08:57:57Z</time>
      </trkpt>
      <trkpt lat="47.24321" lon="-1.44488">
        <ele>1.21</ele>
        <time>2020-05-21T08:57:59Z</time>
      </trkpt>
      <trkpt lat="47.24322" lon="-1.44467">
        <ele>1.32</ele>
        <time>2020-05-21T08:58:01Z</time>
      </trkpt>
      <trkpt lat="47.24324" lon="-1.44448">
        <ele>1.04</ele>
        <time>2020-05-21T08:58:03Z</time>
      </trkpt>
      <trkpt lat="47.24325" lon="-1.44427">
        <ele>1.29</ele>
        <time>2020-05-21T08:58:05Z</time>
      </trkpt>
      <trkpt lat="47.24327" lon="-1.44408">
        <ele>1.73</ele>
        <time>2020-05-21T08:58:07Z</time>
      </trkpt>
      <trkpt lat="47.24328" lon="-1.44388">
        <ele>2.18</ele>
        <time>2020-05-21T08:58:09Z</time>
      </trkpt>
      <trkpt lat="47.2433" lon="-1.44367">
        <ele>1.78</ele>
        <time>2020-05-21T08:58:11Z</time>
      </trkpt>
      <trkpt lat="47.24331" lon="-1.44345">
        <ele>1.31</ele>
        <time>2020-05-21T08:58:13Z</time>
      </trkpt>
      <trkpt lat="47.24332" lon="-1.44325">
        <ele>1.55</ele>
        <time>2020-05-21T08:58:15Z</time>
      </trkpt>
      <trkpt lat="47.24335" lon="-1.44307">
        <ele>0.69</ele>
        <time>2020-05-21T08:58:17Z</time>
      </trkpt>
      <trkpt lat="47.24339" lon="-1.44287">
        <ele>0.6</ele>
        <time>2020-05-21T08:58:19Z</time>
      </trkpt>
      <trkpt lat="47.24341" lon="-1.44267">
        <ele>0.19</ele>
        <time>2020-05-21T08:58:21Z</time>
      </trkpt>
      <trkpt lat="47.24341" lon="-1.44245">
        <ele>0.02</ele>
        <time>2020-05-21T08:58:23Z</time>
      </trkpt>
      <trkpt lat="47.24341" lon="-1.44227">
        <ele>0.87</ele>
        <time>2020-05-21T08:58:25Z</time>
      </trkpt>
      <trkpt lat="47.24343" lon="-1.4421">
        <ele>0.93</ele>
        <time>2020-05-21T08:58:27Z</time>
      </trkpt>
      <trkpt lat="47.24346" lon="-1.4419">
        <ele>1.81</ele>
        <time>2020-05-21T08:58:29Z</time>
      </trkpt>
      <trkpt lat="47.24351" lon="-1.44171">
        <ele>2.47</ele>
        <time>2020-05-21T08:58:31Z</time>
      </trkpt>
      <trkpt lat="47.24357" lon="-1.44152">
        <ele>2.43</ele>
        <time>2020-05-21T08:58:33Z</time>
      </trkpt>
      <trkpt lat="47.24364" lon="-1.44134">
        <ele>2.98</ele>
        <time>2020-05-21T08:58:35Z</time>
      </trkpt>
      <trkpt lat="47.24372" lon="-1.44119">
        <ele>3.45</ele>
        <time>2020-05-21T08:58:37Z</time>
      </trkpt>
      <trkpt lat="47.24381" lon="-1.44103">
        <ele>3.79</ele>
        <time>2020-05-21T08:58:39Z</time>
      </trkpt>
      <trkpt lat="47.24389" lon="-1.44087">
        <ele>4.05</ele>
        <time>2020-05-21T08:58:41Z</time>
      </trkpt>
      <trkpt lat="47.24398" lon="-1.44071">
        <ele>4.54</ele>
        <time>2020-05-21T08:58:43Z</time>
      </trkpt>
      <trkpt lat="47.24407" lon="-1.44054">
        <ele>4.71</ele>
        <time>2020-05-21T08:58:45Z</time>
      </trkpt>
      <trkpt lat="47.24415" lon="-1.44039">
        <ele>3.94</ele>
        <time>2020-05-21T08:58:47Z</time>
      </trkpt>
      <trkpt lat="47.24422" lon="-1.44024">
        <ele>3.65</ele>
        <time>2020-05-21T08:58:49Z</time>
      </trkpt>
      <trkpt lat="47.24431" lon="-1.44008">
        <ele>4.02</ele>
        <time>2020-05-21T08:58:51Z</time>
      </trkpt>
      <trkpt lat="47.24441" lon="-1.43993">
        <ele>4.11</ele>
        <time>2020-05-21T08:58:53Z</time>
      </trkpt>
      <trkpt lat="47.24449" lon="-1.43978">
        <ele>3.61</ele>
        <time>2020-05-21T08:58:55Z</time>
      </trkpt>
      <trkpt lat="47.24457" lon="-1.4396">
        <ele>3.51</ele>
        <time>2020-05-21T08:58:57Z</time>
      </trkpt>
      <trkpt lat="47.24463" lon="-1.43944">
        <ele>3.18</ele>
        <time>2020-05-21T08:58:59Z</time>
      </trkpt>
      <trkpt lat="47.24469" lon="-1.43926">
        <ele>2.61</ele>
        <time>2020-05-21T08:59:01Z</time>
      </trkpt>
      <trkpt lat="47.24477" lon="-1.43907">
        <ele>2.12</ele>
        <time>2020-05-21T08:59:03Z</time>
      </trkpt>
      <trkpt lat="47.24484" lon="-1.4389">
        <ele>1.48</ele>
        <time>2020-05-21T08:59:05Z</time>
      </trkpt>
      <trkpt lat="47.2449" lon="-1.43873">
        <ele>0.71</ele>
        <time>2020-05-21T08:59:07Z</time>
      </trkpt>
      <trkpt lat="47.24495" lon="-1.43856">
        <ele>-0.25</ele>
        <time>2020-05-21T08:59:09Z</time>
      </trkpt>
      <trkpt lat="47.24502" lon="-1.43834">
        <ele>-0.71</ele>
        <time>2020-05-21T08:59:11Z</time>
      </trkpt>
      <trkpt lat="47.24507" lon="-1.43816">
        <ele>-0.94</ele>
        <time>2020-05-21T08:59:13Z</time>
      </trkpt>
      <trkpt lat="47.24513" lon="-1.43798">
        <ele>-0.58</ele>
        <time>2020-05-21T08:59:15Z</time>
      </trkpt>
      <trkpt lat="47.24518" lon="-1.43781">
        <ele>0.22</ele>
        <time>2020-05-21T08:59:17Z</time>
      </trkpt>
      <trkpt lat="47.24522" lon="-1.43768">
        <ele>0.66</ele>
        <time>2020-05-21T08:59:19Z</time>
      </trkpt>
      <trkpt lat="47.24528" lon="-1.43748">
        <ele>0.73</ele>
        <time>2020-05-21T08:59:21Z</time>
      </trkpt>
      <trkpt lat="47.24534" lon="-1.43728">
        <ele>0.72</ele>
        <time>2020-05-21T08:59:23Z</time>
      </trkpt>
      <trkpt lat="47.24541" lon="-1.43711">
        <ele>0.82</ele>
        <time>2020-05-21T08:59:25Z</time>
      </trkpt>
      <trkpt lat="47.24552" lon="-1.437">
        <ele>0.7</ele>
        <time>2020-05-21T08:59:27Z</time>
      </trkpt>
      <trkpt lat="47.24564" lon="-1.43688">
        <ele>0.46</ele>
        <time>2020-05-21T08:59:29Z</time>
      </trkpt>
      <trkpt lat="47.24574" lon="-1.43678">
        <ele>1.42</ele>
        <time>2020-05-21T08:59:31Z</time>
      </trkpt>
      <trkpt lat="47.24585" lon="-1.43668">
        <ele>2.46</ele>
        <time>2020-05-21T08:59:33Z</time>
      </trkpt>
      <trkpt lat="47.24594" lon="-1.43655">
        <ele>2.23</ele>
        <time>2020-05-21T08:59:35Z</time>
      </trkpt>
      <trkpt lat="47.24604" lon="-1.43641">
        <ele>2.39</ele>
        <time>2020-05-21T08:59:37Z</time>
      </trkpt>
      <trkpt lat="47.24615" lon="-1.43629">
        <ele>3.11</ele>
        <time>2020-05-21T08:59:39Z</time>
      </trkpt>
      <trkpt lat="47.24625" lon="-1.4362">
        <ele>3</ele>
        <time>2020-05-21T08:59:41Z</time>
      </trkpt>
      <trkpt lat="47.24637" lon="-1.43611">
        <ele>2.18</ele>
        <time>2020-05-21T08:59:43Z</time>
      </trkpt>
      <trkpt lat="47.24649" lon="-1.43599">
        <ele>1.65</ele>
        <time>2020-05-21T08:59:45Z</time>
      </trkpt>
      <trkpt lat="47.24661" lon="-1.43587">
        <ele>2.12</ele>
        <time>2020-05-21T08:59:47Z</time>
      </trkpt>
      <trkpt lat="47.24671" lon="-1.43577">
        <ele>2.03</ele>
        <time>2020-05-21T08:59:49Z</time>
      </trkpt>
      <trkpt lat="47.24681" lon="-1.43568">
        <ele>2.09</ele>
        <time>2020-05-21T08:59:51Z</time>
      </trkpt>
      <trkpt lat="47.24689" lon="-1.43554">
        <ele>2.14</ele>
        <time>2020-05-21T08:59:53Z</time>
      </trkpt>
      <trkpt lat="47.24697" lon="-1.43535">
        <ele>1.85</ele>
        <time>2020-05-21T08:59:55Z</time>
      </trkpt>
      <trkpt lat="47.24703" lon="-1.43516">
        <ele>1.45</ele>
        <time>2020-05-21T08:59:57Z</time>
      </trkpt>
      <trkpt lat="47.24709" lon="-1.43497">
        <ele>1.06</ele>
        <time>2020-05-21T08:59:59Z</time>
      </trkpt>
      <trkpt lat="47.24714" lon="-1.43483">
        <ele>1.27</ele>
        <time>2020-05-21T09:00:01Z</time>
      </trkpt>
      <trkpt lat="47.24721" lon="-1.43466">
        <ele>1.73</ele>
        <time>2020-05-21T09:00:03Z</time>
      </trkpt>
      <trkpt lat="47.24729" lon="-1.4345">
        <ele>1.35</ele>
        <time>2020-05-21T09:00:05Z</time>
      </trkpt>
      <trkpt lat="47.24737" lon="-1.43436">
        <ele>1.1</ele>
        <time>2020-05-21T09:00:07Z</time>
      </trkpt>
      <trkpt lat="47.24745" lon="-1.43424">
        <ele>1.67</ele>
        <time>2020-05-21T09:00:09Z</time>
      </trkpt>
      <trkpt lat="47.24755" lon="-1.4341">
        <ele>2.45</ele>
        <time>2020-05-21T09:00:11Z</time>
      </trkpt>
      <trkpt lat="47.24765" lon="-1.43398">
        <ele>3.08</ele>
        <time>2020-05-21T09:00:13Z</time>
      </trkpt>
      <trkpt lat="47.24776" lon="-1.43387">
        <ele>3.44</ele>
        <time>2020-05-21T09:00:15Z</time>
      </trkpt>
      <trkpt lat="47.24787" lon="-1.43374">
        <ele>3.24</ele>
        <time>2020-05-21T09:00:16Z</time>
      </trkpt>
      <trkpt lat="47.24797" lon="-1.43362">
        <ele>3.17</ele>
        <time>2020-05-21T09:00:18Z</time>
      </trkpt>
      <trkpt lat="47.24807" lon="-1.43354">
        <ele>3.16</ele>
        <time>2020-05-21T09:00:20Z</time>
      </trkpt>
      <trkpt lat="47.24817" lon="-1.43348">
        <ele>3.84</ele>
        <time>2020-05-21T09:00:22Z</time>
      </trkpt>
      <trkpt lat="47.2483" lon="-1.43341">
        <ele>4.47</ele>
        <time>2020-05-21T09:00:24Z</time>
      </trkpt>
      <trkpt lat="47.24842" lon="-1.43333">
        <ele>5.23</ele>
        <time>2020-05-21T09:00:26Z</time>
      </trkpt>
      <trkpt lat="47.24854" lon="-1.43325">
        <ele>5.03</ele>
        <time>2020-05-21T09:00:28Z</time>
      </trkpt>
      <trkpt lat="47.24867" lon="-1.43317">
        <ele>5.82</ele>
        <time>2020-05-21T09:00:30Z</time>
      </trkpt>
      <trkpt lat="47.2488" lon="-1.43308">
        <ele>6.45</ele>
        <time>2020-05-21T09:00:32Z</time>
      </trkpt>
      <trkpt lat="47.24891" lon="-1.43301">
        <ele>6.99</ele>
        <time>2020-05-21T09:00:34Z</time>
      </trkpt>
      <trkpt lat="47.24904" lon="-1.43293">
        <ele>7.74</ele>
        <time>2020-05-21T09:00:36Z</time>
      </trkpt>
      <trkpt lat="47.24914" lon="-1.43286">
        <ele>7.67</ele>
        <time>2020-05-21T09:00:38Z</time>
      </trkpt>
      <trkpt lat="47.24927" lon="-1.43277">
        <ele>7.2</ele>
        <time>2020-05-21T09:00:40Z</time>
      </trkpt>
      <trkpt lat="47.2494" lon="-1.43268">
        <ele>6.35</ele>
        <time>2020-05-21T09:00:42Z</time>
      </trkpt>
      <trkpt lat="47.24953" lon="-1.4326">
        <ele>5.93</ele>
        <time>2020-05-21T09:00:44Z</time>
      </trkpt>
      <trkpt lat="47.24966" lon="-1.43251">
        <ele>5.13</ele>
        <time>2020-05-21T09:00:46Z</time>
      </trkpt>
      <trkpt lat="47.24979" lon="-1.43244">
        <ele>3.97</ele>
        <time>2020-05-21T09:00:48Z</time>
      </trkpt>
      <trkpt lat="47.24992" lon="-1.43236">
        <ele>3.33</ele>
        <time>2020-05-21T09:00:50Z</time>
      </trkpt>
      <trkpt lat="47.25006" lon="-1.43227">
        <ele>3.56</ele>
        <time>2020-05-21T09:00:52Z</time>
      </trkpt>
      <trkpt lat="47.2502" lon="-1.43217">
        <ele>2.89</ele>
        <time>2020-05-21T09:00:54Z</time>
      </trkpt>
      <trkpt lat="47.25031" lon="-1.43208">
        <ele>2.77</ele>
        <time>2020-05-21T09:00:56Z</time>
      </trkpt>
      <trkpt lat="47.25041" lon="-1.43199">
        <ele>2.97</ele>
        <time>2020-05-21T09:00:58Z</time>
      </trkpt>
      <trkpt lat="47.25051" lon="-1.43188">
        <ele>3.27</ele>
        <time>2020-05-21T09:01:00Z</time>
      </trkpt>
      <trkpt lat="47.25062" lon="-1.43178">
        <ele>3.07</ele>
        <time>2020-05-21T09:01:02Z</time>
      </trkpt>
      <trkpt lat="47.25072" lon="-1.43166">
        <ele>2.93</ele>
        <time>2020-05-21T09:01:04Z</time>
      </trkpt>
      <trkpt lat="47.25082" lon="-1.43154">
        <ele>2.38</ele>
        <time>2020-05-21T09:01:06Z</time>
      </trkpt>
      <trkpt lat="47.25092" lon="-1.43141">
        <ele>1.37</ele>
        <time>2020-05-21T09:01:08Z</time>
      </trkpt>
      <trkpt lat="47.25102" lon="-1.43128">
        <ele>1.48</ele>
        <time>2020-05-21T09:01:10Z</time>
      </trkpt>
      <trkpt lat="47.25112" lon="-1.43115">
        <ele>2.43</ele>
        <time>2020-05-21T09:01:12Z</time>
      </trkpt>
      <trkpt lat="47.2512" lon="-1.43104">
        <ele>3.25</ele>
        <time>2020-05-21T09:01:14Z</time>
      </trkpt>
      <trkpt lat="47.2513" lon="-1.4309">
        <ele>3.46</ele>
        <time>2020-05-21T09:01:16Z</time>
      </trkpt>
      <trkpt lat="47.2514" lon="-1.43077">
        <ele>3.66</ele>
        <time>2020-05-21T09:01:18Z</time>
      </trkpt>
      <trkpt lat="47.2515" lon="-1.43065">
        <ele>3.92</ele>
        <time>2020-05-21T09:01:20Z</time>
      </trkpt>
      <trkpt lat="47.25161" lon="-1.43054">
        <ele>3.32</ele>
        <time>2020-05-21T09:01:22Z</time>
      </trkpt>
      <trkpt lat="47.25173" lon="-1.43045">
        <ele>2.95</ele>
        <time>2020-05-21T09:01:24Z</time>
      </trkpt>
      <trkpt lat="47.25185" lon="-1.43032">
        <ele>2.55</ele>
        <time>2020-05-21T09:01:26Z</time>
      </trkpt>
      <trkpt lat="47.25195" lon="-1.43019">
        <ele>2.81</ele>
        <time>2020-05-21T09:01:28Z</time>
      </trkpt>
      <trkpt lat="47.25207" lon="-1.43006">
        <ele>3.24</ele>
        <time>2020-05-21T09:01:30Z</time>
      </trkpt>
      <trkpt lat="47.25217" lon="-1.42993">
        <ele>3.62</ele>
        <time>2020-05-21T09:01:32Z</time>
      </trkpt>
      <trkpt lat="47.25228" lon="-1.42983">
        <ele>4.01</ele>
        <time>2020-05-21T09:01:34Z</time>
      </trkpt>
      <trkpt lat="47.2524" lon="-1.42973">
        <ele>3.87</ele>
        <time>2020-05-21T09:01:36Z</time>
      </trkpt>
      <trkpt lat="47.25252" lon="-1.42965">
        <ele>3.09</ele>
        <time>2020-05-21T09:01:38Z</time>
      </trkpt>
      <trkpt lat="47.25265" lon="-1.42958">
        <ele>2.08</ele>
        <time>2020-05-21T09:01:40Z</time>
      </trkpt>
      <trkpt lat="47.25277" lon="-1.42951">
        <ele>0.97</ele>
        <time>2020-05-21T09:01:42Z</time>
      </trkpt>
      <trkpt lat="47.25289" lon="-1.42944">
        <ele>0.47</ele>
        <time>2020-05-21T09:01:44Z</time>
      </trkpt>
      <trkpt lat="47.25302" lon="-1.42937">
        <ele>0.52</ele>
        <time>2020-05-21T09:01:46Z</time>
      </trkpt>
      <trkpt lat="47.25315" lon="-1.4293">
        <ele>0.14</ele>
        <time>2020-05-21T09:01:48Z</time>
      </trkpt>
      <trkpt lat="47.25327" lon="-1.42923">
        <ele>-0.04</ele>
        <time>2020-05-21T09:01:50Z</time>
      </trkpt>
      <trkpt lat="47.25338" lon="-1.42916">
        <ele>0.35</ele>
        <time>2020-05-21T09:01:52Z</time>
      </trkpt>
      <trkpt lat="47.2535" lon="-1.4291">
        <ele>0.85</ele>
        <time>2020-05-21T09:01:54Z</time>
      </trkpt>
      <trkpt lat="47.25364" lon="-1.42902">
        <ele>1.17</ele>
        <time>2020-05-21T09:01:56Z</time>
      </trkpt>
      <trkpt lat="47.25375" lon="-1.42896">
        <ele>1.88</ele>
        <time>2020-05-21T09:01:58Z</time>
      </trkpt>
      <trkpt lat="47.25387" lon="-1.42888">
        <ele>2.8</ele>
        <time>2020-05-21T09:02:00Z</time>
      </trkpt>
      <trkpt lat="47.25399" lon="-1.42879">
        <ele>3.34</ele>
        <time>2020-05-21T09:02:02Z</time>
      </trkpt>
      <trkpt lat="47.25412" lon="-1.4287">
        <ele>3.07</ele>
        <time>2020-05-21T09:02:04Z</time>
      </trkpt>
      <trkpt lat="47.25424" lon="-1.42863">
        <ele>2.68</ele>
        <time>2020-05-21T09:02:06Z</time>
      </trkpt>
      <trkpt lat="47.25437" lon="-1.42854">
        <ele>2.39</ele>
        <time>2020-05-21T09:02:08Z</time>
      </trkpt>
      <trkpt lat="47.25447" lon="-1.42847">
        <ele>2.76</ele>
        <time>2020-05-21T09:02:10Z</time>
      </trkpt>
      <trkpt lat="47.25459" lon="-1.42839">
        <ele>2.73</ele>
        <time>2020-05-21T09:02:12Z</time>
      </trkpt>
      <trkpt lat="47.2547" lon="-1.42832">
        <ele>3.34</ele>
        <time>2020-05-21T09:02:14Z</time>
      </trkpt>
      <trkpt lat="47.25483" lon="-1.42824">
        <ele>4.02</ele>
        <time>2020-05-21T09:02:16Z</time>
      </trkpt>
      <trkpt lat="47.25495" lon="-1.42814">
        <ele>4.57</ele>
        <time>2020-05-21T09:02:18Z</time>
      </trkpt>
      <trkpt lat="47.25508" lon="-1.42802">
        <ele>4.35</ele>
        <time>2020-05-21T09:02:20Z</time>
      </trkpt>
      <trkpt lat="47.2552" lon="-1.42792">
        <ele>4.19</ele>
        <time>2020-05-21T09:02:22Z</time>
      </trkpt>
      <trkpt lat="47.25531" lon="-1.42781">
        <ele>4.4</ele>
        <time>2020-05-21T09:02:24Z</time>
      </trkpt>
      <trkpt lat="47.25544" lon="-1.4277">
        <ele>3.41</ele>
        <time>2020-05-21T09:02:26Z</time>
      </trkpt>
      <trkpt lat="47.25557" lon="-1.42759">
        <ele>2.52</ele>
        <time>2020-05-21T09:02:28Z</time>
      </trkpt>
      <trkpt lat="47.2557" lon="-1.4275">
        <ele>1.97</ele>
        <time>2020-05-21T09:02:30Z</time>
      </trkpt>
      <trkpt lat="47.25583" lon="-1.42739">
        <ele>3.04</ele>
        <time>2020-05-21T09:02:32Z</time>
      </trkpt>
      <trkpt lat="47.25596" lon="-1.42729">
        <ele>4.1</ele>
        <time>2020-05-21T09:02:34Z</time>
      </trkpt>
      <trkpt lat="47.25607" lon="-1.4272">
        <ele>3.95</ele>
        <time>2020-05-21T09:02:36Z</time>
      </trkpt>
      <trkpt lat="47.25619" lon="-1.4271">
        <ele>3.14</ele>
        <time>2020-05-21T09:02:38Z</time>
      </trkpt>
      <trkpt lat="47.25631" lon="-1.427">
        <ele>2.81</ele>
        <time>2020-05-21T09:02:40Z</time>
      </trkpt>
      <trkpt lat="47.25643" lon="-1.4269">
        <ele>2.49</ele>
        <time>2020-05-21T09:02:42Z</time>
      </trkpt>
      <trkpt lat="47.25655" lon="-1.42681">
        <ele>2.11</ele>
        <time>2020-05-21T09:02:44Z</time>
      </trkpt>
      <trkpt lat="47.25667" lon="-1.4267">
        <ele>2.21</ele>
        <time>2020-05-21T09:02:46Z</time>
      </trkpt>
      <trkpt lat="47.25675" lon="-1.4266">
        <ele>3.05</ele>
        <time>2020-05-21T09:02:48Z</time>
      </trkpt>
      <trkpt lat="47.25684" lon="-1.42651">
        <ele>3.08</ele>
        <time>2020-05-21T09:02:50Z</time>
      </trkpt>
      <trkpt lat="47.25692" lon="-1.42645">
        <ele>2.49</ele>
        <time>2020-05-21T09:02:52Z</time>
      </trkpt>
      <trkpt lat="47.25705" lon="-1.42643">
        <ele>3.09</ele>
        <time>2020-05-21T09:02:54Z</time>
      </trkpt>
      <trkpt lat="47.25718" lon="-1.42643">
        <ele>3.25</ele>
        <time>2020-05-21T09:02:56Z</time>
      </trkpt>
      <trkpt lat="47.25732" lon="-1.42645">
        <ele>2.62</ele>
        <time>2020-05-21T09:02:58Z</time>
      </trkpt>
      <trkpt lat="47.25743" lon="-1.42638">
        <ele>1.96</ele>
        <time>2020-05-21T09:03:00Z</time>
      </trkpt>
      <trkpt lat="47.2575" lon="-1.42624">
        <ele>1.91</ele>
        <time>2020-05-21T09:03:02Z</time>
      </trkpt>
      <trkpt lat="47.25757" lon="-1.42609">
        <ele>2.51</ele>
        <time>2020-05-21T09:03:04Z</time>
      </trkpt>
      <trkpt lat="47.25766" lon="-1.42595">
        <ele>2.83</ele>
        <time>2020-05-21T09:03:06Z</time>
      </trkpt>
      <trkpt lat="47.25777" lon="-1.4258">
        <ele>2.54</ele>
        <time>2020-05-21T09:03:08Z</time>
      </trkpt>
      <trkpt lat="47.25784" lon="-1.42572">
        <ele>1.88</ele>
        <time>2020-05-21T09:03:09Z</time>
      </trkpt>
      <trkpt lat="47.25795" lon="-1.42563">
        <ele>1.06</ele>
        <time>2020-05-21T09:03:11Z</time>
      </trkpt>
      <trkpt lat="47.25807" lon="-1.42554">
        <ele>0.79</ele>
        <time>2020-05-21T09:03:13Z</time>
      </trkpt>
      <trkpt lat="47.25819" lon="-1.42544">
        <ele>0.38</ele>
        <time>2020-05-21T09:03:15Z</time>
      </trkpt>
      <trkpt lat="47.25832" lon="-1.42533">
        <ele>0.48</ele>
        <time>2020-05-21T09:03:17Z</time>
      </trkpt>
      <trkpt lat="47.25844" lon="-1.42524">
        <ele>0.64</ele>
        <time>2020-05-21T09:03:19Z</time>
      </trkpt>
      <trkpt lat="47.25855" lon="-1.42516">
        <ele>0.81</ele>
        <time>2020-05-21T09:03:21Z</time>
      </trkpt>
      <trkpt lat="47.25865" lon="-1.42509">
        <ele>1.13</ele>
        <time>2020-05-21T09:03:23Z</time>
      </trkpt>
      <trkpt lat="47.25877" lon="-1.42501">
        <ele>1.03</ele>
        <time>2020-05-21T09:03:25Z</time>
      </trkpt>
      <trkpt lat="47.2589" lon="-1.42492">
        <ele>0.52</ele>
        <time>2020-05-21T09:03:27Z</time>
      </trkpt>
      <trkpt lat="47.25901" lon="-1.42482">
        <ele>0.68</ele>
        <time>2020-05-21T09:03:29Z</time>
      </trkpt>
      <trkpt lat="47.25912" lon="-1.42471">
        <ele>1.05</ele>
        <time>2020-05-21T09:03:31Z</time>
      </trkpt>
      <trkpt lat="47.25924" lon="-1.42456">
        <ele>0.71</ele>
        <time>2020-05-21T09:03:33Z</time>
      </trkpt>
      <trkpt lat="47.25933" lon="-1.42444">
        <ele>1.17</ele>
        <time>2020-05-21T09:03:35Z</time>
      </trkpt>
      <trkpt lat="47.25942" lon="-1.42431">
        <ele>2.51</ele>
        <time>2020-05-21T09:03:37Z</time>
      </trkpt>
      <trkpt lat="47.25951" lon="-1.42419">
        <ele>3.69</ele>
        <time>2020-05-21T09:03:39Z</time>
      </trkpt>
      <trkpt lat="47.25961" lon="-1.42405">
        <ele>3.87</ele>
        <time>2020-05-21T09:03:41Z</time>
      </trkpt>
      <trkpt lat="47.2597" lon="-1.42392">
        <ele>3.73</ele>
        <time>2020-05-21T09:03:43Z</time>
      </trkpt>
      <trkpt lat="47.25979" lon="-1.4238">
        <ele>3.24</ele>
        <time>2020-05-21T09:03:45Z</time>
      </trkpt>
      <trkpt lat="47.2599" lon="-1.42368">
        <ele>2.73</ele>
        <time>2020-05-21T09:03:47Z</time>
      </trkpt>
      <trkpt lat="47.26001" lon="-1.42356">
        <ele>2.63</ele>
        <time>2020-05-21T09:03:49Z</time>
      </trkpt>
      <trkpt lat="47.2601" lon="-1.42344">
        <ele>2.2</ele>
        <time>2020-05-21T09:03:51Z</time>
      </trkpt>
      <trkpt lat="47.2602" lon="-1.42329">
        <ele>2.33</ele>
        <time>2020-05-21T09:03:53Z</time>
      </trkpt>
      <trkpt lat="47.2603" lon="-1.42315">
        <ele>2.47</ele>
        <time>2020-05-21T09:03:55Z</time>
      </trkpt>
      <trkpt lat="47.26039" lon="-1.42302">
        <ele>2.79</ele>
        <time>2020-05-21T09:03:57Z</time>
      </trkpt>
      <trkpt lat="47.26049" lon="-1.4229">
        <ele>3.45</ele>
        <time>2020-05-21T09:03:59Z</time>
      </trkpt>
      <trkpt lat="47.2606" lon="-1.42275">
        <ele>3.9</ele>
        <time>2020-05-21T09:04:01Z</time>
      </trkpt>
      <trkpt lat="47.2607" lon="-1.42263">
        <ele>3.35</ele>
        <time>2020-05-21T09:04:03Z</time>
      </trkpt>
      <trkpt lat="47.2608" lon="-1.4225">
        <ele>2.94</ele>
        <time>2020-05-21T09:04:05Z</time>
      </trkpt>
      <trkpt lat="47.26088" lon="-1.42238">
        <ele>3.41</ele>
        <time>2020-05-21T09:04:07Z</time>
      </trkpt>
      <trkpt lat="47.26099" lon="-1.42225">
        <ele>3.36</ele>
        <time>2020-05-21T09:04:09Z</time>
      </trkpt>
      <trkpt lat="47.2611" lon="-1.42212">
        <ele>2.71</ele>
        <time>2020-05-21T09:04:11Z</time>
      </trkpt>
      <trkpt lat="47.26121" lon="-1.42197">
        <ele>3.04</ele>
        <time>2020-05-21T09:04:13Z</time>
      </trkpt>
      <trkpt lat="47.2613" lon="-1.42184">
        <ele>3.48</ele>
        <time>2020-05-21T09:04:15Z</time>
      </trkpt>
      <trkpt lat="47.2614" lon="-1.4217">
        <ele>3.91</ele>
        <time>2020-05-21T09:04:17Z</time>
      </trkpt>
      <trkpt lat="47.26149" lon="-1.42155">
        <ele>4.39</ele>
        <time>2020-05-21T09:04:19Z</time>
      </trkpt>
      <trkpt lat="47.26157" lon="-1.4214">
        <ele>5.12</ele>
        <time>2020-05-21T09:04:21Z</time>
      </trkpt>
      <trkpt lat="47.26164" lon="-1.42127">
        <ele>6.4</ele>
        <time>2020-05-21T09:04:23Z</time>
      </trkpt>
      <trkpt lat="47.2617" lon="-1.42114">
        <ele>7.04</ele>
        <time>2020-05-21T09:04:25Z</time>
      </trkpt>
      <trkpt lat="47.26179" lon="-1.421">
        <ele>7.25</ele>
        <time>2020-05-21T09:04:27Z</time>
      </trkpt>
      <trkpt lat="47.26188" lon="-1.42085">
        <ele>6.99</ele>
        <time>2020-05-21T09:04:29Z</time>
      </trkpt>
      <trkpt lat="47.26202" lon="-1.42076">
        <ele>6.61</ele>
        <time>2020-05-21T09:04:31Z</time>
      </trkpt>
      <trkpt lat="47.2621" lon="-1.42067">
        <ele>6.56</ele>
        <time>2020-05-21T09:04:33Z</time>
      </trkpt>
      <trkpt lat="47.26218" lon="-1.42049">
        <ele>5.89</ele>
        <time>2020-05-21T09:04:35Z</time>
      </trkpt>
      <trkpt lat="47.26226" lon="-1.4203">
        <ele>4.59</ele>
        <time>2020-05-21T09:04:37Z</time>
      </trkpt>
      <trkpt lat="47.26233" lon="-1.42013">
        <ele>3.6</ele>
        <time>2020-05-21T09:04:39Z</time>
      </trkpt>
      <trkpt lat="47.26242" lon="-1.41997">
        <ele>3.47</ele>
        <time>2020-05-21T09:04:41Z</time>
      </trkpt>
      <trkpt lat="47.26251" lon="-1.41983">
        <ele>3.18</ele>
        <time>2020-05-21T09:04:43Z</time>
      </trkpt>
      <trkpt lat="47.26259" lon="-1.41966">
        <ele>3.17</ele>
        <time>2020-05-21T09:04:45Z</time>
      </trkpt>
      <trkpt lat="47.26268" lon="-1.4195">
        <ele>2.64</ele>
        <time>2020-05-21T09:04:47Z</time>
      </trkpt>
      <trkpt lat="47.26276" lon="-1.41934">
        <ele>2.78</ele>
        <time>2020-05-21T09:04:49Z</time>
      </trkpt>
      <trkpt lat="47.26285" lon="-1.4192">
        <ele>3.25</ele>
        <time>2020-05-21T09:04:51Z</time>
      </trkpt>
      <trkpt lat="47.26295" lon="-1.41902">
        <ele>3.47</ele>
        <time>2020-05-21T09:04:53Z</time>
      </trkpt>
      <trkpt lat="47.26304" lon="-1.41887">
        <ele>3.72</ele>
        <time>2020-05-21T09:04:55Z</time>
      </trkpt>
      <trkpt lat="47.26312" lon="-1.41873">
        <ele>3.86</ele>
        <time>2020-05-21T09:04:57Z</time>
      </trkpt>
      <trkpt lat="47.2632" lon="-1.4186">
        <ele>3.82</ele>
        <time>2020-05-21T09:04:59Z</time>
      </trkpt>
      <trkpt lat="47.26329" lon="-1.41844">
        <ele>3.53</ele>
        <time>2020-05-21T09:05:01Z</time>
      </trkpt>
      <trkpt lat="47.26336" lon="-1.4183">
        <ele>2.99</ele>
        <time>2020-05-21T09:05:03Z</time>
      </trkpt>
      <trkpt lat="47.26346" lon="-1.41814">
        <ele>2.59</ele>
        <time>2020-05-21T09:05:05Z</time>
      </trkpt>
      <trkpt lat="47.26355" lon="-1.41797">
        <ele>2.43</ele>
        <time>2020-05-21T09:05:07Z</time>
      </trkpt>
      <trkpt lat="47.26363" lon="-1.41784">
        <ele>2.8</ele>
        <time>2020-05-21T09:05:09Z</time>
      </trkpt>
      <trkpt lat="47.26371" lon="-1.41771">
        <ele>3.17</ele>
        <time>2020-05-21T09:05:11Z</time>
      </trkpt>
      <trkpt lat="47.26381" lon="-1.41756">
        <ele>3.21</ele>
        <time>2020-05-21T09:05:13Z</time>
      </trkpt>
      <trkpt lat="47.2639" lon="-1.4174">
        <ele>3.33</ele>
        <time>2020-05-21T09:05:15Z</time>
      </trkpt>
      <trkpt lat="47.26398" lon="-1.41726">
        <ele>3.34</ele>
        <time>2020-05-21T09:05:17Z</time>
      </trkpt>
      <trkpt lat="47.26406" lon="-1.41712">
        <ele>3.83</ele>
        <time>2020-05-21T09:05:19Z</time>
      </trkpt>
      <trkpt lat="47.26414" lon="-1.41697">
        <ele>4.27</ele>
        <time>2020-05-21T09:05:21Z</time>
      </trkpt>
      <trkpt lat="47.26422" lon="-1.41683">
        <ele>4.21</ele>
        <time>2020-05-21T09:05:23Z</time>
      </trkpt>
      <trkpt lat="47.2643" lon="-1.41669">
        <ele>3.83</ele>
        <time>2020-05-21T09:05:25Z</time>
      </trkpt>
      <trkpt lat="47.2644" lon="-1.41653">
        <ele>3.04</ele>
        <time>2020-05-21T09:05:27Z</time>
      </trkpt>
      <trkpt lat="47.26447" lon="-1.41639">
        <ele>2.32</ele>
        <time>2020-05-21T09:05:29Z</time>
      </trkpt>
      <trkpt lat="47.26455" lon="-1.41625">
        <ele>2.36</ele>
        <time>2020-05-21T09:05:31Z</time>
      </trkpt>
      <trkpt lat="47.26465" lon="-1.41609">
        <ele>1.8</ele>
        <time>2020-05-21T09:05:33Z</time>
      </trkpt>
      <trkpt lat="47.26474" lon="-1.41594">
        <ele>1.55</ele>
        <time>2020-05-21T09:05:35Z</time>
      </trkpt>
      <trkpt lat="47.26484" lon="-1.41577">
        <ele>1.8</ele>
        <time>2020-05-21T09:05:37Z</time>
      </trkpt>
      <trkpt lat="47.26493" lon="-1.41563">
        <ele>2.21</ele>
        <time>2020-05-21T09:05:39Z</time>
      </trkpt>
      <trkpt lat="47.26501" lon="-1.41548">
        <ele>2.74</ele>
        <time>2020-05-21T09:05:41Z</time>
      </trkpt>
      <trkpt lat="47.26509" lon="-1.41534">
        <ele>3.72</ele>
        <time>2020-05-21T09:05:43Z</time>
      </trkpt>
      <trkpt lat="47.26518" lon="-1.4152">
        <ele>4.13</ele>
        <time>2020-05-21T09:05:45Z</time>
      </trkpt>
      <trkpt lat="47.26527" lon="-1.41504">
        <ele>4.15</ele>
        <time>2020-05-21T09:05:47Z</time>
      </trkpt>
      <trkpt lat="47.26535" lon="-1.4149">
        <ele>3.48</ele>
        <time>2020-05-21T09:05:49Z</time>
      </trkpt>
      <trkpt lat="47.26544" lon="-1.41477">
        <ele>3.12</ele>
        <time>2020-05-21T09:05:51Z</time>
      </trkpt>
      <trkpt lat="47.26553" lon="-1.41464">
        <ele>3.46</ele>
        <time>2020-05-21T09:05:53Z</time>
      </trkpt>
      <trkpt lat="47.26562" lon="-1.41449">
        <ele>3.66</ele>
        <time>2020-05-21T09:05:55Z</time>
      </trkpt>
      <trkpt lat="47.26569" lon="-1.41435">
        <ele>4.04</ele>
        <time>2020-05-21T09:05:57Z</time>
      </trkpt>
      <trkpt lat="47.26576" lon="-1.41419">
        <ele>3.75</ele>
        <time>2020-05-21T09:05:59Z</time>
      </trkpt>
      <trkpt lat="47.26583" lon="-1.41404">
        <ele>3.49</ele>
        <time>2020-05-21T09:06:01Z</time>
      </trkpt>
      <trkpt lat="47.2659" lon="-1.41386">
        <ele>2.31</ele>
        <time>2020-05-21T09:06:03Z</time>
      </trkpt>
      <trkpt lat="47.26596" lon="-1.41369">
        <ele>2.16</ele>
        <time>2020-05-21T09:06:05Z</time>
      </trkpt>
      <trkpt lat="47.26603" lon="-1.41352">
        <ele>1.97</ele>
        <time>2020-05-21T09:06:07Z</time>
      </trkpt>
      <trkpt lat="47.26609" lon="-1.41339">
        <ele>1.61</ele>
        <time>2020-05-21T09:06:09Z</time>
      </trkpt>
      <trkpt lat="47.26616" lon="-1.41324">
        <ele>1.77</ele>
        <time>2020-05-21T09:06:11Z</time>
      </trkpt>
      <trkpt lat="47.26624" lon="-1.41308">
        <ele>2.02</ele>
        <time>2020-05-21T09:06:13Z</time>
      </trkpt>
      <trkpt lat="47.26633" lon="-1.41293">
        <ele>2.74</ele>
        <time>2020-05-21T09:06:15Z</time>
      </trkpt>
      <trkpt lat="47.2664" lon="-1.41281">
        <ele>3.34</ele>
        <time>2020-05-21T09:06:17Z</time>
      </trkpt>
      <trkpt lat="47.26651" lon="-1.41265">
        <ele>3.46</ele>
        <time>2020-05-21T09:06:19Z</time>
      </trkpt>
      <trkpt lat="47.26659" lon="-1.41254">
        <ele>3.44</ele>
        <time>2020-05-21T09:06:21Z</time>
      </trkpt>
      <trkpt lat="47.26668" lon="-1.41239">
        <ele>2.85</ele>
        <time>2020-05-21T09:06:23Z</time>
      </trkpt>
      <trkpt lat="47.26677" lon="-1.41226">
        <ele>2.04</ele>
        <time>2020-05-21T09:06:25Z</time>
      </trkpt>
      <trkpt lat="47.26687" lon="-1.41213">
        <ele>1.65</ele>
        <time>2020-05-21T09:06:27Z</time>
      </trkpt>
      <trkpt lat="47.26699" lon="-1.41201">
        <ele>1.64</ele>
        <time>2020-05-21T09:06:29Z</time>
      </trkpt>
      <trkpt lat="47.26708" lon="-1.4119">
        <ele>2.06</ele>
        <time>2020-05-21T09:06:31Z</time>
      </trkpt>
      <trkpt lat="47.26718" lon="-1.4118">
        <ele>2.89</ele>
        <time>2020-05-21T09:06:33Z</time>
      </trkpt>
      <trkpt lat="47.26727" lon="-1.41167">
        <ele>2.7</ele>
        <time>2020-05-21T09:06:35Z</time>
      </trkpt>
      <trkpt lat="47.26738" lon="-1.41155">
        <ele>1.94</ele>
        <time>2020-05-21T09:06:37Z</time>
      </trkpt>
      <trkpt lat="47.26747" lon="-1.41142">
        <ele>1.49</ele>
        <time>2020-05-21T09:06:39Z</time>
      </trkpt>
      <trkpt lat="47.26758" lon="-1.41131">
        <ele>1.47</ele>
        <time>2020-05-21T09:06:41Z</time>
      </trkpt>
      <trkpt lat="47.26767" lon="-1.41119">
        <ele>2.33</ele>
        <time>2020-05-21T09:06:43Z</time>
      </trkpt>
      <trkpt lat="47.26774" lon="-1.41104">
        <ele>2.54</ele>
        <time>2020-05-21T09:06:45Z</time>
      </trkpt>
      <trkpt lat="47.2678" lon="-1.41086">
        <ele>3.02</ele>
        <time>2020-05-21T09:06:47Z</time>
      </trkpt>
      <trkpt lat="47.26785" lon="-1.41069">
        <ele>3.39</ele>
        <time>2020-05-21T09:06:49Z</time>
      </trkpt>
      <trkpt lat="47.26789" lon="-1.41053">
        <ele>3.45</ele>
        <time>2020-05-21T09:06:51Z</time>
      </trkpt>
      <trkpt lat="47.26794" lon="-1.41038">
        <ele>3.64</ele>
        <time>2020-05-21T09:06:53Z</time>
      </trkpt>
      <trkpt lat="47.26802" lon="-1.41018">
        <ele>3.39</ele>
        <time>2020-05-21T09:06:55Z</time>
      </trkpt>
      <trkpt lat="47.26809" lon="-1.41002">
        <ele>2.42</ele>
        <time>2020-05-21T09:06:57Z</time>
      </trkpt>
      <trkpt lat="47.26817" lon="-1.40988">
        <ele>1.81</ele>
        <time>2020-05-21T09:06:59Z</time>
      </trkpt>
      <trkpt lat="47.26825" lon="-1.40976">
        <ele>1.58</ele>
        <time>2020-05-21T09:07:01Z</time>
      </trkpt>
      <trkpt lat="47.26833" lon="-1.40965">
        <ele>1.5</ele>
        <time>2020-05-21T09:07:03Z</time>
      </trkpt>
      <trkpt lat="47.2684" lon="-1.40951">
        <ele>1.19</ele>
        <time>2020-05-21T09:07:05Z</time>
      </trkpt>
      <trkpt lat="47.26845" lon="-1.40939">
        <ele>0.76</ele>
        <time>2020-05-21T09:07:07Z</time>
      </trkpt>
      <trkpt lat="47.26856" lon="-1.40928">
        <ele>3.24</ele>
        <time>2020-05-21T09:07:10Z</time>
      </trkpt>
      <trkpt lat="47.26864" lon="-1.4092">
        <ele>3.19</ele>
        <time>2020-05-21T09:07:12Z</time>
      </trkpt>
      <trkpt lat="47.26872" lon="-1.4091">
        <ele>3</ele>
        <time>2020-05-21T09:07:14Z</time>
      </trkpt>
      <trkpt lat="47.26877" lon="-1.40892">
        <ele>3.49</ele>
        <time>2020-05-21T09:07:17Z</time>
      </trkpt>
      <trkpt lat="47.26883" lon="-1.40876">
        <ele>2.44</ele>
        <time>2020-05-21T09:07:20Z</time>
      </trkpt>
      <trkpt lat="47.26889" lon="-1.40865">
        <ele>1.48</ele>
        <time>2020-05-21T09:07:22Z</time>
      </trkpt>
      <trkpt lat="47.26896" lon="-1.40853">
        <ele>1.62</ele>
        <time>2020-05-21T09:07:24Z</time>
      </trkpt>
      <trkpt lat="47.26903" lon="-1.40841">
        <ele>1.21</ele>
        <time>2020-05-21T09:07:26Z</time>
      </trkpt>
      <trkpt lat="47.2691" lon="-1.40828">
        <ele>1.11</ele>
        <time>2020-05-21T09:07:28Z</time>
      </trkpt>
      <trkpt lat="47.26917" lon="-1.40815">
        <ele>1.88</ele>
        <time>2020-05-21T09:07:30Z</time>
      </trkpt>
      <trkpt lat="47.26924" lon="-1.408">
        <ele>1.76</ele>
        <time>2020-05-21T09:07:32Z</time>
      </trkpt>
      <trkpt lat="47.2693" lon="-1.40784">
        <ele>2.56</ele>
        <time>2020-05-21T09:07:34Z</time>
      </trkpt>
      <trkpt lat="47.26932" lon="-1.40765">
        <ele>2.39</ele>
        <time>2020-05-21T09:07:36Z</time>
      </trkpt>
      <trkpt lat="47.26934" lon="-1.40745">
        <ele>2.05</ele>
        <time>2020-05-21T09:07:38Z</time>
      </trkpt>
      <trkpt lat="47.26935" lon="-1.40725">
        <ele>1.15</ele>
        <time>2020-05-21T09:07:40Z</time>
      </trkpt>
      <trkpt lat="47.26934" lon="-1.40704">
        <ele>0.6</ele>
        <time>2020-05-21T09:07:42Z</time>
      </trkpt>
      <trkpt lat="47.26934" lon="-1.40687">
        <ele>0.15</ele>
        <time>2020-05-21T09:07:44Z</time>
      </trkpt>
      <trkpt lat="47.26935" lon="-1.40668">
        <ele>0.31</ele>
        <time>2020-05-21T09:07:46Z</time>
      </trkpt>
      <trkpt lat="47.26937" lon="-1.4065">
        <ele>0.44</ele>
        <time>2020-05-21T09:07:48Z</time>
      </trkpt>
      <trkpt lat="47.26938" lon="-1.40633">
        <ele>0.47</ele>
        <time>2020-05-21T09:07:50Z</time>
      </trkpt>
      <trkpt lat="47.26942" lon="-1.40616">
        <ele>1.18</ele>
        <time>2020-05-21T09:07:52Z</time>
      </trkpt>
      <trkpt lat="47.26946" lon="-1.40598">
        <ele>1.21</ele>
        <time>2020-05-21T09:07:54Z</time>
      </trkpt>
      <trkpt lat="47.2695" lon="-1.4058">
        <ele>1.42</ele>
        <time>2020-05-21T09:07:56Z</time>
      </trkpt>
      <trkpt lat="47.26955" lon="-1.40563">
        <ele>1.56</ele>
        <time>2020-05-21T09:07:58Z</time>
      </trkpt>
      <trkpt lat="47.2696" lon="-1.40548">
        <ele>1.69</ele>
        <time>2020-05-21T09:08:00Z</time>
      </trkpt>
      <trkpt lat="47.26968" lon="-1.40532">
        <ele>0.96</ele>
        <time>2020-05-21T09:08:02Z</time>
      </trkpt>
      <trkpt lat="47.26977" lon="-1.40516">
        <ele>0.42</ele>
        <time>2020-05-21T09:08:04Z</time>
      </trkpt>
      <trkpt lat="47.26985" lon="-1.40504">
        <ele>0.3</ele>
        <time>2020-05-21T09:08:06Z</time>
      </trkpt>
      <trkpt lat="47.26995" lon="-1.40489">
        <ele>0.78</ele>
        <time>2020-05-21T09:08:08Z</time>
      </trkpt>
      <trkpt lat="47.27004" lon="-1.40477">
        <ele>2.08</ele>
        <time>2020-05-21T09:08:10Z</time>
      </trkpt>
      <trkpt lat="47.27013" lon="-1.40465">
        <ele>2.67</ele>
        <time>2020-05-21T09:08:12Z</time>
      </trkpt>
      <trkpt lat="47.27023" lon="-1.40451">
        <ele>3.5</ele>
        <time>2020-05-21T09:08:14Z</time>
      </trkpt>
      <trkpt lat="47.27032" lon="-1.40437">
        <ele>3.78</ele>
        <time>2020-05-21T09:08:16Z</time>
      </trkpt>
      <trkpt lat="47.27041" lon="-1.40422">
        <ele>4.79</ele>
        <time>2020-05-21T09:08:18Z</time>
      </trkpt>
      <trkpt lat="47.2705" lon="-1.40408">
        <ele>4.87</ele>
        <time>2020-05-21T09:08:20Z</time>
      </trkpt>
      <trkpt lat="47.27059" lon="-1.40394">
        <ele>4.71</ele>
        <time>2020-05-21T09:08:22Z</time>
      </trkpt>
      <trkpt lat="47.27068" lon="-1.40381">
        <ele>4.23</ele>
        <time>2020-05-21T09:08:24Z</time>
      </trkpt>
      <trkpt lat="47.27077" lon="-1.40366">
        <ele>3.9</ele>
        <time>2020-05-21T09:08:26Z</time>
      </trkpt>
      <trkpt lat="47.27086" lon="-1.40352">
        <ele>3.3</ele>
        <time>2020-05-21T09:08:28Z</time>
      </trkpt>
      <trkpt lat="47.27096" lon="-1.40336">
        <ele>2.92</ele>
        <time>2020-05-21T09:08:30Z</time>
      </trkpt>
      <trkpt lat="47.27105" lon="-1.40322">
        <ele>2.58</ele>
        <time>2020-05-21T09:08:32Z</time>
      </trkpt>
      <trkpt lat="47.27114" lon="-1.40309">
        <ele>3.19</ele>
        <time>2020-05-21T09:08:34Z</time>
      </trkpt>
      <trkpt lat="47.27122" lon="-1.40295">
        <ele>3.93</ele>
        <time>2020-05-21T09:08:36Z</time>
      </trkpt>
      <trkpt lat="47.27131" lon="-1.40281">
        <ele>4.71</ele>
        <time>2020-05-21T09:08:38Z</time>
      </trkpt>
      <trkpt lat="47.2714" lon="-1.40268">
        <ele>5.7</ele>
        <time>2020-05-21T09:08:40Z</time>
      </trkpt>
      <trkpt lat="47.27147" lon="-1.40257">
        <ele>6.39</ele>
        <time>2020-05-21T09:08:42Z</time>
      </trkpt>
      <trkpt lat="47.27156" lon="-1.40244">
        <ele>6</ele>
        <time>2020-05-21T09:08:44Z</time>
      </trkpt>
      <trkpt lat="47.27165" lon="-1.4023">
        <ele>5.92</ele>
        <time>2020-05-21T09:08:46Z</time>
      </trkpt>
      <trkpt lat="47.27171" lon="-1.4022">
        <ele>6.2</ele>
        <time>2020-05-21T09:08:48Z</time>
      </trkpt>
      <trkpt lat="47.27181" lon="-1.40204">
        <ele>4.89</ele>
        <time>2020-05-21T09:08:51Z</time>
      </trkpt>
      <trkpt lat="47.27192" lon="-1.40189">
        <ele>4.11</ele>
        <time>2020-05-21T09:08:53Z</time>
      </trkpt>
      <trkpt lat="47.27203" lon="-1.40174">
        <ele>3.2</ele>
        <time>2020-05-21T09:08:55Z</time>
      </trkpt>
      <trkpt lat="47.27212" lon="-1.40154">
        <ele>2.44</ele>
        <time>2020-05-21T09:08:57Z</time>
      </trkpt>
      <trkpt lat="47.27222" lon="-1.40135">
        <ele>1.07</ele>
        <time>2020-05-21T09:08:59Z</time>
      </trkpt>
      <trkpt lat="47.27233" lon="-1.40117">
        <ele>1.98</ele>
        <time>2020-05-21T09:09:01Z</time>
      </trkpt>
      <trkpt lat="47.27245" lon="-1.40099">
        <ele>2.94</ele>
        <time>2020-05-21T09:09:03Z</time>
      </trkpt>
      <trkpt lat="47.27257" lon="-1.40081">
        <ele>3.92</ele>
        <time>2020-05-21T09:09:05Z</time>
      </trkpt>
      <trkpt lat="47.27267" lon="-1.40065">
        <ele>4.46</ele>
        <time>2020-05-21T09:09:07Z</time>
      </trkpt>
      <trkpt lat="47.27277" lon="-1.4005">
        <ele>4.13</ele>
        <time>2020-05-21T09:09:09Z</time>
      </trkpt>
      <trkpt lat="47.27288" lon="-1.40033">
        <ele>3.98</ele>
        <time>2020-05-21T09:09:11Z</time>
      </trkpt>
      <trkpt lat="47.27298" lon="-1.40017">
        <ele>4</ele>
        <time>2020-05-21T09:09:13Z</time>
      </trkpt>
      <trkpt lat="47.27308" lon="-1.40001">
        <ele>4.27</ele>
        <time>2020-05-21T09:09:15Z</time>
      </trkpt>
      <trkpt lat="47.27318" lon="-1.39985">
        <ele>3.93</ele>
        <time>2020-05-21T09:09:17Z</time>
      </trkpt>
      <trkpt lat="47.27329" lon="-1.39967">
        <ele>3.77</ele>
        <time>2020-05-21T09:09:19Z</time>
      </trkpt>
      <trkpt lat="47.2734" lon="-1.3995">
        <ele>3.73</ele>
        <time>2020-05-21T09:09:22Z</time>
      </trkpt>
      <trkpt lat="47.27349" lon="-1.39936">
        <ele>3.21</ele>
        <time>2020-05-21T09:09:23Z</time>
      </trkpt>
      <trkpt lat="47.2736" lon="-1.39919">
        <ele>2.86</ele>
        <time>2020-05-21T09:09:25Z</time>
      </trkpt>
      <trkpt lat="47.2737" lon="-1.39902">
        <ele>2.66</ele>
        <time>2020-05-21T09:09:27Z</time>
      </trkpt>
      <trkpt lat="47.27381" lon="-1.39887">
        <ele>2.63</ele>
        <time>2020-05-21T09:09:29Z</time>
      </trkpt>
      <trkpt lat="47.27396" lon="-1.39886">
        <ele>2.49</ele>
        <time>2020-05-21T09:09:31Z</time>
      </trkpt>
      <trkpt lat="47.27411" lon="-1.39887">
        <ele>1.86</ele>
        <time>2020-05-21T09:09:34Z</time>
      </trkpt>
      <trkpt lat="47.27425" lon="-1.39885">
        <ele>1.8</ele>
        <time>2020-05-21T09:09:36Z</time>
      </trkpt>
      <trkpt lat="47.27431" lon="-1.39865">
        <ele>2.47</ele>
        <time>2020-05-21T09:09:39Z</time>
      </trkpt>
      <trkpt lat="47.27435" lon="-1.39848">
        <ele>3.66</ele>
        <time>2020-05-21T09:09:41Z</time>
      </trkpt>
      <trkpt lat="47.2744" lon="-1.39827">
        <ele>5.01</ele>
        <time>2020-05-21T09:09:43Z</time>
      </trkpt>
      <trkpt lat="47.27447" lon="-1.39807">
        <ele>4.75</ele>
        <time>2020-05-21T09:09:45Z</time>
      </trkpt>
      <trkpt lat="47.27456" lon="-1.39789">
        <ele>3.54</ele>
        <time>2020-05-21T09:09:47Z</time>
      </trkpt>
      <trkpt lat="47.27467" lon="-1.39768">
        <ele>2.35</ele>
        <time>2020-05-21T09:09:49Z</time>
      </trkpt>
      <trkpt lat="47.27475" lon="-1.39752">
        <ele>2</ele>
        <time>2020-05-21T09:09:51Z</time>
      </trkpt>
      <trkpt lat="47.27482" lon="-1.39736">
        <ele>2.18</ele>
        <time>2020-05-21T09:09:53Z</time>
      </trkpt>
      <trkpt lat="47.27488" lon="-1.3972">
        <ele>2.02</ele>
        <time>2020-05-21T09:09:55Z</time>
      </trkpt>
      <trkpt lat="47.27496" lon="-1.39703">
        <ele>2.04</ele>
        <time>2020-05-21T09:09:57Z</time>
      </trkpt>
      <trkpt lat="47.27505" lon="-1.39688">
        <ele>2.82</ele>
        <time>2020-05-21T09:09:59Z</time>
      </trkpt>
      <trkpt lat="47.27515" lon="-1.39673">
        <ele>2.96</ele>
        <time>2020-05-21T09:10:01Z</time>
      </trkpt>
      <trkpt lat="47.27524" lon="-1.39659">
        <ele>2.54</ele>
        <time>2020-05-21T09:10:03Z</time>
      </trkpt>
      <trkpt lat="47.27534" lon="-1.39644">
        <ele>2.36</ele>
        <time>2020-05-21T09:10:05Z</time>
      </trkpt>
      <trkpt lat="47.27544" lon="-1.39629">
        <ele>3.03</ele>
        <time>2020-05-21T09:10:07Z</time>
      </trkpt>
      <trkpt lat="47.27553" lon="-1.39615">
        <ele>3.7</ele>
        <time>2020-05-21T09:10:09Z</time>
      </trkpt>
      <trkpt lat="47.27564" lon="-1.39599">
        <ele>4.03</ele>
        <time>2020-05-21T09:10:11Z</time>
      </trkpt>
      <trkpt lat="47.27573" lon="-1.39585">
        <ele>4.13</ele>
        <time>2020-05-21T09:10:13Z</time>
      </trkpt>
      <trkpt lat="47.27582" lon="-1.39571">
        <ele>3.88</ele>
        <time>2020-05-21T09:10:15Z</time>
      </trkpt>
      <trkpt lat="47.27592" lon="-1.39555">
        <ele>3.95</ele>
        <time>2020-05-21T09:10:17Z</time>
      </trkpt>
      <trkpt lat="47.27601" lon="-1.39541">
        <ele>4.52</ele>
        <time>2020-05-21T09:10:19Z</time>
      </trkpt>
      <trkpt lat="47.2761" lon="-1.39527">
        <ele>4.63</ele>
        <time>2020-05-21T09:10:21Z</time>
      </trkpt>
      <trkpt lat="47.2762" lon="-1.39517">
        <ele>3.93</ele>
        <time>2020-05-21T09:10:23Z</time>
      </trkpt>
      <trkpt lat="47.2763" lon="-1.39503">
        <ele>3.44</ele>
        <time>2020-05-21T09:10:25Z</time>
      </trkpt>
      <trkpt lat="47.27637" lon="-1.39488">
        <ele>4.18</ele>
        <time>2020-05-21T09:10:27Z</time>
      </trkpt>
      <trkpt lat="47.27645" lon="-1.39471">
        <ele>4.96</ele>
        <time>2020-05-21T09:10:29Z</time>
      </trkpt>
      <trkpt lat="47.27654" lon="-1.39456">
        <ele>5.2</ele>
        <time>2020-05-21T09:10:31Z</time>
      </trkpt>
      <trkpt lat="47.27663" lon="-1.3944">
        <ele>4.86</ele>
        <time>2020-05-21T09:10:33Z</time>
      </trkpt>
      <trkpt lat="47.27673" lon="-1.39425">
        <ele>4.89</ele>
        <time>2020-05-21T09:10:35Z</time>
      </trkpt>
      <trkpt lat="47.27681" lon="-1.39408">
        <ele>5.2</ele>
        <time>2020-05-21T09:10:37Z</time>
      </trkpt>
      <trkpt lat="47.27689" lon="-1.39392">
        <ele>5</ele>
        <time>2020-05-21T09:10:39Z</time>
      </trkpt>
      <trkpt lat="47.27697" lon="-1.39376">
        <ele>4.74</ele>
        <time>2020-05-21T09:10:41Z</time>
      </trkpt>
      <trkpt lat="47.27704" lon="-1.39361">
        <ele>4.81</ele>
        <time>2020-05-21T09:10:43Z</time>
      </trkpt>
      <trkpt lat="47.27712" lon="-1.39345">
        <ele>4.94</ele>
        <time>2020-05-21T09:10:45Z</time>
      </trkpt>
      <trkpt lat="47.27722" lon="-1.39326">
        <ele>4.65</ele>
        <time>2020-05-21T09:10:47Z</time>
      </trkpt>
      <trkpt lat="47.27729" lon="-1.39309">
        <ele>4.2</ele>
        <time>2020-05-21T09:10:49Z</time>
      </trkpt>
      <trkpt lat="47.27735" lon="-1.39296">
        <ele>4.25</ele>
        <time>2020-05-21T09:10:51Z</time>
      </trkpt>
      <trkpt lat="47.27743" lon="-1.39278">
        <ele>3.82</ele>
        <time>2020-05-21T09:10:53Z</time>
      </trkpt>
      <trkpt lat="47.27751" lon="-1.3926">
        <ele>4.23</ele>
        <time>2020-05-21T09:10:55Z</time>
      </trkpt>
      <trkpt lat="47.27758" lon="-1.39245">
        <ele>5.14</ele>
        <time>2020-05-21T09:10:57Z</time>
      </trkpt>
      <trkpt lat="47.27766" lon="-1.39228">
        <ele>5.44</ele>
        <time>2020-05-21T09:10:59Z</time>
      </trkpt>
      <trkpt lat="47.27773" lon="-1.39211">
        <ele>5.82</ele>
        <time>2020-05-21T09:11:01Z</time>
      </trkpt>
      <trkpt lat="47.2778" lon="-1.39197">
        <ele>6.13</ele>
        <time>2020-05-21T09:11:03Z</time>
      </trkpt>
      <trkpt lat="47.27788" lon="-1.39181">
        <ele>6.48</ele>
        <time>2020-05-21T09:11:05Z</time>
      </trkpt>
      <trkpt lat="47.27797" lon="-1.39165">
        <ele>6.56</ele>
        <time>2020-05-21T09:11:07Z</time>
      </trkpt>
      <trkpt lat="47.27806" lon="-1.39151">
        <ele>6.28</ele>
        <time>2020-05-21T09:11:09Z</time>
      </trkpt>
      <trkpt lat="47.27815" lon="-1.39134">
        <ele>5.86</ele>
        <time>2020-05-21T09:11:11Z</time>
      </trkpt>
      <trkpt lat="47.27824" lon="-1.3912">
        <ele>5.66</ele>
        <time>2020-05-21T09:11:13Z</time>
      </trkpt>
      <trkpt lat="47.27834" lon="-1.39106">
        <ele>4.95</ele>
        <time>2020-05-21T09:11:15Z</time>
      </trkpt>
      <trkpt lat="47.27843" lon="-1.39093">
        <ele>5.03</ele>
        <time>2020-05-21T09:11:17Z</time>
      </trkpt>
      <trkpt lat="47.27852" lon="-1.39077">
        <ele>5.33</ele>
        <time>2020-05-21T09:11:19Z</time>
      </trkpt>
      <trkpt lat="47.27862" lon="-1.39062">
        <ele>5.67</ele>
        <time>2020-05-21T09:11:21Z</time>
      </trkpt>
      <trkpt lat="47.2787" lon="-1.39046">
        <ele>5.78</ele>
        <time>2020-05-21T09:11:23Z</time>
      </trkpt>
      <trkpt lat="47.27879" lon="-1.39032">
        <ele>5.68</ele>
        <time>2020-05-21T09:11:25Z</time>
      </trkpt>
      <trkpt lat="47.27887" lon="-1.39018">
        <ele>5.78</ele>
        <time>2020-05-21T09:11:27Z</time>
      </trkpt>
      <trkpt lat="47.27898" lon="-1.39003">
        <ele>5.83</ele>
        <time>2020-05-21T09:11:29Z</time>
      </trkpt>
      <trkpt lat="47.27908" lon="-1.3899">
        <ele>6.08</ele>
        <time>2020-05-21T09:11:31Z</time>
      </trkpt>
      <trkpt lat="47.27917" lon="-1.38976">
        <ele>5.68</ele>
        <time>2020-05-21T09:11:33Z</time>
      </trkpt>
      <trkpt lat="47.27925" lon="-1.38961">
        <ele>5.07</ele>
        <time>2020-05-21T09:11:35Z</time>
      </trkpt>
      <trkpt lat="47.27933" lon="-1.38946">
        <ele>4.79</ele>
        <time>2020-05-21T09:11:37Z</time>
      </trkpt>
      <trkpt lat="47.2794" lon="-1.38933">
        <ele>5.27</ele>
        <time>2020-05-21T09:11:39Z</time>
      </trkpt>
      <trkpt lat="47.27949" lon="-1.38919">
        <ele>5.17</ele>
        <time>2020-05-21T09:11:41Z</time>
      </trkpt>
      <trkpt lat="47.27957" lon="-1.38906">
        <ele>4</ele>
        <time>2020-05-21T09:11:43Z</time>
      </trkpt>
      <trkpt lat="47.27965" lon="-1.38894">
        <ele>4.01</ele>
        <time>2020-05-21T09:11:45Z</time>
      </trkpt>
      <trkpt lat="47.27975" lon="-1.38879">
        <ele>4.11</ele>
        <time>2020-05-21T09:11:47Z</time>
      </trkpt>
      <trkpt lat="47.27984" lon="-1.38868">
        <ele>4.24</ele>
        <time>2020-05-21T09:11:49Z</time>
      </trkpt>
      <trkpt lat="47.27993" lon="-1.38856">
        <ele>4.45</ele>
        <time>2020-05-21T09:11:51Z</time>
      </trkpt>
      <trkpt lat="47.28003" lon="-1.38845">
        <ele>4.68</ele>
        <time>2020-05-21T09:11:53Z</time>
      </trkpt>
      <trkpt lat="47.28011" lon="-1.38837">
        <ele>4.08</ele>
        <time>2020-05-21T09:11:55Z</time>
      </trkpt>
      <trkpt lat="47.28022" lon="-1.38827">
        <ele>4.34</ele>
        <time>2020-05-21T09:11:58Z</time>
      </trkpt>
      <trkpt lat="47.28033" lon="-1.38818">
        <ele>4.54</ele>
        <time>2020-05-21T09:12:00Z</time>
      </trkpt>
      <trkpt lat="47.28048" lon="-1.38806">
        <ele>4.72</ele>
        <time>2020-05-21T09:12:02Z</time>
      </trkpt>
      <trkpt lat="47.2806" lon="-1.38798">
        <ele>4.28</ele>
        <time>2020-05-21T09:12:04Z</time>
      </trkpt>
      <trkpt lat="47.28072" lon="-1.38789">
        <ele>3.97</ele>
        <time>2020-05-21T09:12:06Z</time>
      </trkpt>
      <trkpt lat="47.28085" lon="-1.38783">
        <ele>2.81</ele>
        <time>2020-05-21T09:12:08Z</time>
      </trkpt>
      <trkpt lat="47.28098" lon="-1.38781">
        <ele>1.53</ele>
        <time>2020-05-21T09:12:10Z</time>
      </trkpt>
      <trkpt lat="47.28109" lon="-1.38775">
        <ele>1.21</ele>
        <time>2020-05-21T09:12:12Z</time>
      </trkpt>
      <trkpt lat="47.2812" lon="-1.38767">
        <ele>1.31</ele>
        <time>2020-05-21T09:12:14Z</time>
      </trkpt>
      <trkpt lat="47.28131" lon="-1.38759">
        <ele>1.33</ele>
        <time>2020-05-21T09:12:16Z</time>
      </trkpt>
      <trkpt lat="47.28146" lon="-1.38747">
        <ele>1.8</ele>
        <time>2020-05-21T09:12:18Z</time>
      </trkpt>
      <trkpt lat="47.28155" lon="-1.38738">
        <ele>2.95</ele>
        <time>2020-05-21T09:12:20Z</time>
      </trkpt>
      <trkpt lat="47.28165" lon="-1.38728">
        <ele>3.19</ele>
        <time>2020-05-21T09:12:22Z</time>
      </trkpt>
      <trkpt lat="47.28175" lon="-1.38717">
        <ele>3.91</ele>
        <time>2020-05-21T09:12:25Z</time>
      </trkpt>
      <trkpt lat="47.28179" lon="-1.38704">
        <ele>3.98</ele>
        <time>2020-05-21T09:12:27Z</time>
      </trkpt>
      <trkpt lat="47.28182" lon="-1.38684">
        <ele>4.18</ele>
        <time>2020-05-21T09:12:29Z</time>
      </trkpt>
      <trkpt lat="47.28187" lon="-1.38665">
        <ele>4.08</ele>
        <time>2020-05-21T09:12:31Z</time>
      </trkpt>
      <trkpt lat="47.28191" lon="-1.38649">
        <ele>3.39</ele>
        <time>2020-05-21T09:12:33Z</time>
      </trkpt>
      <trkpt lat="47.28196" lon="-1.38631">
        <ele>3.1</ele>
        <time>2020-05-21T09:12:35Z</time>
      </trkpt>
      <trkpt lat="47.282" lon="-1.38611">
        <ele>3.02</ele>
        <time>2020-05-21T09:12:37Z</time>
      </trkpt>
      <trkpt lat="47.28202" lon="-1.38587">
        <ele>2.65</ele>
        <time>2020-05-21T09:12:39Z</time>
      </trkpt>
      <trkpt lat="47.28203" lon="-1.38566">
        <ele>2.9</ele>
        <time>2020-05-21T09:12:41Z</time>
      </trkpt>
      <trkpt lat="47.28203" lon="-1.38543">
        <ele>2.95</ele>
        <time>2020-05-21T09:12:43Z</time>
      </trkpt>
      <trkpt lat="47.28205" lon="-1.38523">
        <ele>2.68</ele>
        <time>2020-05-21T09:12:45Z</time>
      </trkpt>
      <trkpt lat="47.2821" lon="-1.38505">
        <ele>2.65</ele>
        <time>2020-05-21T09:12:47Z</time>
      </trkpt>
      <trkpt lat="47.28217" lon="-1.38487">
        <ele>2.75</ele>
        <time>2020-05-21T09:12:49Z</time>
      </trkpt>
      <trkpt lat="47.28222" lon="-1.38476">
        <ele>2.98</ele>
        <time>2020-05-21T09:12:50Z</time>
      </trkpt>
      <trkpt lat="47.28231" lon="-1.38459">
        <ele>3.76</ele>
        <time>2020-05-21T09:12:52Z</time>
      </trkpt>
      <trkpt lat="47.28238" lon="-1.38443">
        <ele>3.99</ele>
        <time>2020-05-21T09:12:54Z</time>
      </trkpt>
      <trkpt lat="47.28245" lon="-1.38425">
        <ele>4.82</ele>
        <time>2020-05-21T09:12:56Z</time>
      </trkpt>
      <trkpt lat="47.28253" lon="-1.38407">
        <ele>4.64</ele>
        <time>2020-05-21T09:12:58Z</time>
      </trkpt>
      <trkpt lat="47.28261" lon="-1.38388">
        <ele>3.95</ele>
        <time>2020-05-21T09:13:00Z</time>
      </trkpt>
      <trkpt lat="47.28269" lon="-1.38371">
        <ele>3.17</ele>
        <time>2020-05-21T09:13:02Z</time>
      </trkpt>
      <trkpt lat="47.28277" lon="-1.38354">
        <ele>3.13</ele>
        <time>2020-05-21T09:13:04Z</time>
      </trkpt>
      <trkpt lat="47.28284" lon="-1.38338">
        <ele>2.99</ele>
        <time>2020-05-21T09:13:06Z</time>
      </trkpt>
      <trkpt lat="47.28292" lon="-1.3832">
        <ele>3.19</ele>
        <time>2020-05-21T09:13:08Z</time>
      </trkpt>
      <trkpt lat="47.28301" lon="-1.38302">
        <ele>3.09</ele>
        <time>2020-05-21T09:13:10Z</time>
      </trkpt>
      <trkpt lat="47.2831" lon="-1.38288">
        <ele>2.7</ele>
        <time>2020-05-21T09:13:12Z</time>
      </trkpt>
      <trkpt lat="47.28322" lon="-1.38273">
        <ele>2.13</ele>
        <time>2020-05-21T09:13:14Z</time>
      </trkpt>
      <trkpt lat="47.28332" lon="-1.38261">
        <ele>1.97</ele>
        <time>2020-05-21T09:13:16Z</time>
      </trkpt>
      <trkpt lat="47.28342" lon="-1.38248">
        <ele>2.1</ele>
        <time>2020-05-21T09:13:18Z</time>
      </trkpt>
      <trkpt lat="47.28349" lon="-1.38232">
        <ele>1.95</ele>
        <time>2020-05-21T09:13:20Z</time>
      </trkpt>
      <trkpt lat="47.2835" lon="-1.38215">
        <ele>1.95</ele>
        <time>2020-05-21T09:13:22Z</time>
      </trkpt>
      <trkpt lat="47.28355" lon="-1.38196">
        <ele>1.17</ele>
        <time>2020-05-21T09:13:24Z</time>
      </trkpt>
      <trkpt lat="47.2836" lon="-1.38177">
        <ele>1.01</ele>
        <time>2020-05-21T09:13:26Z</time>
      </trkpt>
      <trkpt lat="47.28365" lon="-1.38161">
        <ele>0.93</ele>
        <time>2020-05-21T09:13:28Z</time>
      </trkpt>
      <trkpt lat="47.28372" lon="-1.38142">
        <ele>1.55</ele>
        <time>2020-05-21T09:13:30Z</time>
      </trkpt>
      <trkpt lat="47.28379" lon="-1.38125">
        <ele>2.49</ele>
        <time>2020-05-21T09:13:32Z</time>
      </trkpt>
      <trkpt lat="47.28387" lon="-1.38112">
        <ele>3.22</ele>
        <time>2020-05-21T09:13:34Z</time>
      </trkpt>
      <trkpt lat="47.28397" lon="-1.38098">
        <ele>3.89</ele>
        <time>2020-05-21T09:13:36Z</time>
      </trkpt>
      <trkpt lat="47.28407" lon="-1.38086">
        <ele>4.21</ele>
        <time>2020-05-21T09:13:38Z</time>
      </trkpt>
      <trkpt lat="47.28418" lon="-1.38074">
        <ele>3.7</ele>
        <time>2020-05-21T09:13:40Z</time>
      </trkpt>
      <trkpt lat="47.28429" lon="-1.38062">
        <ele>3.65</ele>
        <time>2020-05-21T09:13:42Z</time>
      </trkpt>
      <trkpt lat="47.28442" lon="-1.3805">
        <ele>4.15</ele>
        <time>2020-05-21T09:13:44Z</time>
      </trkpt>
      <trkpt lat="47.28451" lon="-1.38041">
        <ele>4.52</ele>
        <time>2020-05-21T09:13:46Z</time>
      </trkpt>
      <trkpt lat="47.2846" lon="-1.3803">
        <ele>4.97</ele>
        <time>2020-05-21T09:13:48Z</time>
      </trkpt>
      <trkpt lat="47.28469" lon="-1.38025">
        <ele>5.55</ele>
        <time>2020-05-21T09:13:50Z</time>
      </trkpt>
      <trkpt lat="47.28484" lon="-1.38029">
        <ele>5.52</ele>
        <time>2020-05-21T09:13:52Z</time>
      </trkpt>
      <trkpt lat="47.28497" lon="-1.38026">
        <ele>5.18</ele>
        <time>2020-05-21T09:13:54Z</time>
      </trkpt>
      <trkpt lat="47.28508" lon="-1.38012">
        <ele>5.23</ele>
        <time>2020-05-21T09:13:56Z</time>
      </trkpt>
      <trkpt lat="47.28517" lon="-1.38001">
        <ele>5.2</ele>
        <time>2020-05-21T09:13:58Z</time>
      </trkpt>
      <trkpt lat="47.28526" lon="-1.37989">
        <ele>5.86</ele>
        <time>2020-05-21T09:14:00Z</time>
      </trkpt>
      <trkpt lat="47.28531" lon="-1.37973">
        <ele>5.23</ele>
        <time>2020-05-21T09:14:02Z</time>
      </trkpt>
      <trkpt lat="47.28532" lon="-1.37959">
        <ele>4.11</ele>
        <time>2020-05-21T09:14:04Z</time>
      </trkpt>
      <trkpt lat="47.28537" lon="-1.37945">
        <ele>4.53</ele>
        <time>2020-05-21T09:14:06Z</time>
      </trkpt>
      <trkpt lat="47.28546" lon="-1.37931">
        <ele>4.61</ele>
        <time>2020-05-21T09:14:08Z</time>
      </trkpt>
      <trkpt lat="47.28556" lon="-1.37918">
        <ele>4.82</ele>
        <time>2020-05-21T09:14:10Z</time>
      </trkpt>
      <trkpt lat="47.28566" lon="-1.37907">
        <ele>5.14</ele>
        <time>2020-05-21T09:14:12Z</time>
      </trkpt>
      <trkpt lat="47.28576" lon="-1.37895">
        <ele>5.38</ele>
        <time>2020-05-21T09:14:14Z</time>
      </trkpt>
      <trkpt lat="47.28588" lon="-1.37883">
        <ele>5.51</ele>
        <time>2020-05-21T09:14:16Z</time>
      </trkpt>
      <trkpt lat="47.28598" lon="-1.37872">
        <ele>5.77</ele>
        <time>2020-05-21T09:14:18Z</time>
      </trkpt>
      <trkpt lat="47.28608" lon="-1.37861">
        <ele>5.79</ele>
        <time>2020-05-21T09:14:20Z</time>
      </trkpt>
      <trkpt lat="47.28619" lon="-1.37848">
        <ele>5.89</ele>
        <time>2020-05-21T09:14:22Z</time>
      </trkpt>
      <trkpt lat="47.28628" lon="-1.37837">
        <ele>6.1</ele>
        <time>2020-05-21T09:14:24Z</time>
      </trkpt>
      <trkpt lat="47.28637" lon="-1.37826">
        <ele>6.49</ele>
        <time>2020-05-21T09:14:26Z</time>
      </trkpt>
      <trkpt lat="47.28647" lon="-1.37813">
        <ele>6.94</ele>
        <time>2020-05-21T09:14:28Z</time>
      </trkpt>
      <trkpt lat="47.28656" lon="-1.37802">
        <ele>7.09</ele>
        <time>2020-05-21T09:14:30Z</time>
      </trkpt>
      <trkpt lat="47.28668" lon="-1.37789">
        <ele>6.4</ele>
        <time>2020-05-21T09:14:32Z</time>
      </trkpt>
      <trkpt lat="47.28677" lon="-1.37778">
        <ele>6.36</ele>
        <time>2020-05-21T09:14:34Z</time>
      </trkpt>
      <trkpt lat="47.28686" lon="-1.37767">
        <ele>5.63</ele>
        <time>2020-05-21T09:14:36Z</time>
      </trkpt>
      <trkpt lat="47.28697" lon="-1.37755">
        <ele>4.5</ele>
        <time>2020-05-21T09:14:38Z</time>
      </trkpt>
      <trkpt lat="47.28707" lon="-1.37745">
        <ele>3.83</ele>
        <time>2020-05-21T09:14:40Z</time>
      </trkpt>
      <trkpt lat="47.28719" lon="-1.37735">
        <ele>4.05</ele>
        <time>2020-05-21T09:14:42Z</time>
      </trkpt>
      <trkpt lat="47.2873" lon="-1.37723">
        <ele>5.12</ele>
        <time>2020-05-21T09:14:44Z</time>
      </trkpt>
      <trkpt lat="47.2874" lon="-1.3771">
        <ele>5.72</ele>
        <time>2020-05-21T09:14:46Z</time>
      </trkpt>
      <trkpt lat="47.28748" lon="-1.37699">
        <ele>5.52</ele>
        <time>2020-05-21T09:14:48Z</time>
      </trkpt>
      <trkpt lat="47.28758" lon="-1.37686">
        <ele>5.28</ele>
        <time>2020-05-21T09:14:50Z</time>
      </trkpt>
      <trkpt lat="47.28769" lon="-1.37673">
        <ele>5.28</ele>
        <time>2020-05-21T09:14:52Z</time>
      </trkpt>
      <trkpt lat="47.28778" lon="-1.37662">
        <ele>5.41</ele>
        <time>2020-05-21T09:14:54Z</time>
      </trkpt>
      <trkpt lat="47.28789" lon="-1.37651">
        <ele>5.39</ele>
        <time>2020-05-21T09:14:56Z</time>
      </trkpt>
      <trkpt lat="47.28799" lon="-1.37642">
        <ele>5.87</ele>
        <time>2020-05-21T09:14:58Z</time>
      </trkpt>
      <trkpt lat="47.28809" lon="-1.37634">
        <ele>5.67</ele>
        <time>2020-05-21T09:15:00Z</time>
      </trkpt>
      <trkpt lat="47.28819" lon="-1.37624">
        <ele>5.67</ele>
        <time>2020-05-21T09:15:02Z</time>
      </trkpt>
      <trkpt lat="47.28827" lon="-1.37614">
        <ele>5.6</ele>
        <time>2020-05-21T09:15:04Z</time>
      </trkpt>
      <trkpt lat="47.28836" lon="-1.37609">
        <ele>6.14</ele>
        <time>2020-05-21T09:15:06Z</time>
      </trkpt>
      <trkpt lat="47.28848" lon="-1.37602">
        <ele>6.72</ele>
        <time>2020-05-21T09:15:09Z</time>
      </trkpt>
      <trkpt lat="47.2885" lon="-1.37589">
        <ele>7.19</ele>
        <time>2020-05-21T09:15:11Z</time>
      </trkpt>
      <trkpt lat="47.28849" lon="-1.37571">
        <ele>7.45</ele>
        <time>2020-05-21T09:15:13Z</time>
      </trkpt>
      <trkpt lat="47.28851" lon="-1.37551">
        <ele>7.14</ele>
        <time>2020-05-21T09:15:15Z</time>
      </trkpt>
      <trkpt lat="47.28855" lon="-1.37531">
        <ele>6.55</ele>
        <time>2020-05-21T09:15:17Z</time>
      </trkpt>
      <trkpt lat="47.2886" lon="-1.37515">
        <ele>6.34</ele>
        <time>2020-05-21T09:15:19Z</time>
      </trkpt>
      <trkpt lat="47.28863" lon="-1.37502">
        <ele>6.36</ele>
        <time>2020-05-21T09:15:22Z</time>
      </trkpt>
      <trkpt lat="47.28862" lon="-1.37487">
        <ele>6.48</ele>
        <time>2020-05-21T09:15:26Z</time>
      </trkpt>
      <trkpt lat="47.28865" lon="-1.37475">
        <ele>6.9</ele>
        <time>2020-05-21T09:15:28Z</time>
      </trkpt>
      <trkpt lat="47.28871" lon="-1.37456">
        <ele>6.77</ele>
        <time>2020-05-21T09:15:30Z</time>
      </trkpt>
      <trkpt lat="47.28876" lon="-1.3744">
        <ele>6.52</ele>
        <time>2020-05-21T09:15:32Z</time>
      </trkpt>
      <trkpt lat="47.28882" lon="-1.37421">
        <ele>5.92</ele>
        <time>2020-05-21T09:15:34Z</time>
      </trkpt>
      <trkpt lat="47.28888" lon="-1.37403">
        <ele>6.17</ele>
        <time>2020-05-21T09:15:36Z</time>
      </trkpt>
      <trkpt lat="47.28894" lon="-1.37384">
        <ele>6.36</ele>
        <time>2020-05-21T09:15:38Z</time>
      </trkpt>
      <trkpt lat="47.28899" lon="-1.37366">
        <ele>5.97</ele>
        <time>2020-05-21T09:15:40Z</time>
      </trkpt>
      <trkpt lat="47.28905" lon="-1.37347">
        <ele>5.69</ele>
        <time>2020-05-21T09:15:42Z</time>
      </trkpt>
      <trkpt lat="47.28911" lon="-1.3733">
        <ele>5.34</ele>
        <time>2020-05-21T09:15:44Z</time>
      </trkpt>
      <trkpt lat="47.28916" lon="-1.37313">
        <ele>5.37</ele>
        <time>2020-05-21T09:15:46Z</time>
      </trkpt>
      <trkpt lat="47.28922" lon="-1.37296">
        <ele>5.3</ele>
        <time>2020-05-21T09:15:48Z</time>
      </trkpt>
      <trkpt lat="47.28927" lon="-1.3728">
        <ele>4.84</ele>
        <time>2020-05-21T09:15:50Z</time>
      </trkpt>
      <trkpt lat="47.28934" lon="-1.37259">
        <ele>4.55</ele>
        <time>2020-05-21T09:15:52Z</time>
      </trkpt>
      <trkpt lat="47.2894" lon="-1.37243">
        <ele>5.07</ele>
        <time>2020-05-21T09:15:54Z</time>
      </trkpt>
      <trkpt lat="47.28945" lon="-1.37228">
        <ele>5.97</ele>
        <time>2020-05-21T09:15:56Z</time>
      </trkpt>
      <trkpt lat="47.28952" lon="-1.37208">
        <ele>6.6</ele>
        <time>2020-05-21T09:15:58Z</time>
      </trkpt>
      <trkpt lat="47.28958" lon="-1.3719">
        <ele>7.5</ele>
        <time>2020-05-21T09:16:00Z</time>
      </trkpt>
      <trkpt lat="47.28964" lon="-1.37176">
        <ele>8.35</ele>
        <time>2020-05-21T09:16:02Z</time>
      </trkpt>
      <trkpt lat="47.28971" lon="-1.37157">
        <ele>8.02</ele>
        <time>2020-05-21T09:16:04Z</time>
      </trkpt>
      <trkpt lat="47.28979" lon="-1.3714">
        <ele>7.39</ele>
        <time>2020-05-21T09:16:06Z</time>
      </trkpt>
      <trkpt lat="47.28985" lon="-1.37124">
        <ele>6.1</ele>
        <time>2020-05-21T09:16:08Z</time>
      </trkpt>
      <trkpt lat="47.28992" lon="-1.37109">
        <ele>5.52</ele>
        <time>2020-05-21T09:16:10Z</time>
      </trkpt>
      <trkpt lat="47.29001" lon="-1.37091">
        <ele>5.94</ele>
        <time>2020-05-21T09:16:12Z</time>
      </trkpt>
      <trkpt lat="47.29008" lon="-1.37075">
        <ele>5.75</ele>
        <time>2020-05-21T09:16:14Z</time>
      </trkpt>
      <trkpt lat="47.29016" lon="-1.37059">
        <ele>5.69</ele>
        <time>2020-05-21T09:16:16Z</time>
      </trkpt>
      <trkpt lat="47.29024" lon="-1.37045">
        <ele>5.85</ele>
        <time>2020-05-21T09:16:18Z</time>
      </trkpt>
      <trkpt lat="47.29031" lon="-1.3703">
        <ele>6.19</ele>
        <time>2020-05-21T09:16:20Z</time>
      </trkpt>
      <trkpt lat="47.2904" lon="-1.37014">
        <ele>6.41</ele>
        <time>2020-05-21T09:16:22Z</time>
      </trkpt>
      <trkpt lat="47.29047" lon="-1.37">
        <ele>6.6</ele>
        <time>2020-05-21T09:16:24Z</time>
      </trkpt>
      <trkpt lat="47.29055" lon="-1.36984">
        <ele>6.24</ele>
        <time>2020-05-21T09:16:26Z</time>
      </trkpt>
      <trkpt lat="47.29062" lon="-1.36968">
        <ele>5.75</ele>
        <time>2020-05-21T09:16:28Z</time>
      </trkpt>
      <trkpt lat="47.2907" lon="-1.3695">
        <ele>5.71</ele>
        <time>2020-05-21T09:16:30Z</time>
      </trkpt>
      <trkpt lat="47.29078" lon="-1.36936">
        <ele>5.92</ele>
        <time>2020-05-21T09:16:32Z</time>
      </trkpt>
      <trkpt lat="47.29085" lon="-1.36921">
        <ele>5.93</ele>
        <time>2020-05-21T09:16:34Z</time>
      </trkpt>
      <trkpt lat="47.29094" lon="-1.36904">
        <ele>5.75</ele>
        <time>2020-05-21T09:16:36Z</time>
      </trkpt>
      <trkpt lat="47.29102" lon="-1.3689">
        <ele>5.29</ele>
        <time>2020-05-21T09:16:38Z</time>
      </trkpt>
      <trkpt lat="47.2911" lon="-1.36875">
        <ele>4.74</ele>
        <time>2020-05-21T09:16:40Z</time>
      </trkpt>
      <trkpt lat="47.29119" lon="-1.36858">
        <ele>4.33</ele>
        <time>2020-05-21T09:16:42Z</time>
      </trkpt>
      <trkpt lat="47.29127" lon="-1.36844">
        <ele>4.2</ele>
        <time>2020-05-21T09:16:44Z</time>
      </trkpt>
      <trkpt lat="47.29134" lon="-1.36829">
        <ele>4.37</ele>
        <time>2020-05-21T09:16:46Z</time>
      </trkpt>
      <trkpt lat="47.29141" lon="-1.36814">
        <ele>3.83</ele>
        <time>2020-05-21T09:16:48Z</time>
      </trkpt>
      <trkpt lat="47.2915" lon="-1.36797">
        <ele>3.9</ele>
        <time>2020-05-21T09:16:50Z</time>
      </trkpt>
      <trkpt lat="47.29159" lon="-1.36781">
        <ele>3.88</ele>
        <time>2020-05-21T09:16:52Z</time>
      </trkpt>
      <trkpt lat="47.29166" lon="-1.36768">
        <ele>4.44</ele>
        <time>2020-05-21T09:16:54Z</time>
      </trkpt>
      <trkpt lat="47.29174" lon="-1.36751">
        <ele>4.58</ele>
        <time>2020-05-21T09:16:56Z</time>
      </trkpt>
      <trkpt lat="47.29182" lon="-1.36735">
        <ele>4.43</ele>
        <time>2020-05-21T09:16:58Z</time>
      </trkpt>
      <trkpt lat="47.2919" lon="-1.36721">
        <ele>3.96</ele>
        <time>2020-05-21T09:17:00Z</time>
      </trkpt>
      <trkpt lat="47.29198" lon="-1.36706">
        <ele>3.47</ele>
        <time>2020-05-21T09:17:02Z</time>
      </trkpt>
      <trkpt lat="47.29206" lon="-1.36691">
        <ele>3.76</ele>
        <time>2020-05-21T09:17:04Z</time>
      </trkpt>
      <trkpt lat="47.29213" lon="-1.36676">
        <ele>5.1</ele>
        <time>2020-05-21T09:17:06Z</time>
      </trkpt>
      <trkpt lat="47.2922" lon="-1.36662">
        <ele>5.81</ele>
        <time>2020-05-21T09:17:08Z</time>
      </trkpt>
      <trkpt lat="47.29228" lon="-1.36646">
        <ele>5.89</ele>
        <time>2020-05-21T09:17:10Z</time>
      </trkpt>
      <trkpt lat="47.29237" lon="-1.3663">
        <ele>6.25</ele>
        <time>2020-05-21T09:17:12Z</time>
      </trkpt>
      <trkpt lat="47.29246" lon="-1.36613">
        <ele>6.19</ele>
        <time>2020-05-21T09:17:14Z</time>
      </trkpt>
      <trkpt lat="47.29254" lon="-1.36599">
        <ele>6.2</ele>
        <time>2020-05-21T09:17:16Z</time>
      </trkpt>
      <trkpt lat="47.29263" lon="-1.36584">
        <ele>6.55</ele>
        <time>2020-05-21T09:17:18Z</time>
      </trkpt>
      <trkpt lat="47.2927" lon="-1.36568">
        <ele>7.09</ele>
        <time>2020-05-21T09:17:20Z</time>
      </trkpt>
      <trkpt lat="47.29278" lon="-1.36552">
        <ele>6.36</ele>
        <time>2020-05-21T09:17:22Z</time>
      </trkpt>
      <trkpt lat="47.29286" lon="-1.36538">
        <ele>5.82</ele>
        <time>2020-05-21T09:17:24Z</time>
      </trkpt>
      <trkpt lat="47.29294" lon="-1.36522">
        <ele>5.77</ele>
        <time>2020-05-21T09:17:26Z</time>
      </trkpt>
      <trkpt lat="47.29301" lon="-1.36506">
        <ele>6.11</ele>
        <time>2020-05-21T09:17:28Z</time>
      </trkpt>
      <trkpt lat="47.2931" lon="-1.36489">
        <ele>6.44</ele>
        <time>2020-05-21T09:17:30Z</time>
      </trkpt>
      <trkpt lat="47.29318" lon="-1.36472">
        <ele>6.31</ele>
        <time>2020-05-21T09:17:32Z</time>
      </trkpt>
      <trkpt lat="47.29325" lon="-1.36458">
        <ele>5.34</ele>
        <time>2020-05-21T09:17:34Z</time>
      </trkpt>
      <trkpt lat="47.29335" lon="-1.36438">
        <ele>4.22</ele>
        <time>2020-05-21T09:17:36Z</time>
      </trkpt>
      <trkpt lat="47.29343" lon="-1.36422">
        <ele>3.53</ele>
        <time>2020-05-21T09:17:38Z</time>
      </trkpt>
      <trkpt lat="47.29352" lon="-1.36406">
        <ele>3.25</ele>
        <time>2020-05-21T09:17:40Z</time>
      </trkpt>
      <trkpt lat="47.2936" lon="-1.36389">
        <ele>3.2</ele>
        <time>2020-05-21T09:17:42Z</time>
      </trkpt>
      <trkpt lat="47.29367" lon="-1.36376">
        <ele>3.61</ele>
        <time>2020-05-21T09:17:44Z</time>
      </trkpt>
      <trkpt lat="47.29376" lon="-1.36358">
        <ele>3.99</ele>
        <time>2020-05-21T09:17:46Z</time>
      </trkpt>
      <trkpt lat="47.29385" lon="-1.36342">
        <ele>4.29</ele>
        <time>2020-05-21T09:17:48Z</time>
      </trkpt>
      <trkpt lat="47.29395" lon="-1.36325">
        <ele>4.7</ele>
        <time>2020-05-21T09:17:50Z</time>
      </trkpt>
      <trkpt lat="47.29403" lon="-1.36308">
        <ele>4.89</ele>
        <time>2020-05-21T09:17:52Z</time>
      </trkpt>
      <trkpt lat="47.2941" lon="-1.36293">
        <ele>4.32</ele>
        <time>2020-05-21T09:17:54Z</time>
      </trkpt>
      <trkpt lat="47.29418" lon="-1.36278">
        <ele>3.3</ele>
        <time>2020-05-21T09:17:56Z</time>
      </trkpt>
      <trkpt lat="47.29425" lon="-1.36264">
        <ele>2.44</ele>
        <time>2020-05-21T09:17:58Z</time>
      </trkpt>
      <trkpt lat="47.29433" lon="-1.36248">
        <ele>2.84</ele>
        <time>2020-05-21T09:18:00Z</time>
      </trkpt>
      <trkpt lat="47.29442" lon="-1.3623">
        <ele>3.5</ele>
        <time>2020-05-21T09:18:02Z</time>
      </trkpt>
      <trkpt lat="47.29451" lon="-1.36215">
        <ele>3.87</ele>
        <time>2020-05-21T09:18:04Z</time>
      </trkpt>
      <trkpt lat="47.29458" lon="-1.36201">
        <ele>4.05</ele>
        <time>2020-05-21T09:18:06Z</time>
      </trkpt>
      <trkpt lat="47.29467" lon="-1.36185">
        <ele>3.89</ele>
        <time>2020-05-21T09:18:08Z</time>
      </trkpt>
      <trkpt lat="47.29474" lon="-1.36171">
        <ele>4.33</ele>
        <time>2020-05-21T09:18:10Z</time>
      </trkpt>
      <trkpt lat="47.29484" lon="-1.36153">
        <ele>4.98</ele>
        <time>2020-05-21T09:18:12Z</time>
      </trkpt>
      <trkpt lat="47.29493" lon="-1.36136">
        <ele>5.17</ele>
        <time>2020-05-21T09:18:14Z</time>
      </trkpt>
      <trkpt lat="47.29501" lon="-1.36121">
        <ele>5.61</ele>
        <time>2020-05-21T09:18:16Z</time>
      </trkpt>
      <trkpt lat="47.29508" lon="-1.36105">
        <ele>5.44</ele>
        <time>2020-05-21T09:18:18Z</time>
      </trkpt>
      <trkpt lat="47.29516" lon="-1.36088">
        <ele>5</ele>
        <time>2020-05-21T09:18:20Z</time>
      </trkpt>
      <trkpt lat="47.29525" lon="-1.3607">
        <ele>5.12</ele>
        <time>2020-05-21T09:18:22Z</time>
      </trkpt>
      <trkpt lat="47.29533" lon="-1.36055">
        <ele>5.36</ele>
        <time>2020-05-21T09:18:24Z</time>
      </trkpt>
      <trkpt lat="47.29541" lon="-1.36039">
        <ele>5.7</ele>
        <time>2020-05-21T09:18:26Z</time>
      </trkpt>
      <trkpt lat="47.29551" lon="-1.36021">
        <ele>6.16</ele>
        <time>2020-05-21T09:18:28Z</time>
      </trkpt>
      <trkpt lat="47.2956" lon="-1.36004">
        <ele>5.19</ele>
        <time>2020-05-21T09:18:30Z</time>
      </trkpt>
      <trkpt lat="47.29569" lon="-1.35986">
        <ele>4.05</ele>
        <time>2020-05-21T09:18:32Z</time>
      </trkpt>
      <trkpt lat="47.29578" lon="-1.35969">
        <ele>3.41</ele>
        <time>2020-05-21T09:18:34Z</time>
      </trkpt>
      <trkpt lat="47.29586" lon="-1.35953">
        <ele>3.01</ele>
        <time>2020-05-21T09:18:36Z</time>
      </trkpt>
      <trkpt lat="47.29595" lon="-1.35937">
        <ele>3.55</ele>
        <time>2020-05-21T09:18:38Z</time>
      </trkpt>
      <trkpt lat="47.29603" lon="-1.35921">
        <ele>3.98</ele>
        <time>2020-05-21T09:18:40Z</time>
      </trkpt>
      <trkpt lat="47.29611" lon="-1.35905">
        <ele>4.36</ele>
        <time>2020-05-21T09:18:42Z</time>
      </trkpt>
      <trkpt lat="47.29619" lon="-1.35889">
        <ele>4.43</ele>
        <time>2020-05-21T09:18:44Z</time>
      </trkpt>
      <trkpt lat="47.29627" lon="-1.35875">
        <ele>4.3</ele>
        <time>2020-05-21T09:18:46Z</time>
      </trkpt>
      <trkpt lat="47.29636" lon="-1.35858">
        <ele>4.53</ele>
        <time>2020-05-21T09:18:48Z</time>
      </trkpt>
      <trkpt lat="47.29645" lon="-1.35841">
        <ele>4.94</ele>
        <time>2020-05-21T09:18:50Z</time>
      </trkpt>
      <trkpt lat="47.29655" lon="-1.35824">
        <ele>5.06</ele>
        <time>2020-05-21T09:18:52Z</time>
      </trkpt>
      <trkpt lat="47.29663" lon="-1.35809">
        <ele>5.58</ele>
        <time>2020-05-21T09:18:54Z</time>
      </trkpt>
      <trkpt lat="47.29671" lon="-1.35792">
        <ele>6.66</ele>
        <time>2020-05-21T09:18:56Z</time>
      </trkpt>
      <trkpt lat="47.2968" lon="-1.35775">
        <ele>6.6</ele>
        <time>2020-05-21T09:18:58Z</time>
      </trkpt>
      <trkpt lat="47.29687" lon="-1.3576">
        <ele>6.17</ele>
        <time>2020-05-21T09:19:00Z</time>
      </trkpt>
      <trkpt lat="47.29695" lon="-1.35743">
        <ele>6.12</ele>
        <time>2020-05-21T09:19:02Z</time>
      </trkpt>
      <trkpt lat="47.29703" lon="-1.35727">
        <ele>6.46</ele>
        <time>2020-05-21T09:19:04Z</time>
      </trkpt>
      <trkpt lat="47.29711" lon="-1.35711">
        <ele>7.05</ele>
        <time>2020-05-21T09:19:06Z</time>
      </trkpt>
      <trkpt lat="47.2972" lon="-1.35696">
        <ele>7.25</ele>
        <time>2020-05-21T09:19:07Z</time>
      </trkpt>
      <trkpt lat="47.29729" lon="-1.35679">
        <ele>7.32</ele>
        <time>2020-05-21T09:19:09Z</time>
      </trkpt>
      <trkpt lat="47.29736" lon="-1.35663">
        <ele>7.33</ele>
        <time>2020-05-21T09:19:11Z</time>
      </trkpt>
      <trkpt lat="47.29744" lon="-1.35646">
        <ele>8.31</ele>
        <time>2020-05-21T09:19:13Z</time>
      </trkpt>
      <trkpt lat="47.29753" lon="-1.35629">
        <ele>8.68</ele>
        <time>2020-05-21T09:19:15Z</time>
      </trkpt>
      <trkpt lat="47.29761" lon="-1.35614">
        <ele>8.86</ele>
        <time>2020-05-21T09:19:17Z</time>
      </trkpt>
      <trkpt lat="47.29769" lon="-1.35598">
        <ele>8.3</ele>
        <time>2020-05-21T09:19:19Z</time>
      </trkpt>
      <trkpt lat="47.29777" lon="-1.35581">
        <ele>7.38</ele>
        <time>2020-05-21T09:19:21Z</time>
      </trkpt>
      <trkpt lat="47.29785" lon="-1.35566">
        <ele>6.71</ele>
        <time>2020-05-21T09:19:23Z</time>
      </trkpt>
      <trkpt lat="47.29794" lon="-1.35549">
        <ele>6.25</ele>
        <time>2020-05-21T09:19:25Z</time>
      </trkpt>
      <trkpt lat="47.29802" lon="-1.35534">
        <ele>6.04</ele>
        <time>2020-05-21T09:19:27Z</time>
      </trkpt>
      <trkpt lat="47.29812" lon="-1.35517">
        <ele>6.2</ele>
        <time>2020-05-21T09:19:29Z</time>
      </trkpt>
      <trkpt lat="47.2982" lon="-1.35502">
        <ele>5.47</ele>
        <time>2020-05-21T09:19:31Z</time>
      </trkpt>
      <trkpt lat="47.29829" lon="-1.35485">
        <ele>5.37</ele>
        <time>2020-05-21T09:19:33Z</time>
      </trkpt>
      <trkpt lat="47.29836" lon="-1.3547">
        <ele>5.92</ele>
        <time>2020-05-21T09:19:35Z</time>
      </trkpt>
      <trkpt lat="47.29843" lon="-1.35456">
        <ele>7.02</ele>
        <time>2020-05-21T09:19:37Z</time>
      </trkpt>
      <trkpt lat="47.29851" lon="-1.35441">
        <ele>9.01</ele>
        <time>2020-05-21T09:19:39Z</time>
      </trkpt>
      <trkpt lat="47.2986" lon="-1.35423">
        <ele>9.98</ele>
        <time>2020-05-21T09:19:41Z</time>
      </trkpt>
      <trkpt lat="47.29869" lon="-1.35407">
        <ele>10.31</ele>
        <time>2020-05-21T09:19:43Z</time>
      </trkpt>
      <trkpt lat="47.29877" lon="-1.35391">
        <ele>10.48</ele>
        <time>2020-05-21T09:19:45Z</time>
      </trkpt>
      <trkpt lat="47.29885" lon="-1.35374">
        <ele>10.09</ele>
        <time>2020-05-21T09:19:47Z</time>
      </trkpt>
      <trkpt lat="47.29893" lon="-1.35359">
        <ele>9.36</ele>
        <time>2020-05-21T09:19:49Z</time>
      </trkpt>
      <trkpt lat="47.29901" lon="-1.35343">
        <ele>9.05</ele>
        <time>2020-05-21T09:19:51Z</time>
      </trkpt>
      <trkpt lat="47.29909" lon="-1.35327">
        <ele>8.35</ele>
        <time>2020-05-21T09:19:53Z</time>
      </trkpt>
      <trkpt lat="47.29917" lon="-1.35311">
        <ele>7.76</ele>
        <time>2020-05-21T09:19:55Z</time>
      </trkpt>
      <trkpt lat="47.29925" lon="-1.35295">
        <ele>7.43</ele>
        <time>2020-05-21T09:19:57Z</time>
      </trkpt>
      <trkpt lat="47.29933" lon="-1.3528">
        <ele>6.41</ele>
        <time>2020-05-21T09:19:59Z</time>
      </trkpt>
      <trkpt lat="47.2994" lon="-1.35266">
        <ele>6.25</ele>
        <time>2020-05-21T09:20:01Z</time>
      </trkpt>
      <trkpt lat="47.29949" lon="-1.35249">
        <ele>5.55</ele>
        <time>2020-05-21T09:20:03Z</time>
      </trkpt>
      <trkpt lat="47.29957" lon="-1.35233">
        <ele>4.86</ele>
        <time>2020-05-21T09:20:05Z</time>
      </trkpt>
      <trkpt lat="47.29965" lon="-1.35218">
        <ele>6.01</ele>
        <time>2020-05-21T09:20:07Z</time>
      </trkpt>
      <trkpt lat="47.29973" lon="-1.35203">
        <ele>6.73</ele>
        <time>2020-05-21T09:20:09Z</time>
      </trkpt>
      <trkpt lat="47.29982" lon="-1.35188">
        <ele>7.09</ele>
        <time>2020-05-21T09:20:11Z</time>
      </trkpt>
      <trkpt lat="47.2999" lon="-1.35171">
        <ele>7.43</ele>
        <time>2020-05-21T09:20:13Z</time>
      </trkpt>
      <trkpt lat="47.29998" lon="-1.35157">
        <ele>7.42</ele>
        <time>2020-05-21T09:20:15Z</time>
      </trkpt>
      <trkpt lat="47.30005" lon="-1.35142">
        <ele>6.89</ele>
        <time>2020-05-21T09:20:17Z</time>
      </trkpt>
      <trkpt lat="47.30013" lon="-1.35124">
        <ele>6.6</ele>
        <time>2020-05-21T09:20:19Z</time>
      </trkpt>
      <trkpt lat="47.30021" lon="-1.3511">
        <ele>6.24</ele>
        <time>2020-05-21T09:20:21Z</time>
      </trkpt>
      <trkpt lat="47.30029" lon="-1.35094">
        <ele>6.08</ele>
        <time>2020-05-21T09:20:23Z</time>
      </trkpt>
      <trkpt lat="47.30036" lon="-1.35077">
        <ele>5.96</ele>
        <time>2020-05-21T09:20:25Z</time>
      </trkpt>
      <trkpt lat="47.30044" lon="-1.35059">
        <ele>5.57</ele>
        <time>2020-05-21T09:20:27Z</time>
      </trkpt>
      <trkpt lat="47.3005" lon="-1.35041">
        <ele>5.19</ele>
        <time>2020-05-21T09:20:29Z</time>
      </trkpt>
      <trkpt lat="47.30057" lon="-1.35023">
        <ele>4.4</ele>
        <time>2020-05-21T09:20:31Z</time>
      </trkpt>
      <trkpt lat="47.30063" lon="-1.35007">
        <ele>4.54</ele>
        <time>2020-05-21T09:20:33Z</time>
      </trkpt>
      <trkpt lat="47.30068" lon="-1.34989">
        <ele>4.31</ele>
        <time>2020-05-21T09:20:35Z</time>
      </trkpt>
      <trkpt lat="47.30073" lon="-1.34972">
        <ele>3.9</ele>
        <time>2020-05-21T09:20:37Z</time>
      </trkpt>
      <trkpt lat="47.30078" lon="-1.34953">
        <ele>3.86</ele>
        <time>2020-05-21T09:20:39Z</time>
      </trkpt>
      <trkpt lat="47.30082" lon="-1.34936">
        <ele>4.48</ele>
        <time>2020-05-21T09:20:41Z</time>
      </trkpt>
      <trkpt lat="47.30086" lon="-1.34918">
        <ele>4.47</ele>
        <time>2020-05-21T09:20:43Z</time>
      </trkpt>
      <trkpt lat="47.3009" lon="-1.34898">
        <ele>4.81</ele>
        <time>2020-05-21T09:20:45Z</time>
      </trkpt>
      <trkpt lat="47.30093" lon="-1.34881">
        <ele>4.27</ele>
        <time>2020-05-21T09:20:47Z</time>
      </trkpt>
      <trkpt lat="47.30096" lon="-1.34861">
        <ele>4.3</ele>
        <time>2020-05-21T09:20:49Z</time>
      </trkpt>
      <trkpt lat="47.30099" lon="-1.3484">
        <ele>4.4</ele>
        <time>2020-05-21T09:20:51Z</time>
      </trkpt>
      <trkpt lat="47.301" lon="-1.34819">
        <ele>4.73</ele>
        <time>2020-05-21T09:20:53Z</time>
      </trkpt>
      <trkpt lat="47.30102" lon="-1.34798">
        <ele>4.94</ele>
        <time>2020-05-21T09:20:55Z</time>
      </trkpt>
      <trkpt lat="47.30103" lon="-1.34785">
        <ele>5.1</ele>
        <time>2020-05-21T09:20:56Z</time>
      </trkpt>
      <trkpt lat="47.30103" lon="-1.34767">
        <ele>6.19</ele>
        <time>2020-05-21T09:20:58Z</time>
      </trkpt>
      <trkpt lat="47.30104" lon="-1.34747">
        <ele>6.74</ele>
        <time>2020-05-21T09:21:00Z</time>
      </trkpt>
      <trkpt lat="47.30104" lon="-1.34727">
        <ele>7.08</ele>
        <time>2020-05-21T09:21:02Z</time>
      </trkpt>
      <trkpt lat="47.30103" lon="-1.34707">
        <ele>6.9</ele>
        <time>2020-05-21T09:21:04Z</time>
      </trkpt>
      <trkpt lat="47.30102" lon="-1.34686">
        <ele>7.15</ele>
        <time>2020-05-21T09:21:06Z</time>
      </trkpt>
      <trkpt lat="47.301" lon="-1.34664">
        <ele>6.87</ele>
        <time>2020-05-21T09:21:08Z</time>
      </trkpt>
      <trkpt lat="47.30098" lon="-1.34643">
        <ele>6.48</ele>
        <time>2020-05-21T09:21:10Z</time>
      </trkpt>
      <trkpt lat="47.30096" lon="-1.34625">
        <ele>6.64</ele>
        <time>2020-05-21T09:21:12Z</time>
      </trkpt>
      <trkpt lat="47.30093" lon="-1.34606">
        <ele>6.9</ele>
        <time>2020-05-21T09:21:14Z</time>
      </trkpt>
      <trkpt lat="47.30089" lon="-1.34584">
        <ele>6.7</ele>
        <time>2020-05-21T09:21:16Z</time>
      </trkpt>
      <trkpt lat="47.30085" lon="-1.34563">
        <ele>6.86</ele>
        <time>2020-05-21T09:21:18Z</time>
      </trkpt>
      <trkpt lat="47.30081" lon="-1.34543">
        <ele>8.12</ele>
        <time>2020-05-21T09:21:20Z</time>
      </trkpt>
      <trkpt lat="47.30078" lon="-1.34522">
        <ele>8.62</ele>
        <time>2020-05-21T09:21:22Z</time>
      </trkpt>
      <trkpt lat="47.30074" lon="-1.34504">
        <ele>8.13</ele>
        <time>2020-05-21T09:21:24Z</time>
      </trkpt>
      <trkpt lat="47.30071" lon="-1.34491">
        <ele>8.04</ele>
        <time>2020-05-21T09:21:25Z</time>
      </trkpt>
      <trkpt lat="47.30068" lon="-1.34473">
        <ele>7.44</ele>
        <time>2020-05-21T09:21:27Z</time>
      </trkpt>
      <trkpt lat="47.30063" lon="-1.34453">
        <ele>6.98</ele>
        <time>2020-05-21T09:21:29Z</time>
      </trkpt>
      <trkpt lat="47.30058" lon="-1.34432">
        <ele>6.4</ele>
        <time>2020-05-21T09:21:31Z</time>
      </trkpt>
      <trkpt lat="47.30055" lon="-1.34413">
        <ele>6.12</ele>
        <time>2020-05-21T09:21:33Z</time>
      </trkpt>
      <trkpt lat="47.30051" lon="-1.34393">
        <ele>5.93</ele>
        <time>2020-05-21T09:21:35Z</time>
      </trkpt>
      <trkpt lat="47.30047" lon="-1.34372">
        <ele>6.07</ele>
        <time>2020-05-21T09:21:37Z</time>
      </trkpt>
      <trkpt lat="47.30042" lon="-1.3435">
        <ele>6.22</ele>
        <time>2020-05-21T09:21:39Z</time>
      </trkpt>
      <trkpt lat="47.30038" lon="-1.34332">
        <ele>6.76</ele>
        <time>2020-05-21T09:21:41Z</time>
      </trkpt>
      <trkpt lat="47.30035" lon="-1.34312">
        <ele>7.69</ele>
        <time>2020-05-21T09:21:43Z</time>
      </trkpt>
      <trkpt lat="47.30031" lon="-1.34294">
        <ele>8.64</ele>
        <time>2020-05-21T09:21:45Z</time>
      </trkpt>
      <trkpt lat="47.30027" lon="-1.34276">
        <ele>8.77</ele>
        <time>2020-05-21T09:21:47Z</time>
      </trkpt>
      <trkpt lat="47.30023" lon="-1.34255">
        <ele>8.78</ele>
        <time>2020-05-21T09:21:49Z</time>
      </trkpt>
      <trkpt lat="47.30019" lon="-1.34235">
        <ele>8.65</ele>
        <time>2020-05-21T09:21:51Z</time>
      </trkpt>
      <trkpt lat="47.30015" lon="-1.34217">
        <ele>8.86</ele>
        <time>2020-05-21T09:21:53Z</time>
      </trkpt>
      <trkpt lat="47.30012" lon="-1.34197">
        <ele>9.15</ele>
        <time>2020-05-21T09:21:55Z</time>
      </trkpt>
      <trkpt lat="47.30008" lon="-1.34179">
        <ele>8.68</ele>
        <time>2020-05-21T09:21:57Z</time>
      </trkpt>
      <trkpt lat="47.30005" lon="-1.3416">
        <ele>9.1</ele>
        <time>2020-05-21T09:21:59Z</time>
      </trkpt>
      <trkpt lat="47.30001" lon="-1.34139">
        <ele>9.52</ele>
        <time>2020-05-21T09:22:01Z</time>
      </trkpt>
      <trkpt lat="47.29998" lon="-1.34121">
        <ele>9.92</ele>
        <time>2020-05-21T09:22:03Z</time>
      </trkpt>
      <trkpt lat="47.29994" lon="-1.341">
        <ele>9.92</ele>
        <time>2020-05-21T09:22:05Z</time>
      </trkpt>
      <trkpt lat="47.2999" lon="-1.34078">
        <ele>9.66</ele>
        <time>2020-05-21T09:22:07Z</time>
      </trkpt>
      <trkpt lat="47.29986" lon="-1.34058">
        <ele>10.1</ele>
        <time>2020-05-21T09:22:09Z</time>
      </trkpt>
      <trkpt lat="47.29982" lon="-1.34038">
        <ele>9.52</ele>
        <time>2020-05-21T09:22:11Z</time>
      </trkpt>
      <trkpt lat="47.29978" lon="-1.34018">
        <ele>8.56</ele>
        <time>2020-05-21T09:22:13Z</time>
      </trkpt>
      <trkpt lat="47.29974" lon="-1.33997">
        <ele>8.5</ele>
        <time>2020-05-21T09:22:15Z</time>
      </trkpt>
      <trkpt lat="47.2997" lon="-1.33977">
        <ele>8.58</ele>
        <time>2020-05-21T09:22:17Z</time>
      </trkpt>
      <trkpt lat="47.29965" lon="-1.33955">
        <ele>8.14</ele>
        <time>2020-05-21T09:22:19Z</time>
      </trkpt>
      <trkpt lat="47.29961" lon="-1.33932">
        <ele>8.14</ele>
        <time>2020-05-21T09:22:21Z</time>
      </trkpt>
      <trkpt lat="47.29957" lon="-1.33913">
        <ele>8.3</ele>
        <time>2020-05-21T09:22:23Z</time>
      </trkpt>
      <trkpt lat="47.29953" lon="-1.33893">
        <ele>8.62</ele>
        <time>2020-05-21T09:22:25Z</time>
      </trkpt>
      <trkpt lat="47.2995" lon="-1.33873">
        <ele>9.53</ele>
        <time>2020-05-21T09:22:27Z</time>
      </trkpt>
      <trkpt lat="47.29946" lon="-1.33851">
        <ele>10.05</ele>
        <time>2020-05-21T09:22:29Z</time>
      </trkpt>
      <trkpt lat="47.29942" lon="-1.33832">
        <ele>9.66</ele>
        <time>2020-05-21T09:22:31Z</time>
      </trkpt>
      <trkpt lat="47.29938" lon="-1.33811">
        <ele>9.39</ele>
        <time>2020-05-21T09:22:33Z</time>
      </trkpt>
      <trkpt lat="47.29933" lon="-1.3379">
        <ele>9.34</ele>
        <time>2020-05-21T09:22:35Z</time>
      </trkpt>
      <trkpt lat="47.29929" lon="-1.33771">
        <ele>8.96</ele>
        <time>2020-05-21T09:22:37Z</time>
      </trkpt>
      <trkpt lat="47.29925" lon="-1.3375">
        <ele>8.36</ele>
        <time>2020-05-21T09:22:39Z</time>
      </trkpt>
      <trkpt lat="47.29922" lon="-1.33731">
        <ele>8.1</ele>
        <time>2020-05-21T09:22:41Z</time>
      </trkpt>
      <trkpt lat="47.29918" lon="-1.33712">
        <ele>7.95</ele>
        <time>2020-05-21T09:22:43Z</time>
      </trkpt>
      <trkpt lat="47.29914" lon="-1.33692">
        <ele>6.71</ele>
        <time>2020-05-21T09:22:45Z</time>
      </trkpt>
      <trkpt lat="47.2991" lon="-1.33672">
        <ele>5.84</ele>
        <time>2020-05-21T09:22:47Z</time>
      </trkpt>
      <trkpt lat="47.29906" lon="-1.33653">
        <ele>5.78</ele>
        <time>2020-05-21T09:22:49Z</time>
      </trkpt>
      <trkpt lat="47.29902" lon="-1.33633">
        <ele>6.65</ele>
        <time>2020-05-21T09:22:51Z</time>
      </trkpt>
      <trkpt lat="47.29899" lon="-1.33614">
        <ele>7.91</ele>
        <time>2020-05-21T09:22:53Z</time>
      </trkpt>
      <trkpt lat="47.299" lon="-1.33592">
        <ele>8.7</ele>
        <time>2020-05-21T09:22:55Z</time>
      </trkpt>
      <trkpt lat="47.29904" lon="-1.33569">
        <ele>9.67</ele>
        <time>2020-05-21T09:22:57Z</time>
      </trkpt>
      <trkpt lat="47.29911" lon="-1.33552">
        <ele>10.27</ele>
        <time>2020-05-21T09:22:59Z</time>
      </trkpt>
      <trkpt lat="47.2992" lon="-1.33538">
        <ele>9.89</ele>
        <time>2020-05-21T09:23:01Z</time>
      </trkpt>
      <trkpt lat="47.29929" lon="-1.33524">
        <ele>10.8</ele>
        <time>2020-05-21T09:23:03Z</time>
      </trkpt>
      <trkpt lat="47.29938" lon="-1.33511">
        <ele>12.02</ele>
        <time>2020-05-21T09:23:05Z</time>
      </trkpt>
      <trkpt lat="47.29947" lon="-1.335">
        <ele>12.84</ele>
        <time>2020-05-21T09:23:07Z</time>
      </trkpt>
      <trkpt lat="47.29955" lon="-1.33488">
        <ele>13.65</ele>
        <time>2020-05-21T09:23:09Z</time>
      </trkpt>
      <trkpt lat="47.29963" lon="-1.33476">
        <ele>13.47</ele>
        <time>2020-05-21T09:23:11Z</time>
      </trkpt>
      <trkpt lat="47.2997" lon="-1.33464">
        <ele>13.68</ele>
        <time>2020-05-21T09:23:13Z</time>
      </trkpt>
      <trkpt lat="47.29978" lon="-1.3345">
        <ele>13.06</ele>
        <time>2020-05-21T09:23:15Z</time>
      </trkpt>
      <trkpt lat="47.29985" lon="-1.33434">
        <ele>13.45</ele>
        <time>2020-05-21T09:23:17Z</time>
      </trkpt>
      <trkpt lat="47.29989" lon="-1.33417">
        <ele>13.43</ele>
        <time>2020-05-21T09:23:19Z</time>
      </trkpt>
      <trkpt lat="47.29991" lon="-1.334">
        <ele>13.86</ele>
        <time>2020-05-21T09:23:21Z</time>
      </trkpt>
      <trkpt lat="47.29991" lon="-1.33382">
        <ele>14.62</ele>
        <time>2020-05-21T09:23:23Z</time>
      </trkpt>
      <trkpt lat="47.29991" lon="-1.33367">
        <ele>15.33</ele>
        <time>2020-05-21T09:23:25Z</time>
      </trkpt>
      <trkpt lat="47.29991" lon="-1.3335">
        <ele>14.91</ele>
        <time>2020-05-21T09:23:27Z</time>
      </trkpt>
      <trkpt lat="47.29991" lon="-1.33332">
        <ele>15.31</ele>
        <time>2020-05-21T09:23:29Z</time>
      </trkpt>
      <trkpt lat="47.29993" lon="-1.33316">
        <ele>15.79</ele>
        <time>2020-05-21T09:23:31Z</time>
      </trkpt>
      <trkpt lat="47.29995" lon="-1.333">
        <ele>16.04</ele>
        <time>2020-05-21T09:23:33Z</time>
      </trkpt>
      <trkpt lat="47.29999" lon="-1.33284">
        <ele>16.35</ele>
        <time>2020-05-21T09:23:35Z</time>
      </trkpt>
      <trkpt lat="47.30004" lon="-1.33266">
        <ele>16.8</ele>
        <time>2020-05-21T09:23:37Z</time>
      </trkpt>
      <trkpt lat="47.30009" lon="-1.33252">
        <ele>17.7</ele>
        <time>2020-05-21T09:23:39Z</time>
      </trkpt>
      <trkpt lat="47.30016" lon="-1.33236">
        <ele>19.06</ele>
        <time>2020-05-21T09:23:41Z</time>
      </trkpt>
      <trkpt lat="47.30024" lon="-1.33221">
        <ele>20.02</ele>
        <time>2020-05-21T09:23:43Z</time>
      </trkpt>
      <trkpt lat="47.30034" lon="-1.33205">
        <ele>20.55</ele>
        <time>2020-05-21T09:23:45Z</time>
      </trkpt>
      <trkpt lat="47.3004" lon="-1.33195">
        <ele>19.63</ele>
        <time>2020-05-21T09:23:46Z</time>
      </trkpt>
      <trkpt lat="47.30051" lon="-1.33181">
        <ele>18.99</ele>
        <time>2020-05-21T09:23:48Z</time>
      </trkpt>
      <trkpt lat="47.30059" lon="-1.33173">
        <ele>19.09</ele>
        <time>2020-05-21T09:23:49Z</time>
      </trkpt>
      <trkpt lat="47.30073" lon="-1.3316">
        <ele>19.13</ele>
        <time>2020-05-21T09:23:51Z</time>
      </trkpt>
      <trkpt lat="47.30081" lon="-1.33155">
        <ele>19.11</ele>
        <time>2020-05-21T09:23:52Z</time>
      </trkpt>
      <trkpt lat="47.30091" lon="-1.33147">
        <ele>18.61</ele>
        <time>2020-05-21T09:23:53Z</time>
      </trkpt>
      <trkpt lat="47.30109" lon="-1.33136">
        <ele>17.33</ele>
        <time>2020-05-21T09:23:55Z</time>
      </trkpt>
      <trkpt lat="47.30118" lon="-1.33129">
        <ele>16.63</ele>
        <time>2020-05-21T09:23:56Z</time>
      </trkpt>
      <trkpt lat="47.30127" lon="-1.33123">
        <ele>15.82</ele>
        <time>2020-05-21T09:23:57Z</time>
      </trkpt>
      <trkpt lat="47.30145" lon="-1.33111">
        <ele>15.01</ele>
        <time>2020-05-21T09:23:59Z</time>
      </trkpt>
      <trkpt lat="47.30153" lon="-1.33106">
        <ele>14.89</ele>
        <time>2020-05-21T09:24:00Z</time>
      </trkpt>
      <trkpt lat="47.30162" lon="-1.33101">
        <ele>14.8</ele>
        <time>2020-05-21T09:24:01Z</time>
      </trkpt>
      <trkpt lat="47.30171" lon="-1.33095">
        <ele>14.91</ele>
        <time>2020-05-21T09:24:02Z</time>
      </trkpt>
      <trkpt lat="47.3018" lon="-1.33089">
        <ele>14.87</ele>
        <time>2020-05-21T09:24:03Z</time>
      </trkpt>
      <trkpt lat="47.3019" lon="-1.33082">
        <ele>14.72</ele>
        <time>2020-05-21T09:24:04Z</time>
      </trkpt>
      <trkpt lat="47.30199" lon="-1.33076">
        <ele>14.22</ele>
        <time>2020-05-21T09:24:05Z</time>
      </trkpt>
      <trkpt lat="47.30209" lon="-1.33069">
        <ele>13.73</ele>
        <time>2020-05-21T09:24:06Z</time>
      </trkpt>
      <trkpt lat="47.30219" lon="-1.33062">
        <ele>13.23</ele>
        <time>2020-05-21T09:24:07Z</time>
      </trkpt>
      <trkpt lat="47.30228" lon="-1.33055">
        <ele>12.4</ele>
        <time>2020-05-21T09:24:08Z</time>
      </trkpt>
      <trkpt lat="47.30238" lon="-1.33049">
        <ele>11.8</ele>
        <time>2020-05-21T09:24:09Z</time>
      </trkpt>
      <trkpt lat="47.30247" lon="-1.33042">
        <ele>11.33</ele>
        <time>2020-05-21T09:24:10Z</time>
      </trkpt>
      <trkpt lat="47.30256" lon="-1.33037">
        <ele>10.92</ele>
        <time>2020-05-21T09:24:11Z</time>
      </trkpt>
      <trkpt lat="47.30264" lon="-1.33031">
        <ele>11.21</ele>
        <time>2020-05-21T09:24:12Z</time>
      </trkpt>
      <trkpt lat="47.30272" lon="-1.33024">
        <ele>11.2</ele>
        <time>2020-05-21T09:24:13Z</time>
      </trkpt>
      <trkpt lat="47.30283" lon="-1.33016">
        <ele>11.39</ele>
        <time>2020-05-21T09:24:14Z</time>
      </trkpt>
      <trkpt lat="47.30291" lon="-1.33011">
        <ele>11.7</ele>
        <time>2020-05-21T09:24:15Z</time>
      </trkpt>
      <trkpt lat="47.30307" lon="-1.32999">
        <ele>11.5</ele>
        <time>2020-05-21T09:24:17Z</time>
      </trkpt>
      <trkpt lat="47.30315" lon="-1.32993">
        <ele>11.46</ele>
        <time>2020-05-21T09:24:18Z</time>
      </trkpt>
      <trkpt lat="47.3033" lon="-1.32982">
        <ele>11.05</ele>
        <time>2020-05-21T09:24:20Z</time>
      </trkpt>
      <trkpt lat="47.30346" lon="-1.32971">
        <ele>10.86</ele>
        <time>2020-05-21T09:24:22Z</time>
      </trkpt>
      <trkpt lat="47.3036" lon="-1.32961">
        <ele>11.42</ele>
        <time>2020-05-21T09:24:24Z</time>
      </trkpt>
      <trkpt lat="47.30375" lon="-1.32951">
        <ele>11.28</ele>
        <time>2020-05-21T09:24:26Z</time>
      </trkpt>
      <trkpt lat="47.3039" lon="-1.32944">
        <ele>11.55</ele>
        <time>2020-05-21T09:24:28Z</time>
      </trkpt>
      <trkpt lat="47.30404" lon="-1.32941">
        <ele>11.44</ele>
        <time>2020-05-21T09:24:30Z</time>
      </trkpt>
      <trkpt lat="47.3042" lon="-1.32944">
        <ele>10.75</ele>
        <time>2020-05-21T09:24:32Z</time>
      </trkpt>
      <trkpt lat="47.30433" lon="-1.32949">
        <ele>11.23</ele>
        <time>2020-05-21T09:24:34Z</time>
      </trkpt>
      <trkpt lat="47.30446" lon="-1.32954">
        <ele>11.37</ele>
        <time>2020-05-21T09:24:36Z</time>
      </trkpt>
      <trkpt lat="47.30459" lon="-1.32959">
        <ele>10.96</ele>
        <time>2020-05-21T09:24:38Z</time>
      </trkpt>
      <trkpt lat="47.3047" lon="-1.32964">
        <ele>10.33</ele>
        <time>2020-05-21T09:24:40Z</time>
      </trkpt>
      <trkpt lat="47.30481" lon="-1.32969">
        <ele>9.42</ele>
        <time>2020-05-21T09:24:42Z</time>
      </trkpt>
      <trkpt lat="47.30493" lon="-1.32974">
        <ele>8.95</ele>
        <time>2020-05-21T09:24:44Z</time>
      </trkpt>
      <trkpt lat="47.30504" lon="-1.32977">
        <ele>9.08</ele>
        <time>2020-05-21T09:24:46Z</time>
      </trkpt>
      <trkpt lat="47.30515" lon="-1.3298">
        <ele>9.87</ele>
        <time>2020-05-21T09:24:48Z</time>
      </trkpt>
      <trkpt lat="47.30528" lon="-1.32981">
        <ele>10.62</ele>
        <time>2020-05-21T09:24:50Z</time>
      </trkpt>
      <trkpt lat="47.3054" lon="-1.32981">
        <ele>11.39</ele>
        <time>2020-05-21T09:24:52Z</time>
      </trkpt>
      <trkpt lat="47.30551" lon="-1.32978">
        <ele>11.67</ele>
        <time>2020-05-21T09:24:54Z</time>
      </trkpt>
      <trkpt lat="47.30562" lon="-1.32972">
        <ele>11.76</ele>
        <time>2020-05-21T09:24:56Z</time>
      </trkpt>
      <trkpt lat="47.30574" lon="-1.32965">
        <ele>12.65</ele>
        <time>2020-05-21T09:24:58Z</time>
      </trkpt>
      <trkpt lat="47.30584" lon="-1.32958">
        <ele>13.49</ele>
        <time>2020-05-21T09:25:00Z</time>
      </trkpt>
      <trkpt lat="47.30595" lon="-1.32951">
        <ele>14.53</ele>
        <time>2020-05-21T09:25:02Z</time>
      </trkpt>
      <trkpt lat="47.30606" lon="-1.32943">
        <ele>15.28</ele>
        <time>2020-05-21T09:25:04Z</time>
      </trkpt>
      <trkpt lat="47.30617" lon="-1.32936">
        <ele>15.6</ele>
        <time>2020-05-21T09:25:06Z</time>
      </trkpt>
      <trkpt lat="47.30628" lon="-1.32928">
        <ele>16.41</ele>
        <time>2020-05-21T09:25:08Z</time>
      </trkpt>
      <trkpt lat="47.30637" lon="-1.32918">
        <ele>16.92</ele>
        <time>2020-05-21T09:25:10Z</time>
      </trkpt>
      <trkpt lat="47.30647" lon="-1.32907">
        <ele>16.9</ele>
        <time>2020-05-21T09:25:12Z</time>
      </trkpt>
      <trkpt lat="47.30656" lon="-1.32895">
        <ele>16.7</ele>
        <time>2020-05-21T09:25:14Z</time>
      </trkpt>
      <trkpt lat="47.30664" lon="-1.32885">
        <ele>16.51</ele>
        <time>2020-05-21T09:25:16Z</time>
      </trkpt>
      <trkpt lat="47.30674" lon="-1.32874">
        <ele>16.38</ele>
        <time>2020-05-21T09:25:18Z</time>
      </trkpt>
      <trkpt lat="47.30682" lon="-1.32865">
        <ele>17.34</ele>
        <time>2020-05-21T09:25:20Z</time>
      </trkpt>
      <trkpt lat="47.30691" lon="-1.32856">
        <ele>18.9</ele>
        <time>2020-05-21T09:25:22Z</time>
      </trkpt>
      <trkpt lat="47.307" lon="-1.32845">
        <ele>20.26</ele>
        <time>2020-05-21T09:25:24Z</time>
      </trkpt>
      <trkpt lat="47.30708" lon="-1.32837">
        <ele>20.85</ele>
        <time>2020-05-21T09:25:26Z</time>
      </trkpt>
      <trkpt lat="47.30717" lon="-1.32827">
        <ele>21.62</ele>
        <time>2020-05-21T09:25:28Z</time>
      </trkpt>
      <trkpt lat="47.30726" lon="-1.32816">
        <ele>21.81</ele>
        <time>2020-05-21T09:25:30Z</time>
      </trkpt>
      <trkpt lat="47.30734" lon="-1.32808">
        <ele>22.04</ele>
        <time>2020-05-21T09:25:32Z</time>
      </trkpt>
      <trkpt lat="47.30742" lon="-1.328">
        <ele>22.39</ele>
        <time>2020-05-21T09:25:34Z</time>
      </trkpt>
      <trkpt lat="47.30751" lon="-1.3279">
        <ele>22.35</ele>
        <time>2020-05-21T09:25:36Z</time>
      </trkpt>
      <trkpt lat="47.30759" lon="-1.3278">
        <ele>22.27</ele>
        <time>2020-05-21T09:25:38Z</time>
      </trkpt>
      <trkpt lat="47.30768" lon="-1.3277">
        <ele>22.65</ele>
        <time>2020-05-21T09:25:40Z</time>
      </trkpt>
      <trkpt lat="47.30776" lon="-1.32761">
        <ele>23.85</ele>
        <time>2020-05-21T09:25:42Z</time>
      </trkpt>
      <trkpt lat="47.30784" lon="-1.32751">
        <ele>25.32</ele>
        <time>2020-05-21T09:25:44Z</time>
      </trkpt>
      <trkpt lat="47.30794" lon="-1.32738">
        <ele>25.83</ele>
        <time>2020-05-21T09:25:46Z</time>
      </trkpt>
      <trkpt lat="47.30802" lon="-1.32728">
        <ele>25.6</ele>
        <time>2020-05-21T09:25:48Z</time>
      </trkpt>
      <trkpt lat="47.30809" lon="-1.32717">
        <ele>24.7</ele>
        <time>2020-05-21T09:25:50Z</time>
      </trkpt>
      <trkpt lat="47.30817" lon="-1.32705">
        <ele>25.43</ele>
        <time>2020-05-21T09:25:52Z</time>
      </trkpt>
      <trkpt lat="47.30825" lon="-1.32693">
        <ele>25.45</ele>
        <time>2020-05-21T09:25:54Z</time>
      </trkpt>
      <trkpt lat="47.30835" lon="-1.32678">
        <ele>26.24</ele>
        <time>2020-05-21T09:25:57Z</time>
      </trkpt>
      <trkpt lat="47.30842" lon="-1.32663">
        <ele>25.65</ele>
        <time>2020-05-21T09:25:59Z</time>
      </trkpt>
      <trkpt lat="47.30848" lon="-1.32652">
        <ele>24.84</ele>
        <time>2020-05-21T09:26:01Z</time>
      </trkpt>
      <trkpt lat="47.30855" lon="-1.32639">
        <ele>25.65</ele>
        <time>2020-05-21T09:26:03Z</time>
      </trkpt>
      <trkpt lat="47.30862" lon="-1.32626">
        <ele>26.12</ele>
        <time>2020-05-21T09:26:05Z</time>
      </trkpt>
      <trkpt lat="47.30869" lon="-1.32609">
        <ele>27.07</ele>
        <time>2020-05-21T09:26:08Z</time>
      </trkpt>
      <trkpt lat="47.30876" lon="-1.32595">
        <ele>28.5</ele>
        <time>2020-05-21T09:26:10Z</time>
      </trkpt>
      <trkpt lat="47.30882" lon="-1.32582">
        <ele>29.11</ele>
        <time>2020-05-21T09:26:12Z</time>
      </trkpt>
      <trkpt lat="47.30887" lon="-1.3257">
        <ele>28.29</ele>
        <time>2020-05-21T09:26:14Z</time>
      </trkpt>
      <trkpt lat="47.30893" lon="-1.32555">
        <ele>28.01</ele>
        <time>2020-05-21T09:26:16Z</time>
      </trkpt>
      <trkpt lat="47.30898" lon="-1.32541">
        <ele>28.55</ele>
        <time>2020-05-21T09:26:18Z</time>
      </trkpt>
      <trkpt lat="47.30905" lon="-1.32524">
        <ele>30.17</ele>
        <time>2020-05-21T09:26:21Z</time>
      </trkpt>
      <trkpt lat="47.3091" lon="-1.3251">
        <ele>31.14</ele>
        <time>2020-05-21T09:26:23Z</time>
      </trkpt>
      <trkpt lat="47.30916" lon="-1.32498">
        <ele>32.49</ele>
        <time>2020-05-21T09:26:25Z</time>
      </trkpt>
      <trkpt lat="47.3092" lon="-1.32486">
        <ele>32.96</ele>
        <time>2020-05-21T09:26:27Z</time>
      </trkpt>
      <trkpt lat="47.30925" lon="-1.32474">
        <ele>33.86</ele>
        <time>2020-05-21T09:26:29Z</time>
      </trkpt>
      <trkpt lat="47.30931" lon="-1.3246">
        <ele>33.57</ele>
        <time>2020-05-21T09:26:31Z</time>
      </trkpt>
      <trkpt lat="47.30935" lon="-1.32446">
        <ele>34.12</ele>
        <time>2020-05-21T09:26:33Z</time>
      </trkpt>
      <trkpt lat="47.3094" lon="-1.32433">
        <ele>36.07</ele>
        <time>2020-05-21T09:26:35Z</time>
      </trkpt>
      <trkpt lat="47.30947" lon="-1.3242">
        <ele>37.68</ele>
        <time>2020-05-21T09:26:37Z</time>
      </trkpt>
      <trkpt lat="47.30953" lon="-1.32405">
        <ele>38.08</ele>
        <time>2020-05-21T09:26:40Z</time>
      </trkpt>
      <trkpt lat="47.30958" lon="-1.32392">
        <ele>38.41</ele>
        <time>2020-05-21T09:26:42Z</time>
      </trkpt>
      <trkpt lat="47.30965" lon="-1.32373">
        <ele>37.7</ele>
        <time>2020-05-21T09:26:45Z</time>
      </trkpt>
      <trkpt lat="47.30973" lon="-1.32357">
        <ele>39.35</ele>
        <time>2020-05-21T09:26:48Z</time>
      </trkpt>
      <trkpt lat="47.3098" lon="-1.32347">
        <ele>38.94</ele>
        <time>2020-05-21T09:26:50Z</time>
      </trkpt>
      <trkpt lat="47.30988" lon="-1.32337">
        <ele>38.2</ele>
        <time>2020-05-21T09:26:52Z</time>
      </trkpt>
      <trkpt lat="47.30998" lon="-1.32329">
        <ele>37.81</ele>
        <time>2020-05-21T09:26:55Z</time>
      </trkpt>
      <trkpt lat="47.31007" lon="-1.32326">
        <ele>38.72</ele>
        <time>2020-05-21T09:26:57Z</time>
      </trkpt>
      <trkpt lat="47.31018" lon="-1.32324">
        <ele>40.18</ele>
        <time>2020-05-21T09:26:59Z</time>
      </trkpt>
      <trkpt lat="47.31028" lon="-1.32322">
        <ele>41.34</ele>
        <time>2020-05-21T09:27:01Z</time>
      </trkpt>
      <trkpt lat="47.31038" lon="-1.32322">
        <ele>42.25</ele>
        <time>2020-05-21T09:27:03Z</time>
      </trkpt>
      <trkpt lat="47.31048" lon="-1.32325">
        <ele>42.22</ele>
        <time>2020-05-21T09:27:05Z</time>
      </trkpt>
      <trkpt lat="47.31057" lon="-1.32329">
        <ele>42.09</ele>
        <time>2020-05-21T09:27:07Z</time>
      </trkpt>
      <trkpt lat="47.31066" lon="-1.32333">
        <ele>42.29</ele>
        <time>2020-05-21T09:27:09Z</time>
      </trkpt>
      <trkpt lat="47.3108" lon="-1.32339">
        <ele>43.66</ele>
        <time>2020-05-21T09:27:12Z</time>
      </trkpt>
      <trkpt lat="47.31089" lon="-1.32343">
        <ele>43.46</ele>
        <time>2020-05-21T09:27:14Z</time>
      </trkpt>
      <trkpt lat="47.31098" lon="-1.32347">
        <ele>44.97</ele>
        <time>2020-05-21T09:27:16Z</time>
      </trkpt>
      <trkpt lat="47.31107" lon="-1.3235">
        <ele>45.65</ele>
        <time>2020-05-21T09:27:18Z</time>
      </trkpt>
      <trkpt lat="47.31117" lon="-1.32352">
        <ele>46.64</ele>
        <time>2020-05-21T09:27:20Z</time>
      </trkpt>
      <trkpt lat="47.31126" lon="-1.32354">
        <ele>47.49</ele>
        <time>2020-05-21T09:27:22Z</time>
      </trkpt>
      <trkpt lat="47.31135" lon="-1.32356">
        <ele>48.63</ele>
        <time>2020-05-21T09:27:24Z</time>
      </trkpt>
      <trkpt lat="47.31149" lon="-1.32358">
        <ele>49.82</ele>
        <time>2020-05-21T09:27:27Z</time>
      </trkpt>
      <trkpt lat="47.3116" lon="-1.32361">
        <ele>51</ele>
        <time>2020-05-21T09:27:29Z</time>
      </trkpt>
      <trkpt lat="47.3117" lon="-1.32362">
        <ele>52.55</ele>
        <time>2020-05-21T09:27:31Z</time>
      </trkpt>
      <trkpt lat="47.31182" lon="-1.32362">
        <ele>54.15</ele>
        <time>2020-05-21T09:27:33Z</time>
      </trkpt>
      <trkpt lat="47.31191" lon="-1.32362">
        <ele>55.2</ele>
        <time>2020-05-21T09:27:35Z</time>
      </trkpt>
      <trkpt lat="47.31203" lon="-1.32359">
        <ele>53.98</ele>
        <time>2020-05-21T09:27:38Z</time>
      </trkpt>
      <trkpt lat="47.31216" lon="-1.32354">
        <ele>52.75</ele>
        <time>2020-05-21T09:27:41Z</time>
      </trkpt>
      <trkpt lat="47.31226" lon="-1.3235">
        <ele>52.66</ele>
        <time>2020-05-21T09:27:43Z</time>
      </trkpt>
      <trkpt lat="47.31236" lon="-1.32346">
        <ele>52.37</ele>
        <time>2020-05-21T09:27:45Z</time>
      </trkpt>
      <trkpt lat="47.31246" lon="-1.32341">
        <ele>52.11</ele>
        <time>2020-05-21T09:27:47Z</time>
      </trkpt>
      <trkpt lat="47.31257" lon="-1.32331">
        <ele>54.3</ele>
        <time>2020-05-21T09:27:50Z</time>
      </trkpt>
      <trkpt lat="47.31265" lon="-1.32321">
        <ele>55.9</ele>
        <time>2020-05-21T09:27:52Z</time>
      </trkpt>
      <trkpt lat="47.31273" lon="-1.32312">
        <ele>57.24</ele>
        <time>2020-05-21T09:27:54Z</time>
      </trkpt>
      <trkpt lat="47.31282" lon="-1.32297">
        <ele>59.11</ele>
        <time>2020-05-21T09:27:57Z</time>
      </trkpt>
      <trkpt lat="47.31288" lon="-1.32285">
        <ele>59.14</ele>
        <time>2020-05-21T09:27:59Z</time>
      </trkpt>
      <trkpt lat="47.31293" lon="-1.32268">
        <ele>60.32</ele>
        <time>2020-05-21T09:28:03Z</time>
      </trkpt>
      <trkpt lat="47.31297" lon="-1.32253">
        <ele>61.01</ele>
        <time>2020-05-21T09:28:05Z</time>
      </trkpt>
      <trkpt lat="47.313" lon="-1.3224">
        <ele>61.59</ele>
        <time>2020-05-21T09:28:07Z</time>
      </trkpt>
      <trkpt lat="47.313" lon="-1.32221">
        <ele>62.27</ele>
        <time>2020-05-21T09:28:10Z</time>
      </trkpt>
      <trkpt lat="47.313" lon="-1.32207">
        <ele>62.27</ele>
        <time>2020-05-21T09:28:12Z</time>
      </trkpt>
      <trkpt lat="47.31299" lon="-1.32192">
        <ele>61.63</ele>
        <time>2020-05-21T09:28:14Z</time>
      </trkpt>
      <trkpt lat="47.31298" lon="-1.32174">
        <ele>61.54</ele>
        <time>2020-05-21T09:28:17Z</time>
      </trkpt>
      <trkpt lat="47.31297" lon="-1.32158">
        <ele>61.23</ele>
        <time>2020-05-21T09:28:19Z</time>
      </trkpt>
      <trkpt lat="47.31297" lon="-1.32143">
        <ele>61.37</ele>
        <time>2020-05-21T09:28:21Z</time>
      </trkpt>
      <trkpt lat="47.31297" lon="-1.3213">
        <ele>61.93</ele>
        <time>2020-05-21T09:28:23Z</time>
      </trkpt>
      <trkpt lat="47.31296" lon="-1.3211">
        <ele>62.84</ele>
        <time>2020-05-21T09:28:26Z</time>
      </trkpt>
      <trkpt lat="47.31296" lon="-1.32096">
        <ele>63.49</ele>
        <time>2020-05-21T09:28:28Z</time>
      </trkpt>
      <trkpt lat="47.31296" lon="-1.32077">
        <ele>65.41</ele>
        <time>2020-05-21T09:28:31Z</time>
      </trkpt>
      <trkpt lat="47.31295" lon="-1.32058">
        <ele>67.36</ele>
        <time>2020-05-21T09:28:33Z</time>
      </trkpt>
      <trkpt lat="47.31295" lon="-1.32042">
        <ele>67.51</ele>
        <time>2020-05-21T09:28:35Z</time>
      </trkpt>
      <trkpt lat="47.31295" lon="-1.32025">
        <ele>67.62</ele>
        <time>2020-05-21T09:28:37Z</time>
      </trkpt>
      <trkpt lat="47.31294" lon="-1.32006">
        <ele>66.71</ele>
        <time>2020-05-21T09:28:39Z</time>
      </trkpt>
      <trkpt lat="47.31293" lon="-1.31985">
        <ele>65.98</ele>
        <time>2020-05-21T09:28:41Z</time>
      </trkpt>
      <trkpt lat="47.31293" lon="-1.31966">
        <ele>65.18</ele>
        <time>2020-05-21T09:28:43Z</time>
      </trkpt>
      <trkpt lat="47.31293" lon="-1.31945">
        <ele>64.46</ele>
        <time>2020-05-21T09:28:45Z</time>
      </trkpt>
      <trkpt lat="47.31293" lon="-1.31925">
        <ele>64.22</ele>
        <time>2020-05-21T09:28:47Z</time>
      </trkpt>
      <trkpt lat="47.31292" lon="-1.31904">
        <ele>63.22</ele>
        <time>2020-05-21T09:28:49Z</time>
      </trkpt>
      <trkpt lat="47.31292" lon="-1.31882">
        <ele>61.99</ele>
        <time>2020-05-21T09:28:51Z</time>
      </trkpt>
      <trkpt lat="47.31291" lon="-1.31859">
        <ele>61.15</ele>
        <time>2020-05-21T09:28:53Z</time>
      </trkpt>
      <trkpt lat="47.31289" lon="-1.31838">
        <ele>61.25</ele>
        <time>2020-05-21T09:28:55Z</time>
      </trkpt>
      <trkpt lat="47.31288" lon="-1.31815">
        <ele>60.47</ele>
        <time>2020-05-21T09:28:57Z</time>
      </trkpt>
      <trkpt lat="47.31287" lon="-1.31792">
        <ele>59.37</ele>
        <time>2020-05-21T09:28:59Z</time>
      </trkpt>
      <trkpt lat="47.31287" lon="-1.31769">
        <ele>58.88</ele>
        <time>2020-05-21T09:29:01Z</time>
      </trkpt>
      <trkpt lat="47.31287" lon="-1.31746">
        <ele>58.68</ele>
        <time>2020-05-21T09:29:03Z</time>
      </trkpt>
      <trkpt lat="47.31286" lon="-1.31722">
        <ele>58.07</ele>
        <time>2020-05-21T09:29:05Z</time>
      </trkpt>
      <trkpt lat="47.31286" lon="-1.31698">
        <ele>57.07</ele>
        <time>2020-05-21T09:29:07Z</time>
      </trkpt>
      <trkpt lat="47.31285" lon="-1.31684">
        <ele>56.87</ele>
        <time>2020-05-21T09:29:08Z</time>
      </trkpt>
      <trkpt lat="47.31284" lon="-1.3166">
        <ele>56.41</ele>
        <time>2020-05-21T09:29:10Z</time>
      </trkpt>
      <trkpt lat="47.31284" lon="-1.31646">
        <ele>56.04</ele>
        <time>2020-05-21T09:29:11Z</time>
      </trkpt>
      <trkpt lat="47.31283" lon="-1.31623">
        <ele>55.05</ele>
        <time>2020-05-21T09:29:13Z</time>
      </trkpt>
      <trkpt lat="47.31283" lon="-1.3161">
        <ele>54.52</ele>
        <time>2020-05-21T09:29:14Z</time>
      </trkpt>
      <trkpt lat="47.31283" lon="-1.31585">
        <ele>54.09</ele>
        <time>2020-05-21T09:29:16Z</time>
      </trkpt>
      <trkpt lat="47.31282" lon="-1.31558">
        <ele>53.74</ele>
        <time>2020-05-21T09:29:18Z</time>
      </trkpt>
      <trkpt lat="47.31281" lon="-1.31543">
        <ele>53.19</ele>
        <time>2020-05-21T09:29:19Z</time>
      </trkpt>
      <trkpt lat="47.31281" lon="-1.31517">
        <ele>52.45</ele>
        <time>2020-05-21T09:29:21Z</time>
      </trkpt>
      <trkpt lat="47.3128" lon="-1.31489">
        <ele>51.6</ele>
        <time>2020-05-21T09:29:23Z</time>
      </trkpt>
      <trkpt lat="47.3128" lon="-1.31463">
        <ele>51.22</ele>
        <time>2020-05-21T09:29:25Z</time>
      </trkpt>
      <trkpt lat="47.31279" lon="-1.31437">
        <ele>51.13</ele>
        <time>2020-05-21T09:29:27Z</time>
      </trkpt>
      <trkpt lat="47.31279" lon="-1.31412">
        <ele>50.95</ele>
        <time>2020-05-21T09:29:29Z</time>
      </trkpt>
      <trkpt lat="47.31279" lon="-1.31385">
        <ele>50.85</ele>
        <time>2020-05-21T09:29:31Z</time>
      </trkpt>
      <trkpt lat="47.31278" lon="-1.3136">
        <ele>50.28</ele>
        <time>2020-05-21T09:29:33Z</time>
      </trkpt>
      <trkpt lat="47.31278" lon="-1.31346">
        <ele>49.99</ele>
        <time>2020-05-21T09:29:34Z</time>
      </trkpt>
      <trkpt lat="47.31277" lon="-1.31331">
        <ele>49.69</ele>
        <time>2020-05-21T09:29:35Z</time>
      </trkpt>
      <trkpt lat="47.31277" lon="-1.31307">
        <ele>48.99</ele>
        <time>2020-05-21T09:29:37Z</time>
      </trkpt>
      <trkpt lat="47.31277" lon="-1.31281">
        <ele>48.77</ele>
        <time>2020-05-21T09:29:39Z</time>
      </trkpt>
      <trkpt lat="47.31276" lon="-1.31255">
        <ele>48.21</ele>
        <time>2020-05-21T09:29:41Z</time>
      </trkpt>
      <trkpt lat="47.31275" lon="-1.3123">
        <ele>47.63</ele>
        <time>2020-05-21T09:29:43Z</time>
      </trkpt>
      <trkpt lat="47.31274" lon="-1.31216">
        <ele>47.52</ele>
        <time>2020-05-21T09:29:44Z</time>
      </trkpt>
      <trkpt lat="47.31274" lon="-1.31191">
        <ele>47.52</ele>
        <time>2020-05-21T09:29:46Z</time>
      </trkpt>
      <trkpt lat="47.31273" lon="-1.31177">
        <ele>47.49</ele>
        <time>2020-05-21T09:29:47Z</time>
      </trkpt>
      <trkpt lat="47.31273" lon="-1.31153">
        <ele>47.14</ele>
        <time>2020-05-21T09:29:49Z</time>
      </trkpt>
      <trkpt lat="47.31271" lon="-1.31127">
        <ele>46.74</ele>
        <time>2020-05-21T09:29:51Z</time>
      </trkpt>
      <trkpt lat="47.31267" lon="-1.31113">
        <ele>46.58</ele>
        <time>2020-05-21T09:29:52Z</time>
      </trkpt>
      <trkpt lat="47.31264" lon="-1.31099">
        <ele>46.52</ele>
        <time>2020-05-21T09:29:53Z</time>
      </trkpt>
      <trkpt lat="47.3126" lon="-1.31086">
        <ele>46.18</ele>
        <time>2020-05-21T09:29:54Z</time>
      </trkpt>
      <trkpt lat="47.3125" lon="-1.31067">
        <ele>45.17</ele>
        <time>2020-05-21T09:29:56Z</time>
      </trkpt>
      <trkpt lat="47.31236" lon="-1.31047">
        <ele>44.69</ele>
        <time>2020-05-21T09:29:58Z</time>
      </trkpt>
      <trkpt lat="47.31222" lon="-1.3103">
        <ele>43.51</ele>
        <time>2020-05-21T09:30:00Z</time>
      </trkpt>
      <trkpt lat="47.31214" lon="-1.31022">
        <ele>42.27</ele>
        <time>2020-05-21T09:30:01Z</time>
      </trkpt>
      <trkpt lat="47.31207" lon="-1.31013">
        <ele>41.36</ele>
        <time>2020-05-21T09:30:02Z</time>
      </trkpt>
      <trkpt lat="47.31199" lon="-1.31001">
        <ele>41.22</ele>
        <time>2020-05-21T09:30:03Z</time>
      </trkpt>
      <trkpt lat="47.31191" lon="-1.30978">
        <ele>40.76</ele>
        <time>2020-05-21T09:30:05Z</time>
      </trkpt>
      <trkpt lat="47.31187" lon="-1.30965">
        <ele>40.48</ele>
        <time>2020-05-21T09:30:06Z</time>
      </trkpt>
      <trkpt lat="47.31183" lon="-1.30941">
        <ele>40.73</ele>
        <time>2020-05-21T09:30:08Z</time>
      </trkpt>
      <trkpt lat="47.31185" lon="-1.30918">
        <ele>41.2</ele>
        <time>2020-05-21T09:30:10Z</time>
      </trkpt>
      <trkpt lat="47.31187" lon="-1.30905">
        <ele>41.14</ele>
        <time>2020-05-21T09:30:11Z</time>
      </trkpt>
      <trkpt lat="47.31194" lon="-1.30884">
        <ele>40.7</ele>
        <time>2020-05-21T09:30:13Z</time>
      </trkpt>
      <trkpt lat="47.31205" lon="-1.30868">
        <ele>40.53</ele>
        <time>2020-05-21T09:30:15Z</time>
      </trkpt>
      <trkpt lat="47.31217" lon="-1.30854">
        <ele>40.11</ele>
        <time>2020-05-21T09:30:17Z</time>
      </trkpt>
      <trkpt lat="47.3123" lon="-1.30847">
        <ele>39.51</ele>
        <time>2020-05-21T09:30:19Z</time>
      </trkpt>
      <trkpt lat="47.31247" lon="-1.30841">
        <ele>39.35</ele>
        <time>2020-05-21T09:30:21Z</time>
      </trkpt>
      <trkpt lat="47.31262" lon="-1.30842">
        <ele>40.24</ele>
        <time>2020-05-21T09:30:23Z</time>
      </trkpt>
      <trkpt lat="47.31276" lon="-1.30845">
        <ele>41.01</ele>
        <time>2020-05-21T09:30:25Z</time>
      </trkpt>
      <trkpt lat="47.3129" lon="-1.30847">
        <ele>41.95</ele>
        <time>2020-05-21T09:30:27Z</time>
      </trkpt>
      <trkpt lat="47.31303" lon="-1.3085">
        <ele>43.69</ele>
        <time>2020-05-21T09:30:29Z</time>
      </trkpt>
      <trkpt lat="47.31317" lon="-1.30853">
        <ele>44.53</ele>
        <time>2020-05-21T09:30:31Z</time>
      </trkpt>
      <trkpt lat="47.31331" lon="-1.30855">
        <ele>45.4</ele>
        <time>2020-05-21T09:30:33Z</time>
      </trkpt>
      <trkpt lat="47.31344" lon="-1.30855">
        <ele>45.42</ele>
        <time>2020-05-21T09:30:35Z</time>
      </trkpt>
      <trkpt lat="47.31358" lon="-1.30852">
        <ele>45.89</ele>
        <time>2020-05-21T09:30:37Z</time>
      </trkpt>
      <trkpt lat="47.3137" lon="-1.30846">
        <ele>45.98</ele>
        <time>2020-05-21T09:30:39Z</time>
      </trkpt>
      <trkpt lat="47.31382" lon="-1.30837">
        <ele>46.31</ele>
        <time>2020-05-21T09:30:41Z</time>
      </trkpt>
      <trkpt lat="47.31393" lon="-1.30827">
        <ele>46.13</ele>
        <time>2020-05-21T09:30:43Z</time>
      </trkpt>
      <trkpt lat="47.31402" lon="-1.30813">
        <ele>46.54</ele>
        <time>2020-05-21T09:30:45Z</time>
      </trkpt>
      <trkpt lat="47.31411" lon="-1.30798">
        <ele>47.11</ele>
        <time>2020-05-21T09:30:47Z</time>
      </trkpt>
      <trkpt lat="47.3142" lon="-1.30781">
        <ele>47.68</ele>
        <time>2020-05-21T09:30:49Z</time>
      </trkpt>
      <trkpt lat="47.31427" lon="-1.30762">
        <ele>48.03</ele>
        <time>2020-05-21T09:30:51Z</time>
      </trkpt>
      <trkpt lat="47.31433" lon="-1.30745">
        <ele>47.87</ele>
        <time>2020-05-21T09:30:53Z</time>
      </trkpt>
      <trkpt lat="47.31439" lon="-1.30728">
        <ele>48.51</ele>
        <time>2020-05-21T09:30:55Z</time>
      </trkpt>
      <trkpt lat="47.31443" lon="-1.30714">
        <ele>49.54</ele>
        <time>2020-05-21T09:30:57Z</time>
      </trkpt>
      <trkpt lat="47.31448" lon="-1.30698">
        <ele>50.72</ele>
        <time>2020-05-21T09:30:59Z</time>
      </trkpt>
      <trkpt lat="47.31454" lon="-1.30681">
        <ele>51.68</ele>
        <time>2020-05-21T09:31:01Z</time>
      </trkpt>
      <trkpt lat="47.3146" lon="-1.30665">
        <ele>51.27</ele>
        <time>2020-05-21T09:31:03Z</time>
      </trkpt>
      <trkpt lat="47.31465" lon="-1.30649">
        <ele>51.42</ele>
        <time>2020-05-21T09:31:05Z</time>
      </trkpt>
      <trkpt lat="47.31471" lon="-1.30632">
        <ele>52.32</ele>
        <time>2020-05-21T09:31:07Z</time>
      </trkpt>
      <trkpt lat="47.31476" lon="-1.30619">
        <ele>53.44</ele>
        <time>2020-05-21T09:31:09Z</time>
      </trkpt>
      <trkpt lat="47.31483" lon="-1.30603">
        <ele>54.42</ele>
        <time>2020-05-21T09:31:11Z</time>
      </trkpt>
      <trkpt lat="47.31489" lon="-1.30586">
        <ele>54.71</ele>
        <time>2020-05-21T09:31:13Z</time>
      </trkpt>
      <trkpt lat="47.31493" lon="-1.3057">
        <ele>55.35</ele>
        <time>2020-05-21T09:31:15Z</time>
      </trkpt>
      <trkpt lat="47.31498" lon="-1.30555">
        <ele>55.89</ele>
        <time>2020-05-21T09:31:17Z</time>
      </trkpt>
      <trkpt lat="47.31504" lon="-1.3054">
        <ele>56.92</ele>
        <time>2020-05-21T09:31:19Z</time>
      </trkpt>
      <trkpt lat="47.31509" lon="-1.30526">
        <ele>56.07</ele>
        <time>2020-05-21T09:31:21Z</time>
      </trkpt>
      <trkpt lat="47.31515" lon="-1.3051">
        <ele>54.66</ele>
        <time>2020-05-21T09:31:23Z</time>
      </trkpt>
      <trkpt lat="47.3152" lon="-1.30496">
        <ele>55.13</ele>
        <time>2020-05-21T09:31:25Z</time>
      </trkpt>
      <trkpt lat="47.31526" lon="-1.3048">
        <ele>55.41</ele>
        <time>2020-05-21T09:31:27Z</time>
      </trkpt>
      <trkpt lat="47.31531" lon="-1.30466">
        <ele>55.5</ele>
        <time>2020-05-21T09:31:29Z</time>
      </trkpt>
      <trkpt lat="47.31536" lon="-1.30453">
        <ele>55.7</ele>
        <time>2020-05-21T09:31:31Z</time>
      </trkpt>
      <trkpt lat="47.31542" lon="-1.30437">
        <ele>56.3</ele>
        <time>2020-05-21T09:31:33Z</time>
      </trkpt>
      <trkpt lat="47.31547" lon="-1.30424">
        <ele>57.16</ele>
        <time>2020-05-21T09:31:35Z</time>
      </trkpt>
      <trkpt lat="47.31553" lon="-1.30408">
        <ele>57.57</ele>
        <time>2020-05-21T09:31:37Z</time>
      </trkpt>
      <trkpt lat="47.3156" lon="-1.30391">
        <ele>58.33</ele>
        <time>2020-05-21T09:31:39Z</time>
      </trkpt>
      <trkpt lat="47.31565" lon="-1.30377">
        <ele>59.51</ele>
        <time>2020-05-21T09:31:41Z</time>
      </trkpt>
      <trkpt lat="47.3157" lon="-1.30361">
        <ele>59.86</ele>
        <time>2020-05-21T09:31:43Z</time>
      </trkpt>
      <trkpt lat="47.31576" lon="-1.30344">
        <ele>59.69</ele>
        <time>2020-05-21T09:31:45Z</time>
      </trkpt>
      <trkpt lat="47.31582" lon="-1.30328">
        <ele>59.25</ele>
        <time>2020-05-21T09:31:47Z</time>
      </trkpt>
      <trkpt lat="47.31587" lon="-1.30313">
        <ele>58.76</ele>
        <time>2020-05-21T09:31:49Z</time>
      </trkpt>
      <trkpt lat="47.31592" lon="-1.30296">
        <ele>58.5</ele>
        <time>2020-05-21T09:31:51Z</time>
      </trkpt>
      <trkpt lat="47.31597" lon="-1.3028">
        <ele>57.72</ele>
        <time>2020-05-21T09:31:53Z</time>
      </trkpt>
      <trkpt lat="47.31602" lon="-1.30265">
        <ele>57.31</ele>
        <time>2020-05-21T09:31:55Z</time>
      </trkpt>
      <trkpt lat="47.31609" lon="-1.30248">
        <ele>57.18</ele>
        <time>2020-05-21T09:31:57Z</time>
      </trkpt>
      <trkpt lat="47.31616" lon="-1.30229">
        <ele>57.81</ele>
        <time>2020-05-21T09:31:59Z</time>
      </trkpt>
      <trkpt lat="47.31623" lon="-1.30209">
        <ele>58.51</ele>
        <time>2020-05-21T09:32:01Z</time>
      </trkpt>
      <trkpt lat="47.31629" lon="-1.30191">
        <ele>58.38</ele>
        <time>2020-05-21T09:32:03Z</time>
      </trkpt>
      <trkpt lat="47.31637" lon="-1.30171">
        <ele>57.21</ele>
        <time>2020-05-21T09:32:05Z</time>
      </trkpt>
      <trkpt lat="47.31645" lon="-1.3015">
        <ele>57.01</ele>
        <time>2020-05-21T09:32:07Z</time>
      </trkpt>
      <trkpt lat="47.31654" lon="-1.30129">
        <ele>56.93</ele>
        <time>2020-05-21T09:32:09Z</time>
      </trkpt>
      <trkpt lat="47.31663" lon="-1.30111">
        <ele>56.56</ele>
        <time>2020-05-21T09:32:11Z</time>
      </trkpt>
      <trkpt lat="47.31674" lon="-1.30093">
        <ele>55.61</ele>
        <time>2020-05-21T09:32:13Z</time>
      </trkpt>
      <trkpt lat="47.3168" lon="-1.30082">
        <ele>55.02</ele>
        <time>2020-05-21T09:32:14Z</time>
      </trkpt>
      <trkpt lat="47.31693" lon="-1.30064">
        <ele>53.54</ele>
        <time>2020-05-21T09:32:16Z</time>
      </trkpt>
      <trkpt lat="47.31706" lon="-1.30049">
        <ele>52.06</ele>
        <time>2020-05-21T09:32:18Z</time>
      </trkpt>
      <trkpt lat="47.31713" lon="-1.30041">
        <ele>51.61</ele>
        <time>2020-05-21T09:32:19Z</time>
      </trkpt>
      <trkpt lat="47.31728" lon="-1.30026">
        <ele>50.96</ele>
        <time>2020-05-21T09:32:21Z</time>
      </trkpt>
      <trkpt lat="47.31735" lon="-1.30018">
        <ele>50.47</ele>
        <time>2020-05-21T09:32:22Z</time>
      </trkpt>
      <trkpt lat="47.31749" lon="-1.30003">
        <ele>49.53</ele>
        <time>2020-05-21T09:32:24Z</time>
      </trkpt>
      <trkpt lat="47.31756" lon="-1.29995">
        <ele>49.87</ele>
        <time>2020-05-21T09:32:25Z</time>
      </trkpt>
      <trkpt lat="47.31763" lon="-1.29987">
        <ele>50.06</ele>
        <time>2020-05-21T09:32:26Z</time>
      </trkpt>
      <trkpt lat="47.31778" lon="-1.29972">
        <ele>50.08</ele>
        <time>2020-05-21T09:32:28Z</time>
      </trkpt>
      <trkpt lat="47.31792" lon="-1.29957">
        <ele>50.32</ele>
        <time>2020-05-21T09:32:30Z</time>
      </trkpt>
      <trkpt lat="47.31806" lon="-1.29942">
        <ele>49.9</ele>
        <time>2020-05-21T09:32:32Z</time>
      </trkpt>
      <trkpt lat="47.31818" lon="-1.29927">
        <ele>50.15</ele>
        <time>2020-05-21T09:32:34Z</time>
      </trkpt>
      <trkpt lat="47.3183" lon="-1.29913">
        <ele>49.97</ele>
        <time>2020-05-21T09:32:36Z</time>
      </trkpt>
      <trkpt lat="47.31845" lon="-1.29897">
        <ele>49.74</ele>
        <time>2020-05-21T09:32:38Z</time>
      </trkpt>
      <trkpt lat="47.31858" lon="-1.29883">
        <ele>49.52</ele>
        <time>2020-05-21T09:32:40Z</time>
      </trkpt>
      <trkpt lat="47.31872" lon="-1.29869">
        <ele>49.48</ele>
        <time>2020-05-21T09:32:42Z</time>
      </trkpt>
      <trkpt lat="47.31884" lon="-1.29856">
        <ele>49.87</ele>
        <time>2020-05-21T09:32:44Z</time>
      </trkpt>
      <trkpt lat="47.31896" lon="-1.29841">
        <ele>50.05</ele>
        <time>2020-05-21T09:32:46Z</time>
      </trkpt>
      <trkpt lat="47.31906" lon="-1.29829">
        <ele>49.21</ele>
        <time>2020-05-21T09:32:48Z</time>
      </trkpt>
      <trkpt lat="47.3192" lon="-1.29814">
        <ele>47.97</ele>
        <time>2020-05-21T09:32:50Z</time>
      </trkpt>
      <trkpt lat="47.31933" lon="-1.29799">
        <ele>48</ele>
        <time>2020-05-21T09:32:52Z</time>
      </trkpt>
      <trkpt lat="47.31943" lon="-1.29787">
        <ele>47.74</ele>
        <time>2020-05-21T09:32:54Z</time>
      </trkpt>
      <trkpt lat="47.31955" lon="-1.29772">
        <ele>47.02</ele>
        <time>2020-05-21T09:32:56Z</time>
      </trkpt>
      <trkpt lat="47.31967" lon="-1.29759">
        <ele>46.86</ele>
        <time>2020-05-21T09:32:58Z</time>
      </trkpt>
      <trkpt lat="47.31979" lon="-1.29746">
        <ele>47.19</ele>
        <time>2020-05-21T09:33:00Z</time>
      </trkpt>
      <trkpt lat="47.31992" lon="-1.29732">
        <ele>48.23</ele>
        <time>2020-05-21T09:33:02Z</time>
      </trkpt>
      <trkpt lat="47.32005" lon="-1.29717">
        <ele>49.28</ele>
        <time>2020-05-21T09:33:04Z</time>
      </trkpt>
      <trkpt lat="47.32017" lon="-1.29705">
        <ele>50.2</ele>
        <time>2020-05-21T09:33:06Z</time>
      </trkpt>
      <trkpt lat="47.3203" lon="-1.2969">
        <ele>50.4</ele>
        <time>2020-05-21T09:33:08Z</time>
      </trkpt>
      <trkpt lat="47.32042" lon="-1.29676">
        <ele>50.14</ele>
        <time>2020-05-21T09:33:10Z</time>
      </trkpt>
      <trkpt lat="47.32054" lon="-1.29661">
        <ele>49.63</ele>
        <time>2020-05-21T09:33:12Z</time>
      </trkpt>
      <trkpt lat="47.32067" lon="-1.29646">
        <ele>49.46</ele>
        <time>2020-05-21T09:33:14Z</time>
      </trkpt>
      <trkpt lat="47.3208" lon="-1.29632">
        <ele>48.81</ele>
        <time>2020-05-21T09:33:16Z</time>
      </trkpt>
      <trkpt lat="47.32094" lon="-1.29616">
        <ele>48.14</ele>
        <time>2020-05-21T09:33:18Z</time>
      </trkpt>
      <trkpt lat="47.32108" lon="-1.296">
        <ele>47.53</ele>
        <time>2020-05-21T09:33:20Z</time>
      </trkpt>
      <trkpt lat="47.32121" lon="-1.29584">
        <ele>47.56</ele>
        <time>2020-05-21T09:33:22Z</time>
      </trkpt>
      <trkpt lat="47.32129" lon="-1.29576">
        <ele>47.27</ele>
        <time>2020-05-21T09:33:23Z</time>
      </trkpt>
      <trkpt lat="47.32143" lon="-1.2956">
        <ele>45.92</ele>
        <time>2020-05-21T09:33:25Z</time>
      </trkpt>
      <trkpt lat="47.32158" lon="-1.29544">
        <ele>43.84</ele>
        <time>2020-05-21T09:33:27Z</time>
      </trkpt>
      <trkpt lat="47.32166" lon="-1.29536">
        <ele>42.81</ele>
        <time>2020-05-21T09:33:28Z</time>
      </trkpt>
      <trkpt lat="47.3218" lon="-1.29521">
        <ele>42.28</ele>
        <time>2020-05-21T09:33:30Z</time>
      </trkpt>
      <trkpt lat="47.32188" lon="-1.29513">
        <ele>42.38</ele>
        <time>2020-05-21T09:33:31Z</time>
      </trkpt>
      <trkpt lat="47.32195" lon="-1.29505">
        <ele>42.64</ele>
        <time>2020-05-21T09:33:32Z</time>
      </trkpt>
      <trkpt lat="47.32208" lon="-1.2949">
        <ele>42.71</ele>
        <time>2020-05-21T09:33:34Z</time>
      </trkpt>
      <trkpt lat="47.3222" lon="-1.29476">
        <ele>43</ele>
        <time>2020-05-21T09:33:36Z</time>
      </trkpt>
      <trkpt lat="47.32232" lon="-1.29463">
        <ele>43.77</ele>
        <time>2020-05-21T09:33:38Z</time>
      </trkpt>
      <trkpt lat="47.32243" lon="-1.29449">
        <ele>44.01</ele>
        <time>2020-05-21T09:33:40Z</time>
      </trkpt>
      <trkpt lat="47.32253" lon="-1.29437">
        <ele>44.27</ele>
        <time>2020-05-21T09:33:42Z</time>
      </trkpt>
      <trkpt lat="47.32265" lon="-1.29424">
        <ele>44.7</ele>
        <time>2020-05-21T09:33:44Z</time>
      </trkpt>
      <trkpt lat="47.32276" lon="-1.2941">
        <ele>45.27</ele>
        <time>2020-05-21T09:33:46Z</time>
      </trkpt>
      <trkpt lat="47.32288" lon="-1.29397">
        <ele>46.22</ele>
        <time>2020-05-21T09:33:48Z</time>
      </trkpt>
      <trkpt lat="47.32298" lon="-1.29385">
        <ele>46.45</ele>
        <time>2020-05-21T09:33:50Z</time>
      </trkpt>
      <trkpt lat="47.32308" lon="-1.29373">
        <ele>46.06</ele>
        <time>2020-05-21T09:33:52Z</time>
      </trkpt>
      <trkpt lat="47.32319" lon="-1.29362">
        <ele>45.91</ele>
        <time>2020-05-21T09:33:54Z</time>
      </trkpt>
      <trkpt lat="47.3233" lon="-1.2935">
        <ele>47.33</ele>
        <time>2020-05-21T09:33:56Z</time>
      </trkpt>
      <trkpt lat="47.3234" lon="-1.29339">
        <ele>47.75</ele>
        <time>2020-05-21T09:33:58Z</time>
      </trkpt>
      <trkpt lat="47.32352" lon="-1.29326">
        <ele>47.92</ele>
        <time>2020-05-21T09:34:00Z</time>
      </trkpt>
      <trkpt lat="47.32362" lon="-1.29314">
        <ele>48.64</ele>
        <time>2020-05-21T09:34:02Z</time>
      </trkpt>
      <trkpt lat="47.32374" lon="-1.29302">
        <ele>47.8</ele>
        <time>2020-05-21T09:34:04Z</time>
      </trkpt>
      <trkpt lat="47.32386" lon="-1.29291">
        <ele>46.12</ele>
        <time>2020-05-21T09:34:06Z</time>
      </trkpt>
      <trkpt lat="47.32397" lon="-1.29281">
        <ele>45.66</ele>
        <time>2020-05-21T09:34:08Z</time>
      </trkpt>
      <trkpt lat="47.32407" lon="-1.29275">
        <ele>46.04</ele>
        <time>2020-05-21T09:34:10Z</time>
      </trkpt>
      <trkpt lat="47.32418" lon="-1.29266">
        <ele>47.47</ele>
        <time>2020-05-21T09:34:12Z</time>
      </trkpt>
      <trkpt lat="47.32431" lon="-1.29257">
        <ele>48.15</ele>
        <time>2020-05-21T09:34:14Z</time>
      </trkpt>
      <trkpt lat="47.32445" lon="-1.29248">
        <ele>48.32</ele>
        <time>2020-05-21T09:34:16Z</time>
      </trkpt>
      <trkpt lat="47.32457" lon="-1.29241">
        <ele>48.98</ele>
        <time>2020-05-21T09:34:18Z</time>
      </trkpt>
      <trkpt lat="47.32468" lon="-1.29235">
        <ele>49.56</ele>
        <time>2020-05-21T09:34:20Z</time>
      </trkpt>
      <trkpt lat="47.32479" lon="-1.29228">
        <ele>50.83</ele>
        <time>2020-05-21T09:34:22Z</time>
      </trkpt>
      <trkpt lat="47.32492" lon="-1.2922">
        <ele>50.55</ele>
        <time>2020-05-21T09:34:24Z</time>
      </trkpt>
      <trkpt lat="47.32504" lon="-1.29212">
        <ele>49.85</ele>
        <time>2020-05-21T09:34:26Z</time>
      </trkpt>
      <trkpt lat="47.32515" lon="-1.29205">
        <ele>50.04</ele>
        <time>2020-05-21T09:34:28Z</time>
      </trkpt>
      <trkpt lat="47.32527" lon="-1.29197">
        <ele>50.71</ele>
        <time>2020-05-21T09:34:30Z</time>
      </trkpt>
      <trkpt lat="47.32539" lon="-1.2919">
        <ele>52.59</ele>
        <time>2020-05-21T09:34:32Z</time>
      </trkpt>
      <trkpt lat="47.32551" lon="-1.29183">
        <ele>53.21</ele>
        <time>2020-05-21T09:34:34Z</time>
      </trkpt>
      <trkpt lat="47.32562" lon="-1.29176">
        <ele>53.15</ele>
        <time>2020-05-21T09:34:36Z</time>
      </trkpt>
      <trkpt lat="47.32573" lon="-1.29169">
        <ele>53.45</ele>
        <time>2020-05-21T09:34:38Z</time>
      </trkpt>
      <trkpt lat="47.32586" lon="-1.29161">
        <ele>54.43</ele>
        <time>2020-05-21T09:34:40Z</time>
      </trkpt>
      <trkpt lat="47.32596" lon="-1.29154">
        <ele>55.15</ele>
        <time>2020-05-21T09:34:42Z</time>
      </trkpt>
      <trkpt lat="47.32608" lon="-1.29147">
        <ele>55.49</ele>
        <time>2020-05-21T09:34:44Z</time>
      </trkpt>
      <trkpt lat="47.32619" lon="-1.29139">
        <ele>55.84</ele>
        <time>2020-05-21T09:34:46Z</time>
      </trkpt>
      <trkpt lat="47.32631" lon="-1.29131">
        <ele>56.65</ele>
        <time>2020-05-21T09:34:48Z</time>
      </trkpt>
      <trkpt lat="47.32642" lon="-1.29125">
        <ele>57.66</ele>
        <time>2020-05-21T09:34:50Z</time>
      </trkpt>
      <trkpt lat="47.32653" lon="-1.29117">
        <ele>58.12</ele>
        <time>2020-05-21T09:34:52Z</time>
      </trkpt>
      <trkpt lat="47.32666" lon="-1.2911">
        <ele>58.93</ele>
        <time>2020-05-21T09:34:54Z</time>
      </trkpt>
      <trkpt lat="47.32678" lon="-1.29102">
        <ele>59.18</ele>
        <time>2020-05-21T09:34:56Z</time>
      </trkpt>
      <trkpt lat="47.32688" lon="-1.29095">
        <ele>59.62</ele>
        <time>2020-05-21T09:34:58Z</time>
      </trkpt>
      <trkpt lat="47.32698" lon="-1.29086">
        <ele>59.49</ele>
        <time>2020-05-21T09:35:00Z</time>
      </trkpt>
      <trkpt lat="47.32709" lon="-1.29077">
        <ele>60.46</ele>
        <time>2020-05-21T09:35:02Z</time>
      </trkpt>
      <trkpt lat="47.32719" lon="-1.29067">
        <ele>61.73</ele>
        <time>2020-05-21T09:35:04Z</time>
      </trkpt>
      <trkpt lat="47.32729" lon="-1.29058">
        <ele>62.46</ele>
        <time>2020-05-21T09:35:06Z</time>
      </trkpt>
      <trkpt lat="47.32741" lon="-1.29047">
        <ele>62.64</ele>
        <time>2020-05-21T09:35:08Z</time>
      </trkpt>
      <trkpt lat="47.32751" lon="-1.29037">
        <ele>61.47</ele>
        <time>2020-05-21T09:35:10Z</time>
      </trkpt>
      <trkpt lat="47.3276" lon="-1.29028">
        <ele>61.54</ele>
        <time>2020-05-21T09:35:12Z</time>
      </trkpt>
      <trkpt lat="47.3277" lon="-1.29017">
        <ele>61.23</ele>
        <time>2020-05-21T09:35:14Z</time>
      </trkpt>
      <trkpt lat="47.32782" lon="-1.29005">
        <ele>60.62</ele>
        <time>2020-05-21T09:35:16Z</time>
      </trkpt>
      <trkpt lat="47.32791" lon="-1.28996">
        <ele>61.31</ele>
        <time>2020-05-21T09:35:18Z</time>
      </trkpt>
      <trkpt lat="47.32801" lon="-1.28986">
        <ele>61.64</ele>
        <time>2020-05-21T09:35:20Z</time>
      </trkpt>
      <trkpt lat="47.32811" lon="-1.28977">
        <ele>61.86</ele>
        <time>2020-05-21T09:35:22Z</time>
      </trkpt>
      <trkpt lat="47.32821" lon="-1.28967">
        <ele>63.68</ele>
        <time>2020-05-21T09:35:24Z</time>
      </trkpt>
      <trkpt lat="47.3283" lon="-1.28955">
        <ele>64.31</ele>
        <time>2020-05-21T09:35:26Z</time>
      </trkpt>
      <trkpt lat="47.32838" lon="-1.28945">
        <ele>64.46</ele>
        <time>2020-05-21T09:35:28Z</time>
      </trkpt>
      <trkpt lat="47.32846" lon="-1.2893">
        <ele>64.13</ele>
        <time>2020-05-21T09:35:30Z</time>
      </trkpt>
      <trkpt lat="47.32854" lon="-1.28916">
        <ele>64.7</ele>
        <time>2020-05-21T09:35:32Z</time>
      </trkpt>
      <trkpt lat="47.32863" lon="-1.28899">
        <ele>65.2</ele>
        <time>2020-05-21T09:35:34Z</time>
      </trkpt>
      <trkpt lat="47.32871" lon="-1.28883">
        <ele>65.08</ele>
        <time>2020-05-21T09:35:36Z</time>
      </trkpt>
      <trkpt lat="47.3288" lon="-1.28866">
        <ele>64.68</ele>
        <time>2020-05-21T09:35:38Z</time>
      </trkpt>
      <trkpt lat="47.32888" lon="-1.2885">
        <ele>64.66</ele>
        <time>2020-05-21T09:35:40Z</time>
      </trkpt>
      <trkpt lat="47.32897" lon="-1.28833">
        <ele>63.93</ele>
        <time>2020-05-21T09:35:42Z</time>
      </trkpt>
      <trkpt lat="47.32908" lon="-1.28814">
        <ele>62.12</ele>
        <time>2020-05-21T09:35:44Z</time>
      </trkpt>
      <trkpt lat="47.32917" lon="-1.28798">
        <ele>60.5</ele>
        <time>2020-05-21T09:35:46Z</time>
      </trkpt>
      <trkpt lat="47.32926" lon="-1.2878">
        <ele>60.66</ele>
        <time>2020-05-21T09:35:48Z</time>
      </trkpt>
      <trkpt lat="47.32936" lon="-1.28761">
        <ele>60.92</ele>
        <time>2020-05-21T09:35:50Z</time>
      </trkpt>
      <trkpt lat="47.32945" lon="-1.28744">
        <ele>61.18</ele>
        <time>2020-05-21T09:35:52Z</time>
      </trkpt>
      <trkpt lat="47.32954" lon="-1.28728">
        <ele>61.32</ele>
        <time>2020-05-21T09:35:54Z</time>
      </trkpt>
      <trkpt lat="47.32963" lon="-1.28713">
        <ele>61.32</ele>
        <time>2020-05-21T09:35:56Z</time>
      </trkpt>
      <trkpt lat="47.32974" lon="-1.28699">
        <ele>61.24</ele>
        <time>2020-05-21T09:35:58Z</time>
      </trkpt>
      <trkpt lat="47.32985" lon="-1.28685">
        <ele>61.7</ele>
        <time>2020-05-21T09:36:00Z</time>
      </trkpt>
      <trkpt lat="47.32996" lon="-1.28672">
        <ele>62.03</ele>
        <time>2020-05-21T09:36:02Z</time>
      </trkpt>
      <trkpt lat="47.33008" lon="-1.2866">
        <ele>62.07</ele>
        <time>2020-05-21T09:36:04Z</time>
      </trkpt>
      <trkpt lat="47.33019" lon="-1.28648">
        <ele>61.6</ele>
        <time>2020-05-21T09:36:06Z</time>
      </trkpt>
      <trkpt lat="47.3303" lon="-1.28636">
        <ele>62.16</ele>
        <time>2020-05-21T09:36:08Z</time>
      </trkpt>
      <trkpt lat="47.33043" lon="-1.28622">
        <ele>62.15</ele>
        <time>2020-05-21T09:36:10Z</time>
      </trkpt>
      <trkpt lat="47.33054" lon="-1.28611">
        <ele>62.09</ele>
        <time>2020-05-21T09:36:12Z</time>
      </trkpt>
      <trkpt lat="47.33065" lon="-1.28598">
        <ele>62.15</ele>
        <time>2020-05-21T09:36:14Z</time>
      </trkpt>
      <trkpt lat="47.33075" lon="-1.28586">
        <ele>62.44</ele>
        <time>2020-05-21T09:36:16Z</time>
      </trkpt>
      <trkpt lat="47.33087" lon="-1.28574">
        <ele>61.98</ele>
        <time>2020-05-21T09:36:18Z</time>
      </trkpt>
      <trkpt lat="47.33099" lon="-1.28561">
        <ele>61.09</ele>
        <time>2020-05-21T09:36:20Z</time>
      </trkpt>
      <trkpt lat="47.33109" lon="-1.2855">
        <ele>61.24</ele>
        <time>2020-05-21T09:36:22Z</time>
      </trkpt>
      <trkpt lat="47.3312" lon="-1.28538">
        <ele>61.22</ele>
        <time>2020-05-21T09:36:24Z</time>
      </trkpt>
      <trkpt lat="47.33131" lon="-1.28526">
        <ele>62.46</ele>
        <time>2020-05-21T09:36:26Z</time>
      </trkpt>
      <trkpt lat="47.33143" lon="-1.28513">
        <ele>62.66</ele>
        <time>2020-05-21T09:36:28Z</time>
      </trkpt>
      <trkpt lat="47.33156" lon="-1.285">
        <ele>62.64</ele>
        <time>2020-05-21T09:36:30Z</time>
      </trkpt>
      <trkpt lat="47.33169" lon="-1.28486">
        <ele>62.42</ele>
        <time>2020-05-21T09:36:32Z</time>
      </trkpt>
      <trkpt lat="47.33182" lon="-1.28471">
        <ele>62.16</ele>
        <time>2020-05-21T09:36:34Z</time>
      </trkpt>
      <trkpt lat="47.33194" lon="-1.28458">
        <ele>62.03</ele>
        <time>2020-05-21T09:36:36Z</time>
      </trkpt>
      <trkpt lat="47.33202" lon="-1.28449">
        <ele>61.47</ele>
        <time>2020-05-21T09:36:37Z</time>
      </trkpt>
      <trkpt lat="47.33215" lon="-1.28435">
        <ele>60.38</ele>
        <time>2020-05-21T09:36:39Z</time>
      </trkpt>
      <trkpt lat="47.33229" lon="-1.2842">
        <ele>59.74</ele>
        <time>2020-05-21T09:36:41Z</time>
      </trkpt>
      <trkpt lat="47.33236" lon="-1.28412">
        <ele>59.46</ele>
        <time>2020-05-21T09:36:42Z</time>
      </trkpt>
      <trkpt lat="47.33244" lon="-1.28404">
        <ele>59</ele>
        <time>2020-05-21T09:36:43Z</time>
      </trkpt>
      <trkpt lat="47.33252" lon="-1.28394">
        <ele>58.31</ele>
        <time>2020-05-21T09:36:44Z</time>
      </trkpt>
      <trkpt lat="47.33267" lon="-1.28378">
        <ele>56.76</ele>
        <time>2020-05-21T09:36:46Z</time>
      </trkpt>
      <trkpt lat="47.33274" lon="-1.28369">
        <ele>56.21</ele>
        <time>2020-05-21T09:36:47Z</time>
      </trkpt>
      <trkpt lat="47.33282" lon="-1.28361">
        <ele>55.84</ele>
        <time>2020-05-21T09:36:48Z</time>
      </trkpt>
      <trkpt lat="47.33298" lon="-1.28344">
        <ele>55.04</ele>
        <time>2020-05-21T09:36:50Z</time>
      </trkpt>
      <trkpt lat="47.33307" lon="-1.28334">
        <ele>54.49</ele>
        <time>2020-05-21T09:36:51Z</time>
      </trkpt>
      <trkpt lat="47.33314" lon="-1.28326">
        <ele>53.72</ele>
        <time>2020-05-21T09:36:52Z</time>
      </trkpt>
      <trkpt lat="47.33331" lon="-1.2831">
        <ele>51.75</ele>
        <time>2020-05-21T09:36:54Z</time>
      </trkpt>
      <trkpt lat="47.33339" lon="-1.28303">
        <ele>51.36</ele>
        <time>2020-05-21T09:36:55Z</time>
      </trkpt>
      <trkpt lat="47.33348" lon="-1.28298">
        <ele>50.91</ele>
        <time>2020-05-21T09:36:56Z</time>
      </trkpt>
      <trkpt lat="47.33357" lon="-1.28293">
        <ele>50.42</ele>
        <time>2020-05-21T09:36:57Z</time>
      </trkpt>
      <trkpt lat="47.33367" lon="-1.28289">
        <ele>49.89</ele>
        <time>2020-05-21T09:36:58Z</time>
      </trkpt>
      <trkpt lat="47.33377" lon="-1.28285">
        <ele>49.01</ele>
        <time>2020-05-21T09:36:59Z</time>
      </trkpt>
      <trkpt lat="47.33388" lon="-1.28282">
        <ele>47.82</ele>
        <time>2020-05-21T09:37:00Z</time>
      </trkpt>
      <trkpt lat="47.33397" lon="-1.28279">
        <ele>47.04</ele>
        <time>2020-05-21T09:37:01Z</time>
      </trkpt>
      <trkpt lat="47.33405" lon="-1.2827">
        <ele>46.26</ele>
        <time>2020-05-21T09:37:02Z</time>
      </trkpt>
      <trkpt lat="47.33419" lon="-1.28247">
        <ele>45.27</ele>
        <time>2020-05-21T09:37:04Z</time>
      </trkpt>
      <trkpt lat="47.3342" lon="-1.28232">
        <ele>45.22</ele>
        <time>2020-05-21T09:37:05Z</time>
      </trkpt>
      <trkpt lat="47.33419" lon="-1.28217">
        <ele>45.24</ele>
        <time>2020-05-21T09:37:06Z</time>
      </trkpt>
      <trkpt lat="47.33417" lon="-1.282">
        <ele>45.29</ele>
        <time>2020-05-21T09:37:07Z</time>
      </trkpt>
      <trkpt lat="47.33413" lon="-1.28186">
        <ele>45.14</ele>
        <time>2020-05-21T09:37:08Z</time>
      </trkpt>
      <trkpt lat="47.33407" lon="-1.28171">
        <ele>45.13</ele>
        <time>2020-05-21T09:37:09Z</time>
      </trkpt>
      <trkpt lat="47.33402" lon="-1.28158">
        <ele>44.81</ele>
        <time>2020-05-21T09:37:10Z</time>
      </trkpt>
      <trkpt lat="47.33401" lon="-1.28142">
        <ele>44.58</ele>
        <time>2020-05-21T09:37:11Z</time>
      </trkpt>
      <trkpt lat="47.334" lon="-1.28128">
        <ele>44.55</ele>
        <time>2020-05-21T09:37:12Z</time>
      </trkpt>
      <trkpt lat="47.33406" lon="-1.28115">
        <ele>44.11</ele>
        <time>2020-05-21T09:37:13Z</time>
      </trkpt>
      <trkpt lat="47.33412" lon="-1.28104">
        <ele>43.71</ele>
        <time>2020-05-21T09:37:14Z</time>
      </trkpt>
      <trkpt lat="47.33419" lon="-1.28092">
        <ele>43.38</ele>
        <time>2020-05-21T09:37:15Z</time>
      </trkpt>
      <trkpt lat="47.33429" lon="-1.28084">
        <ele>42.82</ele>
        <time>2020-05-21T09:37:16Z</time>
      </trkpt>
      <trkpt lat="47.33439" lon="-1.28081">
        <ele>42.58</ele>
        <time>2020-05-21T09:37:17Z</time>
      </trkpt>
      <trkpt lat="47.33451" lon="-1.28078">
        <ele>42.46</ele>
        <time>2020-05-21T09:37:18Z</time>
      </trkpt>
      <trkpt lat="47.33462" lon="-1.28075">
        <ele>42.26</ele>
        <time>2020-05-21T09:37:19Z</time>
      </trkpt>
      <trkpt lat="47.33474" lon="-1.28073">
        <ele>41.73</ele>
        <time>2020-05-21T09:37:20Z</time>
      </trkpt>
      <trkpt lat="47.33486" lon="-1.2807">
        <ele>40.56</ele>
        <time>2020-05-21T09:37:21Z</time>
      </trkpt>
      <trkpt lat="47.33494" lon="-1.28059">
        <ele>39.17</ele>
        <time>2020-05-21T09:37:22Z</time>
      </trkpt>
      <trkpt lat="47.33502" lon="-1.28045">
        <ele>38.09</ele>
        <time>2020-05-21T09:37:23Z</time>
      </trkpt>
      <trkpt lat="47.33508" lon="-1.28031">
        <ele>37.08</ele>
        <time>2020-05-21T09:37:24Z</time>
      </trkpt>
      <trkpt lat="47.33506" lon="-1.28013">
        <ele>36.29</ele>
        <time>2020-05-21T09:37:25Z</time>
      </trkpt>
      <trkpt lat="47.33504" lon="-1.27996">
        <ele>36.14</ele>
        <time>2020-05-21T09:37:26Z</time>
      </trkpt>
      <trkpt lat="47.33507" lon="-1.27972">
        <ele>36.13</ele>
        <time>2020-05-21T09:37:28Z</time>
      </trkpt>
      <trkpt lat="47.33514" lon="-1.27964">
        <ele>35.96</ele>
        <time>2020-05-21T09:37:29Z</time>
      </trkpt>
      <trkpt lat="47.33525" lon="-1.27958">
        <ele>36.02</ele>
        <time>2020-05-21T09:37:30Z</time>
      </trkpt>
      <trkpt lat="47.33536" lon="-1.2795">
        <ele>35.46</ele>
        <time>2020-05-21T09:37:31Z</time>
      </trkpt>
      <trkpt lat="47.33546" lon="-1.27941">
        <ele>34.52</ele>
        <time>2020-05-21T09:37:31Z</time>
      </trkpt>
      <trkpt lat="47.33553" lon="-1.27925">
        <ele>33.03</ele>
        <time>2020-05-21T09:37:32Z</time>
      </trkpt>
      <trkpt lat="47.33556" lon="-1.27907">
        <ele>31.79</ele>
        <time>2020-05-21T09:37:33Z</time>
      </trkpt>
      <trkpt lat="47.33559" lon="-1.27891">
        <ele>30.63</ele>
        <time>2020-05-21T09:37:34Z</time>
      </trkpt>
      <trkpt lat="47.33561" lon="-1.27875">
        <ele>29.61</ele>
        <time>2020-05-21T09:37:35Z</time>
      </trkpt>
      <trkpt lat="47.33562" lon="-1.2786">
        <ele>28.94</ele>
        <time>2020-05-21T09:37:36Z</time>
      </trkpt>
      <trkpt lat="47.33563" lon="-1.27843">
        <ele>28.44</ele>
        <time>2020-05-21T09:37:37Z</time>
      </trkpt>
      <trkpt lat="47.33562" lon="-1.27826">
        <ele>28.06</ele>
        <time>2020-05-21T09:37:38Z</time>
      </trkpt>
      <trkpt lat="47.33562" lon="-1.27808">
        <ele>27.93</ele>
        <time>2020-05-21T09:37:39Z</time>
      </trkpt>
      <trkpt lat="47.33562" lon="-1.2779">
        <ele>27.57</ele>
        <time>2020-05-21T09:37:40Z</time>
      </trkpt>
      <trkpt lat="47.33562" lon="-1.27772">
        <ele>27.2</ele>
        <time>2020-05-21T09:37:41Z</time>
      </trkpt>
      <trkpt lat="47.33562" lon="-1.27755">
        <ele>26.67</ele>
        <time>2020-05-21T09:37:42Z</time>
      </trkpt>
      <trkpt lat="47.33563" lon="-1.27737">
        <ele>25.77</ele>
        <time>2020-05-21T09:37:43Z</time>
      </trkpt>
      <trkpt lat="47.33568" lon="-1.27724">
        <ele>25.1</ele>
        <time>2020-05-21T09:37:44Z</time>
      </trkpt>
      <trkpt lat="47.33575" lon="-1.27712">
        <ele>24.67</ele>
        <time>2020-05-21T09:37:45Z</time>
      </trkpt>
      <trkpt lat="47.33582" lon="-1.27702">
        <ele>24.12</ele>
        <time>2020-05-21T09:37:46Z</time>
      </trkpt>
      <trkpt lat="47.33592" lon="-1.27696">
        <ele>23.24</ele>
        <time>2020-05-21T09:37:47Z</time>
      </trkpt>
      <trkpt lat="47.33602" lon="-1.27701">
        <ele>22.52</ele>
        <time>2020-05-21T09:37:48Z</time>
      </trkpt>
      <trkpt lat="47.33614" lon="-1.27709">
        <ele>21.82</ele>
        <time>2020-05-21T09:37:49Z</time>
      </trkpt>
      <trkpt lat="47.33624" lon="-1.27718">
        <ele>21.02</ele>
        <time>2020-05-21T09:37:50Z</time>
      </trkpt>
      <trkpt lat="47.33635" lon="-1.27728">
        <ele>20.27</ele>
        <time>2020-05-21T09:37:51Z</time>
      </trkpt>
      <trkpt lat="47.33644" lon="-1.27738">
        <ele>19.19</ele>
        <time>2020-05-21T09:37:52Z</time>
      </trkpt>
      <trkpt lat="47.33653" lon="-1.27747">
        <ele>18.1</ele>
        <time>2020-05-21T09:37:53Z</time>
      </trkpt>
      <trkpt lat="47.33661" lon="-1.27756">
        <ele>16.77</ele>
        <time>2020-05-21T09:37:54Z</time>
      </trkpt>
      <trkpt lat="47.33671" lon="-1.2776">
        <ele>15.84</ele>
        <time>2020-05-21T09:37:55Z</time>
      </trkpt>
      <trkpt lat="47.33681" lon="-1.27763">
        <ele>15.17</ele>
        <time>2020-05-21T09:37:56Z</time>
      </trkpt>
      <trkpt lat="47.33692" lon="-1.27766">
        <ele>14.48</ele>
        <time>2020-05-21T09:37:57Z</time>
      </trkpt>
      <trkpt lat="47.33702" lon="-1.27763">
        <ele>13.82</ele>
        <time>2020-05-21T09:37:58Z</time>
      </trkpt>
      <trkpt lat="47.33711" lon="-1.27759">
        <ele>13.61</ele>
        <time>2020-05-21T09:37:59Z</time>
      </trkpt>
      <trkpt lat="47.3372" lon="-1.27753">
        <ele>13.34</ele>
        <time>2020-05-21T09:38:00Z</time>
      </trkpt>
      <trkpt lat="47.33737" lon="-1.27741">
        <ele>13.47</ele>
        <time>2020-05-21T09:38:02Z</time>
      </trkpt>
      <trkpt lat="47.33751" lon="-1.2773">
        <ele>13.62</ele>
        <time>2020-05-21T09:38:04Z</time>
      </trkpt>
      <trkpt lat="47.33765" lon="-1.27727">
        <ele>13.63</ele>
        <time>2020-05-21T09:38:06Z</time>
      </trkpt>
      <trkpt lat="47.33774" lon="-1.27735">
        <ele>13.38</ele>
        <time>2020-05-21T09:38:08Z</time>
      </trkpt>
      <trkpt lat="47.33787" lon="-1.27744">
        <ele>12.79</ele>
        <time>2020-05-21T09:38:10Z</time>
      </trkpt>
      <trkpt lat="47.33802" lon="-1.2775">
        <ele>11.9</ele>
        <time>2020-05-21T09:38:12Z</time>
      </trkpt>
      <trkpt lat="47.33816" lon="-1.27756">
        <ele>11.58</ele>
        <time>2020-05-21T09:38:14Z</time>
      </trkpt>
      <trkpt lat="47.33832" lon="-1.27762">
        <ele>10.77</ele>
        <time>2020-05-21T09:38:16Z</time>
      </trkpt>
      <trkpt lat="47.33846" lon="-1.27767">
        <ele>11.22</ele>
        <time>2020-05-21T09:38:18Z</time>
      </trkpt>
      <trkpt lat="47.33859" lon="-1.27771">
        <ele>11.35</ele>
        <time>2020-05-21T09:38:20Z</time>
      </trkpt>
      <trkpt lat="47.33871" lon="-1.27774">
        <ele>11.45</ele>
        <time>2020-05-21T09:38:22Z</time>
      </trkpt>
      <trkpt lat="47.33884" lon="-1.27778">
        <ele>11.96</ele>
        <time>2020-05-21T09:38:24Z</time>
      </trkpt>
      <trkpt lat="47.33896" lon="-1.27781">
        <ele>12.21</ele>
        <time>2020-05-21T09:38:26Z</time>
      </trkpt>
      <trkpt lat="47.33907" lon="-1.27784">
        <ele>11.84</ele>
        <time>2020-05-21T09:38:28Z</time>
      </trkpt>
      <trkpt lat="47.33919" lon="-1.27789">
        <ele>12.31</ele>
        <time>2020-05-21T09:38:30Z</time>
      </trkpt>
      <trkpt lat="47.33933" lon="-1.27794">
        <ele>12.77</ele>
        <time>2020-05-21T09:38:32Z</time>
      </trkpt>
      <trkpt lat="47.33946" lon="-1.27799">
        <ele>13.25</ele>
        <time>2020-05-21T09:38:34Z</time>
      </trkpt>
      <trkpt lat="47.3396" lon="-1.27802">
        <ele>13.61</ele>
        <time>2020-05-21T09:38:36Z</time>
      </trkpt>
      <trkpt lat="47.33972" lon="-1.27806">
        <ele>13.13</ele>
        <time>2020-05-21T09:38:38Z</time>
      </trkpt>
      <trkpt lat="47.33984" lon="-1.27809">
        <ele>12.76</ele>
        <time>2020-05-21T09:38:40Z</time>
      </trkpt>
      <trkpt lat="47.33997" lon="-1.27813">
        <ele>13.56</ele>
        <time>2020-05-21T09:38:42Z</time>
      </trkpt>
      <trkpt lat="47.3401" lon="-1.27817">
        <ele>12.94</ele>
        <time>2020-05-21T09:38:44Z</time>
      </trkpt>
      <trkpt lat="47.34023" lon="-1.2782">
        <ele>12.85</ele>
        <time>2020-05-21T09:38:46Z</time>
      </trkpt>
      <trkpt lat="47.34037" lon="-1.27825">
        <ele>13.16</ele>
        <time>2020-05-21T09:38:48Z</time>
      </trkpt>
      <trkpt lat="47.3405" lon="-1.2783">
        <ele>13.33</ele>
        <time>2020-05-21T09:38:50Z</time>
      </trkpt>
      <trkpt lat="47.34064" lon="-1.27834">
        <ele>13.11</ele>
        <time>2020-05-21T09:38:52Z</time>
      </trkpt>
      <trkpt lat="47.34077" lon="-1.27838">
        <ele>13.06</ele>
        <time>2020-05-21T09:38:54Z</time>
      </trkpt>
      <trkpt lat="47.34089" lon="-1.27842">
        <ele>13.25</ele>
        <time>2020-05-21T09:38:56Z</time>
      </trkpt>
      <trkpt lat="47.34102" lon="-1.27846">
        <ele>13.9</ele>
        <time>2020-05-21T09:38:58Z</time>
      </trkpt>
      <trkpt lat="47.34115" lon="-1.27851">
        <ele>14.94</ele>
        <time>2020-05-21T09:39:00Z</time>
      </trkpt>
      <trkpt lat="47.34129" lon="-1.27854">
        <ele>14.45</ele>
        <time>2020-05-21T09:39:02Z</time>
      </trkpt>
      <trkpt lat="47.3414" lon="-1.27858">
        <ele>15.02</ele>
        <time>2020-05-21T09:39:04Z</time>
      </trkpt>
      <trkpt lat="47.34153" lon="-1.27861">
        <ele>15.18</ele>
        <time>2020-05-21T09:39:06Z</time>
      </trkpt>
      <trkpt lat="47.34166" lon="-1.27867">
        <ele>15.3</ele>
        <time>2020-05-21T09:39:08Z</time>
      </trkpt>
      <trkpt lat="47.34178" lon="-1.27871">
        <ele>15.63</ele>
        <time>2020-05-21T09:39:10Z</time>
      </trkpt>
      <trkpt lat="47.34193" lon="-1.27875">
        <ele>15.18</ele>
        <time>2020-05-21T09:39:12Z</time>
      </trkpt>
      <trkpt lat="47.34206" lon="-1.27879">
        <ele>14.64</ele>
        <time>2020-05-21T09:39:14Z</time>
      </trkpt>
      <trkpt lat="47.34218" lon="-1.27883">
        <ele>15.07</ele>
        <time>2020-05-21T09:39:16Z</time>
      </trkpt>
      <trkpt lat="47.3423" lon="-1.27886">
        <ele>15.14</ele>
        <time>2020-05-21T09:39:18Z</time>
      </trkpt>
      <trkpt lat="47.34243" lon="-1.2789">
        <ele>14.86</ele>
        <time>2020-05-21T09:39:20Z</time>
      </trkpt>
      <trkpt lat="47.34256" lon="-1.27894">
        <ele>14.65</ele>
        <time>2020-05-21T09:39:22Z</time>
      </trkpt>
      <trkpt lat="47.34269" lon="-1.27898">
        <ele>15.17</ele>
        <time>2020-05-21T09:39:24Z</time>
      </trkpt>
      <trkpt lat="47.34282" lon="-1.27903">
        <ele>15.2</ele>
        <time>2020-05-21T09:39:26Z</time>
      </trkpt>
      <trkpt lat="47.34295" lon="-1.27907">
        <ele>15.61</ele>
        <time>2020-05-21T09:39:28Z</time>
      </trkpt>
      <trkpt lat="47.3431" lon="-1.27912">
        <ele>15.31</ele>
        <time>2020-05-21T09:39:30Z</time>
      </trkpt>
      <trkpt lat="47.34324" lon="-1.27917">
        <ele>16.21</ele>
        <time>2020-05-21T09:39:32Z</time>
      </trkpt>
      <trkpt lat="47.34336" lon="-1.27921">
        <ele>17.17</ele>
        <time>2020-05-21T09:39:34Z</time>
      </trkpt>
      <trkpt lat="47.34351" lon="-1.27925">
        <ele>16.4</ele>
        <time>2020-05-21T09:39:36Z</time>
      </trkpt>
      <trkpt lat="47.34364" lon="-1.27929">
        <ele>16.47</ele>
        <time>2020-05-21T09:39:38Z</time>
      </trkpt>
      <trkpt lat="47.34378" lon="-1.27933">
        <ele>16.23</ele>
        <time>2020-05-21T09:39:40Z</time>
      </trkpt>
      <trkpt lat="47.34389" lon="-1.27937">
        <ele>16.32</ele>
        <time>2020-05-21T09:39:42Z</time>
      </trkpt>
      <trkpt lat="47.34402" lon="-1.27942">
        <ele>16.14</ele>
        <time>2020-05-21T09:39:44Z</time>
      </trkpt>
      <trkpt lat="47.34415" lon="-1.27949">
        <ele>17.02</ele>
        <time>2020-05-21T09:39:46Z</time>
      </trkpt>
      <trkpt lat="47.34428" lon="-1.27957">
        <ele>18.15</ele>
        <time>2020-05-21T09:39:48Z</time>
      </trkpt>
      <trkpt lat="47.34441" lon="-1.27964">
        <ele>19.38</ele>
        <time>2020-05-21T09:39:50Z</time>
      </trkpt>
      <trkpt lat="47.34451" lon="-1.27971">
        <ele>20.41</ele>
        <time>2020-05-21T09:39:52Z</time>
      </trkpt>
      <trkpt lat="47.34462" lon="-1.27982">
        <ele>20.12</ele>
        <time>2020-05-21T09:39:54Z</time>
      </trkpt>
      <trkpt lat="47.34473" lon="-1.27993">
        <ele>20.03</ele>
        <time>2020-05-21T09:39:56Z</time>
      </trkpt>
      <trkpt lat="47.34485" lon="-1.2801">
        <ele>19.16</ele>
        <time>2020-05-21T09:39:58Z</time>
      </trkpt>
      <trkpt lat="47.34493" lon="-1.28025">
        <ele>18.13</ele>
        <time>2020-05-21T09:40:00Z</time>
      </trkpt>
      <trkpt lat="47.34499" lon="-1.28035">
        <ele>18.09</ele>
        <time>2020-05-21T09:40:01Z</time>
      </trkpt>
      <trkpt lat="47.34508" lon="-1.28053">
        <ele>18.45</ele>
        <time>2020-05-21T09:40:03Z</time>
      </trkpt>
      <trkpt lat="47.34515" lon="-1.28072">
        <ele>18.21</ele>
        <time>2020-05-21T09:40:05Z</time>
      </trkpt>
      <trkpt lat="47.34521" lon="-1.28094">
        <ele>17.79</ele>
        <time>2020-05-21T09:40:07Z</time>
      </trkpt>
      <trkpt lat="47.34527" lon="-1.2812">
        <ele>17.51</ele>
        <time>2020-05-21T09:40:09Z</time>
      </trkpt>
      <trkpt lat="47.34529" lon="-1.28133">
        <ele>17.36</ele>
        <time>2020-05-21T09:40:10Z</time>
      </trkpt>
      <trkpt lat="47.3453" lon="-1.28157">
        <ele>16.55</ele>
        <time>2020-05-21T09:40:12Z</time>
      </trkpt>
      <trkpt lat="47.34531" lon="-1.28171">
        <ele>15.86</ele>
        <time>2020-05-21T09:40:13Z</time>
      </trkpt>
      <trkpt lat="47.34532" lon="-1.28185">
        <ele>15.4</ele>
        <time>2020-05-21T09:40:14Z</time>
      </trkpt>
      <trkpt lat="47.34532" lon="-1.2821">
        <ele>14.63</ele>
        <time>2020-05-21T09:40:16Z</time>
      </trkpt>
      <trkpt lat="47.3453" lon="-1.28232">
        <ele>14.23</ele>
        <time>2020-05-21T09:40:18Z</time>
      </trkpt>
      <trkpt lat="47.34527" lon="-1.28255">
        <ele>13.79</ele>
        <time>2020-05-21T09:40:20Z</time>
      </trkpt>
      <trkpt lat="47.34524" lon="-1.28279">
        <ele>13.54</ele>
        <time>2020-05-21T09:40:22Z</time>
      </trkpt>
      <trkpt lat="47.34521" lon="-1.28303">
        <ele>13.82</ele>
        <time>2020-05-21T09:40:24Z</time>
      </trkpt>
      <trkpt lat="47.34517" lon="-1.28325">
        <ele>13.11</ele>
        <time>2020-05-21T09:40:26Z</time>
      </trkpt>
      <trkpt lat="47.34515" lon="-1.28338">
        <ele>12.71</ele>
        <time>2020-05-21T09:40:27Z</time>
      </trkpt>
      <trkpt lat="47.34513" lon="-1.28361">
        <ele>12.66</ele>
        <time>2020-05-21T09:40:29Z</time>
      </trkpt>
      <trkpt lat="47.34513" lon="-1.28381">
        <ele>12.05</ele>
        <time>2020-05-21T09:40:31Z</time>
      </trkpt>
      <trkpt lat="47.34515" lon="-1.28402">
        <ele>12.52</ele>
        <time>2020-05-21T09:40:33Z</time>
      </trkpt>
      <trkpt lat="47.34519" lon="-1.28421">
        <ele>11.87</ele>
        <time>2020-05-21T09:40:35Z</time>
      </trkpt>
      <trkpt lat="47.34524" lon="-1.28444">
        <ele>10.82</ele>
        <time>2020-05-21T09:40:37Z</time>
      </trkpt>
      <trkpt lat="47.3453" lon="-1.28463">
        <ele>10.59</ele>
        <time>2020-05-21T09:40:39Z</time>
      </trkpt>
      <trkpt lat="47.3454" lon="-1.28483">
        <ele>10.27</ele>
        <time>2020-05-21T09:40:41Z</time>
      </trkpt>
      <trkpt lat="47.34548" lon="-1.28499">
        <ele>10.24</ele>
        <time>2020-05-21T09:40:43Z</time>
      </trkpt>
      <trkpt lat="47.34559" lon="-1.28516">
        <ele>10.32</ele>
        <time>2020-05-21T09:40:45Z</time>
      </trkpt>
      <trkpt lat="47.3457" lon="-1.2853">
        <ele>9.63</ele>
        <time>2020-05-21T09:40:47Z</time>
      </trkpt>
      <trkpt lat="47.34582" lon="-1.28543">
        <ele>10.28</ele>
        <time>2020-05-21T09:40:49Z</time>
      </trkpt>
      <trkpt lat="47.34595" lon="-1.28554">
        <ele>11.03</ele>
        <time>2020-05-21T09:40:51Z</time>
      </trkpt>
      <trkpt lat="47.34608" lon="-1.28565">
        <ele>11.12</ele>
        <time>2020-05-21T09:40:53Z</time>
      </trkpt>
      <trkpt lat="47.34621" lon="-1.28574">
        <ele>11.59</ele>
        <time>2020-05-21T09:40:55Z</time>
      </trkpt>
      <trkpt lat="47.34633" lon="-1.28583">
        <ele>13.39</ele>
        <time>2020-05-21T09:40:57Z</time>
      </trkpt>
      <trkpt lat="47.34642" lon="-1.2859">
        <ele>15.74</ele>
        <time>2020-05-21T09:40:59Z</time>
      </trkpt>
      <trkpt lat="47.34652" lon="-1.28598">
        <ele>16.73</ele>
        <time>2020-05-21T09:41:01Z</time>
      </trkpt>
      <trkpt lat="47.34647" lon="-1.28617">
        <ele>17.22</ele>
        <time>2020-05-21T09:41:04Z</time>
      </trkpt>
      <trkpt lat="47.34635" lon="-1.28635">
        <ele>16.53</ele>
        <time>2020-05-21T09:41:06Z</time>
      </trkpt>
      <trkpt lat="47.34629" lon="-1.28645">
        <ele>15.82</ele>
        <time>2020-05-21T09:41:07Z</time>
      </trkpt>
      <trkpt lat="47.34618" lon="-1.28663">
        <ele>14.59</ele>
        <time>2020-05-21T09:41:09Z</time>
      </trkpt>
      <trkpt lat="47.34609" lon="-1.28681">
        <ele>13.34</ele>
        <time>2020-05-21T09:41:11Z</time>
      </trkpt>
      <trkpt lat="47.34604" lon="-1.28692">
        <ele>12.84</ele>
        <time>2020-05-21T09:41:12Z</time>
      </trkpt>
      <trkpt lat="47.34596" lon="-1.28712">
        <ele>12.42</ele>
        <time>2020-05-21T09:41:14Z</time>
      </trkpt>
      <trkpt lat="47.34588" lon="-1.28732">
        <ele>12.64</ele>
        <time>2020-05-21T09:41:16Z</time>
      </trkpt>
      <trkpt lat="47.34582" lon="-1.28752">
        <ele>12.88</ele>
        <time>2020-05-21T09:41:18Z</time>
      </trkpt>
      <trkpt lat="47.34577" lon="-1.28769">
        <ele>11.88</ele>
        <time>2020-05-21T09:41:20Z</time>
      </trkpt>
      <trkpt lat="47.34571" lon="-1.2879">
        <ele>11.5</ele>
        <time>2020-05-21T09:41:22Z</time>
      </trkpt>
      <trkpt lat="47.34566" lon="-1.28808">
        <ele>11.46</ele>
        <time>2020-05-21T09:41:24Z</time>
      </trkpt>
      <trkpt lat="47.34562" lon="-1.28822">
        <ele>11.38</ele>
        <time>2020-05-21T09:41:26Z</time>
      </trkpt>
      <trkpt lat="47.3456" lon="-1.28835">
        <ele>12.41</ele>
        <time>2020-05-21T09:41:28Z</time>
      </trkpt>
      <trkpt lat="47.34557" lon="-1.28851">
        <ele>12.93</ele>
        <time>2020-05-21T09:41:30Z</time>
      </trkpt>
      <trkpt lat="47.34554" lon="-1.28871">
        <ele>13.15</ele>
        <time>2020-05-21T09:41:32Z</time>
      </trkpt>
      <trkpt lat="47.3455" lon="-1.2889">
        <ele>14.08</ele>
        <time>2020-05-21T09:41:34Z</time>
      </trkpt>
      <trkpt lat="47.34544" lon="-1.28905">
        <ele>14.27</ele>
        <time>2020-05-21T09:41:36Z</time>
      </trkpt>
      <trkpt lat="47.34535" lon="-1.28919">
        <ele>14.21</ele>
        <time>2020-05-21T09:41:38Z</time>
      </trkpt>
      <trkpt lat="47.34527" lon="-1.28933">
        <ele>13.53</ele>
        <time>2020-05-21T09:41:40Z</time>
      </trkpt>
      <trkpt lat="47.34519" lon="-1.28947">
        <ele>13.67</ele>
        <time>2020-05-21T09:41:42Z</time>
      </trkpt>
      <trkpt lat="47.3451" lon="-1.28962">
        <ele>13.72</ele>
        <time>2020-05-21T09:41:44Z</time>
      </trkpt>
      <trkpt lat="47.34504" lon="-1.28973">
        <ele>15.03</ele>
        <time>2020-05-21T09:41:46Z</time>
      </trkpt>
      <trkpt lat="47.34496" lon="-1.28988">
        <ele>16.17</ele>
        <time>2020-05-21T09:41:48Z</time>
      </trkpt>
      <trkpt lat="47.34488" lon="-1.29003">
        <ele>16.17</ele>
        <time>2020-05-21T09:41:50Z</time>
      </trkpt>
      <trkpt lat="47.34481" lon="-1.29021">
        <ele>16</ele>
        <time>2020-05-21T09:41:52Z</time>
      </trkpt>
      <trkpt lat="47.34475" lon="-1.2904">
        <ele>16.31</ele>
        <time>2020-05-21T09:41:54Z</time>
      </trkpt>
      <trkpt lat="47.34469" lon="-1.29061">
        <ele>15.79</ele>
        <time>2020-05-21T09:41:56Z</time>
      </trkpt>
      <trkpt lat="47.34464" lon="-1.29079">
        <ele>16.32</ele>
        <time>2020-05-21T09:41:58Z</time>
      </trkpt>
      <trkpt lat="47.34458" lon="-1.29098">
        <ele>15.63</ele>
        <time>2020-05-21T09:42:00Z</time>
      </trkpt>
      <trkpt lat="47.34454" lon="-1.29118">
        <ele>14.78</ele>
        <time>2020-05-21T09:42:02Z</time>
      </trkpt>
      <trkpt lat="47.34447" lon="-1.29129">
        <ele>14.06</ele>
        <time>2020-05-21T09:42:04Z</time>
      </trkpt>
      <trkpt lat="47.34441" lon="-1.2914">
        <ele>13.09</ele>
        <time>2020-05-21T09:42:06Z</time>
      </trkpt>
      <trkpt lat="47.34441" lon="-1.29158">
        <ele>12.67</ele>
        <time>2020-05-21T09:42:08Z</time>
      </trkpt>
      <trkpt lat="47.34441" lon="-1.29177">
        <ele>11.9</ele>
        <time>2020-05-21T09:42:10Z</time>
      </trkpt>
      <trkpt lat="47.3444" lon="-1.29201">
        <ele>10.79</ele>
        <time>2020-05-21T09:42:12Z</time>
      </trkpt>
      <trkpt lat="47.3444" lon="-1.29221">
        <ele>10.14</ele>
        <time>2020-05-21T09:42:14Z</time>
      </trkpt>
      <trkpt lat="47.34441" lon="-1.29244">
        <ele>9.53</ele>
        <time>2020-05-21T09:42:16Z</time>
      </trkpt>
      <trkpt lat="47.34441" lon="-1.29267">
        <ele>9.42</ele>
        <time>2020-05-21T09:42:18Z</time>
      </trkpt>
      <trkpt lat="47.34441" lon="-1.29287">
        <ele>9.5</ele>
        <time>2020-05-21T09:42:20Z</time>
      </trkpt>
      <trkpt lat="47.34442" lon="-1.29306">
        <ele>10.16</ele>
        <time>2020-05-21T09:42:22Z</time>
      </trkpt>
      <trkpt lat="47.34442" lon="-1.29329">
        <ele>10.54</ele>
        <time>2020-05-21T09:42:24Z</time>
      </trkpt>
      <trkpt lat="47.34442" lon="-1.29351">
        <ele>9.98</ele>
        <time>2020-05-21T09:42:26Z</time>
      </trkpt>
      <trkpt lat="47.34443" lon="-1.29372">
        <ele>9.18</ele>
        <time>2020-05-21T09:42:28Z</time>
      </trkpt>
      <trkpt lat="47.34444" lon="-1.29396">
        <ele>8.7</ele>
        <time>2020-05-21T09:42:30Z</time>
      </trkpt>
      <trkpt lat="47.34443" lon="-1.29415">
        <ele>7.74</ele>
        <time>2020-05-21T09:42:32Z</time>
      </trkpt>
      <trkpt lat="47.34442" lon="-1.29433">
        <ele>7.66</ele>
        <time>2020-05-21T09:42:34Z</time>
      </trkpt>
      <trkpt lat="47.34441" lon="-1.29458">
        <ele>7.84</ele>
        <time>2020-05-21T09:42:36Z</time>
      </trkpt>
      <trkpt lat="47.34438" lon="-1.29482">
        <ele>7.5</ele>
        <time>2020-05-21T09:42:38Z</time>
      </trkpt>
      <trkpt lat="47.34436" lon="-1.29501">
        <ele>7.2</ele>
        <time>2020-05-21T09:42:40Z</time>
      </trkpt>
      <trkpt lat="47.34433" lon="-1.29521">
        <ele>6.42</ele>
        <time>2020-05-21T09:42:42Z</time>
      </trkpt>
      <trkpt lat="47.3443" lon="-1.29542">
        <ele>6.15</ele>
        <time>2020-05-21T09:42:44Z</time>
      </trkpt>
      <trkpt lat="47.34427" lon="-1.29561">
        <ele>6.03</ele>
        <time>2020-05-21T09:42:46Z</time>
      </trkpt>
      <trkpt lat="47.34424" lon="-1.29581">
        <ele>6.87</ele>
        <time>2020-05-21T09:42:48Z</time>
      </trkpt>
      <trkpt lat="47.34421" lon="-1.29601">
        <ele>7.59</ele>
        <time>2020-05-21T09:42:50Z</time>
      </trkpt>
      <trkpt lat="47.34417" lon="-1.2962">
        <ele>7.8</ele>
        <time>2020-05-21T09:42:52Z</time>
      </trkpt>
      <trkpt lat="47.34413" lon="-1.2964">
        <ele>7.65</ele>
        <time>2020-05-21T09:42:54Z</time>
      </trkpt>
      <trkpt lat="47.34406" lon="-1.29659">
        <ele>7.68</ele>
        <time>2020-05-21T09:42:56Z</time>
      </trkpt>
      <trkpt lat="47.34398" lon="-1.29679">
        <ele>8.35</ele>
        <time>2020-05-21T09:42:58Z</time>
      </trkpt>
      <trkpt lat="47.3439" lon="-1.29696">
        <ele>8.11</ele>
        <time>2020-05-21T09:43:00Z</time>
      </trkpt>
      <trkpt lat="47.34382" lon="-1.29709">
        <ele>7.43</ele>
        <time>2020-05-21T09:43:02Z</time>
      </trkpt>
      <trkpt lat="47.34372" lon="-1.29727">
        <ele>7.48</ele>
        <time>2020-05-21T09:43:04Z</time>
      </trkpt>
      <trkpt lat="47.34364" lon="-1.29744">
        <ele>8.31</ele>
        <time>2020-05-21T09:43:06Z</time>
      </trkpt>
      <trkpt lat="47.34356" lon="-1.29761">
        <ele>9.01</ele>
        <time>2020-05-21T09:43:08Z</time>
      </trkpt>
      <trkpt lat="47.34347" lon="-1.29779">
        <ele>9.17</ele>
        <time>2020-05-21T09:43:10Z</time>
      </trkpt>
      <trkpt lat="47.3434" lon="-1.29794">
        <ele>9.1</ele>
        <time>2020-05-21T09:43:12Z</time>
      </trkpt>
      <trkpt lat="47.34332" lon="-1.29811">
        <ele>8.25</ele>
        <time>2020-05-21T09:43:14Z</time>
      </trkpt>
      <trkpt lat="47.34323" lon="-1.29828">
        <ele>7.29</ele>
        <time>2020-05-21T09:43:16Z</time>
      </trkpt>
      <trkpt lat="47.34316" lon="-1.29845">
        <ele>6.25</ele>
        <time>2020-05-21T09:43:18Z</time>
      </trkpt>
      <trkpt lat="47.34309" lon="-1.29863">
        <ele>6.2</ele>
        <time>2020-05-21T09:43:20Z</time>
      </trkpt>
      <trkpt lat="47.34303" lon="-1.29882">
        <ele>6.79</ele>
        <time>2020-05-21T09:43:22Z</time>
      </trkpt>
      <trkpt lat="47.34297" lon="-1.299">
        <ele>6.78</ele>
        <time>2020-05-21T09:43:24Z</time>
      </trkpt>
      <trkpt lat="47.34291" lon="-1.29917">
        <ele>6.52</ele>
        <time>2020-05-21T09:43:26Z</time>
      </trkpt>
      <trkpt lat="47.34286" lon="-1.29934">
        <ele>7.9</ele>
        <time>2020-05-21T09:43:28Z</time>
      </trkpt>
      <trkpt lat="47.34281" lon="-1.29952">
        <ele>9.42</ele>
        <time>2020-05-21T09:43:30Z</time>
      </trkpt>
      <trkpt lat="47.34276" lon="-1.2997">
        <ele>9.53</ele>
        <time>2020-05-21T09:43:32Z</time>
      </trkpt>
      <trkpt lat="47.34272" lon="-1.29988">
        <ele>8.8</ele>
        <time>2020-05-21T09:43:34Z</time>
      </trkpt>
      <trkpt lat="47.34268" lon="-1.30009">
        <ele>8.46</ele>
        <time>2020-05-21T09:43:36Z</time>
      </trkpt>
      <trkpt lat="47.34264" lon="-1.30025">
        <ele>9.65</ele>
        <time>2020-05-21T09:43:38Z</time>
      </trkpt>
      <trkpt lat="47.3426" lon="-1.30043">
        <ele>9.87</ele>
        <time>2020-05-21T09:43:40Z</time>
      </trkpt>
      <trkpt lat="47.34256" lon="-1.30061">
        <ele>9.17</ele>
        <time>2020-05-21T09:43:42Z</time>
      </trkpt>
      <trkpt lat="47.34252" lon="-1.30081">
        <ele>10.79</ele>
        <time>2020-05-21T09:43:44Z</time>
      </trkpt>
      <trkpt lat="47.34247" lon="-1.30101">
        <ele>12.6</ele>
        <time>2020-05-21T09:43:46Z</time>
      </trkpt>
      <trkpt lat="47.34243" lon="-1.30117">
        <ele>14.23</ele>
        <time>2020-05-21T09:43:48Z</time>
      </trkpt>
      <trkpt lat="47.34238" lon="-1.30135">
        <ele>14.44</ele>
        <time>2020-05-21T09:43:50Z</time>
      </trkpt>
      <trkpt lat="47.34233" lon="-1.30154">
        <ele>13.21</ele>
        <time>2020-05-21T09:43:52Z</time>
      </trkpt>
      <trkpt lat="47.34227" lon="-1.30172">
        <ele>12.53</ele>
        <time>2020-05-21T09:43:54Z</time>
      </trkpt>
      <trkpt lat="47.34221" lon="-1.3019">
        <ele>10.39</ele>
        <time>2020-05-21T09:43:56Z</time>
      </trkpt>
      <trkpt lat="47.34217" lon="-1.30206">
        <ele>8.91</ele>
        <time>2020-05-21T09:43:58Z</time>
      </trkpt>
      <trkpt lat="47.34212" lon="-1.3022">
        <ele>9.09</ele>
        <time>2020-05-21T09:44:00Z</time>
      </trkpt>
      <trkpt lat="47.34204" lon="-1.30239">
        <ele>8.28</ele>
        <time>2020-05-21T09:44:02Z</time>
      </trkpt>
      <trkpt lat="47.34197" lon="-1.30253">
        <ele>7.81</ele>
        <time>2020-05-21T09:44:04Z</time>
      </trkpt>
      <trkpt lat="47.3419" lon="-1.30269">
        <ele>8.28</ele>
        <time>2020-05-21T09:44:06Z</time>
      </trkpt>
      <trkpt lat="47.34184" lon="-1.30282">
        <ele>9.33</ele>
        <time>2020-05-21T09:44:08Z</time>
      </trkpt>
      <trkpt lat="47.34177" lon="-1.30295">
        <ele>10.01</ele>
        <time>2020-05-21T09:44:10Z</time>
      </trkpt>
      <trkpt lat="47.34171" lon="-1.30311">
        <ele>10.08</ele>
        <time>2020-05-21T09:44:12Z</time>
      </trkpt>
      <trkpt lat="47.34164" lon="-1.30327">
        <ele>10.08</ele>
        <time>2020-05-21T09:44:14Z</time>
      </trkpt>
      <trkpt lat="47.34159" lon="-1.3034">
        <ele>10.28</ele>
        <time>2020-05-21T09:44:16Z</time>
      </trkpt>
      <trkpt lat="47.34155" lon="-1.30353">
        <ele>10.92</ele>
        <time>2020-05-21T09:44:18Z</time>
      </trkpt>
      <trkpt lat="47.34149" lon="-1.30366">
        <ele>11.99</ele>
        <time>2020-05-21T09:44:20Z</time>
      </trkpt>
      <trkpt lat="47.34142" lon="-1.30383">
        <ele>13.37</ele>
        <time>2020-05-21T09:44:23Z</time>
      </trkpt>
      <trkpt lat="47.34136" lon="-1.30398">
        <ele>13.35</ele>
        <time>2020-05-21T09:44:25Z</time>
      </trkpt>
      <trkpt lat="47.34131" lon="-1.3041">
        <ele>12.65</ele>
        <time>2020-05-21T09:44:27Z</time>
      </trkpt>
      <trkpt lat="47.34122" lon="-1.30424">
        <ele>12.12</ele>
        <time>2020-05-21T09:44:29Z</time>
      </trkpt>
      <trkpt lat="47.34115" lon="-1.30439">
        <ele>12.32</ele>
        <time>2020-05-21T09:44:31Z</time>
      </trkpt>
      <trkpt lat="47.34111" lon="-1.30451">
        <ele>12.39</ele>
        <time>2020-05-21T09:44:33Z</time>
      </trkpt>
      <trkpt lat="47.34107" lon="-1.30467">
        <ele>12.31</ele>
        <time>2020-05-21T09:44:35Z</time>
      </trkpt>
      <trkpt lat="47.34103" lon="-1.3048">
        <ele>13.23</ele>
        <time>2020-05-21T09:44:37Z</time>
      </trkpt>
      <trkpt lat="47.34096" lon="-1.30497">
        <ele>13.8</ele>
        <time>2020-05-21T09:44:39Z</time>
      </trkpt>
      <trkpt lat="47.34089" lon="-1.30511">
        <ele>13.88</ele>
        <time>2020-05-21T09:44:41Z</time>
      </trkpt>
      <trkpt lat="47.34081" lon="-1.30529">
        <ele>14.09</ele>
        <time>2020-05-21T09:44:43Z</time>
      </trkpt>
      <trkpt lat="47.34072" lon="-1.30545">
        <ele>14.15</ele>
        <time>2020-05-21T09:44:45Z</time>
      </trkpt>
      <trkpt lat="47.34063" lon="-1.30562">
        <ele>13.73</ele>
        <time>2020-05-21T09:44:47Z</time>
      </trkpt>
      <trkpt lat="47.34054" lon="-1.30576">
        <ele>12.6</ele>
        <time>2020-05-21T09:44:49Z</time>
      </trkpt>
      <trkpt lat="47.34044" lon="-1.3059">
        <ele>11.55</ele>
        <time>2020-05-21T09:44:51Z</time>
      </trkpt>
      <trkpt lat="47.34035" lon="-1.30605">
        <ele>11.43</ele>
        <time>2020-05-21T09:44:53Z</time>
      </trkpt>
      <trkpt lat="47.34027" lon="-1.30619">
        <ele>11.06</ele>
        <time>2020-05-21T09:44:55Z</time>
      </trkpt>
      <trkpt lat="47.34018" lon="-1.30635">
        <ele>10.21</ele>
        <time>2020-05-21T09:44:57Z</time>
      </trkpt>
      <trkpt lat="47.34009" lon="-1.30649">
        <ele>9.31</ele>
        <time>2020-05-21T09:44:59Z</time>
      </trkpt>
      <trkpt lat="47.34" lon="-1.30663">
        <ele>9.08</ele>
        <time>2020-05-21T09:45:01Z</time>
      </trkpt>
      <trkpt lat="47.33991" lon="-1.30675">
        <ele>9.2</ele>
        <time>2020-05-21T09:45:03Z</time>
      </trkpt>
      <trkpt lat="47.33983" lon="-1.30687">
        <ele>8.89</ele>
        <time>2020-05-21T09:45:05Z</time>
      </trkpt>
      <trkpt lat="47.33973" lon="-1.30689">
        <ele>9.08</ele>
        <time>2020-05-21T09:45:07Z</time>
      </trkpt>
      <trkpt lat="47.33964" lon="-1.30679">
        <ele>9.04</ele>
        <time>2020-05-21T09:45:09Z</time>
      </trkpt>
      <trkpt lat="47.33954" lon="-1.30679">
        <ele>10.85</ele>
        <time>2020-05-21T09:45:13Z</time>
      </trkpt>
      <trkpt lat="47.33948" lon="-1.30695">
        <ele>8.54</ele>
        <time>2020-05-21T09:45:16Z</time>
      </trkpt>
      <trkpt lat="47.33941" lon="-1.30704">
        <ele>7.35</ele>
        <time>2020-05-21T09:45:18Z</time>
      </trkpt>
      <trkpt lat="47.33932" lon="-1.30715">
        <ele>7.58</ele>
        <time>2020-05-21T09:45:20Z</time>
      </trkpt>
      <trkpt lat="47.33924" lon="-1.30726">
        <ele>8.47</ele>
        <time>2020-05-21T09:45:22Z</time>
      </trkpt>
      <trkpt lat="47.33918" lon="-1.30736">
        <ele>8.44</ele>
        <time>2020-05-21T09:45:24Z</time>
      </trkpt>
      <trkpt lat="47.33909" lon="-1.30749">
        <ele>9.37</ele>
        <time>2020-05-21T09:45:26Z</time>
      </trkpt>
      <trkpt lat="47.33902" lon="-1.30759">
        <ele>9.59</ele>
        <time>2020-05-21T09:45:28Z</time>
      </trkpt>
      <trkpt lat="47.33893" lon="-1.30769">
        <ele>9.51</ele>
        <time>2020-05-21T09:45:30Z</time>
      </trkpt>
      <trkpt lat="47.33882" lon="-1.30781">
        <ele>8.36</ele>
        <time>2020-05-21T09:45:33Z</time>
      </trkpt>
      <trkpt lat="47.3387" lon="-1.30793">
        <ele>7.73</ele>
        <time>2020-05-21T09:45:36Z</time>
      </trkpt>
      <trkpt lat="47.3386" lon="-1.30801">
        <ele>7.58</ele>
        <time>2020-05-21T09:45:38Z</time>
      </trkpt>
      <trkpt lat="47.33851" lon="-1.30809">
        <ele>8.34</ele>
        <time>2020-05-21T09:45:40Z</time>
      </trkpt>
      <trkpt lat="47.33841" lon="-1.3082">
        <ele>9.43</ele>
        <time>2020-05-21T09:45:42Z</time>
      </trkpt>
      <trkpt lat="47.33832" lon="-1.30828">
        <ele>9.89</ele>
        <time>2020-05-21T09:45:44Z</time>
      </trkpt>
      <trkpt lat="47.33819" lon="-1.3084">
        <ele>10.07</ele>
        <time>2020-05-21T09:45:47Z</time>
      </trkpt>
      <trkpt lat="47.33811" lon="-1.30847">
        <ele>10.35</ele>
        <time>2020-05-21T09:45:49Z</time>
      </trkpt>
      <trkpt lat="47.33801" lon="-1.30856">
        <ele>9.32</ele>
        <time>2020-05-21T09:45:51Z</time>
      </trkpt>
      <trkpt lat="47.33792" lon="-1.30865">
        <ele>9.06</ele>
        <time>2020-05-21T09:45:53Z</time>
      </trkpt>
      <trkpt lat="47.33782" lon="-1.30876">
        <ele>8.82</ele>
        <time>2020-05-21T09:45:55Z</time>
      </trkpt>
      <trkpt lat="47.33772" lon="-1.30887">
        <ele>9.82</ele>
        <time>2020-05-21T09:45:57Z</time>
      </trkpt>
      <trkpt lat="47.3376" lon="-1.30899">
        <ele>10.37</ele>
        <time>2020-05-21T09:46:00Z</time>
      </trkpt>
      <trkpt lat="47.33751" lon="-1.30909">
        <ele>10.85</ele>
        <time>2020-05-21T09:46:02Z</time>
      </trkpt>
      <trkpt lat="47.33741" lon="-1.3092">
        <ele>10.64</ele>
        <time>2020-05-21T09:46:04Z</time>
      </trkpt>
      <trkpt lat="47.33731" lon="-1.30931">
        <ele>9.62</ele>
        <time>2020-05-21T09:46:06Z</time>
      </trkpt>
      <trkpt lat="47.33724" lon="-1.30941">
        <ele>8.81</ele>
        <time>2020-05-21T09:46:08Z</time>
      </trkpt>
      <trkpt lat="47.33716" lon="-1.30951">
        <ele>9.06</ele>
        <time>2020-05-21T09:46:10Z</time>
      </trkpt>
      <trkpt lat="47.33706" lon="-1.30962">
        <ele>9.23</ele>
        <time>2020-05-21T09:46:12Z</time>
      </trkpt>
      <trkpt lat="47.33697" lon="-1.30972">
        <ele>9.96</ele>
        <time>2020-05-21T09:46:14Z</time>
      </trkpt>
      <trkpt lat="47.33688" lon="-1.30981">
        <ele>10.62</ele>
        <time>2020-05-21T09:46:16Z</time>
      </trkpt>
      <trkpt lat="47.33679" lon="-1.30988">
        <ele>10.37</ele>
        <time>2020-05-21T09:46:18Z</time>
      </trkpt>
      <trkpt lat="47.33674" lon="-1.31">
        <ele>10.22</ele>
        <time>2020-05-21T09:46:20Z</time>
      </trkpt>
      <trkpt lat="47.33666" lon="-1.3101">
        <ele>10.41</ele>
        <time>2020-05-21T09:46:22Z</time>
      </trkpt>
      <trkpt lat="47.33656" lon="-1.31026">
        <ele>10.35</ele>
        <time>2020-05-21T09:46:24Z</time>
      </trkpt>
      <trkpt lat="47.33647" lon="-1.31041">
        <ele>11.58</ele>
        <time>2020-05-21T09:46:26Z</time>
      </trkpt>
      <trkpt lat="47.33639" lon="-1.31054">
        <ele>12.33</ele>
        <time>2020-05-21T09:46:28Z</time>
      </trkpt>
      <trkpt lat="47.3363" lon="-1.31065">
        <ele>12.13</ele>
        <time>2020-05-21T09:46:30Z</time>
      </trkpt>
      <trkpt lat="47.3362" lon="-1.31079">
        <ele>11.52</ele>
        <time>2020-05-21T09:46:32Z</time>
      </trkpt>
      <trkpt lat="47.3361" lon="-1.31093">
        <ele>12.49</ele>
        <time>2020-05-21T09:46:34Z</time>
      </trkpt>
      <trkpt lat="47.33602" lon="-1.31107">
        <ele>12.66</ele>
        <time>2020-05-21T09:46:36Z</time>
      </trkpt>
      <trkpt lat="47.33596" lon="-1.31121">
        <ele>11.07</ele>
        <time>2020-05-21T09:46:38Z</time>
      </trkpt>
      <trkpt lat="47.33587" lon="-1.31136">
        <ele>10.01</ele>
        <time>2020-05-21T09:46:40Z</time>
      </trkpt>
      <trkpt lat="47.33577" lon="-1.31152">
        <ele>8.31</ele>
        <time>2020-05-21T09:46:42Z</time>
      </trkpt>
      <trkpt lat="47.3357" lon="-1.31167">
        <ele>7.7</ele>
        <time>2020-05-21T09:46:44Z</time>
      </trkpt>
      <trkpt lat="47.33563" lon="-1.31182">
        <ele>6.56</ele>
        <time>2020-05-21T09:46:46Z</time>
      </trkpt>
      <trkpt lat="47.33557" lon="-1.31195">
        <ele>6.46</ele>
        <time>2020-05-21T09:46:48Z</time>
      </trkpt>
      <trkpt lat="47.3355" lon="-1.31209">
        <ele>7.6</ele>
        <time>2020-05-21T09:46:50Z</time>
      </trkpt>
      <trkpt lat="47.33543" lon="-1.31224">
        <ele>8.59</ele>
        <time>2020-05-21T09:46:53Z</time>
      </trkpt>
      <trkpt lat="47.33535" lon="-1.31237">
        <ele>8.8</ele>
        <time>2020-05-21T09:46:55Z</time>
      </trkpt>
      <trkpt lat="47.33527" lon="-1.31251">
        <ele>8.31</ele>
        <time>2020-05-21T09:46:57Z</time>
      </trkpt>
      <trkpt lat="47.33519" lon="-1.31266">
        <ele>7.5</ele>
        <time>2020-05-21T09:46:59Z</time>
      </trkpt>
      <trkpt lat="47.33512" lon="-1.31279">
        <ele>7.68</ele>
        <time>2020-05-21T09:47:01Z</time>
      </trkpt>
      <trkpt lat="47.33506" lon="-1.31289">
        <ele>7.57</ele>
        <time>2020-05-21T09:47:03Z</time>
      </trkpt>
      <trkpt lat="47.33501" lon="-1.313">
        <ele>7.47</ele>
        <time>2020-05-21T09:47:06Z</time>
      </trkpt>
      <trkpt lat="47.33496" lon="-1.31312">
        <ele>7.91</ele>
        <time>2020-05-21T09:47:11Z</time>
      </trkpt>
      <trkpt lat="47.33492" lon="-1.31325">
        <ele>8.27</ele>
        <time>2020-05-21T09:47:16Z</time>
      </trkpt>
      <trkpt lat="47.33488" lon="-1.31337">
        <ele>8.88</ele>
        <time>2020-05-21T09:47:22Z</time>
      </trkpt>
      <trkpt lat="47.33481" lon="-1.31347">
        <ele>9.04</ele>
        <time>2020-05-21T09:47:28Z</time>
      </trkpt>
      <trkpt lat="47.33473" lon="-1.31358">
        <ele>8.69</ele>
        <time>2020-05-21T09:47:33Z</time>
      </trkpt>
      <trkpt lat="47.33467" lon="-1.31369">
        <ele>9.24</ele>
        <time>2020-05-21T09:47:48Z</time>
      </trkpt>
      <trkpt lat="47.33462" lon="-1.3138">
        <ele>9.84</ele>
        <time>2020-05-21T09:48:01Z</time>
      </trkpt>
      <trkpt lat="47.33457" lon="-1.31393">
        <ele>9.63</ele>
        <time>2020-05-21T09:48:06Z</time>
      </trkpt>
      <trkpt lat="47.33451" lon="-1.31407">
        <ele>9.84</ele>
        <time>2020-05-21T09:48:10Z</time>
      </trkpt>
      <trkpt lat="47.33444" lon="-1.31418">
        <ele>9.92</ele>
        <time>2020-05-21T09:48:13Z</time>
      </trkpt>
      <trkpt lat="47.33438" lon="-1.31431">
        <ele>9.46</ele>
        <time>2020-05-21T09:48:15Z</time>
      </trkpt>
      <trkpt lat="47.33432" lon="-1.31445">
        <ele>9.8</ele>
        <time>2020-05-21T09:48:17Z</time>
      </trkpt>
      <trkpt lat="47.33427" lon="-1.31456">
        <ele>11.06</ele>
        <time>2020-05-21T09:48:19Z</time>
      </trkpt>
      <trkpt lat="47.33421" lon="-1.31469">
        <ele>11.21</ele>
        <time>2020-05-21T09:48:21Z</time>
      </trkpt>
      <trkpt lat="47.33415" lon="-1.31482">
        <ele>11.57</ele>
        <time>2020-05-21T09:48:23Z</time>
      </trkpt>
      <trkpt lat="47.33409" lon="-1.31496">
        <ele>11.88</ele>
        <time>2020-05-21T09:48:25Z</time>
      </trkpt>
      <trkpt lat="47.33399" lon="-1.31514">
        <ele>11.45</ele>
        <time>2020-05-21T09:48:27Z</time>
      </trkpt>
      <trkpt lat="47.33391" lon="-1.31529">
        <ele>11.7</ele>
        <time>2020-05-21T09:48:29Z</time>
      </trkpt>
      <trkpt lat="47.33382" lon="-1.31547">
        <ele>11.02</ele>
        <time>2020-05-21T09:48:31Z</time>
      </trkpt>
      <trkpt lat="47.33374" lon="-1.31564">
        <ele>10.9</ele>
        <time>2020-05-21T09:48:33Z</time>
      </trkpt>
      <trkpt lat="47.33365" lon="-1.31582">
        <ele>10.57</ele>
        <time>2020-05-21T09:48:35Z</time>
      </trkpt>
      <trkpt lat="47.33357" lon="-1.31595">
        <ele>10.59</ele>
        <time>2020-05-21T09:48:37Z</time>
      </trkpt>
      <trkpt lat="47.33348" lon="-1.31611">
        <ele>10.95</ele>
        <time>2020-05-21T09:48:39Z</time>
      </trkpt>
      <trkpt lat="47.33341" lon="-1.31625">
        <ele>11.43</ele>
        <time>2020-05-21T09:48:41Z</time>
      </trkpt>
      <trkpt lat="47.33332" lon="-1.31641">
        <ele>12.67</ele>
        <time>2020-05-21T09:48:43Z</time>
      </trkpt>
      <trkpt lat="47.33324" lon="-1.31654">
        <ele>12.42</ele>
        <time>2020-05-21T09:48:45Z</time>
      </trkpt>
      <trkpt lat="47.33318" lon="-1.31667">
        <ele>10.39</ele>
        <time>2020-05-21T09:48:47Z</time>
      </trkpt>
      <trkpt lat="47.33309" lon="-1.31682">
        <ele>9.16</ele>
        <time>2020-05-21T09:48:49Z</time>
      </trkpt>
      <trkpt lat="47.33301" lon="-1.31696">
        <ele>9.52</ele>
        <time>2020-05-21T09:48:51Z</time>
      </trkpt>
      <trkpt lat="47.33293" lon="-1.31711">
        <ele>9.99</ele>
        <time>2020-05-21T09:48:53Z</time>
      </trkpt>
      <trkpt lat="47.33286" lon="-1.31727">
        <ele>9.25</ele>
        <time>2020-05-21T09:48:55Z</time>
      </trkpt>
      <trkpt lat="47.33277" lon="-1.31744">
        <ele>9.12</ele>
        <time>2020-05-21T09:48:57Z</time>
      </trkpt>
      <trkpt lat="47.33269" lon="-1.31758">
        <ele>9.23</ele>
        <time>2020-05-21T09:48:59Z</time>
      </trkpt>
      <trkpt lat="47.33261" lon="-1.31774">
        <ele>11.31</ele>
        <time>2020-05-21T09:49:01Z</time>
      </trkpt>
      <trkpt lat="47.33251" lon="-1.31791">
        <ele>12.3</ele>
        <time>2020-05-21T09:49:03Z</time>
      </trkpt>
      <trkpt lat="47.33242" lon="-1.31808">
        <ele>13.03</ele>
        <time>2020-05-21T09:49:05Z</time>
      </trkpt>
      <trkpt lat="47.33234" lon="-1.31823">
        <ele>12.7</ele>
        <time>2020-05-21T09:49:07Z</time>
      </trkpt>
      <trkpt lat="47.33227" lon="-1.31836">
        <ele>11.77</ele>
        <time>2020-05-21T09:49:09Z</time>
      </trkpt>
      <trkpt lat="47.33218" lon="-1.31852">
        <ele>11.04</ele>
        <time>2020-05-21T09:49:11Z</time>
      </trkpt>
      <trkpt lat="47.33209" lon="-1.31868">
        <ele>11.1</ele>
        <time>2020-05-21T09:49:13Z</time>
      </trkpt>
      <trkpt lat="47.332" lon="-1.31883">
        <ele>10.48</ele>
        <time>2020-05-21T09:49:15Z</time>
      </trkpt>
      <trkpt lat="47.33193" lon="-1.31898">
        <ele>9.47</ele>
        <time>2020-05-21T09:49:17Z</time>
      </trkpt>
      <trkpt lat="47.33185" lon="-1.31912">
        <ele>8.12</ele>
        <time>2020-05-21T09:49:19Z</time>
      </trkpt>
      <trkpt lat="47.33176" lon="-1.31929">
        <ele>6.21</ele>
        <time>2020-05-21T09:49:21Z</time>
      </trkpt>
      <trkpt lat="47.33171" lon="-1.31942">
        <ele>4.86</ele>
        <time>2020-05-21T09:49:23Z</time>
      </trkpt>
      <trkpt lat="47.33163" lon="-1.31956">
        <ele>5.66</ele>
        <time>2020-05-21T09:49:25Z</time>
      </trkpt>
      <trkpt lat="47.33155" lon="-1.3197">
        <ele>6.45</ele>
        <time>2020-05-21T09:49:27Z</time>
      </trkpt>
      <trkpt lat="47.33147" lon="-1.31979">
        <ele>8.27</ele>
        <time>2020-05-21T09:49:29Z</time>
      </trkpt>
      <trkpt lat="47.33138" lon="-1.31985">
        <ele>9.41</ele>
        <time>2020-05-21T09:49:31Z</time>
      </trkpt>
      <trkpt lat="47.33129" lon="-1.3199">
        <ele>11.31</ele>
        <time>2020-05-21T09:49:33Z</time>
      </trkpt>
      <trkpt lat="47.33121" lon="-1.31996">
        <ele>11.21</ele>
        <time>2020-05-21T09:49:35Z</time>
      </trkpt>
      <trkpt lat="47.33112" lon="-1.32006">
        <ele>9.49</ele>
        <time>2020-05-21T09:49:37Z</time>
      </trkpt>
      <trkpt lat="47.33105" lon="-1.32022">
        <ele>9.02</ele>
        <time>2020-05-21T09:49:40Z</time>
      </trkpt>
      <trkpt lat="47.33098" lon="-1.32036">
        <ele>8.93</ele>
        <time>2020-05-21T09:49:43Z</time>
      </trkpt>
      <trkpt lat="47.33092" lon="-1.32048">
        <ele>8.84</ele>
        <time>2020-05-21T09:49:46Z</time>
      </trkpt>
      <trkpt lat="47.33097" lon="-1.32062">
        <ele>8.8</ele>
        <time>2020-05-21T09:49:49Z</time>
      </trkpt>
      <trkpt lat="47.33097" lon="-1.32075">
        <ele>8.86</ele>
        <time>2020-05-21T09:49:52Z</time>
      </trkpt>
      <trkpt lat="47.33093" lon="-1.32095">
        <ele>9.19</ele>
        <time>2020-05-21T09:49:55Z</time>
      </trkpt>
      <trkpt lat="47.33087" lon="-1.32112">
        <ele>10.99</ele>
        <time>2020-05-21T09:49:58Z</time>
      </trkpt>
      <trkpt lat="47.33082" lon="-1.32123">
        <ele>10.21</ele>
        <time>2020-05-21T09:50:00Z</time>
      </trkpt>
      <trkpt lat="47.33072" lon="-1.3214">
        <ele>9.32</ele>
        <time>2020-05-21T09:50:02Z</time>
      </trkpt>
      <trkpt lat="47.33062" lon="-1.32157">
        <ele>9.05</ele>
        <time>2020-05-21T09:50:04Z</time>
      </trkpt>
      <trkpt lat="47.33053" lon="-1.32174">
        <ele>8.49</ele>
        <time>2020-05-21T09:50:06Z</time>
      </trkpt>
      <trkpt lat="47.33045" lon="-1.32193">
        <ele>8.07</ele>
        <time>2020-05-21T09:50:08Z</time>
      </trkpt>
      <trkpt lat="47.33038" lon="-1.32208">
        <ele>7.62</ele>
        <time>2020-05-21T09:50:10Z</time>
      </trkpt>
      <trkpt lat="47.33029" lon="-1.32227">
        <ele>7.75</ele>
        <time>2020-05-21T09:50:12Z</time>
      </trkpt>
      <trkpt lat="47.3302" lon="-1.32241">
        <ele>6.79</ele>
        <time>2020-05-21T09:50:14Z</time>
      </trkpt>
      <trkpt lat="47.33011" lon="-1.32258">
        <ele>6.96</ele>
        <time>2020-05-21T09:50:16Z</time>
      </trkpt>
      <trkpt lat="47.33001" lon="-1.32276">
        <ele>7.4</ele>
        <time>2020-05-21T09:50:18Z</time>
      </trkpt>
      <trkpt lat="47.32993" lon="-1.32293">
        <ele>7.33</ele>
        <time>2020-05-21T09:50:20Z</time>
      </trkpt>
      <trkpt lat="47.32985" lon="-1.32309">
        <ele>7.3</ele>
        <time>2020-05-21T09:50:22Z</time>
      </trkpt>
      <trkpt lat="47.32976" lon="-1.32325">
        <ele>8.37</ele>
        <time>2020-05-21T09:50:24Z</time>
      </trkpt>
      <trkpt lat="47.32969" lon="-1.32338">
        <ele>8.84</ele>
        <time>2020-05-21T09:50:26Z</time>
      </trkpt>
      <trkpt lat="47.32961" lon="-1.32353">
        <ele>8.34</ele>
        <time>2020-05-21T09:50:28Z</time>
      </trkpt>
      <trkpt lat="47.32952" lon="-1.32371">
        <ele>7.45</ele>
        <time>2020-05-21T09:50:30Z</time>
      </trkpt>
      <trkpt lat="47.32943" lon="-1.32389">
        <ele>7.95</ele>
        <time>2020-05-21T09:50:32Z</time>
      </trkpt>
      <trkpt lat="47.32936" lon="-1.32404">
        <ele>8.1</ele>
        <time>2020-05-21T09:50:34Z</time>
      </trkpt>
      <trkpt lat="47.32927" lon="-1.32421">
        <ele>7.84</ele>
        <time>2020-05-21T09:50:36Z</time>
      </trkpt>
      <trkpt lat="47.32919" lon="-1.32436">
        <ele>8.61</ele>
        <time>2020-05-21T09:50:38Z</time>
      </trkpt>
      <trkpt lat="47.3291" lon="-1.32452">
        <ele>9.04</ele>
        <time>2020-05-21T09:50:40Z</time>
      </trkpt>
      <trkpt lat="47.32902" lon="-1.32468">
        <ele>9.52</ele>
        <time>2020-05-21T09:50:42Z</time>
      </trkpt>
      <trkpt lat="47.32894" lon="-1.32483">
        <ele>8.98</ele>
        <time>2020-05-21T09:50:44Z</time>
      </trkpt>
      <trkpt lat="47.32886" lon="-1.32499">
        <ele>7.82</ele>
        <time>2020-05-21T09:50:46Z</time>
      </trkpt>
      <trkpt lat="47.32876" lon="-1.32515">
        <ele>7.39</ele>
        <time>2020-05-21T09:50:48Z</time>
      </trkpt>
      <trkpt lat="47.32869" lon="-1.3253">
        <ele>7.59</ele>
        <time>2020-05-21T09:50:50Z</time>
      </trkpt>
      <trkpt lat="47.32861" lon="-1.32546">
        <ele>8.36</ele>
        <time>2020-05-21T09:50:52Z</time>
      </trkpt>
      <trkpt lat="47.32853" lon="-1.32563">
        <ele>7.91</ele>
        <time>2020-05-21T09:50:54Z</time>
      </trkpt>
      <trkpt lat="47.32845" lon="-1.3258">
        <ele>6.55</ele>
        <time>2020-05-21T09:50:56Z</time>
      </trkpt>
      <trkpt lat="47.32836" lon="-1.32595">
        <ele>6.56</ele>
        <time>2020-05-21T09:50:58Z</time>
      </trkpt>
      <trkpt lat="47.32829" lon="-1.32608">
        <ele>7.13</ele>
        <time>2020-05-21T09:51:00Z</time>
      </trkpt>
      <trkpt lat="47.32822" lon="-1.32619">
        <ele>7.91</ele>
        <time>2020-05-21T09:51:02Z</time>
      </trkpt>
      <trkpt lat="47.32813" lon="-1.32632">
        <ele>9.59</ele>
        <time>2020-05-21T09:51:04Z</time>
      </trkpt>
      <trkpt lat="47.32805" lon="-1.32645">
        <ele>10.28</ele>
        <time>2020-05-21T09:51:06Z</time>
      </trkpt>
      <trkpt lat="47.32796" lon="-1.32656">
        <ele>11.12</ele>
        <time>2020-05-21T09:51:08Z</time>
      </trkpt>
      <trkpt lat="47.32788" lon="-1.32671">
        <ele>11.63</ele>
        <time>2020-05-21T09:51:10Z</time>
      </trkpt>
      <trkpt lat="47.3278" lon="-1.32688">
        <ele>10.72</ele>
        <time>2020-05-21T09:51:12Z</time>
      </trkpt>
      <trkpt lat="47.32774" lon="-1.32702">
        <ele>10.57</ele>
        <time>2020-05-21T09:51:14Z</time>
      </trkpt>
      <trkpt lat="47.32767" lon="-1.3272">
        <ele>9.93</ele>
        <time>2020-05-21T09:51:16Z</time>
      </trkpt>
      <trkpt lat="47.3276" lon="-1.32736">
        <ele>9.62</ele>
        <time>2020-05-21T09:51:18Z</time>
      </trkpt>
      <trkpt lat="47.32753" lon="-1.32752">
        <ele>9.26</ele>
        <time>2020-05-21T09:51:20Z</time>
      </trkpt>
      <trkpt lat="47.32746" lon="-1.32767">
        <ele>9.17</ele>
        <time>2020-05-21T09:51:22Z</time>
      </trkpt>
      <trkpt lat="47.32738" lon="-1.32783">
        <ele>9.07</ele>
        <time>2020-05-21T09:51:24Z</time>
      </trkpt>
      <trkpt lat="47.32729" lon="-1.32797">
        <ele>9.65</ele>
        <time>2020-05-21T09:51:26Z</time>
      </trkpt>
      <trkpt lat="47.32722" lon="-1.32809">
        <ele>9.68</ele>
        <time>2020-05-21T09:51:28Z</time>
      </trkpt>
      <trkpt lat="47.32713" lon="-1.32823">
        <ele>9.25</ele>
        <time>2020-05-21T09:51:30Z</time>
      </trkpt>
      <trkpt lat="47.32704" lon="-1.32835">
        <ele>9.79</ele>
        <time>2020-05-21T09:51:32Z</time>
      </trkpt>
      <trkpt lat="47.32695" lon="-1.32849">
        <ele>10.25</ele>
        <time>2020-05-21T09:51:34Z</time>
      </trkpt>
      <trkpt lat="47.32687" lon="-1.32859">
        <ele>11.07</ele>
        <time>2020-05-21T09:51:36Z</time>
      </trkpt>
      <trkpt lat="47.32679" lon="-1.32875">
        <ele>11.52</ele>
        <time>2020-05-21T09:51:39Z</time>
      </trkpt>
      <trkpt lat="47.32668" lon="-1.32888">
        <ele>10.62</ele>
        <time>2020-05-21T09:51:41Z</time>
      </trkpt>
      <trkpt lat="47.32662" lon="-1.32898">
        <ele>9.42</ele>
        <time>2020-05-21T09:51:43Z</time>
      </trkpt>
      <trkpt lat="47.32654" lon="-1.32911">
        <ele>8.51</ele>
        <time>2020-05-21T09:51:45Z</time>
      </trkpt>
      <trkpt lat="47.32645" lon="-1.32924">
        <ele>9.68</ele>
        <time>2020-05-21T09:51:47Z</time>
      </trkpt>
      <trkpt lat="47.32634" lon="-1.32932">
        <ele>9.37</ele>
        <time>2020-05-21T09:51:49Z</time>
      </trkpt>
      <trkpt lat="47.32626" lon="-1.32941">
        <ele>8.03</ele>
        <time>2020-05-21T09:51:51Z</time>
      </trkpt>
      <trkpt lat="47.32617" lon="-1.32951">
        <ele>7.65</ele>
        <time>2020-05-21T09:51:53Z</time>
      </trkpt>
      <trkpt lat="47.32609" lon="-1.3296">
        <ele>6.94</ele>
        <time>2020-05-21T09:51:55Z</time>
      </trkpt>
      <trkpt lat="47.326" lon="-1.32972">
        <ele>6.93</ele>
        <time>2020-05-21T09:51:57Z</time>
      </trkpt>
      <trkpt lat="47.32592" lon="-1.32984">
        <ele>6.88</ele>
        <time>2020-05-21T09:51:59Z</time>
      </trkpt>
      <trkpt lat="47.32583" lon="-1.32997">
        <ele>8.17</ele>
        <time>2020-05-21T09:52:01Z</time>
      </trkpt>
      <trkpt lat="47.32574" lon="-1.33008">
        <ele>9.19</ele>
        <time>2020-05-21T09:52:03Z</time>
      </trkpt>
      <trkpt lat="47.32564" lon="-1.33019">
        <ele>9.55</ele>
        <time>2020-05-21T09:52:05Z</time>
      </trkpt>
      <trkpt lat="47.32556" lon="-1.33027">
        <ele>9.58</ele>
        <time>2020-05-21T09:52:07Z</time>
      </trkpt>
      <trkpt lat="47.32545" lon="-1.33037">
        <ele>9.44</ele>
        <time>2020-05-21T09:52:09Z</time>
      </trkpt>
      <trkpt lat="47.32535" lon="-1.33045">
        <ele>9.65</ele>
        <time>2020-05-21T09:52:11Z</time>
      </trkpt>
      <trkpt lat="47.32523" lon="-1.33055">
        <ele>10.3</ele>
        <time>2020-05-21T09:52:13Z</time>
      </trkpt>
      <trkpt lat="47.32512" lon="-1.33066">
        <ele>10.04</ele>
        <time>2020-05-21T09:52:15Z</time>
      </trkpt>
      <trkpt lat="47.325" lon="-1.33078">
        <ele>10.04</ele>
        <time>2020-05-21T09:52:17Z</time>
      </trkpt>
      <trkpt lat="47.32489" lon="-1.33089">
        <ele>9.91</ele>
        <time>2020-05-21T09:52:19Z</time>
      </trkpt>
      <trkpt lat="47.32479" lon="-1.33098">
        <ele>10.13</ele>
        <time>2020-05-21T09:52:21Z</time>
      </trkpt>
      <trkpt lat="47.32471" lon="-1.33107">
        <ele>10.37</ele>
        <time>2020-05-21T09:52:23Z</time>
      </trkpt>
      <trkpt lat="47.32461" lon="-1.33118">
        <ele>9.24</ele>
        <time>2020-05-21T09:52:25Z</time>
      </trkpt>
      <trkpt lat="47.32451" lon="-1.33129">
        <ele>8.02</ele>
        <time>2020-05-21T09:52:27Z</time>
      </trkpt>
      <trkpt lat="47.32443" lon="-1.3314">
        <ele>6.92</ele>
        <time>2020-05-21T09:52:29Z</time>
      </trkpt>
      <trkpt lat="47.32433" lon="-1.33146">
        <ele>6.44</ele>
        <time>2020-05-21T09:52:31Z</time>
      </trkpt>
      <trkpt lat="47.32422" lon="-1.33146">
        <ele>4.68</ele>
        <time>2020-05-21T09:52:34Z</time>
      </trkpt>
      <trkpt lat="47.32414" lon="-1.33155">
        <ele>3.91</ele>
        <time>2020-05-21T09:52:36Z</time>
      </trkpt>
      <trkpt lat="47.32405" lon="-1.33168">
        <ele>3.77</ele>
        <time>2020-05-21T09:52:38Z</time>
      </trkpt>
      <trkpt lat="47.32397" lon="-1.33179">
        <ele>4.93</ele>
        <time>2020-05-21T09:52:40Z</time>
      </trkpt>
      <trkpt lat="47.3239" lon="-1.33188">
        <ele>6.68</ele>
        <time>2020-05-21T09:52:42Z</time>
      </trkpt>
      <trkpt lat="47.32382" lon="-1.33201">
        <ele>8.23</ele>
        <time>2020-05-21T09:52:44Z</time>
      </trkpt>
      <trkpt lat="47.32375" lon="-1.33214">
        <ele>8.9</ele>
        <time>2020-05-21T09:52:46Z</time>
      </trkpt>
      <trkpt lat="47.32367" lon="-1.33226">
        <ele>9.35</ele>
        <time>2020-05-21T09:52:48Z</time>
      </trkpt>
      <trkpt lat="47.32361" lon="-1.33238">
        <ele>10.4</ele>
        <time>2020-05-21T09:52:50Z</time>
      </trkpt>
      <trkpt lat="47.32354" lon="-1.33252">
        <ele>10.1</ele>
        <time>2020-05-21T09:52:52Z</time>
      </trkpt>
      <trkpt lat="47.32348" lon="-1.33264">
        <ele>10.67</ele>
        <time>2020-05-21T09:52:54Z</time>
      </trkpt>
      <trkpt lat="47.32341" lon="-1.33282">
        <ele>10.32</ele>
        <time>2020-05-21T09:52:56Z</time>
      </trkpt>
      <trkpt lat="47.32335" lon="-1.33295">
        <ele>9.06</ele>
        <time>2020-05-21T09:52:58Z</time>
      </trkpt>
      <trkpt lat="47.32328" lon="-1.33312">
        <ele>8.74</ele>
        <time>2020-05-21T09:53:00Z</time>
      </trkpt>
      <trkpt lat="47.32321" lon="-1.33329">
        <ele>8.12</ele>
        <time>2020-05-21T09:53:02Z</time>
      </trkpt>
      <trkpt lat="47.32316" lon="-1.33342">
        <ele>7.44</ele>
        <time>2020-05-21T09:53:04Z</time>
      </trkpt>
      <trkpt lat="47.32309" lon="-1.33358">
        <ele>6.7</ele>
        <time>2020-05-21T09:53:06Z</time>
      </trkpt>
      <trkpt lat="47.32303" lon="-1.33373">
        <ele>8.4</ele>
        <time>2020-05-21T09:53:08Z</time>
      </trkpt>
      <trkpt lat="47.32295" lon="-1.33389">
        <ele>9.2</ele>
        <time>2020-05-21T09:53:10Z</time>
      </trkpt>
      <trkpt lat="47.32288" lon="-1.33405">
        <ele>8.79</ele>
        <time>2020-05-21T09:53:12Z</time>
      </trkpt>
      <trkpt lat="47.32282" lon="-1.33418">
        <ele>8.83</ele>
        <time>2020-05-21T09:53:14Z</time>
      </trkpt>
      <trkpt lat="47.32273" lon="-1.33436">
        <ele>9.78</ele>
        <time>2020-05-21T09:53:16Z</time>
      </trkpt>
      <trkpt lat="47.32266" lon="-1.3345">
        <ele>10.04</ele>
        <time>2020-05-21T09:53:18Z</time>
      </trkpt>
      <trkpt lat="47.32259" lon="-1.33465">
        <ele>10.68</ele>
        <time>2020-05-21T09:53:20Z</time>
      </trkpt>
      <trkpt lat="47.32252" lon="-1.33479">
        <ele>10.65</ele>
        <time>2020-05-21T09:53:22Z</time>
      </trkpt>
      <trkpt lat="47.32246" lon="-1.33494">
        <ele>9.8</ele>
        <time>2020-05-21T09:53:24Z</time>
      </trkpt>
      <trkpt lat="47.32239" lon="-1.33509">
        <ele>9.07</ele>
        <time>2020-05-21T09:53:26Z</time>
      </trkpt>
      <trkpt lat="47.32231" lon="-1.33526">
        <ele>9.18</ele>
        <time>2020-05-21T09:53:28Z</time>
      </trkpt>
      <trkpt lat="47.32225" lon="-1.33539">
        <ele>11.11</ele>
        <time>2020-05-21T09:53:30Z</time>
      </trkpt>
      <trkpt lat="47.32218" lon="-1.33552">
        <ele>12.68</ele>
        <time>2020-05-21T09:53:32Z</time>
      </trkpt>
      <trkpt lat="47.3221" lon="-1.3357">
        <ele>12.32</ele>
        <time>2020-05-21T09:53:34Z</time>
      </trkpt>
      <trkpt lat="47.32202" lon="-1.33586">
        <ele>11.4</ele>
        <time>2020-05-21T09:53:36Z</time>
      </trkpt>
      <trkpt lat="47.32198" lon="-1.33598">
        <ele>10.67</ele>
        <time>2020-05-21T09:53:38Z</time>
      </trkpt>
      <trkpt lat="47.32192" lon="-1.33612">
        <ele>10.02</ele>
        <time>2020-05-21T09:53:40Z</time>
      </trkpt>
      <trkpt lat="47.32186" lon="-1.3363">
        <ele>10.33</ele>
        <time>2020-05-21T09:53:42Z</time>
      </trkpt>
      <trkpt lat="47.32181" lon="-1.33641">
        <ele>10.17</ele>
        <time>2020-05-21T09:53:44Z</time>
      </trkpt>
      <trkpt lat="47.3218" lon="-1.33655">
        <ele>9.13</ele>
        <time>2020-05-21T09:53:46Z</time>
      </trkpt>
      <trkpt lat="47.32172" lon="-1.3367">
        <ele>8.42</ele>
        <time>2020-05-21T09:53:48Z</time>
      </trkpt>
      <trkpt lat="47.32164" lon="-1.33686">
        <ele>9.29</ele>
        <time>2020-05-21T09:53:50Z</time>
      </trkpt>
      <trkpt lat="47.32157" lon="-1.33703">
        <ele>10.31</ele>
        <time>2020-05-21T09:53:52Z</time>
      </trkpt>
      <trkpt lat="47.32151" lon="-1.33716">
        <ele>10.43</ele>
        <time>2020-05-21T09:53:54Z</time>
      </trkpt>
      <trkpt lat="47.32144" lon="-1.33731">
        <ele>9.84</ele>
        <time>2020-05-21T09:53:56Z</time>
      </trkpt>
      <trkpt lat="47.32138" lon="-1.33745">
        <ele>10.36</ele>
        <time>2020-05-21T09:53:58Z</time>
      </trkpt>
      <trkpt lat="47.32132" lon="-1.33765">
        <ele>9.08</ele>
        <time>2020-05-21T09:54:00Z</time>
      </trkpt>
      <trkpt lat="47.32125" lon="-1.33783">
        <ele>8.1</ele>
        <time>2020-05-21T09:54:02Z</time>
      </trkpt>
      <trkpt lat="47.32119" lon="-1.33796">
        <ele>7.54</ele>
        <time>2020-05-21T09:54:04Z</time>
      </trkpt>
      <trkpt lat="47.32112" lon="-1.33813">
        <ele>6.68</ele>
        <time>2020-05-21T09:54:06Z</time>
      </trkpt>
      <trkpt lat="47.32105" lon="-1.33829">
        <ele>5.67</ele>
        <time>2020-05-21T09:54:08Z</time>
      </trkpt>
      <trkpt lat="47.32098" lon="-1.33845">
        <ele>4.48</ele>
        <time>2020-05-21T09:54:10Z</time>
      </trkpt>
      <trkpt lat="47.32092" lon="-1.33857">
        <ele>4.7</ele>
        <time>2020-05-21T09:54:12Z</time>
      </trkpt>
      <trkpt lat="47.32085" lon="-1.33875">
        <ele>5.87</ele>
        <time>2020-05-21T09:54:14Z</time>
      </trkpt>
      <trkpt lat="47.32078" lon="-1.33888">
        <ele>6.73</ele>
        <time>2020-05-21T09:54:16Z</time>
      </trkpt>
      <trkpt lat="47.32071" lon="-1.33902">
        <ele>7.42</ele>
        <time>2020-05-21T09:54:18Z</time>
      </trkpt>
      <trkpt lat="47.32062" lon="-1.33918">
        <ele>7.51</ele>
        <time>2020-05-21T09:54:20Z</time>
      </trkpt>
      <trkpt lat="47.32053" lon="-1.33932">
        <ele>7.58</ele>
        <time>2020-05-21T09:54:22Z</time>
      </trkpt>
      <trkpt lat="47.32044" lon="-1.33943">
        <ele>8.06</ele>
        <time>2020-05-21T09:54:24Z</time>
      </trkpt>
      <trkpt lat="47.32038" lon="-1.33954">
        <ele>9.28</ele>
        <time>2020-05-21T09:54:26Z</time>
      </trkpt>
      <trkpt lat="47.32031" lon="-1.33966">
        <ele>9.99</ele>
        <time>2020-05-21T09:54:28Z</time>
      </trkpt>
      <trkpt lat="47.32024" lon="-1.33977">
        <ele>10.71</ele>
        <time>2020-05-21T09:54:30Z</time>
      </trkpt>
      <trkpt lat="47.32016" lon="-1.3399">
        <ele>10.19</ele>
        <time>2020-05-21T09:54:32Z</time>
      </trkpt>
      <trkpt lat="47.32008" lon="-1.34002">
        <ele>10.72</ele>
        <time>2020-05-21T09:54:34Z</time>
      </trkpt>
      <trkpt lat="47.32" lon="-1.34015">
        <ele>10.98</ele>
        <time>2020-05-21T09:54:36Z</time>
      </trkpt>
      <trkpt lat="47.31991" lon="-1.3403">
        <ele>9.92</ele>
        <time>2020-05-21T09:54:38Z</time>
      </trkpt>
      <trkpt lat="47.31983" lon="-1.34042">
        <ele>10.83</ele>
        <time>2020-05-21T09:54:40Z</time>
      </trkpt>
      <trkpt lat="47.31975" lon="-1.34053">
        <ele>10.49</ele>
        <time>2020-05-21T09:54:42Z</time>
      </trkpt>
      <trkpt lat="47.31966" lon="-1.34067">
        <ele>10.73</ele>
        <time>2020-05-21T09:54:44Z</time>
      </trkpt>
      <trkpt lat="47.31957" lon="-1.34079">
        <ele>11.02</ele>
        <time>2020-05-21T09:54:46Z</time>
      </trkpt>
      <trkpt lat="47.31949" lon="-1.34093">
        <ele>11.57</ele>
        <time>2020-05-21T09:54:48Z</time>
      </trkpt>
      <trkpt lat="47.31941" lon="-1.34105">
        <ele>11.46</ele>
        <time>2020-05-21T09:54:50Z</time>
      </trkpt>
      <trkpt lat="47.31932" lon="-1.3412">
        <ele>12.31</ele>
        <time>2020-05-21T09:54:52Z</time>
      </trkpt>
      <trkpt lat="47.31926" lon="-1.34131">
        <ele>12.87</ele>
        <time>2020-05-21T09:54:54Z</time>
      </trkpt>
      <trkpt lat="47.31918" lon="-1.34143">
        <ele>12.88</ele>
        <time>2020-05-21T09:54:56Z</time>
      </trkpt>
      <trkpt lat="47.31909" lon="-1.34157">
        <ele>12.12</ele>
        <time>2020-05-21T09:54:58Z</time>
      </trkpt>
      <trkpt lat="47.31899" lon="-1.34172">
        <ele>12.11</ele>
        <time>2020-05-21T09:55:00Z</time>
      </trkpt>
      <trkpt lat="47.3189" lon="-1.34184">
        <ele>12</ele>
        <time>2020-05-21T09:55:02Z</time>
      </trkpt>
      <trkpt lat="47.31879" lon="-1.34198">
        <ele>11.68</ele>
        <time>2020-05-21T09:55:04Z</time>
      </trkpt>
      <trkpt lat="47.31868" lon="-1.34213">
        <ele>11.29</ele>
        <time>2020-05-21T09:55:06Z</time>
      </trkpt>
      <trkpt lat="47.31859" lon="-1.34227">
        <ele>11.56</ele>
        <time>2020-05-21T09:55:08Z</time>
      </trkpt>
      <trkpt lat="47.3185" lon="-1.34243">
        <ele>12.05</ele>
        <time>2020-05-21T09:55:10Z</time>
      </trkpt>
      <trkpt lat="47.31841" lon="-1.34258">
        <ele>11.73</ele>
        <time>2020-05-21T09:55:12Z</time>
      </trkpt>
      <trkpt lat="47.31833" lon="-1.34271">
        <ele>11.73</ele>
        <time>2020-05-21T09:55:14Z</time>
      </trkpt>
      <trkpt lat="47.31824" lon="-1.34286">
        <ele>11.54</ele>
        <time>2020-05-21T09:55:16Z</time>
      </trkpt>
      <trkpt lat="47.31815" lon="-1.343">
        <ele>11.1</ele>
        <time>2020-05-21T09:55:18Z</time>
      </trkpt>
      <trkpt lat="47.31805" lon="-1.34313">
        <ele>10.9</ele>
        <time>2020-05-21T09:55:20Z</time>
      </trkpt>
      <trkpt lat="47.31796" lon="-1.34327">
        <ele>10.86</ele>
        <time>2020-05-21T09:55:22Z</time>
      </trkpt>
      <trkpt lat="47.31788" lon="-1.34341">
        <ele>10.61</ele>
        <time>2020-05-21T09:55:24Z</time>
      </trkpt>
      <trkpt lat="47.3178" lon="-1.34355">
        <ele>9.99</ele>
        <time>2020-05-21T09:55:26Z</time>
      </trkpt>
      <trkpt lat="47.31771" lon="-1.34369">
        <ele>9.14</ele>
        <time>2020-05-21T09:55:29Z</time>
      </trkpt>
      <trkpt lat="47.31764" lon="-1.34379">
        <ele>7.72</ele>
        <time>2020-05-21T09:55:31Z</time>
      </trkpt>
      <trkpt lat="47.31756" lon="-1.34392">
        <ele>9.03</ele>
        <time>2020-05-21T09:55:34Z</time>
      </trkpt>
      <trkpt lat="47.31748" lon="-1.34405">
        <ele>11.23</ele>
        <time>2020-05-21T09:55:36Z</time>
      </trkpt>
      <trkpt lat="47.31737" lon="-1.34421">
        <ele>11.37</ele>
        <time>2020-05-21T09:55:38Z</time>
      </trkpt>
      <trkpt lat="47.31727" lon="-1.34437">
        <ele>12.59</ele>
        <time>2020-05-21T09:55:40Z</time>
      </trkpt>
      <trkpt lat="47.31719" lon="-1.3445">
        <ele>12.19</ele>
        <time>2020-05-21T09:55:42Z</time>
      </trkpt>
      <trkpt lat="47.3171" lon="-1.34465">
        <ele>11.6</ele>
        <time>2020-05-21T09:55:44Z</time>
      </trkpt>
      <trkpt lat="47.31701" lon="-1.34478">
        <ele>11.01</ele>
        <time>2020-05-21T09:55:46Z</time>
      </trkpt>
      <trkpt lat="47.31691" lon="-1.34493">
        <ele>9.27</ele>
        <time>2020-05-21T09:55:48Z</time>
      </trkpt>
      <trkpt lat="47.31682" lon="-1.34509">
        <ele>8.92</ele>
        <time>2020-05-21T09:55:50Z</time>
      </trkpt>
      <trkpt lat="47.31674" lon="-1.34522">
        <ele>9.58</ele>
        <time>2020-05-21T09:55:52Z</time>
      </trkpt>
      <trkpt lat="47.31665" lon="-1.34536">
        <ele>11</ele>
        <time>2020-05-21T09:55:54Z</time>
      </trkpt>
      <trkpt lat="47.31657" lon="-1.34548">
        <ele>10.96</ele>
        <time>2020-05-21T09:55:56Z</time>
      </trkpt>
      <trkpt lat="47.31649" lon="-1.34562">
        <ele>11.75</ele>
        <time>2020-05-21T09:55:58Z</time>
      </trkpt>
      <trkpt lat="47.31641" lon="-1.34575">
        <ele>11.98</ele>
        <time>2020-05-21T09:56:00Z</time>
      </trkpt>
      <trkpt lat="47.31632" lon="-1.34589">
        <ele>11.81</ele>
        <time>2020-05-21T09:56:02Z</time>
      </trkpt>
      <trkpt lat="47.31625" lon="-1.34601">
        <ele>9.94</ele>
        <time>2020-05-21T09:56:04Z</time>
      </trkpt>
      <trkpt lat="47.31618" lon="-1.34612">
        <ele>9.49</ele>
        <time>2020-05-21T09:56:06Z</time>
      </trkpt>
      <trkpt lat="47.3161" lon="-1.34626">
        <ele>8.48</ele>
        <time>2020-05-21T09:56:08Z</time>
      </trkpt>
      <trkpt lat="47.31602" lon="-1.34638">
        <ele>7.93</ele>
        <time>2020-05-21T09:56:10Z</time>
      </trkpt>
      <trkpt lat="47.31592" lon="-1.34652">
        <ele>8.01</ele>
        <time>2020-05-21T09:56:12Z</time>
      </trkpt>
      <trkpt lat="47.31584" lon="-1.34667">
        <ele>8.09</ele>
        <time>2020-05-21T09:56:14Z</time>
      </trkpt>
      <trkpt lat="47.31575" lon="-1.34682">
        <ele>8.12</ele>
        <time>2020-05-21T09:56:15Z</time>
      </trkpt>
      <trkpt lat="47.31567" lon="-1.34696">
        <ele>7.97</ele>
        <time>2020-05-21T09:56:17Z</time>
      </trkpt>
      <trkpt lat="47.31559" lon="-1.34709">
        <ele>8.52</ele>
        <time>2020-05-21T09:56:19Z</time>
      </trkpt>
      <trkpt lat="47.31549" lon="-1.34725">
        <ele>9.32</ele>
        <time>2020-05-21T09:56:21Z</time>
      </trkpt>
      <trkpt lat="47.31541" lon="-1.34739">
        <ele>10.1</ele>
        <time>2020-05-21T09:56:23Z</time>
      </trkpt>
      <trkpt lat="47.31532" lon="-1.34752">
        <ele>10.42</ele>
        <time>2020-05-21T09:56:25Z</time>
      </trkpt>
      <trkpt lat="47.31523" lon="-1.34764">
        <ele>10.82</ele>
        <time>2020-05-21T09:56:27Z</time>
      </trkpt>
      <trkpt lat="47.31515" lon="-1.34776">
        <ele>10.89</ele>
        <time>2020-05-21T09:56:29Z</time>
      </trkpt>
      <trkpt lat="47.31506" lon="-1.3479">
        <ele>11.5</ele>
        <time>2020-05-21T09:56:31Z</time>
      </trkpt>
      <trkpt lat="47.31497" lon="-1.34803">
        <ele>12.55</ele>
        <time>2020-05-21T09:56:33Z</time>
      </trkpt>
      <trkpt lat="47.3149" lon="-1.34817">
        <ele>12.61</ele>
        <time>2020-05-21T09:56:36Z</time>
      </trkpt>
      <trkpt lat="47.31481" lon="-1.3483">
        <ele>12.01</ele>
        <time>2020-05-21T09:56:38Z</time>
      </trkpt>
      <trkpt lat="47.31469" lon="-1.34847">
        <ele>10.44</ele>
        <time>2020-05-21T09:56:40Z</time>
      </trkpt>
      <trkpt lat="47.31459" lon="-1.34863">
        <ele>10.83</ele>
        <time>2020-05-21T09:56:42Z</time>
      </trkpt>
      <trkpt lat="47.31451" lon="-1.34875">
        <ele>9.6</ele>
        <time>2020-05-21T09:56:44Z</time>
      </trkpt>
      <trkpt lat="47.31444" lon="-1.34889">
        <ele>9.77</ele>
        <time>2020-05-21T09:56:46Z</time>
      </trkpt>
      <trkpt lat="47.31435" lon="-1.34903">
        <ele>10.78</ele>
        <time>2020-05-21T09:56:48Z</time>
      </trkpt>
      <trkpt lat="47.31427" lon="-1.34917">
        <ele>10.59</ele>
        <time>2020-05-21T09:56:50Z</time>
      </trkpt>
      <trkpt lat="47.31417" lon="-1.34933">
        <ele>10.72</ele>
        <time>2020-05-21T09:56:52Z</time>
      </trkpt>
      <trkpt lat="47.31409" lon="-1.34947">
        <ele>10.09</ele>
        <time>2020-05-21T09:56:54Z</time>
      </trkpt>
      <trkpt lat="47.31401" lon="-1.34959">
        <ele>9.75</ele>
        <time>2020-05-21T09:56:56Z</time>
      </trkpt>
      <trkpt lat="47.31392" lon="-1.34972">
        <ele>8.85</ele>
        <time>2020-05-21T09:56:58Z</time>
      </trkpt>
      <trkpt lat="47.31384" lon="-1.34988">
        <ele>9.01</ele>
        <time>2020-05-21T09:57:00Z</time>
      </trkpt>
      <trkpt lat="47.31378" lon="-1.35">
        <ele>8.67</ele>
        <time>2020-05-21T09:57:02Z</time>
      </trkpt>
      <trkpt lat="47.31371" lon="-1.35013">
        <ele>8.26</ele>
        <time>2020-05-21T09:57:04Z</time>
      </trkpt>
      <trkpt lat="47.31362" lon="-1.35028">
        <ele>8.76</ele>
        <time>2020-05-21T09:57:06Z</time>
      </trkpt>
      <trkpt lat="47.31353" lon="-1.35042">
        <ele>9.89</ele>
        <time>2020-05-21T09:57:08Z</time>
      </trkpt>
      <trkpt lat="47.31347" lon="-1.35052">
        <ele>10.79</ele>
        <time>2020-05-21T09:57:10Z</time>
      </trkpt>
      <trkpt lat="47.31338" lon="-1.35064">
        <ele>12.16</ele>
        <time>2020-05-21T09:57:12Z</time>
      </trkpt>
      <trkpt lat="47.31331" lon="-1.35074">
        <ele>11.81</ele>
        <time>2020-05-21T09:57:14Z</time>
      </trkpt>
      <trkpt lat="47.31324" lon="-1.35083">
        <ele>10.52</ele>
        <time>2020-05-21T09:57:16Z</time>
      </trkpt>
      <trkpt lat="47.31311" lon="-1.3509">
        <ele>9.66</ele>
        <time>2020-05-21T09:57:19Z</time>
      </trkpt>
      <trkpt lat="47.31302" lon="-1.351">
        <ele>9.51</ele>
        <time>2020-05-21T09:57:21Z</time>
      </trkpt>
      <trkpt lat="47.31293" lon="-1.35116">
        <ele>10.83</ele>
        <time>2020-05-21T09:57:23Z</time>
      </trkpt>
      <trkpt lat="47.31287" lon="-1.35132">
        <ele>12.4</ele>
        <time>2020-05-21T09:57:25Z</time>
      </trkpt>
      <trkpt lat="47.3128" lon="-1.35149">
        <ele>13.06</ele>
        <time>2020-05-21T09:57:27Z</time>
      </trkpt>
      <trkpt lat="47.31274" lon="-1.35162">
        <ele>12.85</ele>
        <time>2020-05-21T09:57:29Z</time>
      </trkpt>
      <trkpt lat="47.31264" lon="-1.35177">
        <ele>11.19</ele>
        <time>2020-05-21T09:57:31Z</time>
      </trkpt>
      <trkpt lat="47.31255" lon="-1.35194">
        <ele>10.64</ele>
        <time>2020-05-21T09:57:33Z</time>
      </trkpt>
      <trkpt lat="47.31246" lon="-1.35208">
        <ele>10.21</ele>
        <time>2020-05-21T09:57:35Z</time>
      </trkpt>
      <trkpt lat="47.31237" lon="-1.35221">
        <ele>10.22</ele>
        <time>2020-05-21T09:57:37Z</time>
      </trkpt>
      <trkpt lat="47.31228" lon="-1.35234">
        <ele>10.62</ele>
        <time>2020-05-21T09:57:39Z</time>
      </trkpt>
      <trkpt lat="47.31217" lon="-1.35248">
        <ele>10.68</ele>
        <time>2020-05-21T09:57:41Z</time>
      </trkpt>
      <trkpt lat="47.31208" lon="-1.35264">
        <ele>10.46</ele>
        <time>2020-05-21T09:57:43Z</time>
      </trkpt>
      <trkpt lat="47.31199" lon="-1.35277">
        <ele>9.55</ele>
        <time>2020-05-21T09:57:45Z</time>
      </trkpt>
      <trkpt lat="47.3119" lon="-1.35292">
        <ele>9.83</ele>
        <time>2020-05-21T09:57:47Z</time>
      </trkpt>
      <trkpt lat="47.3118" lon="-1.35307">
        <ele>10.14</ele>
        <time>2020-05-21T09:57:49Z</time>
      </trkpt>
      <trkpt lat="47.31172" lon="-1.35321">
        <ele>9.85</ele>
        <time>2020-05-21T09:57:51Z</time>
      </trkpt>
      <trkpt lat="47.31164" lon="-1.35333">
        <ele>9.33</ele>
        <time>2020-05-21T09:57:53Z</time>
      </trkpt>
      <trkpt lat="47.31155" lon="-1.35349">
        <ele>9.28</ele>
        <time>2020-05-21T09:57:55Z</time>
      </trkpt>
      <trkpt lat="47.31144" lon="-1.35364">
        <ele>9.49</ele>
        <time>2020-05-21T09:57:57Z</time>
      </trkpt>
      <trkpt lat="47.31135" lon="-1.35379">
        <ele>10.43</ele>
        <time>2020-05-21T09:57:59Z</time>
      </trkpt>
      <trkpt lat="47.31126" lon="-1.35393">
        <ele>10.74</ele>
        <time>2020-05-21T09:58:01Z</time>
      </trkpt>
      <trkpt lat="47.31117" lon="-1.35405">
        <ele>10.91</ele>
        <time>2020-05-21T09:58:03Z</time>
      </trkpt>
      <trkpt lat="47.31107" lon="-1.35419">
        <ele>12.25</ele>
        <time>2020-05-21T09:58:05Z</time>
      </trkpt>
      <trkpt lat="47.31098" lon="-1.35432">
        <ele>13.39</ele>
        <time>2020-05-21T09:58:07Z</time>
      </trkpt>
      <trkpt lat="47.31087" lon="-1.35447">
        <ele>14.12</ele>
        <time>2020-05-21T09:58:09Z</time>
      </trkpt>
      <trkpt lat="47.31078" lon="-1.35459">
        <ele>14.23</ele>
        <time>2020-05-21T09:58:11Z</time>
      </trkpt>
      <trkpt lat="47.31069" lon="-1.35471">
        <ele>13.91</ele>
        <time>2020-05-21T09:58:13Z</time>
      </trkpt>
      <trkpt lat="47.31057" lon="-1.35485">
        <ele>12.79</ele>
        <time>2020-05-21T09:58:15Z</time>
      </trkpt>
      <trkpt lat="47.31047" lon="-1.35498">
        <ele>12.59</ele>
        <time>2020-05-21T09:58:17Z</time>
      </trkpt>
      <trkpt lat="47.31037" lon="-1.3551">
        <ele>13.09</ele>
        <time>2020-05-21T09:58:19Z</time>
      </trkpt>
      <trkpt lat="47.31028" lon="-1.35522">
        <ele>13.2</ele>
        <time>2020-05-21T09:58:21Z</time>
      </trkpt>
      <trkpt lat="47.31018" lon="-1.35534">
        <ele>13.09</ele>
        <time>2020-05-21T09:58:23Z</time>
      </trkpt>
      <trkpt lat="47.31007" lon="-1.35546">
        <ele>12.77</ele>
        <time>2020-05-21T09:58:25Z</time>
      </trkpt>
      <trkpt lat="47.30995" lon="-1.35559">
        <ele>13.21</ele>
        <time>2020-05-21T09:58:27Z</time>
      </trkpt>
      <trkpt lat="47.30985" lon="-1.35571">
        <ele>11.72</ele>
        <time>2020-05-21T09:58:29Z</time>
      </trkpt>
      <trkpt lat="47.30974" lon="-1.35582">
        <ele>10.64</ele>
        <time>2020-05-21T09:58:31Z</time>
      </trkpt>
      <trkpt lat="47.30964" lon="-1.35594">
        <ele>11.62</ele>
        <time>2020-05-21T09:58:33Z</time>
      </trkpt>
      <trkpt lat="47.30953" lon="-1.35606">
        <ele>11.43</ele>
        <time>2020-05-21T09:58:35Z</time>
      </trkpt>
      <trkpt lat="47.30942" lon="-1.35617">
        <ele>11.33</ele>
        <time>2020-05-21T09:58:37Z</time>
      </trkpt>
      <trkpt lat="47.30933" lon="-1.35629">
        <ele>10.46</ele>
        <time>2020-05-21T09:58:39Z</time>
      </trkpt>
      <trkpt lat="47.30922" lon="-1.35642">
        <ele>10.95</ele>
        <time>2020-05-21T09:58:41Z</time>
      </trkpt>
      <trkpt lat="47.30911" lon="-1.35655">
        <ele>11.55</ele>
        <time>2020-05-21T09:58:43Z</time>
      </trkpt>
      <trkpt lat="47.30903" lon="-1.35665">
        <ele>11.53</ele>
        <time>2020-05-21T09:58:45Z</time>
      </trkpt>
      <trkpt lat="47.30892" lon="-1.35678">
        <ele>10.9</ele>
        <time>2020-05-21T09:58:47Z</time>
      </trkpt>
      <trkpt lat="47.30882" lon="-1.3569">
        <ele>10.03</ele>
        <time>2020-05-21T09:58:49Z</time>
      </trkpt>
      <trkpt lat="47.30871" lon="-1.35703">
        <ele>9.58</ele>
        <time>2020-05-21T09:58:51Z</time>
      </trkpt>
      <trkpt lat="47.3086" lon="-1.35714">
        <ele>9.84</ele>
        <time>2020-05-21T09:58:53Z</time>
      </trkpt>
      <trkpt lat="47.30848" lon="-1.35726">
        <ele>9.47</ele>
        <time>2020-05-21T09:58:55Z</time>
      </trkpt>
      <trkpt lat="47.30837" lon="-1.35739">
        <ele>8.48</ele>
        <time>2020-05-21T09:58:57Z</time>
      </trkpt>
      <trkpt lat="47.30826" lon="-1.35752">
        <ele>8.42</ele>
        <time>2020-05-21T09:58:59Z</time>
      </trkpt>
      <trkpt lat="47.30816" lon="-1.35763">
        <ele>8.62</ele>
        <time>2020-05-21T09:59:01Z</time>
      </trkpt>
      <trkpt lat="47.30807" lon="-1.35775">
        <ele>9.8</ele>
        <time>2020-05-21T09:59:03Z</time>
      </trkpt>
      <trkpt lat="47.30796" lon="-1.35789">
        <ele>10.17</ele>
        <time>2020-05-21T09:59:05Z</time>
      </trkpt>
      <trkpt lat="47.30786" lon="-1.35801">
        <ele>10.57</ele>
        <time>2020-05-21T09:59:07Z</time>
      </trkpt>
      <trkpt lat="47.30776" lon="-1.35812">
        <ele>11.54</ele>
        <time>2020-05-21T09:59:09Z</time>
      </trkpt>
      <trkpt lat="47.30765" lon="-1.35826">
        <ele>13.02</ele>
        <time>2020-05-21T09:59:11Z</time>
      </trkpt>
      <trkpt lat="47.30754" lon="-1.35839">
        <ele>12.66</ele>
        <time>2020-05-21T09:59:13Z</time>
      </trkpt>
      <trkpt lat="47.30744" lon="-1.3585">
        <ele>11.76</ele>
        <time>2020-05-21T09:59:15Z</time>
      </trkpt>
      <trkpt lat="47.30734" lon="-1.35862">
        <ele>12.36</ele>
        <time>2020-05-21T09:59:17Z</time>
      </trkpt>
      <trkpt lat="47.30724" lon="-1.35873">
        <ele>11.96</ele>
        <time>2020-05-21T09:59:19Z</time>
      </trkpt>
      <trkpt lat="47.30714" lon="-1.35885">
        <ele>12.13</ele>
        <time>2020-05-21T09:59:21Z</time>
      </trkpt>
      <trkpt lat="47.30704" lon="-1.35897">
        <ele>13.58</ele>
        <time>2020-05-21T09:59:23Z</time>
      </trkpt>
      <trkpt lat="47.30694" lon="-1.35909">
        <ele>13.98</ele>
        <time>2020-05-21T09:59:25Z</time>
      </trkpt>
      <trkpt lat="47.30682" lon="-1.35922">
        <ele>13.35</ele>
        <time>2020-05-21T09:59:27Z</time>
      </trkpt>
      <trkpt lat="47.30672" lon="-1.35934">
        <ele>13.06</ele>
        <time>2020-05-21T09:59:29Z</time>
      </trkpt>
      <trkpt lat="47.30661" lon="-1.35945">
        <ele>12.32</ele>
        <time>2020-05-21T09:59:31Z</time>
      </trkpt>
      <trkpt lat="47.30651" lon="-1.35956">
        <ele>11.42</ele>
        <time>2020-05-21T09:59:33Z</time>
      </trkpt>
      <trkpt lat="47.30639" lon="-1.3597">
        <ele>11.58</ele>
        <time>2020-05-21T09:59:35Z</time>
      </trkpt>
      <trkpt lat="47.30631" lon="-1.35982">
        <ele>11.79</ele>
        <time>2020-05-21T09:59:37Z</time>
      </trkpt>
      <trkpt lat="47.30622" lon="-1.35993">
        <ele>12.52</ele>
        <time>2020-05-21T09:59:39Z</time>
      </trkpt>
      <trkpt lat="47.30611" lon="-1.36006">
        <ele>12.3</ele>
        <time>2020-05-21T09:59:41Z</time>
      </trkpt>
      <trkpt lat="47.30602" lon="-1.36016">
        <ele>11.2</ele>
        <time>2020-05-21T09:59:43Z</time>
      </trkpt>
      <trkpt lat="47.30593" lon="-1.36026">
        <ele>9.94</ele>
        <time>2020-05-21T09:59:45Z</time>
      </trkpt>
      <trkpt lat="47.30586" lon="-1.36038">
        <ele>9.08</ele>
        <time>2020-05-21T09:59:47Z</time>
      </trkpt>
      <trkpt lat="47.30581" lon="-1.36051">
        <ele>9.64</ele>
        <time>2020-05-21T09:59:50Z</time>
      </trkpt>
      <trkpt lat="47.30571" lon="-1.36067">
        <ele>9.36</ele>
        <time>2020-05-21T09:59:52Z</time>
      </trkpt>
      <trkpt lat="47.30563" lon="-1.3608">
        <ele>8.79</ele>
        <time>2020-05-21T09:59:54Z</time>
      </trkpt>
      <trkpt lat="47.30553" lon="-1.36092">
        <ele>8.79</ele>
        <time>2020-05-21T09:59:56Z</time>
      </trkpt>
      <trkpt lat="47.30544" lon="-1.36106">
        <ele>7.74</ele>
        <time>2020-05-21T09:59:58Z</time>
      </trkpt>
      <trkpt lat="47.30535" lon="-1.3612">
        <ele>8.78</ele>
        <time>2020-05-21T10:00:00Z</time>
      </trkpt>
      <trkpt lat="47.30527" lon="-1.36134">
        <ele>9.78</ele>
        <time>2020-05-21T10:00:02Z</time>
      </trkpt>
      <trkpt lat="47.3052" lon="-1.36145">
        <ele>10.43</ele>
        <time>2020-05-21T10:00:04Z</time>
      </trkpt>
      <trkpt lat="47.30513" lon="-1.36158">
        <ele>10.62</ele>
        <time>2020-05-21T10:00:06Z</time>
      </trkpt>
      <trkpt lat="47.30504" lon="-1.36174">
        <ele>11.57</ele>
        <time>2020-05-21T10:00:08Z</time>
      </trkpt>
      <trkpt lat="47.30495" lon="-1.36191">
        <ele>11.77</ele>
        <time>2020-05-21T10:00:10Z</time>
      </trkpt>
      <trkpt lat="47.30486" lon="-1.36207">
        <ele>11.26</ele>
        <time>2020-05-21T10:00:12Z</time>
      </trkpt>
      <trkpt lat="47.30479" lon="-1.3622">
        <ele>10.62</ele>
        <time>2020-05-21T10:00:14Z</time>
      </trkpt>
      <trkpt lat="47.30471" lon="-1.36236">
        <ele>10.27</ele>
        <time>2020-05-21T10:00:16Z</time>
      </trkpt>
      <trkpt lat="47.30464" lon="-1.3625">
        <ele>10.01</ele>
        <time>2020-05-21T10:00:18Z</time>
      </trkpt>
      <trkpt lat="47.30456" lon="-1.36265">
        <ele>10.57</ele>
        <time>2020-05-21T10:00:20Z</time>
      </trkpt>
      <trkpt lat="47.30449" lon="-1.36278">
        <ele>10.37</ele>
        <time>2020-05-21T10:00:22Z</time>
      </trkpt>
      <trkpt lat="47.30442" lon="-1.36293">
        <ele>9.66</ele>
        <time>2020-05-21T10:00:24Z</time>
      </trkpt>
      <trkpt lat="47.30437" lon="-1.36306">
        <ele>9.72</ele>
        <time>2020-05-21T10:00:26Z</time>
      </trkpt>
      <trkpt lat="47.3043" lon="-1.36319">
        <ele>10.11</ele>
        <time>2020-05-21T10:00:28Z</time>
      </trkpt>
      <trkpt lat="47.30423" lon="-1.36334">
        <ele>11.27</ele>
        <time>2020-05-21T10:00:30Z</time>
      </trkpt>
      <trkpt lat="47.30416" lon="-1.36349">
        <ele>12.11</ele>
        <time>2020-05-21T10:00:32Z</time>
      </trkpt>
      <trkpt lat="47.30409" lon="-1.36362">
        <ele>12.43</ele>
        <time>2020-05-21T10:00:34Z</time>
      </trkpt>
      <trkpt lat="47.30402" lon="-1.36378">
        <ele>12.75</ele>
        <time>2020-05-21T10:00:36Z</time>
      </trkpt>
      <trkpt lat="47.30393" lon="-1.36397">
        <ele>12.16</ele>
        <time>2020-05-21T10:00:38Z</time>
      </trkpt>
      <trkpt lat="47.30384" lon="-1.36417">
        <ele>11.14</ele>
        <time>2020-05-21T10:00:40Z</time>
      </trkpt>
      <trkpt lat="47.30375" lon="-1.36434">
        <ele>9.96</ele>
        <time>2020-05-21T10:00:42Z</time>
      </trkpt>
      <trkpt lat="47.30367" lon="-1.36451">
        <ele>9.92</ele>
        <time>2020-05-21T10:00:44Z</time>
      </trkpt>
      <trkpt lat="47.30359" lon="-1.36466">
        <ele>10.1</ele>
        <time>2020-05-21T10:00:46Z</time>
      </trkpt>
      <trkpt lat="47.30351" lon="-1.36484">
        <ele>10.33</ele>
        <time>2020-05-21T10:00:48Z</time>
      </trkpt>
      <trkpt lat="47.30343" lon="-1.365">
        <ele>10.53</ele>
        <time>2020-05-21T10:00:50Z</time>
      </trkpt>
      <trkpt lat="47.30335" lon="-1.36516">
        <ele>10.87</ele>
        <time>2020-05-21T10:00:52Z</time>
      </trkpt>
      <trkpt lat="47.30326" lon="-1.36534">
        <ele>10.91</ele>
        <time>2020-05-21T10:00:54Z</time>
      </trkpt>
      <trkpt lat="47.30318" lon="-1.36549">
        <ele>10.29</ele>
        <time>2020-05-21T10:00:56Z</time>
      </trkpt>
      <trkpt lat="47.3031" lon="-1.36567">
        <ele>11.13</ele>
        <time>2020-05-21T10:00:58Z</time>
      </trkpt>
      <trkpt lat="47.30301" lon="-1.36585">
        <ele>11.57</ele>
        <time>2020-05-21T10:01:00Z</time>
      </trkpt>
      <trkpt lat="47.30293" lon="-1.36602">
        <ele>12.17</ele>
        <time>2020-05-21T10:01:02Z</time>
      </trkpt>
      <trkpt lat="47.30285" lon="-1.36618">
        <ele>12.65</ele>
        <time>2020-05-21T10:01:04Z</time>
      </trkpt>
      <trkpt lat="47.30277" lon="-1.36636">
        <ele>12.8</ele>
        <time>2020-05-21T10:01:06Z</time>
      </trkpt>
      <trkpt lat="47.30268" lon="-1.36653">
        <ele>13.07</ele>
        <time>2020-05-21T10:01:08Z</time>
      </trkpt>
      <trkpt lat="47.3026" lon="-1.3667">
        <ele>12.55</ele>
        <time>2020-05-21T10:01:10Z</time>
      </trkpt>
      <trkpt lat="47.30252" lon="-1.36687">
        <ele>12.31</ele>
        <time>2020-05-21T10:01:12Z</time>
      </trkpt>
      <trkpt lat="47.30242" lon="-1.36704">
        <ele>11.97</ele>
        <time>2020-05-21T10:01:14Z</time>
      </trkpt>
      <trkpt lat="47.30234" lon="-1.3672">
        <ele>10.69</ele>
        <time>2020-05-21T10:01:16Z</time>
      </trkpt>
      <trkpt lat="47.30226" lon="-1.36736">
        <ele>9.55</ele>
        <time>2020-05-21T10:01:18Z</time>
      </trkpt>
      <trkpt lat="47.30219" lon="-1.36751">
        <ele>8.97</ele>
        <time>2020-05-21T10:01:20Z</time>
      </trkpt>
      <trkpt lat="47.30212" lon="-1.36766">
        <ele>8.76</ele>
        <time>2020-05-21T10:01:22Z</time>
      </trkpt>
      <trkpt lat="47.30204" lon="-1.36782">
        <ele>9.4</ele>
        <time>2020-05-21T10:01:24Z</time>
      </trkpt>
      <trkpt lat="47.30197" lon="-1.36796">
        <ele>9.84</ele>
        <time>2020-05-21T10:01:26Z</time>
      </trkpt>
      <trkpt lat="47.30189" lon="-1.36815">
        <ele>8.8</ele>
        <time>2020-05-21T10:01:28Z</time>
      </trkpt>
      <trkpt lat="47.30182" lon="-1.36829">
        <ele>7.37</ele>
        <time>2020-05-21T10:01:30Z</time>
      </trkpt>
      <trkpt lat="47.30175" lon="-1.36846">
        <ele>8.32</ele>
        <time>2020-05-21T10:01:32Z</time>
      </trkpt>
      <trkpt lat="47.30167" lon="-1.36861">
        <ele>10.79</ele>
        <time>2020-05-21T10:01:34Z</time>
      </trkpt>
      <trkpt lat="47.30162" lon="-1.36874">
        <ele>12.77</ele>
        <time>2020-05-21T10:01:36Z</time>
      </trkpt>
      <trkpt lat="47.30155" lon="-1.36889">
        <ele>14.54</ele>
        <time>2020-05-21T10:01:38Z</time>
      </trkpt>
      <trkpt lat="47.3015" lon="-1.369">
        <ele>14.35</ele>
        <time>2020-05-21T10:01:39Z</time>
      </trkpt>
      <trkpt lat="47.30143" lon="-1.36915">
        <ele>13.72</ele>
        <time>2020-05-21T10:01:41Z</time>
      </trkpt>
      <trkpt lat="47.30135" lon="-1.3693">
        <ele>12.34</ele>
        <time>2020-05-21T10:01:43Z</time>
      </trkpt>
      <trkpt lat="47.30127" lon="-1.36944">
        <ele>10.85</ele>
        <time>2020-05-21T10:01:45Z</time>
      </trkpt>
      <trkpt lat="47.3012" lon="-1.36961">
        <ele>10.71</ele>
        <time>2020-05-21T10:01:47Z</time>
      </trkpt>
      <trkpt lat="47.30115" lon="-1.36975">
        <ele>11.11</ele>
        <time>2020-05-21T10:01:49Z</time>
      </trkpt>
      <trkpt lat="47.30108" lon="-1.36991">
        <ele>11.58</ele>
        <time>2020-05-21T10:01:51Z</time>
      </trkpt>
      <trkpt lat="47.30101" lon="-1.37005">
        <ele>11.16</ele>
        <time>2020-05-21T10:01:53Z</time>
      </trkpt>
      <trkpt lat="47.30093" lon="-1.37019">
        <ele>11.23</ele>
        <time>2020-05-21T10:01:55Z</time>
      </trkpt>
      <trkpt lat="47.30085" lon="-1.37034">
        <ele>10.95</ele>
        <time>2020-05-21T10:01:57Z</time>
      </trkpt>
      <trkpt lat="47.30076" lon="-1.3705">
        <ele>11.87</ele>
        <time>2020-05-21T10:01:59Z</time>
      </trkpt>
      <trkpt lat="47.30069" lon="-1.37063">
        <ele>11.55</ele>
        <time>2020-05-21T10:02:01Z</time>
      </trkpt>
      <trkpt lat="47.30062" lon="-1.37076">
        <ele>10.79</ele>
        <time>2020-05-21T10:02:03Z</time>
      </trkpt>
      <trkpt lat="47.30053" lon="-1.37091">
        <ele>9.36</ele>
        <time>2020-05-21T10:02:05Z</time>
      </trkpt>
      <trkpt lat="47.30046" lon="-1.37102">
        <ele>9.42</ele>
        <time>2020-05-21T10:02:07Z</time>
      </trkpt>
      <trkpt lat="47.30037" lon="-1.37116">
        <ele>10.09</ele>
        <time>2020-05-21T10:02:09Z</time>
      </trkpt>
      <trkpt lat="47.30029" lon="-1.37131">
        <ele>10.65</ele>
        <time>2020-05-21T10:02:11Z</time>
      </trkpt>
      <trkpt lat="47.30022" lon="-1.37142">
        <ele>10.45</ele>
        <time>2020-05-21T10:02:13Z</time>
      </trkpt>
      <trkpt lat="47.30011" lon="-1.37158">
        <ele>9.97</ele>
        <time>2020-05-21T10:02:15Z</time>
      </trkpt>
      <trkpt lat="47.30002" lon="-1.37173">
        <ele>9.62</ele>
        <time>2020-05-21T10:02:17Z</time>
      </trkpt>
      <trkpt lat="47.29994" lon="-1.37186">
        <ele>9.18</ele>
        <time>2020-05-21T10:02:19Z</time>
      </trkpt>
      <trkpt lat="47.29985" lon="-1.372">
        <ele>9.54</ele>
        <time>2020-05-21T10:02:21Z</time>
      </trkpt>
      <trkpt lat="47.29975" lon="-1.37214">
        <ele>9.2</ele>
        <time>2020-05-21T10:02:23Z</time>
      </trkpt>
      <trkpt lat="47.29966" lon="-1.37228">
        <ele>9.08</ele>
        <time>2020-05-21T10:02:25Z</time>
      </trkpt>
      <trkpt lat="47.29958" lon="-1.3724">
        <ele>9.79</ele>
        <time>2020-05-21T10:02:27Z</time>
      </trkpt>
      <trkpt lat="47.2995" lon="-1.37253">
        <ele>10.51</ele>
        <time>2020-05-21T10:02:29Z</time>
      </trkpt>
      <trkpt lat="47.29939" lon="-1.37268">
        <ele>11.01</ele>
        <time>2020-05-21T10:02:31Z</time>
      </trkpt>
      <trkpt lat="47.2993" lon="-1.37281">
        <ele>10.87</ele>
        <time>2020-05-21T10:02:33Z</time>
      </trkpt>
      <trkpt lat="47.29921" lon="-1.37295">
        <ele>10.85</ele>
        <time>2020-05-21T10:02:35Z</time>
      </trkpt>
      <trkpt lat="47.29912" lon="-1.37309">
        <ele>11.49</ele>
        <time>2020-05-21T10:02:37Z</time>
      </trkpt>
      <trkpt lat="47.29901" lon="-1.37326">
        <ele>12.39</ele>
        <time>2020-05-21T10:02:39Z</time>
      </trkpt>
      <trkpt lat="47.29892" lon="-1.3734">
        <ele>13.26</ele>
        <time>2020-05-21T10:02:41Z</time>
      </trkpt>
      <trkpt lat="47.29884" lon="-1.37352">
        <ele>13</ele>
        <time>2020-05-21T10:02:43Z</time>
      </trkpt>
      <trkpt lat="47.29875" lon="-1.37366">
        <ele>11.24</ele>
        <time>2020-05-21T10:02:45Z</time>
      </trkpt>
      <trkpt lat="47.29866" lon="-1.37379">
        <ele>10.58</ele>
        <time>2020-05-21T10:02:47Z</time>
      </trkpt>
      <trkpt lat="47.29857" lon="-1.37394">
        <ele>10.28</ele>
        <time>2020-05-21T10:02:49Z</time>
      </trkpt>
      <trkpt lat="47.29848" lon="-1.37409">
        <ele>9.95</ele>
        <time>2020-05-21T10:02:51Z</time>
      </trkpt>
      <trkpt lat="47.2984" lon="-1.37421">
        <ele>10.42</ele>
        <time>2020-05-21T10:02:53Z</time>
      </trkpt>
      <trkpt lat="47.29831" lon="-1.37434">
        <ele>11.07</ele>
        <time>2020-05-21T10:02:55Z</time>
      </trkpt>
      <trkpt lat="47.29823" lon="-1.37447">
        <ele>11.96</ele>
        <time>2020-05-21T10:02:57Z</time>
      </trkpt>
      <trkpt lat="47.29814" lon="-1.37462">
        <ele>12.29</ele>
        <time>2020-05-21T10:02:59Z</time>
      </trkpt>
      <trkpt lat="47.29806" lon="-1.37475">
        <ele>12.66</ele>
        <time>2020-05-21T10:03:01Z</time>
      </trkpt>
      <trkpt lat="47.29797" lon="-1.37489">
        <ele>12.47</ele>
        <time>2020-05-21T10:03:03Z</time>
      </trkpt>
      <trkpt lat="47.29789" lon="-1.37504">
        <ele>11.47</ele>
        <time>2020-05-21T10:03:05Z</time>
      </trkpt>
      <trkpt lat="47.2978" lon="-1.37519">
        <ele>10.66</ele>
        <time>2020-05-21T10:03:07Z</time>
      </trkpt>
      <trkpt lat="47.29772" lon="-1.37534">
        <ele>9.74</ele>
        <time>2020-05-21T10:03:09Z</time>
      </trkpt>
      <trkpt lat="47.29764" lon="-1.37548">
        <ele>9.66</ele>
        <time>2020-05-21T10:03:11Z</time>
      </trkpt>
      <trkpt lat="47.29757" lon="-1.37562">
        <ele>9.45</ele>
        <time>2020-05-21T10:03:13Z</time>
      </trkpt>
      <trkpt lat="47.29749" lon="-1.37575">
        <ele>10.29</ele>
        <time>2020-05-21T10:03:15Z</time>
      </trkpt>
      <trkpt lat="47.29741" lon="-1.37592">
        <ele>10.82</ele>
        <time>2020-05-21T10:03:17Z</time>
      </trkpt>
      <trkpt lat="47.29734" lon="-1.37608">
        <ele>12.48</ele>
        <time>2020-05-21T10:03:19Z</time>
      </trkpt>
      <trkpt lat="47.29726" lon="-1.37624">
        <ele>12.82</ele>
        <time>2020-05-21T10:03:21Z</time>
      </trkpt>
      <trkpt lat="47.29718" lon="-1.37638">
        <ele>12.48</ele>
        <time>2020-05-21T10:03:23Z</time>
      </trkpt>
      <trkpt lat="47.29711" lon="-1.37653">
        <ele>12.71</ele>
        <time>2020-05-21T10:03:25Z</time>
      </trkpt>
      <trkpt lat="47.29702" lon="-1.37669">
        <ele>12.58</ele>
        <time>2020-05-21T10:03:27Z</time>
      </trkpt>
      <trkpt lat="47.29695" lon="-1.37683">
        <ele>12.28</ele>
        <time>2020-05-21T10:03:29Z</time>
      </trkpt>
      <trkpt lat="47.29687" lon="-1.377">
        <ele>12.26</ele>
        <time>2020-05-21T10:03:31Z</time>
      </trkpt>
      <trkpt lat="47.2968" lon="-1.37714">
        <ele>11.06</ele>
        <time>2020-05-21T10:03:33Z</time>
      </trkpt>
      <trkpt lat="47.29671" lon="-1.37729">
        <ele>9.99</ele>
        <time>2020-05-21T10:03:35Z</time>
      </trkpt>
      <trkpt lat="47.29665" lon="-1.37743">
        <ele>10.61</ele>
        <time>2020-05-21T10:03:37Z</time>
      </trkpt>
      <trkpt lat="47.29657" lon="-1.37759">
        <ele>10.38</ele>
        <time>2020-05-21T10:03:39Z</time>
      </trkpt>
      <trkpt lat="47.29649" lon="-1.37775">
        <ele>9.83</ele>
        <time>2020-05-21T10:03:41Z</time>
      </trkpt>
      <trkpt lat="47.29643" lon="-1.37786">
        <ele>8.87</ele>
        <time>2020-05-21T10:03:43Z</time>
      </trkpt>
      <trkpt lat="47.29633" lon="-1.37803">
        <ele>7.97</ele>
        <time>2020-05-21T10:03:46Z</time>
      </trkpt>
      <trkpt lat="47.29626" lon="-1.37812">
        <ele>8.32</ele>
        <time>2020-05-21T10:03:48Z</time>
      </trkpt>
      <trkpt lat="47.2962" lon="-1.37828">
        <ele>8.7</ele>
        <time>2020-05-21T10:03:50Z</time>
      </trkpt>
      <trkpt lat="47.29614" lon="-1.37843">
        <ele>9.29</ele>
        <time>2020-05-21T10:03:52Z</time>
      </trkpt>
      <trkpt lat="47.29607" lon="-1.37857">
        <ele>10.14</ele>
        <time>2020-05-21T10:03:54Z</time>
      </trkpt>
      <trkpt lat="47.29599" lon="-1.37874">
        <ele>10.69</ele>
        <time>2020-05-21T10:03:56Z</time>
      </trkpt>
      <trkpt lat="47.29592" lon="-1.3789">
        <ele>9.59</ele>
        <time>2020-05-21T10:03:58Z</time>
      </trkpt>
      <trkpt lat="47.29587" lon="-1.37903">
        <ele>8.53</ele>
        <time>2020-05-21T10:04:00Z</time>
      </trkpt>
      <trkpt lat="47.2958" lon="-1.3792">
        <ele>7.85</ele>
        <time>2020-05-21T10:04:02Z</time>
      </trkpt>
      <trkpt lat="47.29574" lon="-1.37933">
        <ele>8.8</ele>
        <time>2020-05-21T10:04:04Z</time>
      </trkpt>
      <trkpt lat="47.29567" lon="-1.37949">
        <ele>11.7</ele>
        <time>2020-05-21T10:04:06Z</time>
      </trkpt>
      <trkpt lat="47.2956" lon="-1.37965">
        <ele>13.3</ele>
        <time>2020-05-21T10:04:08Z</time>
      </trkpt>
      <trkpt lat="47.29553" lon="-1.37982">
        <ele>14.05</ele>
        <time>2020-05-21T10:04:10Z</time>
      </trkpt>
      <trkpt lat="47.29548" lon="-1.37995">
        <ele>13.86</ele>
        <time>2020-05-21T10:04:12Z</time>
      </trkpt>
      <trkpt lat="47.29541" lon="-1.38014">
        <ele>14.77</ele>
        <time>2020-05-21T10:04:14Z</time>
      </trkpt>
      <trkpt lat="47.29536" lon="-1.38028">
        <ele>14.35</ele>
        <time>2020-05-21T10:04:16Z</time>
      </trkpt>
      <trkpt lat="47.29531" lon="-1.38045">
        <ele>14.29</ele>
        <time>2020-05-21T10:04:18Z</time>
      </trkpt>
      <trkpt lat="47.29524" lon="-1.38064">
        <ele>13.86</ele>
        <time>2020-05-21T10:04:20Z</time>
      </trkpt>
      <trkpt lat="47.29519" lon="-1.38079">
        <ele>13.25</ele>
        <time>2020-05-21T10:04:22Z</time>
      </trkpt>
      <trkpt lat="47.29514" lon="-1.38096">
        <ele>13.17</ele>
        <time>2020-05-21T10:04:24Z</time>
      </trkpt>
      <trkpt lat="47.29509" lon="-1.38113">
        <ele>13.37</ele>
        <time>2020-05-21T10:04:26Z</time>
      </trkpt>
      <trkpt lat="47.29504" lon="-1.3813">
        <ele>13.46</ele>
        <time>2020-05-21T10:04:28Z</time>
      </trkpt>
      <trkpt lat="47.29499" lon="-1.3815">
        <ele>13.72</ele>
        <time>2020-05-21T10:04:30Z</time>
      </trkpt>
      <trkpt lat="47.29494" lon="-1.38167">
        <ele>13.76</ele>
        <time>2020-05-21T10:04:32Z</time>
      </trkpt>
      <trkpt lat="47.2949" lon="-1.38185">
        <ele>13.81</ele>
        <time>2020-05-21T10:04:34Z</time>
      </trkpt>
      <trkpt lat="47.29485" lon="-1.38202">
        <ele>13.96</ele>
        <time>2020-05-21T10:04:36Z</time>
      </trkpt>
      <trkpt lat="47.29481" lon="-1.38218">
        <ele>13.44</ele>
        <time>2020-05-21T10:04:38Z</time>
      </trkpt>
      <trkpt lat="47.29476" lon="-1.38236">
        <ele>12.37</ele>
        <time>2020-05-21T10:04:40Z</time>
      </trkpt>
      <trkpt lat="47.29471" lon="-1.38254">
        <ele>11.84</ele>
        <time>2020-05-21T10:04:42Z</time>
      </trkpt>
      <trkpt lat="47.29466" lon="-1.38274">
        <ele>12.38</ele>
        <time>2020-05-21T10:04:44Z</time>
      </trkpt>
      <trkpt lat="47.29462" lon="-1.3829">
        <ele>13.72</ele>
        <time>2020-05-21T10:04:46Z</time>
      </trkpt>
      <trkpt lat="47.29457" lon="-1.38306">
        <ele>14.15</ele>
        <time>2020-05-21T10:04:48Z</time>
      </trkpt>
      <trkpt lat="47.29453" lon="-1.38319">
        <ele>14.39</ele>
        <time>2020-05-21T10:04:50Z</time>
      </trkpt>
      <trkpt lat="47.29446" lon="-1.38334">
        <ele>14.89</ele>
        <time>2020-05-21T10:04:52Z</time>
      </trkpt>
      <trkpt lat="47.29442" lon="-1.38346">
        <ele>15.17</ele>
        <time>2020-05-21T10:04:54Z</time>
      </trkpt>
      <trkpt lat="47.29438" lon="-1.38365">
        <ele>16.04</ele>
        <time>2020-05-21T10:04:56Z</time>
      </trkpt>
      <trkpt lat="47.29434" lon="-1.38384">
        <ele>16.44</ele>
        <time>2020-05-21T10:04:58Z</time>
      </trkpt>
      <trkpt lat="47.2943" lon="-1.38403">
        <ele>16.83</ele>
        <time>2020-05-21T10:05:00Z</time>
      </trkpt>
      <trkpt lat="47.29426" lon="-1.38422">
        <ele>16.07</ele>
        <time>2020-05-21T10:05:02Z</time>
      </trkpt>
      <trkpt lat="47.29421" lon="-1.38441">
        <ele>15.3</ele>
        <time>2020-05-21T10:05:04Z</time>
      </trkpt>
      <trkpt lat="47.29417" lon="-1.38459">
        <ele>15.72</ele>
        <time>2020-05-21T10:05:06Z</time>
      </trkpt>
      <trkpt lat="47.29412" lon="-1.38477">
        <ele>16.38</ele>
        <time>2020-05-21T10:05:08Z</time>
      </trkpt>
      <trkpt lat="47.29407" lon="-1.38494">
        <ele>15.56</ele>
        <time>2020-05-21T10:05:10Z</time>
      </trkpt>
      <trkpt lat="47.29401" lon="-1.38515">
        <ele>14.78</ele>
        <time>2020-05-21T10:05:12Z</time>
      </trkpt>
      <trkpt lat="47.29398" lon="-1.38531">
        <ele>14.01</ele>
        <time>2020-05-21T10:05:14Z</time>
      </trkpt>
      <trkpt lat="47.29393" lon="-1.3855">
        <ele>14.09</ele>
        <time>2020-05-21T10:05:16Z</time>
      </trkpt>
      <trkpt lat="47.29384" lon="-1.38559">
        <ele>13.94</ele>
        <time>2020-05-21T10:05:18Z</time>
      </trkpt>
      <trkpt lat="47.29375" lon="-1.3857">
        <ele>13.4</ele>
        <time>2020-05-21T10:05:20Z</time>
      </trkpt>
      <trkpt lat="47.29369" lon="-1.38588">
        <ele>12.13</ele>
        <time>2020-05-21T10:05:22Z</time>
      </trkpt>
      <trkpt lat="47.29364" lon="-1.38606">
        <ele>11.79</ele>
        <time>2020-05-21T10:05:24Z</time>
      </trkpt>
      <trkpt lat="47.29358" lon="-1.38623">
        <ele>11.86</ele>
        <time>2020-05-21T10:05:26Z</time>
      </trkpt>
      <trkpt lat="47.29352" lon="-1.38644">
        <ele>12.01</ele>
        <time>2020-05-21T10:05:28Z</time>
      </trkpt>
      <trkpt lat="47.29347" lon="-1.38661">
        <ele>12.42</ele>
        <time>2020-05-21T10:05:30Z</time>
      </trkpt>
      <trkpt lat="47.29342" lon="-1.38677">
        <ele>13.07</ele>
        <time>2020-05-21T10:05:32Z</time>
      </trkpt>
      <trkpt lat="47.29337" lon="-1.38693">
        <ele>12.63</ele>
        <time>2020-05-21T10:05:34Z</time>
      </trkpt>
      <trkpt lat="47.29331" lon="-1.38711">
        <ele>10.89</ele>
        <time>2020-05-21T10:05:36Z</time>
      </trkpt>
      <trkpt lat="47.29326" lon="-1.38725">
        <ele>10.61</ele>
        <time>2020-05-21T10:05:38Z</time>
      </trkpt>
      <trkpt lat="47.29323" lon="-1.38738">
        <ele>9.4</ele>
        <time>2020-05-21T10:05:41Z</time>
      </trkpt>
      <trkpt lat="47.29321" lon="-1.38754">
        <ele>9.46</ele>
        <time>2020-05-21T10:05:43Z</time>
      </trkpt>
      <trkpt lat="47.29318" lon="-1.38772">
        <ele>10.79</ele>
        <time>2020-05-21T10:05:45Z</time>
      </trkpt>
      <trkpt lat="47.29314" lon="-1.3879">
        <ele>11.3</ele>
        <time>2020-05-21T10:05:47Z</time>
      </trkpt>
      <trkpt lat="47.2931" lon="-1.38808">
        <ele>11.43</ele>
        <time>2020-05-21T10:05:49Z</time>
      </trkpt>
      <trkpt lat="47.29304" lon="-1.38828">
        <ele>12.54</ele>
        <time>2020-05-21T10:05:51Z</time>
      </trkpt>
      <trkpt lat="47.293" lon="-1.38842">
        <ele>13.06</ele>
        <time>2020-05-21T10:05:53Z</time>
      </trkpt>
      <trkpt lat="47.29294" lon="-1.38861">
        <ele>13.34</ele>
        <time>2020-05-21T10:05:55Z</time>
      </trkpt>
      <trkpt lat="47.29289" lon="-1.38877">
        <ele>13.42</ele>
        <time>2020-05-21T10:05:57Z</time>
      </trkpt>
      <trkpt lat="47.29284" lon="-1.38897">
        <ele>13.75</ele>
        <time>2020-05-21T10:05:59Z</time>
      </trkpt>
      <trkpt lat="47.29279" lon="-1.38914">
        <ele>13.21</ele>
        <time>2020-05-21T10:06:01Z</time>
      </trkpt>
      <trkpt lat="47.29274" lon="-1.38933">
        <ele>12.41</ele>
        <time>2020-05-21T10:06:03Z</time>
      </trkpt>
      <trkpt lat="47.2927" lon="-1.3895">
        <ele>12.02</ele>
        <time>2020-05-21T10:06:05Z</time>
      </trkpt>
      <trkpt lat="47.29265" lon="-1.38966">
        <ele>12.58</ele>
        <time>2020-05-21T10:06:07Z</time>
      </trkpt>
      <trkpt lat="47.29261" lon="-1.38983">
        <ele>13.1</ele>
        <time>2020-05-21T10:06:09Z</time>
      </trkpt>
      <trkpt lat="47.29256" lon="-1.39001">
        <ele>13.49</ele>
        <time>2020-05-21T10:06:11Z</time>
      </trkpt>
      <trkpt lat="47.29251" lon="-1.39019">
        <ele>13.31</ele>
        <time>2020-05-21T10:06:13Z</time>
      </trkpt>
      <trkpt lat="47.29246" lon="-1.39035">
        <ele>12.62</ele>
        <time>2020-05-21T10:06:15Z</time>
      </trkpt>
      <trkpt lat="47.29241" lon="-1.39051">
        <ele>12.13</ele>
        <time>2020-05-21T10:06:17Z</time>
      </trkpt>
      <trkpt lat="47.29236" lon="-1.3907">
        <ele>12.66</ele>
        <time>2020-05-21T10:06:19Z</time>
      </trkpt>
      <trkpt lat="47.29231" lon="-1.39085">
        <ele>12.7</ele>
        <time>2020-05-21T10:06:21Z</time>
      </trkpt>
      <trkpt lat="47.29225" lon="-1.391">
        <ele>12.16</ele>
        <time>2020-05-21T10:06:23Z</time>
      </trkpt>
      <trkpt lat="47.29217" lon="-1.39117">
        <ele>11.26</ele>
        <time>2020-05-21T10:06:25Z</time>
      </trkpt>
      <trkpt lat="47.29209" lon="-1.39131">
        <ele>11.42</ele>
        <time>2020-05-21T10:06:27Z</time>
      </trkpt>
      <trkpt lat="47.292" lon="-1.39143">
        <ele>11.4</ele>
        <time>2020-05-21T10:06:29Z</time>
      </trkpt>
      <trkpt lat="47.29189" lon="-1.39156">
        <ele>10.64</ele>
        <time>2020-05-21T10:06:31Z</time>
      </trkpt>
      <trkpt lat="47.29178" lon="-1.39169">
        <ele>9.25</ele>
        <time>2020-05-21T10:06:33Z</time>
      </trkpt>
      <trkpt lat="47.29169" lon="-1.3918">
        <ele>8.93</ele>
        <time>2020-05-21T10:06:35Z</time>
      </trkpt>
      <trkpt lat="47.2916" lon="-1.39191">
        <ele>9.06</ele>
        <time>2020-05-21T10:06:37Z</time>
      </trkpt>
      <trkpt lat="47.29149" lon="-1.39203">
        <ele>9.45</ele>
        <time>2020-05-21T10:06:39Z</time>
      </trkpt>
      <trkpt lat="47.29139" lon="-1.39214">
        <ele>9.89</ele>
        <time>2020-05-21T10:06:41Z</time>
      </trkpt>
      <trkpt lat="47.2913" lon="-1.39226">
        <ele>9.99</ele>
        <time>2020-05-21T10:06:43Z</time>
      </trkpt>
      <trkpt lat="47.29119" lon="-1.39239">
        <ele>9.66</ele>
        <time>2020-05-21T10:06:45Z</time>
      </trkpt>
      <trkpt lat="47.29109" lon="-1.39252">
        <ele>9.12</ele>
        <time>2020-05-21T10:06:47Z</time>
      </trkpt>
      <trkpt lat="47.29101" lon="-1.39266">
        <ele>8.72</ele>
        <time>2020-05-21T10:06:49Z</time>
      </trkpt>
      <trkpt lat="47.29093" lon="-1.39278">
        <ele>9.39</ele>
        <time>2020-05-21T10:06:51Z</time>
      </trkpt>
      <trkpt lat="47.29085" lon="-1.39294">
        <ele>10.22</ele>
        <time>2020-05-21T10:06:53Z</time>
      </trkpt>
      <trkpt lat="47.29078" lon="-1.39304">
        <ele>11.83</ele>
        <time>2020-05-21T10:06:55Z</time>
      </trkpt>
      <trkpt lat="47.29069" lon="-1.39314">
        <ele>11.27</ele>
        <time>2020-05-21T10:06:57Z</time>
      </trkpt>
      <trkpt lat="47.29058" lon="-1.39324">
        <ele>11.24</ele>
        <time>2020-05-21T10:06:59Z</time>
      </trkpt>
      <trkpt lat="47.29049" lon="-1.39333">
        <ele>11.84</ele>
        <time>2020-05-21T10:07:01Z</time>
      </trkpt>
      <trkpt lat="47.2904" lon="-1.39344">
        <ele>12.6</ele>
        <time>2020-05-21T10:07:03Z</time>
      </trkpt>
      <trkpt lat="47.29031" lon="-1.39355">
        <ele>13.14</ele>
        <time>2020-05-21T10:07:05Z</time>
      </trkpt>
      <trkpt lat="47.29023" lon="-1.39365">
        <ele>12.6</ele>
        <time>2020-05-21T10:07:07Z</time>
      </trkpt>
      <trkpt lat="47.29017" lon="-1.39377">
        <ele>12.48</ele>
        <time>2020-05-21T10:07:09Z</time>
      </trkpt>
      <trkpt lat="47.29008" lon="-1.3939">
        <ele>12.43</ele>
        <time>2020-05-21T10:07:12Z</time>
      </trkpt>
      <trkpt lat="47.28998" lon="-1.394">
        <ele>11.94</ele>
        <time>2020-05-21T10:07:30Z</time>
      </trkpt>
      <trkpt lat="47.28988" lon="-1.39413">
        <ele>10.22</ele>
        <time>2020-05-21T10:07:34Z</time>
      </trkpt>
      <trkpt lat="47.2898" lon="-1.39424">
        <ele>9.68</ele>
        <time>2020-05-21T10:07:36Z</time>
      </trkpt>
      <trkpt lat="47.2897" lon="-1.39436">
        <ele>9.68</ele>
        <time>2020-05-21T10:07:38Z</time>
      </trkpt>
      <trkpt lat="47.28961" lon="-1.39446">
        <ele>9.9</ele>
        <time>2020-05-21T10:07:40Z</time>
      </trkpt>
      <trkpt lat="47.28952" lon="-1.39458">
        <ele>10.37</ele>
        <time>2020-05-21T10:07:42Z</time>
      </trkpt>
      <trkpt lat="47.28943" lon="-1.3947">
        <ele>10.87</ele>
        <time>2020-05-21T10:07:44Z</time>
      </trkpt>
      <trkpt lat="47.28934" lon="-1.39481">
        <ele>11.97</ele>
        <time>2020-05-21T10:07:46Z</time>
      </trkpt>
      <trkpt lat="47.28923" lon="-1.39495">
        <ele>12.54</ele>
        <time>2020-05-21T10:07:48Z</time>
      </trkpt>
      <trkpt lat="47.28913" lon="-1.39507">
        <ele>13.26</ele>
        <time>2020-05-21T10:07:50Z</time>
      </trkpt>
      <trkpt lat="47.28904" lon="-1.39518">
        <ele>13.92</ele>
        <time>2020-05-21T10:07:52Z</time>
      </trkpt>
      <trkpt lat="47.28892" lon="-1.39531">
        <ele>13.5</ele>
        <time>2020-05-21T10:07:54Z</time>
      </trkpt>
      <trkpt lat="47.28883" lon="-1.39542">
        <ele>12.51</ele>
        <time>2020-05-21T10:07:56Z</time>
      </trkpt>
      <trkpt lat="47.28874" lon="-1.39553">
        <ele>12.2</ele>
        <time>2020-05-21T10:07:58Z</time>
      </trkpt>
      <trkpt lat="47.28864" lon="-1.39565">
        <ele>12.37</ele>
        <time>2020-05-21T10:08:00Z</time>
      </trkpt>
      <trkpt lat="47.28855" lon="-1.39576">
        <ele>12.92</ele>
        <time>2020-05-21T10:08:02Z</time>
      </trkpt>
      <trkpt lat="47.28844" lon="-1.39588">
        <ele>14.33</ele>
        <time>2020-05-21T10:08:04Z</time>
      </trkpt>
      <trkpt lat="47.28832" lon="-1.39602">
        <ele>13.91</ele>
        <time>2020-05-21T10:08:06Z</time>
      </trkpt>
      <trkpt lat="47.28822" lon="-1.39614">
        <ele>12.78</ele>
        <time>2020-05-21T10:08:08Z</time>
      </trkpt>
      <trkpt lat="47.28813" lon="-1.39626">
        <ele>11.48</ele>
        <time>2020-05-21T10:08:10Z</time>
      </trkpt>
      <trkpt lat="47.28802" lon="-1.3964">
        <ele>10.12</ele>
        <time>2020-05-21T10:08:12Z</time>
      </trkpt>
      <trkpt lat="47.28791" lon="-1.39652">
        <ele>9.79</ele>
        <time>2020-05-21T10:08:14Z</time>
      </trkpt>
      <trkpt lat="47.28781" lon="-1.39665">
        <ele>10.26</ele>
        <time>2020-05-21T10:08:16Z</time>
      </trkpt>
      <trkpt lat="47.28771" lon="-1.39676">
        <ele>10.93</ele>
        <time>2020-05-21T10:08:18Z</time>
      </trkpt>
      <trkpt lat="47.28761" lon="-1.39688">
        <ele>10.19</ele>
        <time>2020-05-21T10:08:20Z</time>
      </trkpt>
      <trkpt lat="47.2875" lon="-1.39701">
        <ele>9.31</ele>
        <time>2020-05-21T10:08:22Z</time>
      </trkpt>
      <trkpt lat="47.2874" lon="-1.39712">
        <ele>9.24</ele>
        <time>2020-05-21T10:08:24Z</time>
      </trkpt>
      <trkpt lat="47.2873" lon="-1.39723">
        <ele>9.11</ele>
        <time>2020-05-21T10:08:26Z</time>
      </trkpt>
      <trkpt lat="47.28719" lon="-1.39737">
        <ele>9.28</ele>
        <time>2020-05-21T10:08:28Z</time>
      </trkpt>
      <trkpt lat="47.2871" lon="-1.39749">
        <ele>10.19</ele>
        <time>2020-05-21T10:08:30Z</time>
      </trkpt>
      <trkpt lat="47.28701" lon="-1.3976">
        <ele>10.47</ele>
        <time>2020-05-21T10:08:32Z</time>
      </trkpt>
      <trkpt lat="47.2869" lon="-1.39774">
        <ele>10.55</ele>
        <time>2020-05-21T10:08:34Z</time>
      </trkpt>
      <trkpt lat="47.2868" lon="-1.39786">
        <ele>11.06</ele>
        <time>2020-05-21T10:08:36Z</time>
      </trkpt>
      <trkpt lat="47.2867" lon="-1.398">
        <ele>11.04</ele>
        <time>2020-05-21T10:08:38Z</time>
      </trkpt>
      <trkpt lat="47.2866" lon="-1.39814">
        <ele>11.43</ele>
        <time>2020-05-21T10:08:40Z</time>
      </trkpt>
      <trkpt lat="47.28652" lon="-1.39827">
        <ele>11.37</ele>
        <time>2020-05-21T10:08:42Z</time>
      </trkpt>
      <trkpt lat="47.28643" lon="-1.39841">
        <ele>10.66</ele>
        <time>2020-05-21T10:08:44Z</time>
      </trkpt>
      <trkpt lat="47.28633" lon="-1.39856">
        <ele>10.07</ele>
        <time>2020-05-21T10:08:46Z</time>
      </trkpt>
      <trkpt lat="47.28625" lon="-1.39869">
        <ele>9.87</ele>
        <time>2020-05-21T10:08:48Z</time>
      </trkpt>
      <trkpt lat="47.28616" lon="-1.39884">
        <ele>9.7</ele>
        <time>2020-05-21T10:08:50Z</time>
      </trkpt>
      <trkpt lat="47.28608" lon="-1.39898">
        <ele>10.31</ele>
        <time>2020-05-21T10:08:52Z</time>
      </trkpt>
      <trkpt lat="47.28599" lon="-1.39911">
        <ele>10.32</ele>
        <time>2020-05-21T10:08:54Z</time>
      </trkpt>
      <trkpt lat="47.2859" lon="-1.39924">
        <ele>10.53</ele>
        <time>2020-05-21T10:08:56Z</time>
      </trkpt>
      <trkpt lat="47.2858" lon="-1.39937">
        <ele>9.89</ele>
        <time>2020-05-21T10:08:58Z</time>
      </trkpt>
      <trkpt lat="47.28572" lon="-1.39949">
        <ele>9.53</ele>
        <time>2020-05-21T10:09:00Z</time>
      </trkpt>
      <trkpt lat="47.28562" lon="-1.39964">
        <ele>9.88</ele>
        <time>2020-05-21T10:09:02Z</time>
      </trkpt>
      <trkpt lat="47.28552" lon="-1.3998">
        <ele>11.05</ele>
        <time>2020-05-21T10:09:04Z</time>
      </trkpt>
      <trkpt lat="47.28543" lon="-1.39993">
        <ele>11.83</ele>
        <time>2020-05-21T10:09:06Z</time>
      </trkpt>
      <trkpt lat="47.28535" lon="-1.40005">
        <ele>11.97</ele>
        <time>2020-05-21T10:09:08Z</time>
      </trkpt>
      <trkpt lat="47.28524" lon="-1.40019">
        <ele>12.27</ele>
        <time>2020-05-21T10:09:10Z</time>
      </trkpt>
      <trkpt lat="47.28517" lon="-1.4003">
        <ele>12.19</ele>
        <time>2020-05-21T10:09:12Z</time>
      </trkpt>
      <trkpt lat="47.28509" lon="-1.40044">
        <ele>12.5</ele>
        <time>2020-05-21T10:09:14Z</time>
      </trkpt>
      <trkpt lat="47.28501" lon="-1.40058">
        <ele>12.2</ele>
        <time>2020-05-21T10:09:16Z</time>
      </trkpt>
      <trkpt lat="47.28494" lon="-1.40072">
        <ele>12.92</ele>
        <time>2020-05-21T10:09:18Z</time>
      </trkpt>
      <trkpt lat="47.28485" lon="-1.40091">
        <ele>12.54</ele>
        <time>2020-05-21T10:09:20Z</time>
      </trkpt>
      <trkpt lat="47.28477" lon="-1.40106">
        <ele>11.75</ele>
        <time>2020-05-21T10:09:22Z</time>
      </trkpt>
      <trkpt lat="47.28471" lon="-1.4012">
        <ele>12.27</ele>
        <time>2020-05-21T10:09:24Z</time>
      </trkpt>
      <trkpt lat="47.28465" lon="-1.40138">
        <ele>12.5</ele>
        <time>2020-05-21T10:09:26Z</time>
      </trkpt>
      <trkpt lat="47.28458" lon="-1.40158">
        <ele>11.84</ele>
        <time>2020-05-21T10:09:28Z</time>
      </trkpt>
      <trkpt lat="47.28451" lon="-1.40177">
        <ele>11.25</ele>
        <time>2020-05-21T10:09:30Z</time>
      </trkpt>
      <trkpt lat="47.28445" lon="-1.40192">
        <ele>11.6</ele>
        <time>2020-05-21T10:09:32Z</time>
      </trkpt>
      <trkpt lat="47.28438" lon="-1.40207">
        <ele>12.22</ele>
        <time>2020-05-21T10:09:34Z</time>
      </trkpt>
      <trkpt lat="47.28433" lon="-1.40223">
        <ele>12.39</ele>
        <time>2020-05-21T10:09:36Z</time>
      </trkpt>
      <trkpt lat="47.28426" lon="-1.4024">
        <ele>12.54</ele>
        <time>2020-05-21T10:09:38Z</time>
      </trkpt>
      <trkpt lat="47.28418" lon="-1.40259">
        <ele>13.32</ele>
        <time>2020-05-21T10:09:40Z</time>
      </trkpt>
      <trkpt lat="47.2841" lon="-1.40277">
        <ele>13.95</ele>
        <time>2020-05-21T10:09:42Z</time>
      </trkpt>
      <trkpt lat="47.28404" lon="-1.40291">
        <ele>12.87</ele>
        <time>2020-05-21T10:09:44Z</time>
      </trkpt>
      <trkpt lat="47.28396" lon="-1.40307">
        <ele>12.2</ele>
        <time>2020-05-21T10:09:46Z</time>
      </trkpt>
      <trkpt lat="47.28388" lon="-1.40323">
        <ele>11.45</ele>
        <time>2020-05-21T10:09:48Z</time>
      </trkpt>
      <trkpt lat="47.2838" lon="-1.40336">
        <ele>11.53</ele>
        <time>2020-05-21T10:09:50Z</time>
      </trkpt>
      <trkpt lat="47.28372" lon="-1.4035">
        <ele>11.98</ele>
        <time>2020-05-21T10:09:52Z</time>
      </trkpt>
      <trkpt lat="47.28363" lon="-1.40363">
        <ele>12.52</ele>
        <time>2020-05-21T10:09:54Z</time>
      </trkpt>
      <trkpt lat="47.28354" lon="-1.40375">
        <ele>12.75</ele>
        <time>2020-05-21T10:09:56Z</time>
      </trkpt>
      <trkpt lat="47.28345" lon="-1.40388">
        <ele>12.37</ele>
        <time>2020-05-21T10:09:58Z</time>
      </trkpt>
      <trkpt lat="47.28335" lon="-1.404">
        <ele>11.82</ele>
        <time>2020-05-21T10:10:00Z</time>
      </trkpt>
      <trkpt lat="47.28326" lon="-1.40412">
        <ele>11.67</ele>
        <time>2020-05-21T10:10:02Z</time>
      </trkpt>
      <trkpt lat="47.28316" lon="-1.40424">
        <ele>11.42</ele>
        <time>2020-05-21T10:10:04Z</time>
      </trkpt>
      <trkpt lat="47.28305" lon="-1.40434">
        <ele>10.94</ele>
        <time>2020-05-21T10:10:06Z</time>
      </trkpt>
      <trkpt lat="47.28293" lon="-1.40446">
        <ele>10.49</ele>
        <time>2020-05-21T10:10:08Z</time>
      </trkpt>
      <trkpt lat="47.28283" lon="-1.40456">
        <ele>10.47</ele>
        <time>2020-05-21T10:10:10Z</time>
      </trkpt>
      <trkpt lat="47.28271" lon="-1.40465">
        <ele>10.71</ele>
        <time>2020-05-21T10:10:12Z</time>
      </trkpt>
      <trkpt lat="47.28259" lon="-1.40477">
        <ele>11.14</ele>
        <time>2020-05-21T10:10:14Z</time>
      </trkpt>
      <trkpt lat="47.28248" lon="-1.40488">
        <ele>10.77</ele>
        <time>2020-05-21T10:10:16Z</time>
      </trkpt>
      <trkpt lat="47.28237" lon="-1.40498">
        <ele>10.95</ele>
        <time>2020-05-21T10:10:18Z</time>
      </trkpt>
      <trkpt lat="47.28227" lon="-1.40508">
        <ele>11.06</ele>
        <time>2020-05-21T10:10:20Z</time>
      </trkpt>
      <trkpt lat="47.28217" lon="-1.40517">
        <ele>10.3</ele>
        <time>2020-05-21T10:10:22Z</time>
      </trkpt>
      <trkpt lat="47.28206" lon="-1.40528">
        <ele>9.94</ele>
        <time>2020-05-21T10:10:24Z</time>
      </trkpt>
      <trkpt lat="47.28194" lon="-1.40538">
        <ele>10.13</ele>
        <time>2020-05-21T10:10:26Z</time>
      </trkpt>
      <trkpt lat="47.28184" lon="-1.40548">
        <ele>10.03</ele>
        <time>2020-05-21T10:10:28Z</time>
      </trkpt>
      <trkpt lat="47.28174" lon="-1.40558">
        <ele>9.64</ele>
        <time>2020-05-21T10:10:30Z</time>
      </trkpt>
      <trkpt lat="47.28163" lon="-1.4057">
        <ele>10.15</ele>
        <time>2020-05-21T10:10:32Z</time>
      </trkpt>
      <trkpt lat="47.28152" lon="-1.40581">
        <ele>10.36</ele>
        <time>2020-05-21T10:10:34Z</time>
      </trkpt>
      <trkpt lat="47.28141" lon="-1.40591">
        <ele>10.34</ele>
        <time>2020-05-21T10:10:36Z</time>
      </trkpt>
      <trkpt lat="47.2813" lon="-1.40601">
        <ele>11.1</ele>
        <time>2020-05-21T10:10:38Z</time>
      </trkpt>
      <trkpt lat="47.2812" lon="-1.40611">
        <ele>11.18</ele>
        <time>2020-05-21T10:10:40Z</time>
      </trkpt>
      <trkpt lat="47.28109" lon="-1.40621">
        <ele>10.88</ele>
        <time>2020-05-21T10:10:42Z</time>
      </trkpt>
      <trkpt lat="47.28099" lon="-1.40631">
        <ele>9.87</ele>
        <time>2020-05-21T10:10:44Z</time>
      </trkpt>
      <trkpt lat="47.28088" lon="-1.4064">
        <ele>9.9</ele>
        <time>2020-05-21T10:10:46Z</time>
      </trkpt>
      <trkpt lat="47.28077" lon="-1.4065">
        <ele>10.31</ele>
        <time>2020-05-21T10:10:48Z</time>
      </trkpt>
      <trkpt lat="47.28067" lon="-1.4066">
        <ele>11.32</ele>
        <time>2020-05-21T10:10:50Z</time>
      </trkpt>
      <trkpt lat="47.28056" lon="-1.4067">
        <ele>11.41</ele>
        <time>2020-05-21T10:10:52Z</time>
      </trkpt>
      <trkpt lat="47.28043" lon="-1.40683">
        <ele>11.42</ele>
        <time>2020-05-21T10:10:54Z</time>
      </trkpt>
      <trkpt lat="47.28033" lon="-1.40695">
        <ele>11.67</ele>
        <time>2020-05-21T10:10:56Z</time>
      </trkpt>
      <trkpt lat="47.28023" lon="-1.40705">
        <ele>11.83</ele>
        <time>2020-05-21T10:10:58Z</time>
      </trkpt>
      <trkpt lat="47.28012" lon="-1.40717">
        <ele>11.23</ele>
        <time>2020-05-21T10:11:00Z</time>
      </trkpt>
      <trkpt lat="47.28002" lon="-1.40727">
        <ele>9.99</ele>
        <time>2020-05-21T10:11:02Z</time>
      </trkpt>
      <trkpt lat="47.27991" lon="-1.40736">
        <ele>9.15</ele>
        <time>2020-05-21T10:11:04Z</time>
      </trkpt>
      <trkpt lat="47.27979" lon="-1.40748">
        <ele>9.24</ele>
        <time>2020-05-21T10:11:06Z</time>
      </trkpt>
      <trkpt lat="47.2797" lon="-1.40757">
        <ele>9.48</ele>
        <time>2020-05-21T10:11:08Z</time>
      </trkpt>
      <trkpt lat="47.2796" lon="-1.40767">
        <ele>9.93</ele>
        <time>2020-05-21T10:11:10Z</time>
      </trkpt>
      <trkpt lat="47.27947" lon="-1.40778">
        <ele>10.63</ele>
        <time>2020-05-21T10:11:12Z</time>
      </trkpt>
      <trkpt lat="47.27935" lon="-1.40789">
        <ele>10.58</ele>
        <time>2020-05-21T10:11:14Z</time>
      </trkpt>
      <trkpt lat="47.27924" lon="-1.40799">
        <ele>11.03</ele>
        <time>2020-05-21T10:11:16Z</time>
      </trkpt>
      <trkpt lat="47.27914" lon="-1.40809">
        <ele>11.05</ele>
        <time>2020-05-21T10:11:18Z</time>
      </trkpt>
      <trkpt lat="47.27902" lon="-1.40819">
        <ele>10.38</ele>
        <time>2020-05-21T10:11:20Z</time>
      </trkpt>
      <trkpt lat="47.27893" lon="-1.4083">
        <ele>9.16</ele>
        <time>2020-05-21T10:11:22Z</time>
      </trkpt>
      <trkpt lat="47.27885" lon="-1.40843">
        <ele>8.94</ele>
        <time>2020-05-21T10:11:24Z</time>
      </trkpt>
      <trkpt lat="47.27876" lon="-1.40859">
        <ele>8.53</ele>
        <time>2020-05-21T10:11:26Z</time>
      </trkpt>
      <trkpt lat="47.27868" lon="-1.40876">
        <ele>7.86</ele>
        <time>2020-05-21T10:11:28Z</time>
      </trkpt>
      <trkpt lat="47.2786" lon="-1.40893">
        <ele>7.86</ele>
        <time>2020-05-21T10:11:30Z</time>
      </trkpt>
      <trkpt lat="47.27853" lon="-1.40908">
        <ele>8.96</ele>
        <time>2020-05-21T10:11:32Z</time>
      </trkpt>
      <trkpt lat="47.27846" lon="-1.40923">
        <ele>9.38</ele>
        <time>2020-05-21T10:11:34Z</time>
      </trkpt>
      <trkpt lat="47.27839" lon="-1.40938">
        <ele>9.66</ele>
        <time>2020-05-21T10:11:36Z</time>
      </trkpt>
      <trkpt lat="47.27832" lon="-1.40954">
        <ele>9.54</ele>
        <time>2020-05-21T10:11:38Z</time>
      </trkpt>
      <trkpt lat="47.27824" lon="-1.40969">
        <ele>10.25</ele>
        <time>2020-05-21T10:11:40Z</time>
      </trkpt>
      <trkpt lat="47.27817" lon="-1.40982">
        <ele>10.95</ele>
        <time>2020-05-21T10:11:42Z</time>
      </trkpt>
      <trkpt lat="47.27808" lon="-1.40996">
        <ele>11.07</ele>
        <time>2020-05-21T10:11:44Z</time>
      </trkpt>
      <trkpt lat="47.27799" lon="-1.4101">
        <ele>11.06</ele>
        <time>2020-05-21T10:11:46Z</time>
      </trkpt>
      <trkpt lat="47.27791" lon="-1.41023">
        <ele>11.22</ele>
        <time>2020-05-21T10:11:48Z</time>
      </trkpt>
      <trkpt lat="47.27783" lon="-1.41035">
        <ele>11.96</ele>
        <time>2020-05-21T10:11:50Z</time>
      </trkpt>
      <trkpt lat="47.27777" lon="-1.41053">
        <ele>11.81</ele>
        <time>2020-05-21T10:11:52Z</time>
      </trkpt>
      <trkpt lat="47.27773" lon="-1.41067">
        <ele>11.69</ele>
        <time>2020-05-21T10:11:54Z</time>
      </trkpt>
      <trkpt lat="47.27763" lon="-1.41082">
        <ele>10.95</ele>
        <time>2020-05-21T10:11:56Z</time>
      </trkpt>
      <trkpt lat="47.27753" lon="-1.41093">
        <ele>10.74</ele>
        <time>2020-05-21T10:11:58Z</time>
      </trkpt>
      <trkpt lat="47.27742" lon="-1.41104">
        <ele>11.22</ele>
        <time>2020-05-21T10:12:00Z</time>
      </trkpt>
      <trkpt lat="47.27731" lon="-1.41114">
        <ele>10.88</ele>
        <time>2020-05-21T10:12:02Z</time>
      </trkpt>
      <trkpt lat="47.27721" lon="-1.41124">
        <ele>10.92</ele>
        <time>2020-05-21T10:12:04Z</time>
      </trkpt>
      <trkpt lat="47.2771" lon="-1.41134">
        <ele>11.14</ele>
        <time>2020-05-21T10:12:06Z</time>
      </trkpt>
      <trkpt lat="47.27699" lon="-1.41146">
        <ele>11.38</ele>
        <time>2020-05-21T10:12:08Z</time>
      </trkpt>
      <trkpt lat="47.27689" lon="-1.41157">
        <ele>11.92</ele>
        <time>2020-05-21T10:12:10Z</time>
      </trkpt>
      <trkpt lat="47.2768" lon="-1.41168">
        <ele>12.77</ele>
        <time>2020-05-21T10:12:12Z</time>
      </trkpt>
      <trkpt lat="47.27671" lon="-1.41179">
        <ele>13.08</ele>
        <time>2020-05-21T10:12:14Z</time>
      </trkpt>
      <trkpt lat="47.2766" lon="-1.4119">
        <ele>12.48</ele>
        <time>2020-05-21T10:12:16Z</time>
      </trkpt>
      <trkpt lat="47.27649" lon="-1.41203">
        <ele>12.86</ele>
        <time>2020-05-21T10:12:18Z</time>
      </trkpt>
      <trkpt lat="47.27638" lon="-1.41213">
        <ele>13.17</ele>
        <time>2020-05-21T10:12:20Z</time>
      </trkpt>
      <trkpt lat="47.27627" lon="-1.41223">
        <ele>12.52</ele>
        <time>2020-05-21T10:12:22Z</time>
      </trkpt>
      <trkpt lat="47.27617" lon="-1.41233">
        <ele>11.96</ele>
        <time>2020-05-21T10:12:24Z</time>
      </trkpt>
      <trkpt lat="47.27605" lon="-1.41244">
        <ele>12.02</ele>
        <time>2020-05-21T10:12:26Z</time>
      </trkpt>
      <trkpt lat="47.27593" lon="-1.41255">
        <ele>11.57</ele>
        <time>2020-05-21T10:12:28Z</time>
      </trkpt>
      <trkpt lat="47.27583" lon="-1.41266">
        <ele>10.75</ele>
        <time>2020-05-21T10:12:30Z</time>
      </trkpt>
      <trkpt lat="47.27573" lon="-1.41278">
        <ele>10.51</ele>
        <time>2020-05-21T10:12:32Z</time>
      </trkpt>
      <trkpt lat="47.27563" lon="-1.4129">
        <ele>11.46</ele>
        <time>2020-05-21T10:12:34Z</time>
      </trkpt>
      <trkpt lat="47.27553" lon="-1.41304">
        <ele>11.82</ele>
        <time>2020-05-21T10:12:36Z</time>
      </trkpt>
      <trkpt lat="47.27543" lon="-1.41317">
        <ele>11.75</ele>
        <time>2020-05-21T10:12:38Z</time>
      </trkpt>
      <trkpt lat="47.27534" lon="-1.4133">
        <ele>10.92</ele>
        <time>2020-05-21T10:12:40Z</time>
      </trkpt>
      <trkpt lat="47.27524" lon="-1.41343">
        <ele>10.6</ele>
        <time>2020-05-21T10:12:42Z</time>
      </trkpt>
      <trkpt lat="47.27516" lon="-1.41356">
        <ele>11.02</ele>
        <time>2020-05-21T10:12:44Z</time>
      </trkpt>
      <trkpt lat="47.27505" lon="-1.41371">
        <ele>11.31</ele>
        <time>2020-05-21T10:12:46Z</time>
      </trkpt>
      <trkpt lat="47.27495" lon="-1.41387">
        <ele>11.07</ele>
        <time>2020-05-21T10:12:48Z</time>
      </trkpt>
      <trkpt lat="47.27486" lon="-1.414">
        <ele>10.02</ele>
        <time>2020-05-21T10:12:50Z</time>
      </trkpt>
      <trkpt lat="47.27476" lon="-1.41416">
        <ele>9.92</ele>
        <time>2020-05-21T10:12:52Z</time>
      </trkpt>
      <trkpt lat="47.27468" lon="-1.41431">
        <ele>10.52</ele>
        <time>2020-05-21T10:12:54Z</time>
      </trkpt>
      <trkpt lat="47.27459" lon="-1.41449">
        <ele>10.82</ele>
        <time>2020-05-21T10:12:56Z</time>
      </trkpt>
      <trkpt lat="47.27451" lon="-1.41463">
        <ele>11.16</ele>
        <time>2020-05-21T10:12:58Z</time>
      </trkpt>
      <trkpt lat="47.27442" lon="-1.41479">
        <ele>11.98</ele>
        <time>2020-05-21T10:13:00Z</time>
      </trkpt>
      <trkpt lat="47.27435" lon="-1.41493">
        <ele>13.68</ele>
        <time>2020-05-21T10:13:02Z</time>
      </trkpt>
      <trkpt lat="47.27426" lon="-1.41509">
        <ele>13.99</ele>
        <time>2020-05-21T10:13:04Z</time>
      </trkpt>
      <trkpt lat="47.27417" lon="-1.41523">
        <ele>14.02</ele>
        <time>2020-05-21T10:13:06Z</time>
      </trkpt>
      <trkpt lat="47.27408" lon="-1.41538">
        <ele>14.88</ele>
        <time>2020-05-21T10:13:08Z</time>
      </trkpt>
      <trkpt lat="47.27397" lon="-1.41557">
        <ele>16.06</ele>
        <time>2020-05-21T10:13:10Z</time>
      </trkpt>
      <trkpt lat="47.27387" lon="-1.41573">
        <ele>17.15</ele>
        <time>2020-05-21T10:13:12Z</time>
      </trkpt>
      <trkpt lat="47.27378" lon="-1.41589">
        <ele>17.25</ele>
        <time>2020-05-21T10:13:14Z</time>
      </trkpt>
      <trkpt lat="47.27368" lon="-1.41605">
        <ele>15.9</ele>
        <time>2020-05-21T10:13:16Z</time>
      </trkpt>
      <trkpt lat="47.27358" lon="-1.41621">
        <ele>13.94</ele>
        <time>2020-05-21T10:13:18Z</time>
      </trkpt>
      <trkpt lat="47.27348" lon="-1.41635">
        <ele>12.78</ele>
        <time>2020-05-21T10:13:20Z</time>
      </trkpt>
      <trkpt lat="47.27339" lon="-1.41647">
        <ele>11.75</ele>
        <time>2020-05-21T10:13:22Z</time>
      </trkpt>
      <trkpt lat="47.27329" lon="-1.41664">
        <ele>12</ele>
        <time>2020-05-21T10:13:24Z</time>
      </trkpt>
      <trkpt lat="47.27319" lon="-1.41681">
        <ele>12.38</ele>
        <time>2020-05-21T10:13:26Z</time>
      </trkpt>
      <trkpt lat="47.27311" lon="-1.41696">
        <ele>13.02</ele>
        <time>2020-05-21T10:13:28Z</time>
      </trkpt>
      <trkpt lat="47.27302" lon="-1.41713">
        <ele>13.14</ele>
        <time>2020-05-21T10:13:30Z</time>
      </trkpt>
      <trkpt lat="47.27293" lon="-1.41731">
        <ele>13.26</ele>
        <time>2020-05-21T10:13:32Z</time>
      </trkpt>
      <trkpt lat="47.27285" lon="-1.41746">
        <ele>12.96</ele>
        <time>2020-05-21T10:13:34Z</time>
      </trkpt>
      <trkpt lat="47.27277" lon="-1.41762">
        <ele>13.02</ele>
        <time>2020-05-21T10:13:36Z</time>
      </trkpt>
      <trkpt lat="47.27269" lon="-1.41778">
        <ele>12.01</ele>
        <time>2020-05-21T10:13:38Z</time>
      </trkpt>
      <trkpt lat="47.2726" lon="-1.41796">
        <ele>10.03</ele>
        <time>2020-05-21T10:13:40Z</time>
      </trkpt>
      <trkpt lat="47.27253" lon="-1.4181">
        <ele>9.3</ele>
        <time>2020-05-21T10:13:42Z</time>
      </trkpt>
      <trkpt lat="47.27244" lon="-1.41828">
        <ele>8.75</ele>
        <time>2020-05-21T10:13:44Z</time>
      </trkpt>
      <trkpt lat="47.27234" lon="-1.41845">
        <ele>9.22</ele>
        <time>2020-05-21T10:13:46Z</time>
      </trkpt>
      <trkpt lat="47.27225" lon="-1.41861">
        <ele>9.91</ele>
        <time>2020-05-21T10:13:48Z</time>
      </trkpt>
      <trkpt lat="47.27216" lon="-1.41877">
        <ele>10.61</ele>
        <time>2020-05-21T10:13:50Z</time>
      </trkpt>
      <trkpt lat="47.27206" lon="-1.41893">
        <ele>11.48</ele>
        <time>2020-05-21T10:13:52Z</time>
      </trkpt>
      <trkpt lat="47.27196" lon="-1.41909">
        <ele>11.44</ele>
        <time>2020-05-21T10:13:54Z</time>
      </trkpt>
      <trkpt lat="47.27186" lon="-1.41926">
        <ele>10.86</ele>
        <time>2020-05-21T10:13:56Z</time>
      </trkpt>
      <trkpt lat="47.27177" lon="-1.4194">
        <ele>11.37</ele>
        <time>2020-05-21T10:13:58Z</time>
      </trkpt>
      <trkpt lat="47.27168" lon="-1.41955">
        <ele>12.4</ele>
        <time>2020-05-21T10:14:00Z</time>
      </trkpt>
      <trkpt lat="47.2716" lon="-1.41971">
        <ele>12.53</ele>
        <time>2020-05-21T10:14:02Z</time>
      </trkpt>
      <trkpt lat="47.27151" lon="-1.41986">
        <ele>12.17</ele>
        <time>2020-05-21T10:14:04Z</time>
      </trkpt>
      <trkpt lat="47.27142" lon="-1.42004">
        <ele>11.87</ele>
        <time>2020-05-21T10:14:06Z</time>
      </trkpt>
      <trkpt lat="47.27133" lon="-1.4202">
        <ele>11.64</ele>
        <time>2020-05-21T10:14:08Z</time>
      </trkpt>
      <trkpt lat="47.27125" lon="-1.42034">
        <ele>11.2</ele>
        <time>2020-05-21T10:14:10Z</time>
      </trkpt>
      <trkpt lat="47.27116" lon="-1.42048">
        <ele>10.51</ele>
        <time>2020-05-21T10:14:12Z</time>
      </trkpt>
      <trkpt lat="47.27106" lon="-1.42062">
        <ele>10.03</ele>
        <time>2020-05-21T10:14:14Z</time>
      </trkpt>
      <trkpt lat="47.27096" lon="-1.42076">
        <ele>9.65</ele>
        <time>2020-05-21T10:14:16Z</time>
      </trkpt>
      <trkpt lat="47.27087" lon="-1.4209">
        <ele>8.92</ele>
        <time>2020-05-21T10:14:18Z</time>
      </trkpt>
      <trkpt lat="47.27076" lon="-1.42106">
        <ele>7.83</ele>
        <time>2020-05-21T10:14:20Z</time>
      </trkpt>
      <trkpt lat="47.27067" lon="-1.42122">
        <ele>7.6</ele>
        <time>2020-05-21T10:14:22Z</time>
      </trkpt>
      <trkpt lat="47.2706" lon="-1.42136">
        <ele>7.71</ele>
        <time>2020-05-21T10:14:24Z</time>
      </trkpt>
      <trkpt lat="47.27051" lon="-1.42154">
        <ele>8.27</ele>
        <time>2020-05-21T10:14:26Z</time>
      </trkpt>
      <trkpt lat="47.27044" lon="-1.4217">
        <ele>10.18</ele>
        <time>2020-05-21T10:14:28Z</time>
      </trkpt>
      <trkpt lat="47.27038" lon="-1.42182">
        <ele>10.61</ele>
        <time>2020-05-21T10:14:30Z</time>
      </trkpt>
      <trkpt lat="47.27028" lon="-1.42201">
        <ele>10.71</ele>
        <time>2020-05-21T10:14:32Z</time>
      </trkpt>
      <trkpt lat="47.27019" lon="-1.42215">
        <ele>12</ele>
        <time>2020-05-21T10:14:34Z</time>
      </trkpt>
      <trkpt lat="47.2701" lon="-1.4223">
        <ele>13.02</ele>
        <time>2020-05-21T10:14:36Z</time>
      </trkpt>
      <trkpt lat="47.27" lon="-1.42247">
        <ele>13.23</ele>
        <time>2020-05-21T10:14:38Z</time>
      </trkpt>
      <trkpt lat="47.26991" lon="-1.42262">
        <ele>12.92</ele>
        <time>2020-05-21T10:14:40Z</time>
      </trkpt>
      <trkpt lat="47.26983" lon="-1.42276">
        <ele>12.33</ele>
        <time>2020-05-21T10:14:42Z</time>
      </trkpt>
      <trkpt lat="47.26976" lon="-1.4229">
        <ele>12.12</ele>
        <time>2020-05-21T10:14:44Z</time>
      </trkpt>
      <trkpt lat="47.26968" lon="-1.42304">
        <ele>11.39</ele>
        <time>2020-05-21T10:14:46Z</time>
      </trkpt>
      <trkpt lat="47.26959" lon="-1.42321">
        <ele>11.13</ele>
        <time>2020-05-21T10:14:48Z</time>
      </trkpt>
      <trkpt lat="47.26951" lon="-1.42336">
        <ele>10.66</ele>
        <time>2020-05-21T10:14:50Z</time>
      </trkpt>
      <trkpt lat="47.26943" lon="-1.42353">
        <ele>10.6</ele>
        <time>2020-05-21T10:14:52Z</time>
      </trkpt>
      <trkpt lat="47.26935" lon="-1.42369">
        <ele>11.98</ele>
        <time>2020-05-21T10:14:54Z</time>
      </trkpt>
      <trkpt lat="47.26928" lon="-1.42384">
        <ele>12.82</ele>
        <time>2020-05-21T10:14:56Z</time>
      </trkpt>
      <trkpt lat="47.26919" lon="-1.42402">
        <ele>12.7</ele>
        <time>2020-05-21T10:14:58Z</time>
      </trkpt>
      <trkpt lat="47.26912" lon="-1.42416">
        <ele>12.15</ele>
        <time>2020-05-21T10:15:00Z</time>
      </trkpt>
      <trkpt lat="47.26904" lon="-1.42431">
        <ele>11.14</ele>
        <time>2020-05-21T10:15:02Z</time>
      </trkpt>
      <trkpt lat="47.26896" lon="-1.42446">
        <ele>11</ele>
        <time>2020-05-21T10:15:04Z</time>
      </trkpt>
      <trkpt lat="47.26888" lon="-1.42462">
        <ele>10.74</ele>
        <time>2020-05-21T10:15:06Z</time>
      </trkpt>
      <trkpt lat="47.2688" lon="-1.42478">
        <ele>10.73</ele>
        <time>2020-05-21T10:15:08Z</time>
      </trkpt>
      <trkpt lat="47.26871" lon="-1.42493">
        <ele>11.05</ele>
        <time>2020-05-21T10:15:10Z</time>
      </trkpt>
      <trkpt lat="47.26862" lon="-1.4251">
        <ele>10.59</ele>
        <time>2020-05-21T10:15:12Z</time>
      </trkpt>
      <trkpt lat="47.26853" lon="-1.42527">
        <ele>10.42</ele>
        <time>2020-05-21T10:15:14Z</time>
      </trkpt>
      <trkpt lat="47.26845" lon="-1.42541">
        <ele>10.5</ele>
        <time>2020-05-21T10:15:16Z</time>
      </trkpt>
      <trkpt lat="47.26837" lon="-1.42554">
        <ele>10.24</ele>
        <time>2020-05-21T10:15:18Z</time>
      </trkpt>
      <trkpt lat="47.26829" lon="-1.42571">
        <ele>10.2</ele>
        <time>2020-05-21T10:15:20Z</time>
      </trkpt>
      <trkpt lat="47.26821" lon="-1.42589">
        <ele>10.03</ele>
        <time>2020-05-21T10:15:22Z</time>
      </trkpt>
      <trkpt lat="47.26813" lon="-1.42604">
        <ele>9.95</ele>
        <time>2020-05-21T10:15:24Z</time>
      </trkpt>
      <trkpt lat="47.26807" lon="-1.42621">
        <ele>9.72</ele>
        <time>2020-05-21T10:15:26Z</time>
      </trkpt>
      <trkpt lat="47.26799" lon="-1.4264">
        <ele>9.92</ele>
        <time>2020-05-21T10:15:28Z</time>
      </trkpt>
      <trkpt lat="47.26792" lon="-1.42657">
        <ele>10.85</ele>
        <time>2020-05-21T10:15:30Z</time>
      </trkpt>
      <trkpt lat="47.26787" lon="-1.42671">
        <ele>11.41</ele>
        <time>2020-05-21T10:15:32Z</time>
      </trkpt>
      <trkpt lat="47.26782" lon="-1.42689">
        <ele>11.33</ele>
        <time>2020-05-21T10:15:34Z</time>
      </trkpt>
      <trkpt lat="47.26777" lon="-1.42704">
        <ele>11.48</ele>
        <time>2020-05-21T10:15:36Z</time>
      </trkpt>
      <trkpt lat="47.2677" lon="-1.42723">
        <ele>11.28</ele>
        <time>2020-05-21T10:15:38Z</time>
      </trkpt>
      <trkpt lat="47.26762" lon="-1.42741">
        <ele>10.9</ele>
        <time>2020-05-21T10:15:40Z</time>
      </trkpt>
      <trkpt lat="47.26753" lon="-1.42757">
        <ele>10.13</ele>
        <time>2020-05-21T10:15:42Z</time>
      </trkpt>
      <trkpt lat="47.26744" lon="-1.42773">
        <ele>9.4</ele>
        <time>2020-05-21T10:15:44Z</time>
      </trkpt>
      <trkpt lat="47.26736" lon="-1.42791">
        <ele>7.74</ele>
        <time>2020-05-21T10:15:46Z</time>
      </trkpt>
      <trkpt lat="47.26733" lon="-1.42807">
        <ele>5.82</ele>
        <time>2020-05-21T10:15:48Z</time>
      </trkpt>
      <trkpt lat="47.2673" lon="-1.42823">
        <ele>5.79</ele>
        <time>2020-05-21T10:15:50Z</time>
      </trkpt>
      <trkpt lat="47.26724" lon="-1.42842">
        <ele>7.16</ele>
        <time>2020-05-21T10:15:51Z</time>
      </trkpt>
      <trkpt lat="47.26717" lon="-1.42859">
        <ele>7.98</ele>
        <time>2020-05-21T10:15:53Z</time>
      </trkpt>
      <trkpt lat="47.26709" lon="-1.42877">
        <ele>8.55</ele>
        <time>2020-05-21T10:15:55Z</time>
      </trkpt>
      <trkpt lat="47.267" lon="-1.42894">
        <ele>9.26</ele>
        <time>2020-05-21T10:15:57Z</time>
      </trkpt>
      <trkpt lat="47.26692" lon="-1.4291">
        <ele>9.71</ele>
        <time>2020-05-21T10:15:59Z</time>
      </trkpt>
      <trkpt lat="47.26682" lon="-1.42929">
        <ele>9.84</ele>
        <time>2020-05-21T10:16:01Z</time>
      </trkpt>
      <trkpt lat="47.26674" lon="-1.42945">
        <ele>9.93</ele>
        <time>2020-05-21T10:16:03Z</time>
      </trkpt>
      <trkpt lat="47.26666" lon="-1.42962">
        <ele>9.92</ele>
        <time>2020-05-21T10:16:05Z</time>
      </trkpt>
      <trkpt lat="47.26658" lon="-1.42977">
        <ele>9.13</ele>
        <time>2020-05-21T10:16:07Z</time>
      </trkpt>
      <trkpt lat="47.2665" lon="-1.42994">
        <ele>8</ele>
        <time>2020-05-21T10:16:09Z</time>
      </trkpt>
      <trkpt lat="47.26642" lon="-1.4301">
        <ele>6.82</ele>
        <time>2020-05-21T10:16:11Z</time>
      </trkpt>
      <trkpt lat="47.26634" lon="-1.43026">
        <ele>6.48</ele>
        <time>2020-05-21T10:16:13Z</time>
      </trkpt>
      <trkpt lat="47.26626" lon="-1.43042">
        <ele>5.98</ele>
        <time>2020-05-21T10:16:15Z</time>
      </trkpt>
      <trkpt lat="47.26618" lon="-1.43058">
        <ele>6.11</ele>
        <time>2020-05-21T10:16:17Z</time>
      </trkpt>
      <trkpt lat="47.2661" lon="-1.43073">
        <ele>6.12</ele>
        <time>2020-05-21T10:16:19Z</time>
      </trkpt>
      <trkpt lat="47.26602" lon="-1.43088">
        <ele>6.28</ele>
        <time>2020-05-21T10:16:21Z</time>
      </trkpt>
      <trkpt lat="47.26593" lon="-1.43102">
        <ele>6.47</ele>
        <time>2020-05-21T10:16:23Z</time>
      </trkpt>
      <trkpt lat="47.26585" lon="-1.43117">
        <ele>6.93</ele>
        <time>2020-05-21T10:16:25Z</time>
      </trkpt>
      <trkpt lat="47.26575" lon="-1.43133">
        <ele>6.91</ele>
        <time>2020-05-21T10:16:27Z</time>
      </trkpt>
      <trkpt lat="47.26567" lon="-1.43146">
        <ele>6.89</ele>
        <time>2020-05-21T10:16:29Z</time>
      </trkpt>
      <trkpt lat="47.26559" lon="-1.43159">
        <ele>6.93</ele>
        <time>2020-05-21T10:16:31Z</time>
      </trkpt>
      <trkpt lat="47.26549" lon="-1.43176">
        <ele>7.29</ele>
        <time>2020-05-21T10:16:33Z</time>
      </trkpt>
      <trkpt lat="47.26538" lon="-1.4319">
        <ele>7</ele>
        <time>2020-05-21T10:16:35Z</time>
      </trkpt>
      <trkpt lat="47.2653" lon="-1.43202">
        <ele>6.4</ele>
        <time>2020-05-21T10:16:37Z</time>
      </trkpt>
      <trkpt lat="47.2652" lon="-1.43215">
        <ele>5.59</ele>
        <time>2020-05-21T10:16:39Z</time>
      </trkpt>
      <trkpt lat="47.2651" lon="-1.43227">
        <ele>5.11</ele>
        <time>2020-05-21T10:16:41Z</time>
      </trkpt>
      <trkpt lat="47.26501" lon="-1.43237">
        <ele>4.77</ele>
        <time>2020-05-21T10:16:43Z</time>
      </trkpt>
      <trkpt lat="47.2649" lon="-1.4325">
        <ele>5.55</ele>
        <time>2020-05-21T10:16:45Z</time>
      </trkpt>
      <trkpt lat="47.26482" lon="-1.43263">
        <ele>6.54</ele>
        <time>2020-05-21T10:16:47Z</time>
      </trkpt>
      <trkpt lat="47.26472" lon="-1.43278">
        <ele>7.06</ele>
        <time>2020-05-21T10:16:49Z</time>
      </trkpt>
      <trkpt lat="47.26463" lon="-1.43291">
        <ele>7.26</ele>
        <time>2020-05-21T10:16:51Z</time>
      </trkpt>
      <trkpt lat="47.26454" lon="-1.43306">
        <ele>6.77</ele>
        <time>2020-05-21T10:16:53Z</time>
      </trkpt>
      <trkpt lat="47.26446" lon="-1.43318">
        <ele>7.29</ele>
        <time>2020-05-21T10:16:55Z</time>
      </trkpt>
      <trkpt lat="47.26436" lon="-1.43332">
        <ele>7.35</ele>
        <time>2020-05-21T10:16:57Z</time>
      </trkpt>
      <trkpt lat="47.26426" lon="-1.43346">
        <ele>7.42</ele>
        <time>2020-05-21T10:16:59Z</time>
      </trkpt>
      <trkpt lat="47.26418" lon="-1.43357">
        <ele>8.11</ele>
        <time>2020-05-21T10:17:01Z</time>
      </trkpt>
      <trkpt lat="47.26407" lon="-1.4337">
        <ele>8.65</ele>
        <time>2020-05-21T10:17:03Z</time>
      </trkpt>
      <trkpt lat="47.26397" lon="-1.43381">
        <ele>9.21</ele>
        <time>2020-05-21T10:17:05Z</time>
      </trkpt>
      <trkpt lat="47.26387" lon="-1.43392">
        <ele>10.04</ele>
        <time>2020-05-21T10:17:07Z</time>
      </trkpt>
      <trkpt lat="47.26376" lon="-1.43404">
        <ele>9.82</ele>
        <time>2020-05-21T10:17:09Z</time>
      </trkpt>
      <trkpt lat="47.26367" lon="-1.43416">
        <ele>9.61</ele>
        <time>2020-05-21T10:17:11Z</time>
      </trkpt>
      <trkpt lat="47.26356" lon="-1.43428">
        <ele>9.21</ele>
        <time>2020-05-21T10:17:13Z</time>
      </trkpt>
      <trkpt lat="47.26347" lon="-1.43439">
        <ele>8.52</ele>
        <time>2020-05-21T10:17:15Z</time>
      </trkpt>
      <trkpt lat="47.26337" lon="-1.43449">
        <ele>8.13</ele>
        <time>2020-05-21T10:17:17Z</time>
      </trkpt>
      <trkpt lat="47.26327" lon="-1.4346">
        <ele>7.88</ele>
        <time>2020-05-21T10:17:19Z</time>
      </trkpt>
      <trkpt lat="47.26317" lon="-1.4347">
        <ele>7.52</ele>
        <time>2020-05-21T10:17:21Z</time>
      </trkpt>
      <trkpt lat="47.26307" lon="-1.4348">
        <ele>7.68</ele>
        <time>2020-05-21T10:17:23Z</time>
      </trkpt>
      <trkpt lat="47.26297" lon="-1.43489">
        <ele>8.45</ele>
        <time>2020-05-21T10:17:25Z</time>
      </trkpt>
      <trkpt lat="47.26285" lon="-1.43494">
        <ele>8.98</ele>
        <time>2020-05-21T10:17:28Z</time>
      </trkpt>
      <trkpt lat="47.26274" lon="-1.43497">
        <ele>9.57</ele>
        <time>2020-05-21T10:17:30Z</time>
      </trkpt>
      <trkpt lat="47.26262" lon="-1.43501">
        <ele>9.27</ele>
        <time>2020-05-21T10:17:32Z</time>
      </trkpt>
      <trkpt lat="47.26253" lon="-1.43509">
        <ele>8.84</ele>
        <time>2020-05-21T10:17:34Z</time>
      </trkpt>
      <trkpt lat="47.26241" lon="-1.43519">
        <ele>9.04</ele>
        <time>2020-05-21T10:17:36Z</time>
      </trkpt>
      <trkpt lat="47.26233" lon="-1.43532">
        <ele>9.12</ele>
        <time>2020-05-21T10:17:38Z</time>
      </trkpt>
      <trkpt lat="47.26223" lon="-1.43546">
        <ele>8.82</ele>
        <time>2020-05-21T10:17:40Z</time>
      </trkpt>
      <trkpt lat="47.26219" lon="-1.43566">
        <ele>9.73</ele>
        <time>2020-05-21T10:17:42Z</time>
      </trkpt>
      <trkpt lat="47.26216" lon="-1.43583">
        <ele>8.58</ele>
        <time>2020-05-21T10:17:45Z</time>
      </trkpt>
      <trkpt lat="47.26208" lon="-1.43597">
        <ele>8.56</ele>
        <time>2020-05-21T10:17:47Z</time>
      </trkpt>
      <trkpt lat="47.26202" lon="-1.43607">
        <ele>8.52</ele>
        <time>2020-05-21T10:17:49Z</time>
      </trkpt>
      <trkpt lat="47.26192" lon="-1.43622">
        <ele>8.21</ele>
        <time>2020-05-21T10:17:52Z</time>
      </trkpt>
      <trkpt lat="47.26184" lon="-1.43634">
        <ele>8.41</ele>
        <time>2020-05-21T10:17:54Z</time>
      </trkpt>
      <trkpt lat="47.26177" lon="-1.43645">
        <ele>8.43</ele>
        <time>2020-05-21T10:17:56Z</time>
      </trkpt>
      <trkpt lat="47.2617" lon="-1.43658">
        <ele>8.64</ele>
        <time>2020-05-21T10:17:58Z</time>
      </trkpt>
      <trkpt lat="47.26161" lon="-1.43674">
        <ele>8.85</ele>
        <time>2020-05-21T10:18:01Z</time>
      </trkpt>
      <trkpt lat="47.26153" lon="-1.43684">
        <ele>7.53</ele>
        <time>2020-05-21T10:18:03Z</time>
      </trkpt>
      <trkpt lat="47.26146" lon="-1.43694">
        <ele>7.48</ele>
        <time>2020-05-21T10:18:04Z</time>
      </trkpt>
      <trkpt lat="47.26133" lon="-1.43713">
        <ele>7.49</ele>
        <time>2020-05-21T10:18:06Z</time>
      </trkpt>
      <trkpt lat="47.26123" lon="-1.43729">
        <ele>5.99</ele>
        <time>2020-05-21T10:18:08Z</time>
      </trkpt>
      <trkpt lat="47.26113" lon="-1.43744">
        <ele>4.51</ele>
        <time>2020-05-21T10:18:10Z</time>
      </trkpt>
      <trkpt lat="47.261" lon="-1.43757">
        <ele>3.33</ele>
        <time>2020-05-21T10:18:12Z</time>
      </trkpt>
      <trkpt lat="47.2609" lon="-1.43768">
        <ele>3.15</ele>
        <time>2020-05-21T10:18:14Z</time>
      </trkpt>
      <trkpt lat="47.26081" lon="-1.43777">
        <ele>3.41</ele>
        <time>2020-05-21T10:18:16Z</time>
      </trkpt>
      <trkpt lat="47.26068" lon="-1.43792">
        <ele>3.33</ele>
        <time>2020-05-21T10:18:18Z</time>
      </trkpt>
      <trkpt lat="47.26058" lon="-1.43807">
        <ele>3.09</ele>
        <time>2020-05-21T10:18:20Z</time>
      </trkpt>
      <trkpt lat="47.2605" lon="-1.43827">
        <ele>2.95</ele>
        <time>2020-05-21T10:18:22Z</time>
      </trkpt>
      <trkpt lat="47.26043" lon="-1.43844">
        <ele>2.74</ele>
        <time>2020-05-21T10:18:24Z</time>
      </trkpt>
      <trkpt lat="47.26035" lon="-1.4386">
        <ele>2.02</ele>
        <time>2020-05-21T10:18:26Z</time>
      </trkpt>
      <trkpt lat="47.26026" lon="-1.43874">
        <ele>1.56</ele>
        <time>2020-05-21T10:18:28Z</time>
      </trkpt>
      <trkpt lat="47.26016" lon="-1.43882">
        <ele>2.34</ele>
        <time>2020-05-21T10:18:30Z</time>
      </trkpt>
      <trkpt lat="47.26006" lon="-1.43892">
        <ele>2.82</ele>
        <time>2020-05-21T10:18:32Z</time>
      </trkpt>
      <trkpt lat="47.25997" lon="-1.43903">
        <ele>3.47</ele>
        <time>2020-05-21T10:18:34Z</time>
      </trkpt>
      <trkpt lat="47.25987" lon="-1.43914">
        <ele>4.32</ele>
        <time>2020-05-21T10:18:36Z</time>
      </trkpt>
      <trkpt lat="47.25977" lon="-1.43927">
        <ele>4.92</ele>
        <time>2020-05-21T10:18:38Z</time>
      </trkpt>
      <trkpt lat="47.25966" lon="-1.43941">
        <ele>5.4</ele>
        <time>2020-05-21T10:18:40Z</time>
      </trkpt>
      <trkpt lat="47.25957" lon="-1.43952">
        <ele>6.59</ele>
        <time>2020-05-21T10:18:42Z</time>
      </trkpt>
      <trkpt lat="47.25946" lon="-1.43964">
        <ele>6.96</ele>
        <time>2020-05-21T10:18:44Z</time>
      </trkpt>
      <trkpt lat="47.25936" lon="-1.43977">
        <ele>7.67</ele>
        <time>2020-05-21T10:18:46Z</time>
      </trkpt>
      <trkpt lat="47.25925" lon="-1.4399">
        <ele>7.59</ele>
        <time>2020-05-21T10:18:48Z</time>
      </trkpt>
      <trkpt lat="47.25913" lon="-1.44004">
        <ele>7.01</ele>
        <time>2020-05-21T10:18:50Z</time>
      </trkpt>
      <trkpt lat="47.25903" lon="-1.44017">
        <ele>6.94</ele>
        <time>2020-05-21T10:18:52Z</time>
      </trkpt>
      <trkpt lat="47.25891" lon="-1.4403">
        <ele>5.4</ele>
        <time>2020-05-21T10:18:54Z</time>
      </trkpt>
      <trkpt lat="47.25881" lon="-1.44044">
        <ele>4.96</ele>
        <time>2020-05-21T10:18:56Z</time>
      </trkpt>
      <trkpt lat="47.25873" lon="-1.4406">
        <ele>5.63</ele>
        <time>2020-05-21T10:18:58Z</time>
      </trkpt>
      <trkpt lat="47.25867" lon="-1.44078">
        <ele>6.3</ele>
        <time>2020-05-21T10:19:00Z</time>
      </trkpt>
      <trkpt lat="47.2586" lon="-1.44094">
        <ele>5.79</ele>
        <time>2020-05-21T10:19:02Z</time>
      </trkpt>
      <trkpt lat="47.25852" lon="-1.44105">
        <ele>5.27</ele>
        <time>2020-05-21T10:19:04Z</time>
      </trkpt>
      <trkpt lat="47.2584" lon="-1.44119">
        <ele>4.43</ele>
        <time>2020-05-21T10:19:06Z</time>
      </trkpt>
      <trkpt lat="47.25831" lon="-1.44129">
        <ele>3.39</ele>
        <time>2020-05-21T10:19:08Z</time>
      </trkpt>
      <trkpt lat="47.25819" lon="-1.44142">
        <ele>3.49</ele>
        <time>2020-05-21T10:19:10Z</time>
      </trkpt>
      <trkpt lat="47.25807" lon="-1.44154">
        <ele>3.3</ele>
        <time>2020-05-21T10:19:12Z</time>
      </trkpt>
      <trkpt lat="47.25797" lon="-1.44164">
        <ele>2.59</ele>
        <time>2020-05-21T10:19:14Z</time>
      </trkpt>
      <trkpt lat="47.25789" lon="-1.44174">
        <ele>2.84</ele>
        <time>2020-05-21T10:19:16Z</time>
      </trkpt>
      <trkpt lat="47.25778" lon="-1.44186">
        <ele>2.8</ele>
        <time>2020-05-21T10:19:18Z</time>
      </trkpt>
      <trkpt lat="47.25767" lon="-1.44198">
        <ele>2.66</ele>
        <time>2020-05-21T10:19:20Z</time>
      </trkpt>
      <trkpt lat="47.25756" lon="-1.44209">
        <ele>2.87</ele>
        <time>2020-05-21T10:19:22Z</time>
      </trkpt>
      <trkpt lat="47.25746" lon="-1.44221">
        <ele>2.04</ele>
        <time>2020-05-21T10:19:24Z</time>
      </trkpt>
      <trkpt lat="47.25737" lon="-1.44234">
        <ele>1.64</ele>
        <time>2020-05-21T10:19:26Z</time>
      </trkpt>
      <trkpt lat="47.25727" lon="-1.44247">
        <ele>1.25</ele>
        <time>2020-05-21T10:19:28Z</time>
      </trkpt>
      <trkpt lat="47.25717" lon="-1.4426">
        <ele>0.9</ele>
        <time>2020-05-21T10:19:30Z</time>
      </trkpt>
      <trkpt lat="47.25707" lon="-1.44274">
        <ele>0.45</ele>
        <time>2020-05-21T10:19:32Z</time>
      </trkpt>
      <trkpt lat="47.25697" lon="-1.44286">
        <ele>-0.14</ele>
        <time>2020-05-21T10:19:34Z</time>
      </trkpt>
      <trkpt lat="47.25688" lon="-1.44297">
        <ele>-0.92</ele>
        <time>2020-05-21T10:19:36Z</time>
      </trkpt>
      <trkpt lat="47.25679" lon="-1.44307">
        <ele>-0.85</ele>
        <time>2020-05-21T10:19:38Z</time>
      </trkpt>
      <trkpt lat="47.25671" lon="-1.44317">
        <ele>0.13</ele>
        <time>2020-05-21T10:19:40Z</time>
      </trkpt>
      <trkpt lat="47.25663" lon="-1.44329">
        <ele>0.68</ele>
        <time>2020-05-21T10:19:42Z</time>
      </trkpt>
      <trkpt lat="47.25653" lon="-1.44341">
        <ele>1.12</ele>
        <time>2020-05-21T10:19:44Z</time>
      </trkpt>
      <trkpt lat="47.25643" lon="-1.44351">
        <ele>1.73</ele>
        <time>2020-05-21T10:19:46Z</time>
      </trkpt>
      <trkpt lat="47.25635" lon="-1.44361">
        <ele>2.38</ele>
        <time>2020-05-21T10:19:48Z</time>
      </trkpt>
      <trkpt lat="47.25628" lon="-1.4437">
        <ele>3.52</ele>
        <time>2020-05-21T10:19:50Z</time>
      </trkpt>
      <trkpt lat="47.25618" lon="-1.44381">
        <ele>4.37</ele>
        <time>2020-05-21T10:19:52Z</time>
      </trkpt>
      <trkpt lat="47.25608" lon="-1.44391">
        <ele>4.2</ele>
        <time>2020-05-21T10:19:54Z</time>
      </trkpt>
      <trkpt lat="47.25597" lon="-1.44403">
        <ele>3.87</ele>
        <time>2020-05-21T10:19:56Z</time>
      </trkpt>
      <trkpt lat="47.25587" lon="-1.44414">
        <ele>2.9</ele>
        <time>2020-05-21T10:19:58Z</time>
      </trkpt>
      <trkpt lat="47.25574" lon="-1.44429">
        <ele>2.52</ele>
        <time>2020-05-21T10:20:00Z</time>
      </trkpt>
      <trkpt lat="47.25566" lon="-1.44438">
        <ele>2.47</ele>
        <time>2020-05-21T10:20:01Z</time>
      </trkpt>
      <trkpt lat="47.25559" lon="-1.44449">
        <ele>2.37</ele>
        <time>2020-05-21T10:20:02Z</time>
      </trkpt>
      <trkpt lat="47.25551" lon="-1.44458">
        <ele>2.32</ele>
        <time>2020-05-21T10:20:03Z</time>
      </trkpt>
      <trkpt lat="47.25545" lon="-1.44468">
        <ele>1.96</ele>
        <time>2020-05-21T10:20:04Z</time>
      </trkpt>
      <trkpt lat="47.25538" lon="-1.44478">
        <ele>1.58</ele>
        <time>2020-05-21T10:20:05Z</time>
      </trkpt>
      <trkpt lat="47.25531" lon="-1.44489">
        <ele>1.46</ele>
        <time>2020-05-21T10:20:06Z</time>
      </trkpt>
      <trkpt lat="47.25518" lon="-1.44507">
        <ele>1.03</ele>
        <time>2020-05-21T10:20:08Z</time>
      </trkpt>
      <trkpt lat="47.25508" lon="-1.44525">
        <ele>1.27</ele>
        <time>2020-05-21T10:20:10Z</time>
      </trkpt>
      <trkpt lat="47.25497" lon="-1.44542">
        <ele>1.83</ele>
        <time>2020-05-21T10:20:12Z</time>
      </trkpt>
      <trkpt lat="47.25486" lon="-1.44559">
        <ele>2.21</ele>
        <time>2020-05-21T10:20:14Z</time>
      </trkpt>
      <trkpt lat="47.25475" lon="-1.44575">
        <ele>2.8</ele>
        <time>2020-05-21T10:20:16Z</time>
      </trkpt>
      <trkpt lat="47.25465" lon="-1.44588">
        <ele>3.15</ele>
        <time>2020-05-21T10:20:18Z</time>
      </trkpt>
      <trkpt lat="47.25455" lon="-1.44603">
        <ele>3.08</ele>
        <time>2020-05-21T10:20:20Z</time>
      </trkpt>
      <trkpt lat="47.25446" lon="-1.44617">
        <ele>3.73</ele>
        <time>2020-05-21T10:20:22Z</time>
      </trkpt>
      <trkpt lat="47.25435" lon="-1.44632">
        <ele>4.69</ele>
        <time>2020-05-21T10:20:24Z</time>
      </trkpt>
      <trkpt lat="47.25426" lon="-1.44646">
        <ele>4.56</ele>
        <time>2020-05-21T10:20:26Z</time>
      </trkpt>
      <trkpt lat="47.25416" lon="-1.4466">
        <ele>3.98</ele>
        <time>2020-05-21T10:20:28Z</time>
      </trkpt>
      <trkpt lat="47.25404" lon="-1.44676">
        <ele>4.27</ele>
        <time>2020-05-21T10:20:30Z</time>
      </trkpt>
      <trkpt lat="47.25393" lon="-1.4469">
        <ele>4.55</ele>
        <time>2020-05-21T10:20:32Z</time>
      </trkpt>
      <trkpt lat="47.25381" lon="-1.44705">
        <ele>4.86</ele>
        <time>2020-05-21T10:20:34Z</time>
      </trkpt>
      <trkpt lat="47.2537" lon="-1.44718">
        <ele>5.13</ele>
        <time>2020-05-21T10:20:36Z</time>
      </trkpt>
      <trkpt lat="47.25359" lon="-1.4473">
        <ele>5.37</ele>
        <time>2020-05-21T10:20:38Z</time>
      </trkpt>
      <trkpt lat="47.25347" lon="-1.44741">
        <ele>5.4</ele>
        <time>2020-05-21T10:20:40Z</time>
      </trkpt>
      <trkpt lat="47.25335" lon="-1.44752">
        <ele>5.52</ele>
        <time>2020-05-21T10:20:42Z</time>
      </trkpt>
      <trkpt lat="47.25323" lon="-1.44763">
        <ele>5.77</ele>
        <time>2020-05-21T10:20:44Z</time>
      </trkpt>
      <trkpt lat="47.25312" lon="-1.44776">
        <ele>5.96</ele>
        <time>2020-05-21T10:20:46Z</time>
      </trkpt>
      <trkpt lat="47.253" lon="-1.44789">
        <ele>5.95</ele>
        <time>2020-05-21T10:20:48Z</time>
      </trkpt>
      <trkpt lat="47.25288" lon="-1.44802">
        <ele>6.46</ele>
        <time>2020-05-21T10:20:50Z</time>
      </trkpt>
      <trkpt lat="47.25277" lon="-1.44813">
        <ele>6.66</ele>
        <time>2020-05-21T10:20:52Z</time>
      </trkpt>
      <trkpt lat="47.25266" lon="-1.44825">
        <ele>7.35</ele>
        <time>2020-05-21T10:20:54Z</time>
      </trkpt>
      <trkpt lat="47.25255" lon="-1.44839">
        <ele>7.97</ele>
        <time>2020-05-21T10:20:56Z</time>
      </trkpt>
      <trkpt lat="47.25243" lon="-1.44853">
        <ele>7.44</ele>
        <time>2020-05-21T10:20:58Z</time>
      </trkpt>
      <trkpt lat="47.25231" lon="-1.44865">
        <ele>7.22</ele>
        <time>2020-05-21T10:21:00Z</time>
      </trkpt>
      <trkpt lat="47.25218" lon="-1.44877">
        <ele>6.73</ele>
        <time>2020-05-21T10:21:02Z</time>
      </trkpt>
      <trkpt lat="47.25206" lon="-1.44888">
        <ele>6.49</ele>
        <time>2020-05-21T10:21:04Z</time>
      </trkpt>
      <trkpt lat="47.25194" lon="-1.44898">
        <ele>6.7</ele>
        <time>2020-05-21T10:21:06Z</time>
      </trkpt>
      <trkpt lat="47.2518" lon="-1.44909">
        <ele>7.44</ele>
        <time>2020-05-21T10:21:08Z</time>
      </trkpt>
      <trkpt lat="47.25167" lon="-1.44919">
        <ele>7.69</ele>
        <time>2020-05-21T10:21:10Z</time>
      </trkpt>
      <trkpt lat="47.25155" lon="-1.44929">
        <ele>7.49</ele>
        <time>2020-05-21T10:21:12Z</time>
      </trkpt>
      <trkpt lat="47.25141" lon="-1.44941">
        <ele>6.56</ele>
        <time>2020-05-21T10:21:14Z</time>
      </trkpt>
      <trkpt lat="47.25129" lon="-1.44952">
        <ele>5.4</ele>
        <time>2020-05-21T10:21:16Z</time>
      </trkpt>
      <trkpt lat="47.25118" lon="-1.44963">
        <ele>4.92</ele>
        <time>2020-05-21T10:21:18Z</time>
      </trkpt>
      <trkpt lat="47.25107" lon="-1.44976">
        <ele>4.27</ele>
        <time>2020-05-21T10:21:20Z</time>
      </trkpt>
      <trkpt lat="47.25096" lon="-1.44987">
        <ele>4.24</ele>
        <time>2020-05-21T10:21:22Z</time>
      </trkpt>
      <trkpt lat="47.25083" lon="-1.44998">
        <ele>4.22</ele>
        <time>2020-05-21T10:21:24Z</time>
      </trkpt>
      <trkpt lat="47.25071" lon="-1.45008">
        <ele>4.49</ele>
        <time>2020-05-21T10:21:26Z</time>
      </trkpt>
      <trkpt lat="47.2506" lon="-1.45017">
        <ele>4.09</ele>
        <time>2020-05-21T10:21:28Z</time>
      </trkpt>
      <trkpt lat="47.25048" lon="-1.45026">
        <ele>2.88</ele>
        <time>2020-05-21T10:21:30Z</time>
      </trkpt>
      <trkpt lat="47.25034" lon="-1.45036">
        <ele>2.19</ele>
        <time>2020-05-21T10:21:32Z</time>
      </trkpt>
      <trkpt lat="47.25021" lon="-1.45045">
        <ele>2.96</ele>
        <time>2020-05-21T10:21:34Z</time>
      </trkpt>
      <trkpt lat="47.25006" lon="-1.45057">
        <ele>3.43</ele>
        <time>2020-05-21T10:21:36Z</time>
      </trkpt>
      <trkpt lat="47.24994" lon="-1.45068">
        <ele>4.17</ele>
        <time>2020-05-21T10:21:38Z</time>
      </trkpt>
      <trkpt lat="47.24983" lon="-1.45081">
        <ele>4.31</ele>
        <time>2020-05-21T10:21:40Z</time>
      </trkpt>
      <trkpt lat="47.24973" lon="-1.45094">
        <ele>2.45</ele>
        <time>2020-05-21T10:21:42Z</time>
      </trkpt>
      <trkpt lat="47.24961" lon="-1.45108">
        <ele>2.06</ele>
        <time>2020-05-21T10:21:44Z</time>
      </trkpt>
      <trkpt lat="47.2495" lon="-1.4512">
        <ele>2.12</ele>
        <time>2020-05-21T10:21:46Z</time>
      </trkpt>
      <trkpt lat="47.2494" lon="-1.45131">
        <ele>1.93</ele>
        <time>2020-05-21T10:21:48Z</time>
      </trkpt>
      <trkpt lat="47.24928" lon="-1.45142">
        <ele>1.29</ele>
        <time>2020-05-21T10:21:50Z</time>
      </trkpt>
      <trkpt lat="47.24916" lon="-1.45155">
        <ele>1.5</ele>
        <time>2020-05-21T10:21:52Z</time>
      </trkpt>
      <trkpt lat="47.24905" lon="-1.45168">
        <ele>0.57</ele>
        <time>2020-05-21T10:21:54Z</time>
      </trkpt>
      <trkpt lat="47.24895" lon="-1.45178">
        <ele>-0.69</ele>
        <time>2020-05-21T10:21:56Z</time>
      </trkpt>
      <trkpt lat="47.24889" lon="-1.45191">
        <ele>-0.61</ele>
        <time>2020-05-21T10:21:58Z</time>
      </trkpt>
      <trkpt lat="47.24878" lon="-1.45205">
        <ele>1.02</ele>
        <time>2020-05-21T10:22:00Z</time>
      </trkpt>
      <trkpt lat="47.2487" lon="-1.45216">
        <ele>2.92</ele>
        <time>2020-05-21T10:22:02Z</time>
      </trkpt>
      <trkpt lat="47.24861" lon="-1.45229">
        <ele>4.53</ele>
        <time>2020-05-21T10:22:04Z</time>
      </trkpt>
      <trkpt lat="47.24852" lon="-1.45243">
        <ele>6.04</ele>
        <time>2020-05-21T10:22:06Z</time>
      </trkpt>
      <trkpt lat="47.24844" lon="-1.45256">
        <ele>6.88</ele>
        <time>2020-05-21T10:22:08Z</time>
      </trkpt>
      <trkpt lat="47.24836" lon="-1.4527">
        <ele>6.5</ele>
        <time>2020-05-21T10:22:10Z</time>
      </trkpt>
      <trkpt lat="47.24829" lon="-1.45284">
        <ele>5.88</ele>
        <time>2020-05-21T10:22:12Z</time>
      </trkpt>
      <trkpt lat="47.24821" lon="-1.453">
        <ele>5.08</ele>
        <time>2020-05-21T10:22:14Z</time>
      </trkpt>
      <trkpt lat="47.24815" lon="-1.45315">
        <ele>3.85</ele>
        <time>2020-05-21T10:22:16Z</time>
      </trkpt>
      <trkpt lat="47.24807" lon="-1.45331">
        <ele>4.04</ele>
        <time>2020-05-21T10:22:18Z</time>
      </trkpt>
      <trkpt lat="47.24797" lon="-1.45353">
        <ele>4.14</ele>
        <time>2020-05-21T10:22:20Z</time>
      </trkpt>
      <trkpt lat="47.24789" lon="-1.4537">
        <ele>4.95</ele>
        <time>2020-05-21T10:22:22Z</time>
      </trkpt>
      <trkpt lat="47.24781" lon="-1.45391">
        <ele>5.13</ele>
        <time>2020-05-21T10:22:24Z</time>
      </trkpt>
      <trkpt lat="47.24776" lon="-1.4541">
        <ele>5.85</ele>
        <time>2020-05-21T10:22:26Z</time>
      </trkpt>
      <trkpt lat="47.24768" lon="-1.4543">
        <ele>5.5</ele>
        <time>2020-05-21T10:22:28Z</time>
      </trkpt>
      <trkpt lat="47.2476" lon="-1.45447">
        <ele>5.44</ele>
        <time>2020-05-21T10:22:30Z</time>
      </trkpt>
      <trkpt lat="47.24753" lon="-1.45463">
        <ele>5.21</ele>
        <time>2020-05-21T10:22:32Z</time>
      </trkpt>
      <trkpt lat="47.24747" lon="-1.4548">
        <ele>5.17</ele>
        <time>2020-05-21T10:22:34Z</time>
      </trkpt>
      <trkpt lat="47.24739" lon="-1.45498">
        <ele>4.95</ele>
        <time>2020-05-21T10:22:36Z</time>
      </trkpt>
      <trkpt lat="47.24731" lon="-1.45517">
        <ele>4.74</ele>
        <time>2020-05-21T10:22:38Z</time>
      </trkpt>
      <trkpt lat="47.24723" lon="-1.45535">
        <ele>4.45</ele>
        <time>2020-05-21T10:22:40Z</time>
      </trkpt>
      <trkpt lat="47.24715" lon="-1.45553">
        <ele>4.4</ele>
        <time>2020-05-21T10:22:42Z</time>
      </trkpt>
      <trkpt lat="47.24709" lon="-1.45571">
        <ele>4.37</ele>
        <time>2020-05-21T10:22:44Z</time>
      </trkpt>
      <trkpt lat="47.24703" lon="-1.4559">
        <ele>3.2</ele>
        <time>2020-05-21T10:22:46Z</time>
      </trkpt>
      <trkpt lat="47.24698" lon="-1.45607">
        <ele>3.46</ele>
        <time>2020-05-21T10:22:48Z</time>
      </trkpt>
      <trkpt lat="47.24693" lon="-1.45626">
        <ele>4.46</ele>
        <time>2020-05-21T10:22:50Z</time>
      </trkpt>
      <trkpt lat="47.24688" lon="-1.45644">
        <ele>4.41</ele>
        <time>2020-05-21T10:22:52Z</time>
      </trkpt>
      <trkpt lat="47.24682" lon="-1.4566">
        <ele>3.18</ele>
        <time>2020-05-21T10:22:54Z</time>
      </trkpt>
      <trkpt lat="47.24677" lon="-1.45675">
        <ele>1.55</ele>
        <time>2020-05-21T10:22:56Z</time>
      </trkpt>
      <trkpt lat="47.24674" lon="-1.45693">
        <ele>0.41</ele>
        <time>2020-05-21T10:22:58Z</time>
      </trkpt>
      <trkpt lat="47.2467" lon="-1.45712">
        <ele>0.08</ele>
        <time>2020-05-21T10:23:00Z</time>
      </trkpt>
      <trkpt lat="47.24666" lon="-1.45729">
        <ele>0.63</ele>
        <time>2020-05-21T10:23:02Z</time>
      </trkpt>
      <trkpt lat="47.24662" lon="-1.45748">
        <ele>2.25</ele>
        <time>2020-05-21T10:23:04Z</time>
      </trkpt>
      <trkpt lat="47.24659" lon="-1.45767">
        <ele>4.28</ele>
        <time>2020-05-21T10:23:06Z</time>
      </trkpt>
      <trkpt lat="47.24654" lon="-1.45788">
        <ele>4.64</ele>
        <time>2020-05-21T10:23:08Z</time>
      </trkpt>
      <trkpt lat="47.24649" lon="-1.45808">
        <ele>4.67</ele>
        <time>2020-05-21T10:23:10Z</time>
      </trkpt>
      <trkpt lat="47.24643" lon="-1.45827">
        <ele>4.84</ele>
        <time>2020-05-21T10:23:12Z</time>
      </trkpt>
      <trkpt lat="47.24638" lon="-1.45845">
        <ele>6.26</ele>
        <time>2020-05-21T10:23:14Z</time>
      </trkpt>
      <trkpt lat="47.24633" lon="-1.45862">
        <ele>8.07</ele>
        <time>2020-05-21T10:23:16Z</time>
      </trkpt>
      <trkpt lat="47.24628" lon="-1.45882">
        <ele>8.36</ele>
        <time>2020-05-21T10:23:18Z</time>
      </trkpt>
      <trkpt lat="47.24622" lon="-1.45901">
        <ele>8.74</ele>
        <time>2020-05-21T10:23:20Z</time>
      </trkpt>
      <trkpt lat="47.24618" lon="-1.4592">
        <ele>8.83</ele>
        <time>2020-05-21T10:23:22Z</time>
      </trkpt>
      <trkpt lat="47.24611" lon="-1.45938">
        <ele>8.94</ele>
        <time>2020-05-21T10:23:24Z</time>
      </trkpt>
      <trkpt lat="47.24605" lon="-1.45954">
        <ele>8.94</ele>
        <time>2020-05-21T10:23:26Z</time>
      </trkpt>
      <trkpt lat="47.24597" lon="-1.4597">
        <ele>8.81</ele>
        <time>2020-05-21T10:23:28Z</time>
      </trkpt>
      <trkpt lat="47.24589" lon="-1.45988">
        <ele>9.42</ele>
        <time>2020-05-21T10:23:30Z</time>
      </trkpt>
      <trkpt lat="47.24581" lon="-1.46005">
        <ele>10.41</ele>
        <time>2020-05-21T10:23:32Z</time>
      </trkpt>
      <trkpt lat="47.24572" lon="-1.46025">
        <ele>10.86</ele>
        <time>2020-05-21T10:23:34Z</time>
      </trkpt>
      <trkpt lat="47.24565" lon="-1.4604">
        <ele>11.47</ele>
        <time>2020-05-21T10:23:36Z</time>
      </trkpt>
      <trkpt lat="47.24556" lon="-1.46056">
        <ele>12.23</ele>
        <time>2020-05-21T10:23:38Z</time>
      </trkpt>
      <trkpt lat="47.24546" lon="-1.46073">
        <ele>12.04</ele>
        <time>2020-05-21T10:23:40Z</time>
      </trkpt>
      <trkpt lat="47.24537" lon="-1.4609">
        <ele>11.92</ele>
        <time>2020-05-21T10:23:42Z</time>
      </trkpt>
      <trkpt lat="47.24527" lon="-1.46107">
        <ele>11.6</ele>
        <time>2020-05-21T10:23:44Z</time>
      </trkpt>
      <trkpt lat="47.24514" lon="-1.46119">
        <ele>10.81</ele>
        <time>2020-05-21T10:23:46Z</time>
      </trkpt>
      <trkpt lat="47.24503" lon="-1.46131">
        <ele>10.01</ele>
        <time>2020-05-21T10:23:48Z</time>
      </trkpt>
      <trkpt lat="47.24493" lon="-1.46144">
        <ele>10.67</ele>
        <time>2020-05-21T10:23:50Z</time>
      </trkpt>
      <trkpt lat="47.24482" lon="-1.46158">
        <ele>10.74</ele>
        <time>2020-05-21T10:23:52Z</time>
      </trkpt>
      <trkpt lat="47.24472" lon="-1.46171">
        <ele>11.17</ele>
        <time>2020-05-21T10:23:54Z</time>
      </trkpt>
      <trkpt lat="47.24462" lon="-1.46184">
        <ele>11.53</ele>
        <time>2020-05-21T10:23:56Z</time>
      </trkpt>
      <trkpt lat="47.2445" lon="-1.46199">
        <ele>12.29</ele>
        <time>2020-05-21T10:23:58Z</time>
      </trkpt>
      <trkpt lat="47.2444" lon="-1.46212">
        <ele>12.2</ele>
        <time>2020-05-21T10:24:00Z</time>
      </trkpt>
      <trkpt lat="47.24431" lon="-1.46224">
        <ele>11.96</ele>
        <time>2020-05-21T10:24:02Z</time>
      </trkpt>
      <trkpt lat="47.2442" lon="-1.46237">
        <ele>11.55</ele>
        <time>2020-05-21T10:24:04Z</time>
      </trkpt>
      <trkpt lat="47.2441" lon="-1.4625">
        <ele>12.1</ele>
        <time>2020-05-21T10:24:06Z</time>
      </trkpt>
      <trkpt lat="47.244" lon="-1.46264">
        <ele>13.32</ele>
        <time>2020-05-21T10:24:08Z</time>
      </trkpt>
      <trkpt lat="47.24392" lon="-1.46277">
        <ele>14.13</ele>
        <time>2020-05-21T10:24:10Z</time>
      </trkpt>
      <trkpt lat="47.24383" lon="-1.46288">
        <ele>13.4</ele>
        <time>2020-05-21T10:24:12Z</time>
      </trkpt>
      <trkpt lat="47.24373" lon="-1.46303">
        <ele>12.21</ele>
        <time>2020-05-21T10:24:14Z</time>
      </trkpt>
      <trkpt lat="47.24363" lon="-1.46319">
        <ele>11.41</ele>
        <time>2020-05-21T10:24:16Z</time>
      </trkpt>
      <trkpt lat="47.24354" lon="-1.46333">
        <ele>10.46</ele>
        <time>2020-05-21T10:24:18Z</time>
      </trkpt>
      <trkpt lat="47.24345" lon="-1.46346">
        <ele>10.57</ele>
        <time>2020-05-21T10:24:20Z</time>
      </trkpt>
      <trkpt lat="47.24335" lon="-1.46363">
        <ele>10.54</ele>
        <time>2020-05-21T10:24:22Z</time>
      </trkpt>
      <trkpt lat="47.24326" lon="-1.4638">
        <ele>10.01</ele>
        <time>2020-05-21T10:24:24Z</time>
      </trkpt>
      <trkpt lat="47.24316" lon="-1.46397">
        <ele>8.94</ele>
        <time>2020-05-21T10:24:26Z</time>
      </trkpt>
      <trkpt lat="47.24307" lon="-1.46413">
        <ele>7.41</ele>
        <time>2020-05-21T10:24:28Z</time>
      </trkpt>
      <trkpt lat="47.24296" lon="-1.4643">
        <ele>6.76</ele>
        <time>2020-05-21T10:24:30Z</time>
      </trkpt>
      <trkpt lat="47.24287" lon="-1.46445">
        <ele>7.12</ele>
        <time>2020-05-21T10:24:32Z</time>
      </trkpt>
      <trkpt lat="47.24278" lon="-1.46457">
        <ele>8.26</ele>
        <time>2020-05-21T10:24:34Z</time>
      </trkpt>
      <trkpt lat="47.24267" lon="-1.46471">
        <ele>9.64</ele>
        <time>2020-05-21T10:24:36Z</time>
      </trkpt>
      <trkpt lat="47.24257" lon="-1.46486">
        <ele>10.2</ele>
        <time>2020-05-21T10:24:38Z</time>
      </trkpt>
      <trkpt lat="47.24246" lon="-1.46499">
        <ele>9.51</ele>
        <time>2020-05-21T10:24:40Z</time>
      </trkpt>
      <trkpt lat="47.24236" lon="-1.46511">
        <ele>8.92</ele>
        <time>2020-05-21T10:24:42Z</time>
      </trkpt>
      <trkpt lat="47.24226" lon="-1.46523">
        <ele>8.98</ele>
        <time>2020-05-21T10:24:44Z</time>
      </trkpt>
      <trkpt lat="47.24215" lon="-1.46537">
        <ele>9.56</ele>
        <time>2020-05-21T10:24:46Z</time>
      </trkpt>
      <trkpt lat="47.24207" lon="-1.46548">
        <ele>9.96</ele>
        <time>2020-05-21T10:24:48Z</time>
      </trkpt>
      <trkpt lat="47.24197" lon="-1.46561">
        <ele>10.05</ele>
        <time>2020-05-21T10:24:50Z</time>
      </trkpt>
      <trkpt lat="47.24186" lon="-1.46575">
        <ele>10.04</ele>
        <time>2020-05-21T10:24:52Z</time>
      </trkpt>
      <trkpt lat="47.24176" lon="-1.46588">
        <ele>9.39</ele>
        <time>2020-05-21T10:24:54Z</time>
      </trkpt>
      <trkpt lat="47.24165" lon="-1.46601">
        <ele>8.41</ele>
        <time>2020-05-21T10:24:56Z</time>
      </trkpt>
      <trkpt lat="47.24156" lon="-1.46614">
        <ele>7.02</ele>
        <time>2020-05-21T10:24:58Z</time>
      </trkpt>
      <trkpt lat="47.24146" lon="-1.46627">
        <ele>5.87</ele>
        <time>2020-05-21T10:25:00Z</time>
      </trkpt>
      <trkpt lat="47.24138" lon="-1.46638">
        <ele>6.82</ele>
        <time>2020-05-21T10:25:02Z</time>
      </trkpt>
      <trkpt lat="47.24127" lon="-1.46654">
        <ele>7.89</ele>
        <time>2020-05-21T10:25:04Z</time>
      </trkpt>
      <trkpt lat="47.24118" lon="-1.46667">
        <ele>8.01</ele>
        <time>2020-05-21T10:25:06Z</time>
      </trkpt>
      <trkpt lat="47.24108" lon="-1.4668">
        <ele>7.66</ele>
        <time>2020-05-21T10:25:08Z</time>
      </trkpt>
      <trkpt lat="47.24099" lon="-1.46693">
        <ele>7.13</ele>
        <time>2020-05-21T10:25:10Z</time>
      </trkpt>
      <trkpt lat="47.24091" lon="-1.46706">
        <ele>6.63</ele>
        <time>2020-05-21T10:25:12Z</time>
      </trkpt>
      <trkpt lat="47.24081" lon="-1.46722">
        <ele>6.06</ele>
        <time>2020-05-21T10:25:14Z</time>
      </trkpt>
      <trkpt lat="47.24075" lon="-1.46736">
        <ele>5.18</ele>
        <time>2020-05-21T10:25:16Z</time>
      </trkpt>
      <trkpt lat="47.24065" lon="-1.4675">
        <ele>3.91</ele>
        <time>2020-05-21T10:25:18Z</time>
      </trkpt>
      <trkpt lat="47.24053" lon="-1.46758">
        <ele>3.04</ele>
        <time>2020-05-21T10:25:20Z</time>
      </trkpt>
      <trkpt lat="47.24042" lon="-1.46768">
        <ele>2.87</ele>
        <time>2020-05-21T10:25:22Z</time>
      </trkpt>
      <trkpt lat="47.24031" lon="-1.46779">
        <ele>3.28</ele>
        <time>2020-05-21T10:25:24Z</time>
      </trkpt>
      <trkpt lat="47.24019" lon="-1.46791">
        <ele>3.49</ele>
        <time>2020-05-21T10:25:26Z</time>
      </trkpt>
      <trkpt lat="47.24008" lon="-1.46803">
        <ele>3.54</ele>
        <time>2020-05-21T10:25:28Z</time>
      </trkpt>
      <trkpt lat="47.23998" lon="-1.46815">
        <ele>3.2</ele>
        <time>2020-05-21T10:25:30Z</time>
      </trkpt>
      <trkpt lat="47.23986" lon="-1.46827">
        <ele>3.53</ele>
        <time>2020-05-21T10:25:32Z</time>
      </trkpt>
      <trkpt lat="47.23976" lon="-1.46837">
        <ele>4.53</ele>
        <time>2020-05-21T10:25:34Z</time>
      </trkpt>
      <trkpt lat="47.23965" lon="-1.46848">
        <ele>4.91</ele>
        <time>2020-05-21T10:25:36Z</time>
      </trkpt>
      <trkpt lat="47.23954" lon="-1.4686">
        <ele>5.92</ele>
        <time>2020-05-21T10:25:38Z</time>
      </trkpt>
      <trkpt lat="47.23942" lon="-1.46871">
        <ele>5.49</ele>
        <time>2020-05-21T10:25:40Z</time>
      </trkpt>
      <trkpt lat="47.23931" lon="-1.4688">
        <ele>4.29</ele>
        <time>2020-05-21T10:25:43Z</time>
      </trkpt>
      <trkpt lat="47.23919" lon="-1.46892">
        <ele>3.49</ele>
        <time>2020-05-21T10:25:44Z</time>
      </trkpt>
      <trkpt lat="47.23908" lon="-1.46905">
        <ele>2.66</ele>
        <time>2020-05-21T10:25:47Z</time>
      </trkpt>
      <trkpt lat="47.23897" lon="-1.46917">
        <ele>2.18</ele>
        <time>2020-05-21T10:25:49Z</time>
      </trkpt>
      <trkpt lat="47.23887" lon="-1.46928">
        <ele>2.43</ele>
        <time>2020-05-21T10:25:51Z</time>
      </trkpt>
      <trkpt lat="47.23879" lon="-1.46941">
        <ele>3.76</ele>
        <time>2020-05-21T10:25:53Z</time>
      </trkpt>
      <trkpt lat="47.23868" lon="-1.46955">
        <ele>5.17</ele>
        <time>2020-05-21T10:25:55Z</time>
      </trkpt>
      <trkpt lat="47.23858" lon="-1.46969">
        <ele>5.28</ele>
        <time>2020-05-21T10:25:57Z</time>
      </trkpt>
      <trkpt lat="47.23847" lon="-1.46985">
        <ele>4.95</ele>
        <time>2020-05-21T10:25:59Z</time>
      </trkpt>
      <trkpt lat="47.23837" lon="-1.46999">
        <ele>4.77</ele>
        <time>2020-05-21T10:26:01Z</time>
      </trkpt>
      <trkpt lat="47.23828" lon="-1.47012">
        <ele>3.97</ele>
        <time>2020-05-21T10:26:03Z</time>
      </trkpt>
      <trkpt lat="47.23818" lon="-1.47027">
        <ele>3.41</ele>
        <time>2020-05-21T10:26:05Z</time>
      </trkpt>
      <trkpt lat="47.23809" lon="-1.47042">
        <ele>3.12</ele>
        <time>2020-05-21T10:26:07Z</time>
      </trkpt>
      <trkpt lat="47.23799" lon="-1.47056">
        <ele>2.92</ele>
        <time>2020-05-21T10:26:09Z</time>
      </trkpt>
      <trkpt lat="47.23791" lon="-1.47068">
        <ele>3.2</ele>
        <time>2020-05-21T10:26:11Z</time>
      </trkpt>
      <trkpt lat="47.23781" lon="-1.47082">
        <ele>2.71</ele>
        <time>2020-05-21T10:26:13Z</time>
      </trkpt>
      <trkpt lat="47.23771" lon="-1.47095">
        <ele>2.88</ele>
        <time>2020-05-21T10:26:15Z</time>
      </trkpt>
      <trkpt lat="47.23761" lon="-1.47109">
        <ele>2.47</ele>
        <time>2020-05-21T10:26:17Z</time>
      </trkpt>
      <trkpt lat="47.23751" lon="-1.47121">
        <ele>2.43</ele>
        <time>2020-05-21T10:26:19Z</time>
      </trkpt>
      <trkpt lat="47.23743" lon="-1.47133">
        <ele>2.56</ele>
        <time>2020-05-21T10:26:21Z</time>
      </trkpt>
      <trkpt lat="47.23732" lon="-1.47146">
        <ele>2.78</ele>
        <time>2020-05-21T10:26:23Z</time>
      </trkpt>
      <trkpt lat="47.23722" lon="-1.47157">
        <ele>2</ele>
        <time>2020-05-21T10:26:25Z</time>
      </trkpt>
      <trkpt lat="47.23711" lon="-1.47172">
        <ele>1.48</ele>
        <time>2020-05-21T10:26:27Z</time>
      </trkpt>
      <trkpt lat="47.237" lon="-1.47185">
        <ele>2.1</ele>
        <time>2020-05-21T10:26:29Z</time>
      </trkpt>
      <trkpt lat="47.2369" lon="-1.472">
        <ele>2.55</ele>
        <time>2020-05-21T10:26:31Z</time>
      </trkpt>
      <trkpt lat="47.23679" lon="-1.47217">
        <ele>3.01</ele>
        <time>2020-05-21T10:26:33Z</time>
      </trkpt>
      <trkpt lat="47.2367" lon="-1.47232">
        <ele>2.63</ele>
        <time>2020-05-21T10:26:35Z</time>
      </trkpt>
      <trkpt lat="47.23661" lon="-1.47243">
        <ele>2.79</ele>
        <time>2020-05-21T10:26:37Z</time>
      </trkpt>
      <trkpt lat="47.23651" lon="-1.47255">
        <ele>3.26</ele>
        <time>2020-05-21T10:26:39Z</time>
      </trkpt>
      <trkpt lat="47.2364" lon="-1.47266">
        <ele>2.95</ele>
        <time>2020-05-21T10:26:41Z</time>
      </trkpt>
      <trkpt lat="47.23628" lon="-1.4728">
        <ele>2.8</ele>
        <time>2020-05-21T10:26:43Z</time>
      </trkpt>
      <trkpt lat="47.23617" lon="-1.47292">
        <ele>2.78</ele>
        <time>2020-05-21T10:26:45Z</time>
      </trkpt>
      <trkpt lat="47.23606" lon="-1.47305">
        <ele>2.71</ele>
        <time>2020-05-21T10:26:47Z</time>
      </trkpt>
      <trkpt lat="47.23595" lon="-1.47315">
        <ele>3.01</ele>
        <time>2020-05-21T10:26:49Z</time>
      </trkpt>
      <trkpt lat="47.23583" lon="-1.47327">
        <ele>2.39</ele>
        <time>2020-05-21T10:26:51Z</time>
      </trkpt>
      <trkpt lat="47.23573" lon="-1.47337">
        <ele>2.22</ele>
        <time>2020-05-21T10:26:53Z</time>
      </trkpt>
      <trkpt lat="47.23561" lon="-1.47346">
        <ele>2.45</ele>
        <time>2020-05-21T10:26:55Z</time>
      </trkpt>
      <trkpt lat="47.23548" lon="-1.47357">
        <ele>2.61</ele>
        <time>2020-05-21T10:26:57Z</time>
      </trkpt>
      <trkpt lat="47.23535" lon="-1.47368">
        <ele>2.6</ele>
        <time>2020-05-21T10:26:59Z</time>
      </trkpt>
      <trkpt lat="47.23522" lon="-1.47379">
        <ele>1.9</ele>
        <time>2020-05-21T10:27:01Z</time>
      </trkpt>
      <trkpt lat="47.2351" lon="-1.47389">
        <ele>1.02</ele>
        <time>2020-05-21T10:27:03Z</time>
      </trkpt>
      <trkpt lat="47.23498" lon="-1.47399">
        <ele>0.51</ele>
        <time>2020-05-21T10:27:05Z</time>
      </trkpt>
      <trkpt lat="47.23485" lon="-1.4741">
        <ele>-0.97</ele>
        <time>2020-05-21T10:27:07Z</time>
      </trkpt>
      <trkpt lat="47.23473" lon="-1.47414">
        <ele>-1.14</ele>
        <time>2020-05-21T10:27:09Z</time>
      </trkpt>
      <trkpt lat="47.23463" lon="-1.47418">
        <ele>-0.24</ele>
        <time>2020-05-21T10:27:11Z</time>
      </trkpt>
      <trkpt lat="47.23451" lon="-1.47421">
        <ele>1.71</ele>
        <time>2020-05-21T10:27:13Z</time>
      </trkpt>
      <trkpt lat="47.23439" lon="-1.47425">
        <ele>3.55</ele>
        <time>2020-05-21T10:27:15Z</time>
      </trkpt>
      <trkpt lat="47.23429" lon="-1.47429">
        <ele>5.54</ele>
        <time>2020-05-21T10:27:17Z</time>
      </trkpt>
      <trkpt lat="47.23417" lon="-1.47435">
        <ele>6.7</ele>
        <time>2020-05-21T10:27:19Z</time>
      </trkpt>
      <trkpt lat="47.23408" lon="-1.47442">
        <ele>8.06</ele>
        <time>2020-05-21T10:27:21Z</time>
      </trkpt>
      <trkpt lat="47.23396" lon="-1.47449">
        <ele>9.02</ele>
        <time>2020-05-21T10:27:23Z</time>
      </trkpt>
      <trkpt lat="47.23384" lon="-1.47456">
        <ele>8.69</ele>
        <time>2020-05-21T10:27:25Z</time>
      </trkpt>
      <trkpt lat="47.23372" lon="-1.47463">
        <ele>8.8</ele>
        <time>2020-05-21T10:27:27Z</time>
      </trkpt>
      <trkpt lat="47.23356" lon="-1.47472">
        <ele>8.61</ele>
        <time>2020-05-21T10:27:29Z</time>
      </trkpt>
      <trkpt lat="47.23341" lon="-1.47481">
        <ele>6.28</ele>
        <time>2020-05-21T10:27:31Z</time>
      </trkpt>
      <trkpt lat="47.23329" lon="-1.47499">
        <ele>3.2</ele>
        <time>2020-05-21T10:27:33Z</time>
      </trkpt>
      <trkpt lat="47.23317" lon="-1.47512">
        <ele>5.5</ele>
        <time>2020-05-21T10:27:35Z</time>
      </trkpt>
      <trkpt lat="47.23307" lon="-1.47515">
        <ele>6.92</ele>
        <time>2020-05-21T10:27:37Z</time>
      </trkpt>
      <trkpt lat="47.23292" lon="-1.47522">
        <ele>8.76</ele>
        <time>2020-05-21T10:27:39Z</time>
      </trkpt>
      <trkpt lat="47.23278" lon="-1.4753">
        <ele>10</ele>
        <time>2020-05-21T10:27:41Z</time>
      </trkpt>
      <trkpt lat="47.23267" lon="-1.4754">
        <ele>9.88</ele>
        <time>2020-05-21T10:27:43Z</time>
      </trkpt>
      <trkpt lat="47.23257" lon="-1.47554">
        <ele>9.96</ele>
        <time>2020-05-21T10:27:45Z</time>
      </trkpt>
      <trkpt lat="47.23247" lon="-1.4757">
        <ele>8.89</ele>
        <time>2020-05-21T10:27:47Z</time>
      </trkpt>
      <trkpt lat="47.23237" lon="-1.47586">
        <ele>8</ele>
        <time>2020-05-21T10:27:49Z</time>
      </trkpt>
      <trkpt lat="47.23229" lon="-1.476">
        <ele>6.26</ele>
        <time>2020-05-21T10:27:51Z</time>
      </trkpt>
      <trkpt lat="47.23219" lon="-1.47617">
        <ele>6.72</ele>
        <time>2020-05-21T10:27:53Z</time>
      </trkpt>
      <trkpt lat="47.23212" lon="-1.47633">
        <ele>7.17</ele>
        <time>2020-05-21T10:27:55Z</time>
      </trkpt>
      <trkpt lat="47.23204" lon="-1.47651">
        <ele>7.17</ele>
        <time>2020-05-21T10:27:57Z</time>
      </trkpt>
      <trkpt lat="47.23197" lon="-1.4767">
        <ele>6.34</ele>
        <time>2020-05-21T10:27:59Z</time>
      </trkpt>
      <trkpt lat="47.2319" lon="-1.47686">
        <ele>6.66</ele>
        <time>2020-05-21T10:28:01Z</time>
      </trkpt>
      <trkpt lat="47.23182" lon="-1.47705">
        <ele>6.86</ele>
        <time>2020-05-21T10:28:03Z</time>
      </trkpt>
      <trkpt lat="47.23175" lon="-1.47721">
        <ele>6.85</ele>
        <time>2020-05-21T10:28:05Z</time>
      </trkpt>
      <trkpt lat="47.23167" lon="-1.47741">
        <ele>7.54</ele>
        <time>2020-05-21T10:28:07Z</time>
      </trkpt>
      <trkpt lat="47.2316" lon="-1.47759">
        <ele>8.42</ele>
        <time>2020-05-21T10:28:09Z</time>
      </trkpt>
      <trkpt lat="47.23152" lon="-1.47778">
        <ele>8.48</ele>
        <time>2020-05-21T10:28:11Z</time>
      </trkpt>
      <trkpt lat="47.23144" lon="-1.47796">
        <ele>7.76</ele>
        <time>2020-05-21T10:28:13Z</time>
      </trkpt>
      <trkpt lat="47.23137" lon="-1.47817">
        <ele>6.84</ele>
        <time>2020-05-21T10:28:15Z</time>
      </trkpt>
      <trkpt lat="47.2313" lon="-1.47835">
        <ele>5.76</ele>
        <time>2020-05-21T10:28:17Z</time>
      </trkpt>
      <trkpt lat="47.23122" lon="-1.47854">
        <ele>4.34</ele>
        <time>2020-05-21T10:28:19Z</time>
      </trkpt>
      <trkpt lat="47.23113" lon="-1.47872">
        <ele>3.93</ele>
        <time>2020-05-21T10:28:21Z</time>
      </trkpt>
      <trkpt lat="47.23103" lon="-1.47886">
        <ele>3.48</ele>
        <time>2020-05-21T10:28:23Z</time>
      </trkpt>
      <trkpt lat="47.23093" lon="-1.47901">
        <ele>2.8</ele>
        <time>2020-05-21T10:28:25Z</time>
      </trkpt>
      <trkpt lat="47.23081" lon="-1.47915">
        <ele>1.32</ele>
        <time>2020-05-21T10:28:27Z</time>
      </trkpt>
      <trkpt lat="47.2307" lon="-1.47928">
        <ele>0.67</ele>
        <time>2020-05-21T10:28:29Z</time>
      </trkpt>
      <trkpt lat="47.2306" lon="-1.47942">
        <ele>1.11</ele>
        <time>2020-05-21T10:28:31Z</time>
      </trkpt>
      <trkpt lat="47.23049" lon="-1.47956">
        <ele>1.96</ele>
        <time>2020-05-21T10:28:33Z</time>
      </trkpt>
      <trkpt lat="47.2304" lon="-1.47968">
        <ele>3.12</ele>
        <time>2020-05-21T10:28:35Z</time>
      </trkpt>
      <trkpt lat="47.23031" lon="-1.4798">
        <ele>4.6</ele>
        <time>2020-05-21T10:28:37Z</time>
      </trkpt>
      <trkpt lat="47.23021" lon="-1.47993">
        <ele>5.75</ele>
        <time>2020-05-21T10:28:39Z</time>
      </trkpt>
      <trkpt lat="47.23011" lon="-1.4801">
        <ele>6.55</ele>
        <time>2020-05-21T10:28:41Z</time>
      </trkpt>
      <trkpt lat="47.23001" lon="-1.48024">
        <ele>7.77</ele>
        <time>2020-05-21T10:28:43Z</time>
      </trkpt>
      <trkpt lat="47.22991" lon="-1.4804">
        <ele>7.86</ele>
        <time>2020-05-21T10:28:45Z</time>
      </trkpt>
      <trkpt lat="47.22981" lon="-1.48057">
        <ele>7.69</ele>
        <time>2020-05-21T10:28:47Z</time>
      </trkpt>
      <trkpt lat="47.22973" lon="-1.48073">
        <ele>7.85</ele>
        <time>2020-05-21T10:28:49Z</time>
      </trkpt>
      <trkpt lat="47.22965" lon="-1.48086">
        <ele>7.25</ele>
        <time>2020-05-21T10:28:51Z</time>
      </trkpt>
      <trkpt lat="47.22957" lon="-1.48096">
        <ele>6.67</ele>
        <time>2020-05-21T10:28:53Z</time>
      </trkpt>
      <trkpt lat="47.2295" lon="-1.48109">
        <ele>4.33</ele>
        <time>2020-05-21T10:28:56Z</time>
      </trkpt>
      <trkpt lat="47.22939" lon="-1.48114">
        <ele>3.93</ele>
        <time>2020-05-21T10:28:58Z</time>
      </trkpt>
      <trkpt lat="47.22924" lon="-1.48115">
        <ele>5.39</ele>
        <time>2020-05-21T10:29:00Z</time>
      </trkpt>
      <trkpt lat="47.22911" lon="-1.4812">
        <ele>6.47</ele>
        <time>2020-05-21T10:29:02Z</time>
      </trkpt>
      <trkpt lat="47.229" lon="-1.48131">
        <ele>6.45</ele>
        <time>2020-05-21T10:29:04Z</time>
      </trkpt>
      <trkpt lat="47.22889" lon="-1.48145">
        <ele>6.27</ele>
        <time>2020-05-21T10:29:06Z</time>
      </trkpt>
      <trkpt lat="47.22878" lon="-1.4816">
        <ele>6.04</ele>
        <time>2020-05-21T10:29:08Z</time>
      </trkpt>
      <trkpt lat="47.22869" lon="-1.48175">
        <ele>5.23</ele>
        <time>2020-05-21T10:29:10Z</time>
      </trkpt>
      <trkpt lat="47.2286" lon="-1.48189">
        <ele>5</ele>
        <time>2020-05-21T10:29:12Z</time>
      </trkpt>
      <trkpt lat="47.22851" lon="-1.48203">
        <ele>5.28</ele>
        <time>2020-05-21T10:29:14Z</time>
      </trkpt>
      <trkpt lat="47.22843" lon="-1.48217">
        <ele>5.57</ele>
        <time>2020-05-21T10:29:16Z</time>
      </trkpt>
      <trkpt lat="47.22833" lon="-1.48233">
        <ele>5.58</ele>
        <time>2020-05-21T10:29:18Z</time>
      </trkpt>
      <trkpt lat="47.22825" lon="-1.48246">
        <ele>5.63</ele>
        <time>2020-05-21T10:29:20Z</time>
      </trkpt>
      <trkpt lat="47.22814" lon="-1.4826">
        <ele>5.32</ele>
        <time>2020-05-21T10:29:22Z</time>
      </trkpt>
      <trkpt lat="47.22804" lon="-1.48274">
        <ele>3.86</ele>
        <time>2020-05-21T10:29:24Z</time>
      </trkpt>
      <trkpt lat="47.22795" lon="-1.48289">
        <ele>2.63</ele>
        <time>2020-05-21T10:29:26Z</time>
      </trkpt>
      <trkpt lat="47.22787" lon="-1.48303">
        <ele>2.8</ele>
        <time>2020-05-21T10:29:28Z</time>
      </trkpt>
      <trkpt lat="47.22777" lon="-1.4832">
        <ele>3.27</ele>
        <time>2020-05-21T10:29:30Z</time>
      </trkpt>
      <trkpt lat="47.22768" lon="-1.48336">
        <ele>3.62</ele>
        <time>2020-05-21T10:29:32Z</time>
      </trkpt>
      <trkpt lat="47.22758" lon="-1.48351">
        <ele>3.92</ele>
        <time>2020-05-21T10:29:34Z</time>
      </trkpt>
      <trkpt lat="47.22748" lon="-1.48365">
        <ele>3.49</ele>
        <time>2020-05-21T10:29:36Z</time>
      </trkpt>
      <trkpt lat="47.22737" lon="-1.48381">
        <ele>3.49</ele>
        <time>2020-05-21T10:29:38Z</time>
      </trkpt>
      <trkpt lat="47.22726" lon="-1.48395">
        <ele>3.17</ele>
        <time>2020-05-21T10:29:40Z</time>
      </trkpt>
      <trkpt lat="47.22716" lon="-1.48408">
        <ele>1.77</ele>
        <time>2020-05-21T10:29:42Z</time>
      </trkpt>
      <trkpt lat="47.22705" lon="-1.48422">
        <ele>1.53</ele>
        <time>2020-05-21T10:29:44Z</time>
      </trkpt>
      <trkpt lat="47.22698" lon="-1.48441">
        <ele>1.77</ele>
        <time>2020-05-21T10:29:46Z</time>
      </trkpt>
      <trkpt lat="47.22691" lon="-1.48457">
        <ele>2.07</ele>
        <time>2020-05-21T10:29:48Z</time>
      </trkpt>
      <trkpt lat="47.22686" lon="-1.48472">
        <ele>2.45</ele>
        <time>2020-05-21T10:29:50Z</time>
      </trkpt>
      <trkpt lat="47.22677" lon="-1.48492">
        <ele>2.12</ele>
        <time>2020-05-21T10:29:52Z</time>
      </trkpt>
      <trkpt lat="47.2267" lon="-1.48509">
        <ele>1.88</ele>
        <time>2020-05-21T10:29:54Z</time>
      </trkpt>
      <trkpt lat="47.22663" lon="-1.48525">
        <ele>1.88</ele>
        <time>2020-05-21T10:29:56Z</time>
      </trkpt>
      <trkpt lat="47.22657" lon="-1.48545">
        <ele>2.01</ele>
        <time>2020-05-21T10:29:58Z</time>
      </trkpt>
      <trkpt lat="47.22651" lon="-1.48565">
        <ele>1.7</ele>
        <time>2020-05-21T10:30:00Z</time>
      </trkpt>
      <trkpt lat="47.22645" lon="-1.48582">
        <ele>1.82</ele>
        <time>2020-05-21T10:30:02Z</time>
      </trkpt>
      <trkpt lat="47.22639" lon="-1.486">
        <ele>1.94</ele>
        <time>2020-05-21T10:30:04Z</time>
      </trkpt>
      <trkpt lat="47.22632" lon="-1.48615">
        <ele>2.12</ele>
        <time>2020-05-21T10:30:06Z</time>
      </trkpt>
      <trkpt lat="47.22626" lon="-1.48631">
        <ele>2.55</ele>
        <time>2020-05-21T10:30:08Z</time>
      </trkpt>
      <trkpt lat="47.22619" lon="-1.4865">
        <ele>2.62</ele>
        <time>2020-05-21T10:30:10Z</time>
      </trkpt>
      <trkpt lat="47.22612" lon="-1.48671">
        <ele>3.35</ele>
        <time>2020-05-21T10:30:12Z</time>
      </trkpt>
      <trkpt lat="47.22605" lon="-1.48691">
        <ele>2.98</ele>
        <time>2020-05-21T10:30:14Z</time>
      </trkpt>
      <trkpt lat="47.22599" lon="-1.48709">
        <ele>2.25</ele>
        <time>2020-05-21T10:30:16Z</time>
      </trkpt>
      <trkpt lat="47.22594" lon="-1.48727">
        <ele>1.83</ele>
        <time>2020-05-21T10:30:18Z</time>
      </trkpt>
      <trkpt lat="47.22589" lon="-1.48744">
        <ele>1.41</ele>
        <time>2020-05-21T10:30:20Z</time>
      </trkpt>
      <trkpt lat="47.22584" lon="-1.48765">
        <ele>0.58</ele>
        <time>2020-05-21T10:30:22Z</time>
      </trkpt>
      <trkpt lat="47.22579" lon="-1.48785">
        <ele>-0.24</ele>
        <time>2020-05-21T10:30:24Z</time>
      </trkpt>
      <trkpt lat="47.22573" lon="-1.48804">
        <ele>-0.51</ele>
        <time>2020-05-21T10:30:26Z</time>
      </trkpt>
      <trkpt lat="47.22567" lon="-1.48823">
        <ele>-0.26</ele>
        <time>2020-05-21T10:30:28Z</time>
      </trkpt>
      <trkpt lat="47.22561" lon="-1.48841">
        <ele>1.26</ele>
        <time>2020-05-21T10:30:30Z</time>
      </trkpt>
      <trkpt lat="47.22556" lon="-1.48859">
        <ele>2.71</ele>
        <time>2020-05-21T10:30:32Z</time>
      </trkpt>
      <trkpt lat="47.22549" lon="-1.48879">
        <ele>3.64</ele>
        <time>2020-05-21T10:30:34Z</time>
      </trkpt>
      <trkpt lat="47.22545" lon="-1.48897">
        <ele>4</ele>
        <time>2020-05-21T10:30:36Z</time>
      </trkpt>
      <trkpt lat="47.22539" lon="-1.48915">
        <ele>4.71</ele>
        <time>2020-05-21T10:30:38Z</time>
      </trkpt>
      <trkpt lat="47.22532" lon="-1.48935">
        <ele>5.18</ele>
        <time>2020-05-21T10:30:40Z</time>
      </trkpt>
      <trkpt lat="47.22528" lon="-1.48947">
        <ele>5.43</ele>
        <time>2020-05-21T10:30:41Z</time>
      </trkpt>
      <trkpt lat="47.22522" lon="-1.48964">
        <ele>5.02</ele>
        <time>2020-05-21T10:30:43Z</time>
      </trkpt>
      <trkpt lat="47.22516" lon="-1.48981">
        <ele>4.54</ele>
        <time>2020-05-21T10:30:45Z</time>
      </trkpt>
      <trkpt lat="47.2251" lon="-1.48996">
        <ele>5.15</ele>
        <time>2020-05-21T10:30:47Z</time>
      </trkpt>
      <trkpt lat="47.22506" lon="-1.49013">
        <ele>5.87</ele>
        <time>2020-05-21T10:30:49Z</time>
      </trkpt>
      <trkpt lat="47.22501" lon="-1.49033">
        <ele>6.98</ele>
        <time>2020-05-21T10:30:51Z</time>
      </trkpt>
      <trkpt lat="47.22495" lon="-1.49051">
        <ele>7.05</ele>
        <time>2020-05-21T10:30:53Z</time>
      </trkpt>
      <trkpt lat="47.22488" lon="-1.49069">
        <ele>6.43</ele>
        <time>2020-05-21T10:30:55Z</time>
      </trkpt>
      <trkpt lat="47.22482" lon="-1.49088">
        <ele>5.4</ele>
        <time>2020-05-21T10:30:57Z</time>
      </trkpt>
      <trkpt lat="47.22476" lon="-1.49105">
        <ele>6.42</ele>
        <time>2020-05-21T10:30:59Z</time>
      </trkpt>
      <trkpt lat="47.22471" lon="-1.49124">
        <ele>6.67</ele>
        <time>2020-05-21T10:31:01Z</time>
      </trkpt>
      <trkpt lat="47.22466" lon="-1.49145">
        <ele>6.5</ele>
        <time>2020-05-21T10:31:03Z</time>
      </trkpt>
      <trkpt lat="47.2246" lon="-1.49163">
        <ele>6.49</ele>
        <time>2020-05-21T10:31:05Z</time>
      </trkpt>
      <trkpt lat="47.22455" lon="-1.4918">
        <ele>6.4</ele>
        <time>2020-05-21T10:31:07Z</time>
      </trkpt>
      <trkpt lat="47.22448" lon="-1.49199">
        <ele>6.01</ele>
        <time>2020-05-21T10:31:09Z</time>
      </trkpt>
      <trkpt lat="47.22441" lon="-1.49216">
        <ele>5.51</ele>
        <time>2020-05-21T10:31:11Z</time>
      </trkpt>
      <trkpt lat="47.22436" lon="-1.49233">
        <ele>4.85</ele>
        <time>2020-05-21T10:31:13Z</time>
      </trkpt>
      <trkpt lat="47.2243" lon="-1.49251">
        <ele>5.24</ele>
        <time>2020-05-21T10:31:15Z</time>
      </trkpt>
      <trkpt lat="47.22424" lon="-1.49268">
        <ele>5.48</ele>
        <time>2020-05-21T10:31:17Z</time>
      </trkpt>
      <trkpt lat="47.22417" lon="-1.49285">
        <ele>4.4</ele>
        <time>2020-05-21T10:31:19Z</time>
      </trkpt>
      <trkpt lat="47.2241" lon="-1.49305">
        <ele>3.84</ele>
        <time>2020-05-21T10:31:21Z</time>
      </trkpt>
      <trkpt lat="47.22402" lon="-1.49325">
        <ele>3.63</ele>
        <time>2020-05-21T10:31:23Z</time>
      </trkpt>
      <trkpt lat="47.22396" lon="-1.49339">
        <ele>4.05</ele>
        <time>2020-05-21T10:31:25Z</time>
      </trkpt>
      <trkpt lat="47.22389" lon="-1.49357">
        <ele>5.43</ele>
        <time>2020-05-21T10:31:27Z</time>
      </trkpt>
      <trkpt lat="47.22382" lon="-1.49375">
        <ele>5.87</ele>
        <time>2020-05-21T10:31:29Z</time>
      </trkpt>
      <trkpt lat="47.22375" lon="-1.49393">
        <ele>6.14</ele>
        <time>2020-05-21T10:31:31Z</time>
      </trkpt>
      <trkpt lat="47.22369" lon="-1.49408">
        <ele>5.57</ele>
        <time>2020-05-21T10:31:33Z</time>
      </trkpt>
      <trkpt lat="47.22362" lon="-1.49422">
        <ele>5.42</ele>
        <time>2020-05-21T10:31:35Z</time>
      </trkpt>
      <trkpt lat="47.22355" lon="-1.49439">
        <ele>4.48</ele>
        <time>2020-05-21T10:31:37Z</time>
      </trkpt>
      <trkpt lat="47.22346" lon="-1.49458">
        <ele>4.11</ele>
        <time>2020-05-21T10:31:39Z</time>
      </trkpt>
      <trkpt lat="47.22339" lon="-1.49477">
        <ele>4.47</ele>
        <time>2020-05-21T10:31:41Z</time>
      </trkpt>
      <trkpt lat="47.22333" lon="-1.49495">
        <ele>4.85</ele>
        <time>2020-05-21T10:31:43Z</time>
      </trkpt>
      <trkpt lat="47.22328" lon="-1.49514">
        <ele>5.86</ele>
        <time>2020-05-21T10:31:45Z</time>
      </trkpt>
      <trkpt lat="47.22324" lon="-1.4953">
        <ele>6.67</ele>
        <time>2020-05-21T10:31:47Z</time>
      </trkpt>
      <trkpt lat="47.22319" lon="-1.49546">
        <ele>7.34</ele>
        <time>2020-05-21T10:31:49Z</time>
      </trkpt>
      <trkpt lat="47.22313" lon="-1.49563">
        <ele>8.5</ele>
        <time>2020-05-21T10:31:51Z</time>
      </trkpt>
      <trkpt lat="47.22307" lon="-1.4958">
        <ele>8.98</ele>
        <time>2020-05-21T10:31:53Z</time>
      </trkpt>
      <trkpt lat="47.22299" lon="-1.49598">
        <ele>9.4</ele>
        <time>2020-05-21T10:31:55Z</time>
      </trkpt>
      <trkpt lat="47.22292" lon="-1.49615">
        <ele>9.72</ele>
        <time>2020-05-21T10:31:57Z</time>
      </trkpt>
      <trkpt lat="47.22287" lon="-1.49635">
        <ele>9.08</ele>
        <time>2020-05-21T10:31:59Z</time>
      </trkpt>
      <trkpt lat="47.22281" lon="-1.49657">
        <ele>8.49</ele>
        <time>2020-05-21T10:32:01Z</time>
      </trkpt>
      <trkpt lat="47.22275" lon="-1.49676">
        <ele>8.27</ele>
        <time>2020-05-21T10:32:03Z</time>
      </trkpt>
      <trkpt lat="47.22269" lon="-1.49693">
        <ele>7.83</ele>
        <time>2020-05-21T10:32:05Z</time>
      </trkpt>
      <trkpt lat="47.22264" lon="-1.49707">
        <ele>7.79</ele>
        <time>2020-05-21T10:32:07Z</time>
      </trkpt>
      <trkpt lat="47.22258" lon="-1.49725">
        <ele>8.16</ele>
        <time>2020-05-21T10:32:09Z</time>
      </trkpt>
      <trkpt lat="47.22252" lon="-1.49746">
        <ele>7.85</ele>
        <time>2020-05-21T10:32:11Z</time>
      </trkpt>
      <trkpt lat="47.22248" lon="-1.49767">
        <ele>6.91</ele>
        <time>2020-05-21T10:32:13Z</time>
      </trkpt>
      <trkpt lat="47.22247" lon="-1.49785">
        <ele>6.67</ele>
        <time>2020-05-21T10:32:15Z</time>
      </trkpt>
      <trkpt lat="47.22244" lon="-1.49807">
        <ele>6.86</ele>
        <time>2020-05-21T10:32:17Z</time>
      </trkpt>
      <trkpt lat="47.22241" lon="-1.49826">
        <ele>6.94</ele>
        <time>2020-05-21T10:32:19Z</time>
      </trkpt>
      <trkpt lat="47.22236" lon="-1.49844">
        <ele>7.47</ele>
        <time>2020-05-21T10:32:21Z</time>
      </trkpt>
      <trkpt lat="47.22231" lon="-1.49861">
        <ele>7.32</ele>
        <time>2020-05-21T10:32:23Z</time>
      </trkpt>
      <trkpt lat="47.22226" lon="-1.4988">
        <ele>6.76</ele>
        <time>2020-05-21T10:32:25Z</time>
      </trkpt>
      <trkpt lat="47.2222" lon="-1.49901">
        <ele>6.02</ele>
        <time>2020-05-21T10:32:27Z</time>
      </trkpt>
      <trkpt lat="47.22216" lon="-1.49918">
        <ele>5.04</ele>
        <time>2020-05-21T10:32:29Z</time>
      </trkpt>
      <trkpt lat="47.22212" lon="-1.49937">
        <ele>4.71</ele>
        <time>2020-05-21T10:32:31Z</time>
      </trkpt>
      <trkpt lat="47.22207" lon="-1.49959">
        <ele>4.89</ele>
        <time>2020-05-21T10:32:33Z</time>
      </trkpt>
      <trkpt lat="47.22203" lon="-1.4998">
        <ele>5.12</ele>
        <time>2020-05-21T10:32:35Z</time>
      </trkpt>
      <trkpt lat="47.22197" lon="-1.49999">
        <ele>5.27</ele>
        <time>2020-05-21T10:32:37Z</time>
      </trkpt>
      <trkpt lat="47.22192" lon="-1.50018">
        <ele>6.12</ele>
        <time>2020-05-21T10:32:39Z</time>
      </trkpt>
      <trkpt lat="47.22187" lon="-1.50039">
        <ele>7.24</ele>
        <time>2020-05-21T10:32:41Z</time>
      </trkpt>
      <trkpt lat="47.22182" lon="-1.50061">
        <ele>7.75</ele>
        <time>2020-05-21T10:32:43Z</time>
      </trkpt>
      <trkpt lat="47.22177" lon="-1.50083">
        <ele>7.42</ele>
        <time>2020-05-21T10:32:45Z</time>
      </trkpt>
      <trkpt lat="47.22172" lon="-1.50101">
        <ele>7.1</ele>
        <time>2020-05-21T10:32:47Z</time>
      </trkpt>
      <trkpt lat="47.22166" lon="-1.50122">
        <ele>6.46</ele>
        <time>2020-05-21T10:32:49Z</time>
      </trkpt>
      <trkpt lat="47.22158" lon="-1.50143">
        <ele>5.56</ele>
        <time>2020-05-21T10:32:51Z</time>
      </trkpt>
      <trkpt lat="47.22151" lon="-1.50165">
        <ele>5.06</ele>
        <time>2020-05-21T10:32:53Z</time>
      </trkpt>
      <trkpt lat="47.22147" lon="-1.50182">
        <ele>5.56</ele>
        <time>2020-05-21T10:32:55Z</time>
      </trkpt>
      <trkpt lat="47.22144" lon="-1.50204">
        <ele>6.82</ele>
        <time>2020-05-21T10:32:57Z</time>
      </trkpt>
      <trkpt lat="47.22139" lon="-1.50224">
        <ele>7.37</ele>
        <time>2020-05-21T10:32:59Z</time>
      </trkpt>
      <trkpt lat="47.22132" lon="-1.50243">
        <ele>6.98</ele>
        <time>2020-05-21T10:33:01Z</time>
      </trkpt>
      <trkpt lat="47.22126" lon="-1.50261">
        <ele>6.23</ele>
        <time>2020-05-21T10:33:03Z</time>
      </trkpt>
      <trkpt lat="47.2212" lon="-1.5028">
        <ele>5.25</ele>
        <time>2020-05-21T10:33:05Z</time>
      </trkpt>
      <trkpt lat="47.22112" lon="-1.50298">
        <ele>4.68</ele>
        <time>2020-05-21T10:33:07Z</time>
      </trkpt>
      <trkpt lat="47.22103" lon="-1.50314">
        <ele>4.7</ele>
        <time>2020-05-21T10:33:09Z</time>
      </trkpt>
      <trkpt lat="47.22095" lon="-1.50328">
        <ele>3.86</ele>
        <time>2020-05-21T10:33:11Z</time>
      </trkpt>
      <trkpt lat="47.22088" lon="-1.50343">
        <ele>3.23</ele>
        <time>2020-05-21T10:33:13Z</time>
      </trkpt>
      <trkpt lat="47.22081" lon="-1.50362">
        <ele>2.84</ele>
        <time>2020-05-21T10:33:15Z</time>
      </trkpt>
      <trkpt lat="47.22077" lon="-1.50382">
        <ele>3</ele>
        <time>2020-05-21T10:33:17Z</time>
      </trkpt>
      <trkpt lat="47.22073" lon="-1.50402">
        <ele>3.31</ele>
        <time>2020-05-21T10:33:19Z</time>
      </trkpt>
      <trkpt lat="47.22069" lon="-1.50419">
        <ele>4.36</ele>
        <time>2020-05-21T10:33:21Z</time>
      </trkpt>
      <trkpt lat="47.22065" lon="-1.50437">
        <ele>5.19</ele>
        <time>2020-05-21T10:33:23Z</time>
      </trkpt>
      <trkpt lat="47.2206" lon="-1.50461">
        <ele>6.36</ele>
        <time>2020-05-21T10:33:25Z</time>
      </trkpt>
      <trkpt lat="47.22057" lon="-1.50477">
        <ele>7.25</ele>
        <time>2020-05-21T10:33:27Z</time>
      </trkpt>
      <trkpt lat="47.22055" lon="-1.50497">
        <ele>7.4</ele>
        <time>2020-05-21T10:33:29Z</time>
      </trkpt>
      <trkpt lat="47.22053" lon="-1.50518">
        <ele>6.31</ele>
        <time>2020-05-21T10:33:31Z</time>
      </trkpt>
      <trkpt lat="47.22053" lon="-1.50536">
        <ele>5.37</ele>
        <time>2020-05-21T10:33:33Z</time>
      </trkpt>
      <trkpt lat="47.22053" lon="-1.50556">
        <ele>4.46</ele>
        <time>2020-05-21T10:33:35Z</time>
      </trkpt>
      <trkpt lat="47.22052" lon="-1.50577">
        <ele>3.21</ele>
        <time>2020-05-21T10:33:37Z</time>
      </trkpt>
      <trkpt lat="47.22051" lon="-1.50597">
        <ele>2.89</ele>
        <time>2020-05-21T10:33:39Z</time>
      </trkpt>
      <trkpt lat="47.22051" lon="-1.50613">
        <ele>2.97</ele>
        <time>2020-05-21T10:33:41Z</time>
      </trkpt>
      <trkpt lat="47.2205" lon="-1.50627">
        <ele>2.98</ele>
        <time>2020-05-21T10:33:43Z</time>
      </trkpt>
      <trkpt lat="47.2205" lon="-1.50649">
        <ele>3.75</ele>
        <time>2020-05-21T10:33:45Z</time>
      </trkpt>
      <trkpt lat="47.22049" lon="-1.50669">
        <ele>4.29</ele>
        <time>2020-05-21T10:33:47Z</time>
      </trkpt>
      <trkpt lat="47.22048" lon="-1.50688">
        <ele>5.35</ele>
        <time>2020-05-21T10:33:49Z</time>
      </trkpt>
      <trkpt lat="47.22047" lon="-1.50706">
        <ele>6.43</ele>
        <time>2020-05-21T10:33:51Z</time>
      </trkpt>
      <trkpt lat="47.22043" lon="-1.50723">
        <ele>7.04</ele>
        <time>2020-05-21T10:33:53Z</time>
      </trkpt>
      <trkpt lat="47.22038" lon="-1.50745">
        <ele>7.79</ele>
        <time>2020-05-21T10:33:55Z</time>
      </trkpt>
      <trkpt lat="47.22034" lon="-1.50763">
        <ele>8.16</ele>
        <time>2020-05-21T10:33:57Z</time>
      </trkpt>
      <trkpt lat="47.2203" lon="-1.50779">
        <ele>7.3</ele>
        <time>2020-05-21T10:33:59Z</time>
      </trkpt>
      <trkpt lat="47.22025" lon="-1.50795">
        <ele>6.67</ele>
        <time>2020-05-21T10:34:01Z</time>
      </trkpt>
      <trkpt lat="47.22019" lon="-1.50813">
        <ele>5.13</ele>
        <time>2020-05-21T10:34:03Z</time>
      </trkpt>
      <trkpt lat="47.2201" lon="-1.50834">
        <ele>4.45</ele>
        <time>2020-05-21T10:34:05Z</time>
      </trkpt>
      <trkpt lat="47.22006" lon="-1.50846">
        <ele>4.32</ele>
        <time>2020-05-21T10:34:06Z</time>
      </trkpt>
      <trkpt lat="47.21997" lon="-1.50866">
        <ele>5.29</ele>
        <time>2020-05-21T10:34:08Z</time>
      </trkpt>
      <trkpt lat="47.21991" lon="-1.50887">
        <ele>6.36</ele>
        <time>2020-05-21T10:34:10Z</time>
      </trkpt>
      <trkpt lat="47.21984" lon="-1.50908">
        <ele>6.41</ele>
        <time>2020-05-21T10:34:12Z</time>
      </trkpt>
      <trkpt lat="47.21979" lon="-1.50925">
        <ele>6.03</ele>
        <time>2020-05-21T10:34:14Z</time>
      </trkpt>
      <trkpt lat="47.21975" lon="-1.50941">
        <ele>6.17</ele>
        <time>2020-05-21T10:34:16Z</time>
      </trkpt>
      <trkpt lat="47.2197" lon="-1.50958">
        <ele>5.88</ele>
        <time>2020-05-21T10:34:18Z</time>
      </trkpt>
      <trkpt lat="47.21964" lon="-1.50976">
        <ele>6.32</ele>
        <time>2020-05-21T10:34:20Z</time>
      </trkpt>
      <trkpt lat="47.21959" lon="-1.50995">
        <ele>7.05</ele>
        <time>2020-05-21T10:34:22Z</time>
      </trkpt>
      <trkpt lat="47.21953" lon="-1.51014">
        <ele>7.78</ele>
        <time>2020-05-21T10:34:24Z</time>
      </trkpt>
      <trkpt lat="47.21948" lon="-1.51034">
        <ele>6.9</ele>
        <time>2020-05-21T10:34:26Z</time>
      </trkpt>
      <trkpt lat="47.21944" lon="-1.51052">
        <ele>5.92</ele>
        <time>2020-05-21T10:34:28Z</time>
      </trkpt>
      <trkpt lat="47.21938" lon="-1.51065">
        <ele>5.92</ele>
        <time>2020-05-21T10:34:30Z</time>
      </trkpt>
      <trkpt lat="47.2193" lon="-1.51077">
        <ele>5.2</ele>
        <time>2020-05-21T10:34:32Z</time>
      </trkpt>
      <trkpt lat="47.21922" lon="-1.51093">
        <ele>4.86</ele>
        <time>2020-05-21T10:34:34Z</time>
      </trkpt>
      <trkpt lat="47.21917" lon="-1.51112">
        <ele>4.53</ele>
        <time>2020-05-21T10:34:36Z</time>
      </trkpt>
      <trkpt lat="47.21913" lon="-1.51129">
        <ele>3.93</ele>
        <time>2020-05-21T10:34:38Z</time>
      </trkpt>
      <trkpt lat="47.21908" lon="-1.51146">
        <ele>3.98</ele>
        <time>2020-05-21T10:34:40Z</time>
      </trkpt>
      <trkpt lat="47.21903" lon="-1.51165">
        <ele>4.1</ele>
        <time>2020-05-21T10:34:42Z</time>
      </trkpt>
      <trkpt lat="47.21898" lon="-1.51181">
        <ele>4.02</ele>
        <time>2020-05-21T10:34:44Z</time>
      </trkpt>
      <trkpt lat="47.21893" lon="-1.51198">
        <ele>3.82</ele>
        <time>2020-05-21T10:34:46Z</time>
      </trkpt>
      <trkpt lat="47.21888" lon="-1.51217">
        <ele>2.69</ele>
        <time>2020-05-21T10:34:48Z</time>
      </trkpt>
      <trkpt lat="47.21881" lon="-1.51237">
        <ele>2.66</ele>
        <time>2020-05-21T10:34:50Z</time>
      </trkpt>
      <trkpt lat="47.21876" lon="-1.51252">
        <ele>2.36</ele>
        <time>2020-05-21T10:34:52Z</time>
      </trkpt>
      <trkpt lat="47.2187" lon="-1.51269">
        <ele>1.99</ele>
        <time>2020-05-21T10:34:54Z</time>
      </trkpt>
      <trkpt lat="47.21864" lon="-1.51287">
        <ele>2.01</ele>
        <time>2020-05-21T10:34:56Z</time>
      </trkpt>
      <trkpt lat="47.21859" lon="-1.51306">
        <ele>2.39</ele>
        <time>2020-05-21T10:34:58Z</time>
      </trkpt>
      <trkpt lat="47.21854" lon="-1.51325">
        <ele>2.98</ele>
        <time>2020-05-21T10:35:00Z</time>
      </trkpt>
      <trkpt lat="47.21848" lon="-1.51342">
        <ele>3.28</ele>
        <time>2020-05-21T10:35:02Z</time>
      </trkpt>
      <trkpt lat="47.21843" lon="-1.5136">
        <ele>3.72</ele>
        <time>2020-05-21T10:35:04Z</time>
      </trkpt>
      <trkpt lat="47.21838" lon="-1.5138">
        <ele>3.65</ele>
        <time>2020-05-21T10:35:06Z</time>
      </trkpt>
      <trkpt lat="47.21833" lon="-1.51397">
        <ele>2.9</ele>
        <time>2020-05-21T10:35:08Z</time>
      </trkpt>
      <trkpt lat="47.21828" lon="-1.51418">
        <ele>3.02</ele>
        <time>2020-05-21T10:35:10Z</time>
      </trkpt>
      <trkpt lat="47.21824" lon="-1.51437">
        <ele>3.59</ele>
        <time>2020-05-21T10:35:12Z</time>
      </trkpt>
      <trkpt lat="47.2182" lon="-1.51455">
        <ele>3.87</ele>
        <time>2020-05-21T10:35:14Z</time>
      </trkpt>
      <trkpt lat="47.21815" lon="-1.51474">
        <ele>4.04</ele>
        <time>2020-05-21T10:35:16Z</time>
      </trkpt>
      <trkpt lat="47.21812" lon="-1.51493">
        <ele>3.84</ele>
        <time>2020-05-21T10:35:18Z</time>
      </trkpt>
      <trkpt lat="47.21805" lon="-1.51511">
        <ele>3.86</ele>
        <time>2020-05-21T10:35:20Z</time>
      </trkpt>
      <trkpt lat="47.21798" lon="-1.51527">
        <ele>3.38</ele>
        <time>2020-05-21T10:35:22Z</time>
      </trkpt>
      <trkpt lat="47.21791" lon="-1.51543">
        <ele>3.41</ele>
        <time>2020-05-21T10:35:24Z</time>
      </trkpt>
      <trkpt lat="47.21785" lon="-1.5156">
        <ele>3.77</ele>
        <time>2020-05-21T10:35:26Z</time>
      </trkpt>
      <trkpt lat="47.21776" lon="-1.51577">
        <ele>4.19</ele>
        <time>2020-05-21T10:35:28Z</time>
      </trkpt>
      <trkpt lat="47.21768" lon="-1.51593">
        <ele>4.48</ele>
        <time>2020-05-21T10:35:29Z</time>
      </trkpt>
      <trkpt lat="47.21757" lon="-1.51605">
        <ele>4.36</ele>
        <time>2020-05-21T10:35:31Z</time>
      </trkpt>
      <trkpt lat="47.21748" lon="-1.51618">
        <ele>4.23</ele>
        <time>2020-05-21T10:35:33Z</time>
      </trkpt>
      <trkpt lat="47.21739" lon="-1.51634">
        <ele>3.76</ele>
        <time>2020-05-21T10:35:35Z</time>
      </trkpt>
      <trkpt lat="47.21731" lon="-1.51651">
        <ele>3.19</ele>
        <time>2020-05-21T10:35:37Z</time>
      </trkpt>
      <trkpt lat="47.21724" lon="-1.51666">
        <ele>2.04</ele>
        <time>2020-05-21T10:35:39Z</time>
      </trkpt>
      <trkpt lat="47.21718" lon="-1.51681">
        <ele>1.33</ele>
        <time>2020-05-21T10:35:41Z</time>
      </trkpt>
      <trkpt lat="47.21712" lon="-1.51696">
        <ele>1.04</ele>
        <time>2020-05-21T10:35:43Z</time>
      </trkpt>
      <trkpt lat="47.21705" lon="-1.51711">
        <ele>0.42</ele>
        <time>2020-05-21T10:35:45Z</time>
      </trkpt>
      <trkpt lat="47.21698" lon="-1.51729">
        <ele>1.1</ele>
        <time>2020-05-21T10:35:47Z</time>
      </trkpt>
      <trkpt lat="47.2169" lon="-1.51748">
        <ele>1.5</ele>
        <time>2020-05-21T10:35:49Z</time>
      </trkpt>
      <trkpt lat="47.21684" lon="-1.51762">
        <ele>1.82</ele>
        <time>2020-05-21T10:35:51Z</time>
      </trkpt>
      <trkpt lat="47.21678" lon="-1.51778">
        <ele>2.77</ele>
        <time>2020-05-21T10:35:53Z</time>
      </trkpt>
      <trkpt lat="47.2167" lon="-1.51795">
        <ele>2.89</ele>
        <time>2020-05-21T10:35:55Z</time>
      </trkpt>
      <trkpt lat="47.21663" lon="-1.51812">
        <ele>2.86</ele>
        <time>2020-05-21T10:35:57Z</time>
      </trkpt>
      <trkpt lat="47.21657" lon="-1.51826">
        <ele>3.17</ele>
        <time>2020-05-21T10:35:59Z</time>
      </trkpt>
      <trkpt lat="47.2165" lon="-1.51844">
        <ele>3.76</ele>
        <time>2020-05-21T10:36:01Z</time>
      </trkpt>
      <trkpt lat="47.21645" lon="-1.51861">
        <ele>4.12</ele>
        <time>2020-05-21T10:36:03Z</time>
      </trkpt>
      <trkpt lat="47.21643" lon="-1.51882">
        <ele>4.8</ele>
        <time>2020-05-21T10:36:05Z</time>
      </trkpt>
      <trkpt lat="47.21639" lon="-1.51897">
        <ele>5.84</ele>
        <time>2020-05-21T10:36:07Z</time>
      </trkpt>
      <trkpt lat="47.21632" lon="-1.51911">
        <ele>5.98</ele>
        <time>2020-05-21T10:36:09Z</time>
      </trkpt>
      <trkpt lat="47.21623" lon="-1.51928">
        <ele>5.09</ele>
        <time>2020-05-21T10:36:11Z</time>
      </trkpt>
      <trkpt lat="47.21619" lon="-1.51945">
        <ele>4.65</ele>
        <time>2020-05-21T10:36:13Z</time>
      </trkpt>
      <trkpt lat="47.21618" lon="-1.51963">
        <ele>4.31</ele>
        <time>2020-05-21T10:36:15Z</time>
      </trkpt>
      <trkpt lat="47.21614" lon="-1.51978">
        <ele>5.72</ele>
        <time>2020-05-21T10:36:17Z</time>
      </trkpt>
      <trkpt lat="47.21609" lon="-1.51991">
        <ele>5.44</ele>
        <time>2020-05-21T10:36:19Z</time>
      </trkpt>
      <trkpt lat="47.21602" lon="-1.5201">
        <ele>5.14</ele>
        <time>2020-05-21T10:36:21Z</time>
      </trkpt>
      <trkpt lat="47.21596" lon="-1.52028">
        <ele>6.2</ele>
        <time>2020-05-21T10:36:23Z</time>
      </trkpt>
      <trkpt lat="47.21589" lon="-1.52047">
        <ele>5.97</ele>
        <time>2020-05-21T10:36:25Z</time>
      </trkpt>
      <trkpt lat="47.21583" lon="-1.52063">
        <ele>6.03</ele>
        <time>2020-05-21T10:36:27Z</time>
      </trkpt>
      <trkpt lat="47.21576" lon="-1.52082">
        <ele>6.28</ele>
        <time>2020-05-21T10:36:29Z</time>
      </trkpt>
      <trkpt lat="47.21569" lon="-1.52102">
        <ele>6.26</ele>
        <time>2020-05-21T10:36:31Z</time>
      </trkpt>
      <trkpt lat="47.21562" lon="-1.52121">
        <ele>6.17</ele>
        <time>2020-05-21T10:36:33Z</time>
      </trkpt>
      <trkpt lat="47.21556" lon="-1.52139">
        <ele>4.95</ele>
        <time>2020-05-21T10:36:35Z</time>
      </trkpt>
      <trkpt lat="47.21551" lon="-1.52155">
        <ele>3.75</ele>
        <time>2020-05-21T10:36:37Z</time>
      </trkpt>
      <trkpt lat="47.21545" lon="-1.52175">
        <ele>3.66</ele>
        <time>2020-05-21T10:36:39Z</time>
      </trkpt>
      <trkpt lat="47.2154" lon="-1.5219">
        <ele>4.1</ele>
        <time>2020-05-21T10:36:41Z</time>
      </trkpt>
      <trkpt lat="47.21534" lon="-1.52208">
        <ele>4.48</ele>
        <time>2020-05-21T10:36:43Z</time>
      </trkpt>
      <trkpt lat="47.21528" lon="-1.52226">
        <ele>4.78</ele>
        <time>2020-05-21T10:36:45Z</time>
      </trkpt>
      <trkpt lat="47.21522" lon="-1.52244">
        <ele>4.98</ele>
        <time>2020-05-21T10:36:47Z</time>
      </trkpt>
      <trkpt lat="47.21516" lon="-1.52261">
        <ele>4.25</ele>
        <time>2020-05-21T10:36:49Z</time>
      </trkpt>
      <trkpt lat="47.21511" lon="-1.52277">
        <ele>4.9</ele>
        <time>2020-05-21T10:36:51Z</time>
      </trkpt>
      <trkpt lat="47.21505" lon="-1.52298">
        <ele>4.78</ele>
        <time>2020-05-21T10:36:53Z</time>
      </trkpt>
      <trkpt lat="47.21499" lon="-1.52318">
        <ele>5.23</ele>
        <time>2020-05-21T10:36:55Z</time>
      </trkpt>
      <trkpt lat="47.21494" lon="-1.52336">
        <ele>5.69</ele>
        <time>2020-05-21T10:36:57Z</time>
      </trkpt>
      <trkpt lat="47.21487" lon="-1.52355">
        <ele>5.22</ele>
        <time>2020-05-21T10:36:59Z</time>
      </trkpt>
      <trkpt lat="47.21481" lon="-1.52374">
        <ele>5.6</ele>
        <time>2020-05-21T10:37:01Z</time>
      </trkpt>
      <trkpt lat="47.21476" lon="-1.52393">
        <ele>5.18</ele>
        <time>2020-05-21T10:37:03Z</time>
      </trkpt>
      <trkpt lat="47.2147" lon="-1.52411">
        <ele>5.76</ele>
        <time>2020-05-21T10:37:05Z</time>
      </trkpt>
      <trkpt lat="47.21463" lon="-1.5243">
        <ele>5.15</ele>
        <time>2020-05-21T10:37:07Z</time>
      </trkpt>
      <trkpt lat="47.21458" lon="-1.52445">
        <ele>5.47</ele>
        <time>2020-05-21T10:37:09Z</time>
      </trkpt>
      <trkpt lat="47.21452" lon="-1.52462">
        <ele>6.57</ele>
        <time>2020-05-21T10:37:11Z</time>
      </trkpt>
      <trkpt lat="47.21446" lon="-1.52482">
        <ele>6.19</ele>
        <time>2020-05-21T10:37:13Z</time>
      </trkpt>
      <trkpt lat="47.21439" lon="-1.52502">
        <ele>5.21</ele>
        <time>2020-05-21T10:37:15Z</time>
      </trkpt>
      <trkpt lat="47.21434" lon="-1.52519">
        <ele>5.08</ele>
        <time>2020-05-21T10:37:17Z</time>
      </trkpt>
      <trkpt lat="47.21428" lon="-1.52536">
        <ele>5.22</ele>
        <time>2020-05-21T10:37:19Z</time>
      </trkpt>
      <trkpt lat="47.21423" lon="-1.52554">
        <ele>5.08</ele>
        <time>2020-05-21T10:37:21Z</time>
      </trkpt>
      <trkpt lat="47.21417" lon="-1.52572">
        <ele>4.56</ele>
        <time>2020-05-21T10:37:23Z</time>
      </trkpt>
      <trkpt lat="47.21411" lon="-1.52591">
        <ele>4.59</ele>
        <time>2020-05-21T10:37:25Z</time>
      </trkpt>
      <trkpt lat="47.21406" lon="-1.52608">
        <ele>4.72</ele>
        <time>2020-05-21T10:37:27Z</time>
      </trkpt>
      <trkpt lat="47.21401" lon="-1.52625">
        <ele>3.48</ele>
        <time>2020-05-21T10:37:29Z</time>
      </trkpt>
      <trkpt lat="47.21395" lon="-1.52641">
        <ele>3.29</ele>
        <time>2020-05-21T10:37:31Z</time>
      </trkpt>
      <trkpt lat="47.21389" lon="-1.5266">
        <ele>3.68</ele>
        <time>2020-05-21T10:37:33Z</time>
      </trkpt>
      <trkpt lat="47.21384" lon="-1.5268">
        <ele>2.58</ele>
        <time>2020-05-21T10:37:35Z</time>
      </trkpt>
      <trkpt lat="47.21381" lon="-1.52699">
        <ele>3.05</ele>
        <time>2020-05-21T10:37:37Z</time>
      </trkpt>
      <trkpt lat="47.21376" lon="-1.52718">
        <ele>2.94</ele>
        <time>2020-05-21T10:37:39Z</time>
      </trkpt>
      <trkpt lat="47.21371" lon="-1.52737">
        <ele>2.4</ele>
        <time>2020-05-21T10:37:41Z</time>
      </trkpt>
      <trkpt lat="47.21367" lon="-1.52755">
        <ele>3.01</ele>
        <time>2020-05-21T10:37:43Z</time>
      </trkpt>
      <trkpt lat="47.21364" lon="-1.52773">
        <ele>5.51</ele>
        <time>2020-05-21T10:37:45Z</time>
      </trkpt>
      <trkpt lat="47.21362" lon="-1.52791">
        <ele>7.37</ele>
        <time>2020-05-21T10:37:47Z</time>
      </trkpt>
      <trkpt lat="47.21359" lon="-1.52809">
        <ele>8.34</ele>
        <time>2020-05-21T10:37:49Z</time>
      </trkpt>
      <trkpt lat="47.21356" lon="-1.52824">
        <ele>9.38</ele>
        <time>2020-05-21T10:37:51Z</time>
      </trkpt>
      <trkpt lat="47.21352" lon="-1.52844">
        <ele>7.92</ele>
        <time>2020-05-21T10:37:53Z</time>
      </trkpt>
      <trkpt lat="47.21348" lon="-1.52864">
        <ele>6.75</ele>
        <time>2020-05-21T10:37:55Z</time>
      </trkpt>
      <trkpt lat="47.21343" lon="-1.52886">
        <ele>6.14</ele>
        <time>2020-05-21T10:37:57Z</time>
      </trkpt>
      <trkpt lat="47.21339" lon="-1.52906">
        <ele>5.96</ele>
        <time>2020-05-21T10:37:59Z</time>
      </trkpt>
      <trkpt lat="47.21336" lon="-1.52926">
        <ele>4.59</ele>
        <time>2020-05-21T10:38:01Z</time>
      </trkpt>
      <trkpt lat="47.21333" lon="-1.52945">
        <ele>4.11</ele>
        <time>2020-05-21T10:38:03Z</time>
      </trkpt>
      <trkpt lat="47.21331" lon="-1.52966">
        <ele>2.42</ele>
        <time>2020-05-21T10:38:05Z</time>
      </trkpt>
      <trkpt lat="47.21328" lon="-1.5299">
        <ele>3.97</ele>
        <time>2020-05-21T10:38:07Z</time>
      </trkpt>
      <trkpt lat="47.21327" lon="-1.5301">
        <ele>5.5</ele>
        <time>2020-05-21T10:38:09Z</time>
      </trkpt>
      <trkpt lat="47.21325" lon="-1.53035">
        <ele>5.81</ele>
        <time>2020-05-21T10:38:11Z</time>
      </trkpt>
      <trkpt lat="47.21324" lon="-1.53052">
        <ele>4.99</ele>
        <time>2020-05-21T10:38:13Z</time>
      </trkpt>
      <trkpt lat="47.21323" lon="-1.53071">
        <ele>4.75</ele>
        <time>2020-05-21T10:38:15Z</time>
      </trkpt>
      <trkpt lat="47.21323" lon="-1.53092">
        <ele>5.29</ele>
        <time>2020-05-21T10:38:17Z</time>
      </trkpt>
      <trkpt lat="47.21321" lon="-1.53116">
        <ele>5.24</ele>
        <time>2020-05-21T10:38:19Z</time>
      </trkpt>
      <trkpt lat="47.21319" lon="-1.53137">
        <ele>5.93</ele>
        <time>2020-05-21T10:38:22Z</time>
      </trkpt>
      <trkpt lat="47.21316" lon="-1.53159">
        <ele>6.5</ele>
        <time>2020-05-21T10:38:24Z</time>
      </trkpt>
      <trkpt lat="47.21313" lon="-1.5318">
        <ele>6.91</ele>
        <time>2020-05-21T10:38:26Z</time>
      </trkpt>
      <trkpt lat="47.21311" lon="-1.53197">
        <ele>7.5</ele>
        <time>2020-05-21T10:38:28Z</time>
      </trkpt>
      <trkpt lat="47.21309" lon="-1.53221">
        <ele>7.86</ele>
        <time>2020-05-21T10:38:30Z</time>
      </trkpt>
      <trkpt lat="47.21308" lon="-1.53246">
        <ele>7.74</ele>
        <time>2020-05-21T10:38:32Z</time>
      </trkpt>
      <trkpt lat="47.21307" lon="-1.53271">
        <ele>7.32</ele>
        <time>2020-05-21T10:38:34Z</time>
      </trkpt>
      <trkpt lat="47.21306" lon="-1.53288">
        <ele>7</ele>
        <time>2020-05-21T10:38:36Z</time>
      </trkpt>
      <trkpt lat="47.21305" lon="-1.53307">
        <ele>6.8</ele>
        <time>2020-05-21T10:38:38Z</time>
      </trkpt>
      <trkpt lat="47.21303" lon="-1.53327">
        <ele>6.22</ele>
        <time>2020-05-21T10:38:40Z</time>
      </trkpt>
      <trkpt lat="47.213" lon="-1.53348">
        <ele>5.86</ele>
        <time>2020-05-21T10:38:42Z</time>
      </trkpt>
      <trkpt lat="47.21296" lon="-1.53368">
        <ele>6.24</ele>
        <time>2020-05-21T10:38:44Z</time>
      </trkpt>
      <trkpt lat="47.21293" lon="-1.5339">
        <ele>6.36</ele>
        <time>2020-05-21T10:38:46Z</time>
      </trkpt>
      <trkpt lat="47.2129" lon="-1.53408">
        <ele>4.44</ele>
        <time>2020-05-21T10:38:48Z</time>
      </trkpt>
      <trkpt lat="47.21289" lon="-1.53426">
        <ele>2.74</ele>
        <time>2020-05-21T10:38:50Z</time>
      </trkpt>
      <trkpt lat="47.21288" lon="-1.53447">
        <ele>3</ele>
        <time>2020-05-21T10:38:52Z</time>
      </trkpt>
      <trkpt lat="47.2129" lon="-1.53467">
        <ele>3.28</ele>
        <time>2020-05-21T10:38:54Z</time>
      </trkpt>
      <trkpt lat="47.21294" lon="-1.53486">
        <ele>3.31</ele>
        <time>2020-05-21T10:38:56Z</time>
      </trkpt>
      <trkpt lat="47.21298" lon="-1.53506">
        <ele>3.56</ele>
        <time>2020-05-21T10:38:58Z</time>
      </trkpt>
      <trkpt lat="47.21298" lon="-1.53525">
        <ele>3.61</ele>
        <time>2020-05-21T10:39:00Z</time>
      </trkpt>
      <trkpt lat="47.21298" lon="-1.53545">
        <ele>3.74</ele>
        <time>2020-05-21T10:39:02Z</time>
      </trkpt>
      <trkpt lat="47.21298" lon="-1.53563">
        <ele>4.54</ele>
        <time>2020-05-21T10:39:04Z</time>
      </trkpt>
      <trkpt lat="47.21299" lon="-1.53582">
        <ele>5.55</ele>
        <time>2020-05-21T10:39:06Z</time>
      </trkpt>
      <trkpt lat="47.21301" lon="-1.53602">
        <ele>6.77</ele>
        <time>2020-05-21T10:39:08Z</time>
      </trkpt>
      <trkpt lat="47.21301" lon="-1.53617">
        <ele>8.69</ele>
        <time>2020-05-21T10:39:10Z</time>
      </trkpt>
      <trkpt lat="47.213" lon="-1.53632">
        <ele>9.84</ele>
        <time>2020-05-21T10:39:12Z</time>
      </trkpt>
      <trkpt lat="47.21293" lon="-1.53648">
        <ele>9.31</ele>
        <time>2020-05-21T10:39:15Z</time>
      </trkpt>
      <trkpt lat="47.2129" lon="-1.53667">
        <ele>8.37</ele>
        <time>2020-05-21T10:39:18Z</time>
      </trkpt>
      <trkpt lat="47.2129" lon="-1.53682">
        <ele>7.63</ele>
        <time>2020-05-21T10:39:20Z</time>
      </trkpt>
      <trkpt lat="47.21294" lon="-1.53696">
        <ele>6.67</ele>
        <time>2020-05-21T10:39:22Z</time>
      </trkpt>
      <trkpt lat="47.21299" lon="-1.53713">
        <ele>6.78</ele>
        <time>2020-05-21T10:39:24Z</time>
      </trkpt>
      <trkpt lat="47.21304" lon="-1.53733">
        <ele>6.81</ele>
        <time>2020-05-21T10:39:26Z</time>
      </trkpt>
      <trkpt lat="47.21308" lon="-1.53751">
        <ele>7.14</ele>
        <time>2020-05-21T10:39:28Z</time>
      </trkpt>
      <trkpt lat="47.21312" lon="-1.53771">
        <ele>7.48</ele>
        <time>2020-05-21T10:39:30Z</time>
      </trkpt>
      <trkpt lat="47.21313" lon="-1.53791">
        <ele>8.73</ele>
        <time>2020-05-21T10:39:32Z</time>
      </trkpt>
      <trkpt lat="47.21314" lon="-1.53804">
        <ele>9.56</ele>
        <time>2020-05-21T10:39:34Z</time>
      </trkpt>
      <trkpt lat="47.21316" lon="-1.53824">
        <ele>9.06</ele>
        <time>2020-05-21T10:39:36Z</time>
      </trkpt>
      <trkpt lat="47.21318" lon="-1.53844">
        <ele>8.7</ele>
        <time>2020-05-21T10:39:38Z</time>
      </trkpt>
      <trkpt lat="47.21321" lon="-1.5386">
        <ele>8.3</ele>
        <time>2020-05-21T10:39:40Z</time>
      </trkpt>
      <trkpt lat="47.21324" lon="-1.53878">
        <ele>8.37</ele>
        <time>2020-05-21T10:39:42Z</time>
      </trkpt>
      <trkpt lat="47.21326" lon="-1.53894">
        <ele>8.1</ele>
        <time>2020-05-21T10:39:44Z</time>
      </trkpt>
      <trkpt lat="47.21328" lon="-1.53912">
        <ele>7.97</ele>
        <time>2020-05-21T10:39:46Z</time>
      </trkpt>
      <trkpt lat="47.21336" lon="-1.53928">
        <ele>7.21</ele>
        <time>2020-05-21T10:39:49Z</time>
      </trkpt>
      <trkpt lat="47.21347" lon="-1.5394">
        <ele>8.45</ele>
        <time>2020-05-21T10:39:51Z</time>
      </trkpt>
      <trkpt lat="47.21363" lon="-1.53945">
        <ele>9.43</ele>
        <time>2020-05-21T10:39:53Z</time>
      </trkpt>
      <trkpt lat="47.21377" lon="-1.53955">
        <ele>8.05</ele>
        <time>2020-05-21T10:39:55Z</time>
      </trkpt>
      <trkpt lat="47.21386" lon="-1.53971">
        <ele>6.13</ele>
        <time>2020-05-21T10:39:57Z</time>
      </trkpt>
      <trkpt lat="47.21383" lon="-1.53989">
        <ele>4.88</ele>
        <time>2020-05-21T10:39:59Z</time>
      </trkpt>
      <trkpt lat="47.21381" lon="-1.54005">
        <ele>5.21</ele>
        <time>2020-05-21T10:40:01Z</time>
      </trkpt>
      <trkpt lat="47.21389" lon="-1.54021">
        <ele>5.91</ele>
        <time>2020-05-21T10:40:03Z</time>
      </trkpt>
      <trkpt lat="47.21397" lon="-1.54034">
        <ele>6.61</ele>
        <time>2020-05-21T10:40:05Z</time>
      </trkpt>
      <trkpt lat="47.21407" lon="-1.54048">
        <ele>7.41</ele>
        <time>2020-05-21T10:40:07Z</time>
      </trkpt>
      <trkpt lat="47.21416" lon="-1.54062">
        <ele>8.16</ele>
        <time>2020-05-21T10:40:09Z</time>
      </trkpt>
      <trkpt lat="47.21425" lon="-1.54078">
        <ele>8.81</ele>
        <time>2020-05-21T10:40:11Z</time>
      </trkpt>
      <trkpt lat="47.21435" lon="-1.54092">
        <ele>8.37</ele>
        <time>2020-05-21T10:40:13Z</time>
      </trkpt>
      <trkpt lat="47.21445" lon="-1.54104">
        <ele>7.41</ele>
        <time>2020-05-21T10:40:15Z</time>
      </trkpt>
      <trkpt lat="47.21456" lon="-1.54119">
        <ele>5.37</ele>
        <time>2020-05-21T10:40:17Z</time>
      </trkpt>
      <trkpt lat="47.21466" lon="-1.54132">
        <ele>4.07</ele>
        <time>2020-05-21T10:40:19Z</time>
      </trkpt>
      <trkpt lat="47.21476" lon="-1.54148">
        <ele>3.89</ele>
        <time>2020-05-21T10:40:21Z</time>
      </trkpt>
      <trkpt lat="47.21485" lon="-1.54161">
        <ele>3.07</ele>
        <time>2020-05-21T10:40:23Z</time>
      </trkpt>
      <trkpt lat="47.21497" lon="-1.54172">
        <ele>1.06</ele>
        <time>2020-05-21T10:40:25Z</time>
      </trkpt>
      <trkpt lat="47.2151" lon="-1.54185">
        <ele>0.17</ele>
        <time>2020-05-21T10:40:27Z</time>
      </trkpt>
      <trkpt lat="47.2152" lon="-1.54199">
        <ele>-0.9</ele>
        <time>2020-05-21T10:40:29Z</time>
      </trkpt>
      <trkpt lat="47.21531" lon="-1.54215">
        <ele>-1.45</ele>
        <time>2020-05-21T10:40:31Z</time>
      </trkpt>
      <trkpt lat="47.21541" lon="-1.54232">
        <ele>-1.29</ele>
        <time>2020-05-21T10:40:33Z</time>
      </trkpt>
      <trkpt lat="47.21551" lon="-1.54243">
        <ele>-1.18</ele>
        <time>2020-05-21T10:40:35Z</time>
      </trkpt>
      <trkpt lat="47.21563" lon="-1.54251">
        <ele>0.78</ele>
        <time>2020-05-21T10:40:37Z</time>
      </trkpt>
      <trkpt lat="47.21573" lon="-1.54262">
        <ele>2.7</ele>
        <time>2020-05-21T10:40:39Z</time>
      </trkpt>
      <trkpt lat="47.21577" lon="-1.54279">
        <ele>5.06</ele>
        <time>2020-05-21T10:40:41Z</time>
      </trkpt>
      <trkpt lat="47.21581" lon="-1.54298">
        <ele>5.98</ele>
        <time>2020-05-21T10:40:43Z</time>
      </trkpt>
      <trkpt lat="47.21588" lon="-1.54316">
        <ele>5.6</ele>
        <time>2020-05-21T10:40:45Z</time>
      </trkpt>
      <trkpt lat="47.21595" lon="-1.54334">
        <ele>5.37</ele>
        <time>2020-05-21T10:40:47Z</time>
      </trkpt>
      <trkpt lat="47.21601" lon="-1.54351">
        <ele>5.02</ele>
        <time>2020-05-21T10:40:49Z</time>
      </trkpt>
      <trkpt lat="47.21607" lon="-1.54371">
        <ele>5.13</ele>
        <time>2020-05-21T10:40:51Z</time>
      </trkpt>
      <trkpt lat="47.21611" lon="-1.54392">
        <ele>5.75</ele>
        <time>2020-05-21T10:40:53Z</time>
      </trkpt>
      <trkpt lat="47.21612" lon="-1.54412">
        <ele>5.3</ele>
        <time>2020-05-21T10:40:55Z</time>
      </trkpt>
      <trkpt lat="47.21613" lon="-1.54434">
        <ele>5.26</ele>
        <time>2020-05-21T10:40:57Z</time>
      </trkpt>
      <trkpt lat="47.21612" lon="-1.54457">
        <ele>5.53</ele>
        <time>2020-05-21T10:40:59Z</time>
      </trkpt>
      <trkpt lat="47.21609" lon="-1.54475">
        <ele>4.94</ele>
        <time>2020-05-21T10:41:01Z</time>
      </trkpt>
      <trkpt lat="47.21606" lon="-1.54493">
        <ele>5.54</ele>
        <time>2020-05-21T10:41:03Z</time>
      </trkpt>
      <trkpt lat="47.21602" lon="-1.54514">
        <ele>6.47</ele>
        <time>2020-05-21T10:41:05Z</time>
      </trkpt>
      <trkpt lat="47.21596" lon="-1.5453">
        <ele>8.01</ele>
        <time>2020-05-21T10:41:07Z</time>
      </trkpt>
      <trkpt lat="47.21589" lon="-1.54548">
        <ele>8.23</ele>
        <time>2020-05-21T10:41:09Z</time>
      </trkpt>
      <trkpt lat="47.21583" lon="-1.54564">
        <ele>7.92</ele>
        <time>2020-05-21T10:41:11Z</time>
      </trkpt>
      <trkpt lat="47.21577" lon="-1.5458">
        <ele>8.38</ele>
        <time>2020-05-21T10:41:13Z</time>
      </trkpt>
      <trkpt lat="47.21572" lon="-1.54593">
        <ele>8.64</ele>
        <time>2020-05-21T10:41:15Z</time>
      </trkpt>
      <trkpt lat="47.21564" lon="-1.54612">
        <ele>7.86</ele>
        <time>2020-05-21T10:41:17Z</time>
      </trkpt>
      <trkpt lat="47.21557" lon="-1.54631">
        <ele>7.11</ele>
        <time>2020-05-21T10:41:19Z</time>
      </trkpt>
      <trkpt lat="47.2155" lon="-1.5465">
        <ele>6.47</ele>
        <time>2020-05-21T10:41:21Z</time>
      </trkpt>
      <trkpt lat="47.21543" lon="-1.54662">
        <ele>6.69</ele>
        <time>2020-05-21T10:41:23Z</time>
      </trkpt>
      <trkpt lat="47.21536" lon="-1.54676">
        <ele>7.07</ele>
        <time>2020-05-21T10:41:25Z</time>
      </trkpt>
      <trkpt lat="47.21532" lon="-1.54695">
        <ele>8.14</ele>
        <time>2020-05-21T10:41:27Z</time>
      </trkpt>
      <trkpt lat="47.21528" lon="-1.54713">
        <ele>9.28</ele>
        <time>2020-05-21T10:41:29Z</time>
      </trkpt>
      <trkpt lat="47.21522" lon="-1.5473">
        <ele>10.23</ele>
        <time>2020-05-21T10:41:31Z</time>
      </trkpt>
      <trkpt lat="47.21514" lon="-1.5475">
        <ele>11.06</ele>
        <time>2020-05-21T10:41:33Z</time>
      </trkpt>
      <trkpt lat="47.21507" lon="-1.54768">
        <ele>11.81</ele>
        <time>2020-05-21T10:41:35Z</time>
      </trkpt>
      <trkpt lat="47.215" lon="-1.54786">
        <ele>12.02</ele>
        <time>2020-05-21T10:41:37Z</time>
      </trkpt>
      <trkpt lat="47.21493" lon="-1.54803">
        <ele>10.99</ele>
        <time>2020-05-21T10:41:39Z</time>
      </trkpt>
      <trkpt lat="47.21484" lon="-1.54822">
        <ele>10.42</ele>
        <time>2020-05-21T10:41:41Z</time>
      </trkpt>
      <trkpt lat="47.21474" lon="-1.54841">
        <ele>9.71</ele>
        <time>2020-05-21T10:41:43Z</time>
      </trkpt>
      <trkpt lat="47.21465" lon="-1.54857">
        <ele>9.06</ele>
        <time>2020-05-21T10:41:45Z</time>
      </trkpt>
      <trkpt lat="47.21458" lon="-1.54872">
        <ele>7.97</ele>
        <time>2020-05-21T10:41:47Z</time>
      </trkpt>
      <trkpt lat="47.2145" lon="-1.54887">
        <ele>6.81</ele>
        <time>2020-05-21T10:41:49Z</time>
      </trkpt>
      <trkpt lat="47.21442" lon="-1.54904">
        <ele>6.27</ele>
        <time>2020-05-21T10:41:51Z</time>
      </trkpt>
      <trkpt lat="47.21433" lon="-1.54921">
        <ele>6.32</ele>
        <time>2020-05-21T10:41:53Z</time>
      </trkpt>
      <trkpt lat="47.21425" lon="-1.54938">
        <ele>6.01</ele>
        <time>2020-05-21T10:41:55Z</time>
      </trkpt>
      <trkpt lat="47.21419" lon="-1.54952">
        <ele>6.21</ele>
        <time>2020-05-21T10:41:57Z</time>
      </trkpt>
      <trkpt lat="47.21411" lon="-1.54969">
        <ele>7.16</ele>
        <time>2020-05-21T10:41:59Z</time>
      </trkpt>
      <trkpt lat="47.21403" lon="-1.54984">
        <ele>7.61</ele>
        <time>2020-05-21T10:42:01Z</time>
      </trkpt>
      <trkpt lat="47.21395" lon="-1.54999">
        <ele>8.09</ele>
        <time>2020-05-21T10:42:03Z</time>
      </trkpt>
      <trkpt lat="47.21387" lon="-1.55016">
        <ele>7.6</ele>
        <time>2020-05-21T10:42:05Z</time>
      </trkpt>
      <trkpt lat="47.21379" lon="-1.55034">
        <ele>7.67</ele>
        <time>2020-05-21T10:42:07Z</time>
      </trkpt>
      <trkpt lat="47.21371" lon="-1.55052">
        <ele>7.98</ele>
        <time>2020-05-21T10:42:09Z</time>
      </trkpt>
      <trkpt lat="47.21367" lon="-1.55064">
        <ele>8.02</ele>
        <time>2020-05-21T10:42:11Z</time>
      </trkpt>
      <trkpt lat="47.21361" lon="-1.5508">
        <ele>8.28</ele>
        <time>2020-05-21T10:42:13Z</time>
      </trkpt>
      <trkpt lat="47.21356" lon="-1.55096">
        <ele>7.94</ele>
        <time>2020-05-21T10:42:15Z</time>
      </trkpt>
      <trkpt lat="47.21349" lon="-1.55113">
        <ele>6.77</ele>
        <time>2020-05-21T10:42:17Z</time>
      </trkpt>
      <trkpt lat="47.21342" lon="-1.55132">
        <ele>5.61</ele>
        <time>2020-05-21T10:42:19Z</time>
      </trkpt>
      <trkpt lat="47.21336" lon="-1.55147">
        <ele>4.84</ele>
        <time>2020-05-21T10:42:21Z</time>
      </trkpt>
      <trkpt lat="47.2133" lon="-1.55163">
        <ele>4.9</ele>
        <time>2020-05-21T10:42:23Z</time>
      </trkpt>
      <trkpt lat="47.21324" lon="-1.55181">
        <ele>4.66</ele>
        <time>2020-05-21T10:42:25Z</time>
      </trkpt>
      <trkpt lat="47.21318" lon="-1.55197">
        <ele>4.31</ele>
        <time>2020-05-21T10:42:27Z</time>
      </trkpt>
      <trkpt lat="47.21311" lon="-1.55214">
        <ele>5.1</ele>
        <time>2020-05-21T10:42:29Z</time>
      </trkpt>
      <trkpt lat="47.21303" lon="-1.55234">
        <ele>5.23</ele>
        <time>2020-05-21T10:42:31Z</time>
      </trkpt>
      <trkpt lat="47.21297" lon="-1.55248">
        <ele>6.4</ele>
        <time>2020-05-21T10:42:33Z</time>
      </trkpt>
      <trkpt lat="47.21291" lon="-1.55258">
        <ele>8.31</ele>
        <time>2020-05-21T10:42:35Z</time>
      </trkpt>
      <trkpt lat="47.21285" lon="-1.55272">
        <ele>9.22</ele>
        <time>2020-05-21T10:42:37Z</time>
      </trkpt>
      <trkpt lat="47.21279" lon="-1.55288">
        <ele>10.78</ele>
        <time>2020-05-21T10:42:39Z</time>
      </trkpt>
      <trkpt lat="47.21272" lon="-1.553">
        <ele>12.38</ele>
        <time>2020-05-21T10:42:41Z</time>
      </trkpt>
      <trkpt lat="47.21262" lon="-1.55298">
        <ele>12.5</ele>
        <time>2020-05-21T10:42:43Z</time>
      </trkpt>
      <trkpt lat="47.21254" lon="-1.55304">
        <ele>12.07</ele>
        <time>2020-05-21T10:42:45Z</time>
      </trkpt>
      <trkpt lat="47.21252" lon="-1.55318">
        <ele>11.39</ele>
        <time>2020-05-21T10:42:47Z</time>
      </trkpt>
      <trkpt lat="47.21257" lon="-1.55334">
        <ele>11.47</ele>
        <time>2020-05-21T10:42:49Z</time>
      </trkpt>
      <trkpt lat="47.21262" lon="-1.55347">
        <ele>11.57</ele>
        <time>2020-05-21T10:42:51Z</time>
      </trkpt>
      <trkpt lat="47.2127" lon="-1.55358">
        <ele>11.8</ele>
        <time>2020-05-21T10:42:53Z</time>
      </trkpt>
      <trkpt lat="47.21277" lon="-1.55369">
        <ele>11.51</ele>
        <time>2020-05-21T10:42:55Z</time>
      </trkpt>
      <trkpt lat="47.21276" lon="-1.55385">
        <ele>11.29</ele>
        <time>2020-05-21T10:42:57Z</time>
      </trkpt>
      <trkpt lat="47.2127" lon="-1.55398">
        <ele>10.82</ele>
        <time>2020-05-21T10:42:59Z</time>
      </trkpt>
      <trkpt lat="47.21264" lon="-1.5541">
        <ele>10.03</ele>
        <time>2020-05-21T10:43:01Z</time>
      </trkpt>
      <trkpt lat="47.21255" lon="-1.55426">
        <ele>8.64</ele>
        <time>2020-05-21T10:43:03Z</time>
      </trkpt>
      <trkpt lat="47.21248" lon="-1.5544">
        <ele>7.24</ele>
        <time>2020-05-21T10:43:05Z</time>
      </trkpt>
      <trkpt lat="47.21239" lon="-1.55452">
        <ele>7.51</ele>
        <time>2020-05-21T10:43:07Z</time>
      </trkpt>
      <trkpt lat="47.21229" lon="-1.55468">
        <ele>8.45</ele>
        <time>2020-05-21T10:43:09Z</time>
      </trkpt>
      <trkpt lat="47.21221" lon="-1.55481">
        <ele>9.01</ele>
        <time>2020-05-21T10:43:11Z</time>
      </trkpt>
      <trkpt lat="47.21213" lon="-1.555">
        <ele>8.55</ele>
        <time>2020-05-21T10:43:13Z</time>
      </trkpt>
      <trkpt lat="47.21205" lon="-1.55522">
        <ele>7.93</ele>
        <time>2020-05-21T10:43:15Z</time>
      </trkpt>
      <trkpt lat="47.21199" lon="-1.55543">
        <ele>7.78</ele>
        <time>2020-05-21T10:43:17Z</time>
      </trkpt>
      <trkpt lat="47.21194" lon="-1.55561">
        <ele>7.27</ele>
        <time>2020-05-21T10:43:19Z</time>
      </trkpt>
      <trkpt lat="47.21188" lon="-1.5558">
        <ele>7.65</ele>
        <time>2020-05-21T10:43:21Z</time>
      </trkpt>
      <trkpt lat="47.21182" lon="-1.55598">
        <ele>8.08</ele>
        <time>2020-05-21T10:43:23Z</time>
      </trkpt>
      <trkpt lat="47.21176" lon="-1.55616">
        <ele>8</ele>
        <time>2020-05-21T10:43:25Z</time>
      </trkpt>
      <trkpt lat="47.2117" lon="-1.55633">
        <ele>8.16</ele>
        <time>2020-05-21T10:43:27Z</time>
      </trkpt>
      <trkpt lat="47.21164" lon="-1.55651">
        <ele>8.87</ele>
        <time>2020-05-21T10:43:29Z</time>
      </trkpt>
      <trkpt lat="47.21162" lon="-1.55672">
        <ele>9.82</ele>
        <time>2020-05-21T10:43:31Z</time>
      </trkpt>
      <trkpt lat="47.21168" lon="-1.55695">
        <ele>8.71</ele>
        <time>2020-05-21T10:43:33Z</time>
      </trkpt>
      <trkpt lat="47.21167" lon="-1.55714">
        <ele>7.24</ele>
        <time>2020-05-21T10:43:35Z</time>
      </trkpt>
      <trkpt lat="47.21162" lon="-1.55731">
        <ele>5.94</ele>
        <time>2020-05-21T10:43:37Z</time>
      </trkpt>
      <trkpt lat="47.21156" lon="-1.55751">
        <ele>4.71</ele>
        <time>2020-05-21T10:43:39Z</time>
      </trkpt>
      <trkpt lat="47.21149" lon="-1.5577">
        <ele>4.36</ele>
        <time>2020-05-21T10:43:41Z</time>
      </trkpt>
      <trkpt lat="47.21143" lon="-1.55787">
        <ele>4.72</ele>
        <time>2020-05-21T10:43:43Z</time>
      </trkpt>
      <trkpt lat="47.21138" lon="-1.55806">
        <ele>5.06</ele>
        <time>2020-05-21T10:43:45Z</time>
      </trkpt>
      <trkpt lat="47.21135" lon="-1.55824">
        <ele>5.86</ele>
        <time>2020-05-21T10:43:47Z</time>
      </trkpt>
      <trkpt lat="47.21133" lon="-1.55844">
        <ele>5.6</ele>
        <time>2020-05-21T10:43:49Z</time>
      </trkpt>
      <trkpt lat="47.21134" lon="-1.55864">
        <ele>5.37</ele>
        <time>2020-05-21T10:43:51Z</time>
      </trkpt>
      <trkpt lat="47.21137" lon="-1.55881">
        <ele>5.29</ele>
        <time>2020-05-21T10:43:53Z</time>
      </trkpt>
      <trkpt lat="47.2114" lon="-1.55897">
        <ele>4.97</ele>
        <time>2020-05-21T10:43:55Z</time>
      </trkpt>
      <trkpt lat="47.21138" lon="-1.55913">
        <ele>4.67</ele>
        <time>2020-05-21T10:43:57Z</time>
      </trkpt>
      <trkpt lat="47.21129" lon="-1.55921">
        <ele>5.43</ele>
        <time>2020-05-21T10:43:59Z</time>
      </trkpt>
      <trkpt lat="47.21119" lon="-1.55928">
        <ele>6.72</ele>
        <time>2020-05-21T10:44:01Z</time>
      </trkpt>
      <trkpt lat="47.21108" lon="-1.55935">
        <ele>7.37</ele>
        <time>2020-05-21T10:44:03Z</time>
      </trkpt>
      <trkpt lat="47.21096" lon="-1.55946">
        <ele>7.95</ele>
        <time>2020-05-21T10:44:05Z</time>
      </trkpt>
      <trkpt lat="47.21084" lon="-1.55958">
        <ele>7.46</ele>
        <time>2020-05-21T10:44:07Z</time>
      </trkpt>
      <trkpt lat="47.21071" lon="-1.55973">
        <ele>6.55</ele>
        <time>2020-05-21T10:44:09Z</time>
      </trkpt>
      <trkpt lat="47.21062" lon="-1.55986">
        <ele>6.15</ele>
        <time>2020-05-21T10:44:11Z</time>
      </trkpt>
      <trkpt lat="47.21055" lon="-1.56002">
        <ele>6.41</ele>
        <time>2020-05-21T10:44:13Z</time>
      </trkpt>
      <trkpt lat="47.21049" lon="-1.56019">
        <ele>5.93</ele>
        <time>2020-05-21T10:44:15Z</time>
      </trkpt>
      <trkpt lat="47.21045" lon="-1.56035">
        <ele>5.17</ele>
        <time>2020-05-21T10:44:17Z</time>
      </trkpt>
      <trkpt lat="47.2104" lon="-1.56054">
        <ele>5.54</ele>
        <time>2020-05-21T10:44:19Z</time>
      </trkpt>
      <trkpt lat="47.21035" lon="-1.5607">
        <ele>6.09</ele>
        <time>2020-05-21T10:44:21Z</time>
      </trkpt>
      <trkpt lat="47.21028" lon="-1.56088">
        <ele>6.61</ele>
        <time>2020-05-21T10:44:23Z</time>
      </trkpt>
      <trkpt lat="47.21021" lon="-1.56106">
        <ele>6.1</ele>
        <time>2020-05-21T10:44:25Z</time>
      </trkpt>
      <trkpt lat="47.21012" lon="-1.56124">
        <ele>5.78</ele>
        <time>2020-05-21T10:44:27Z</time>
      </trkpt>
      <trkpt lat="47.21005" lon="-1.56142">
        <ele>4.78</ele>
        <time>2020-05-21T10:44:29Z</time>
      </trkpt>
      <trkpt lat="47.20998" lon="-1.56158">
        <ele>4.05</ele>
        <time>2020-05-21T10:44:31Z</time>
      </trkpt>
      <trkpt lat="47.20992" lon="-1.56175">
        <ele>4.41</ele>
        <time>2020-05-21T10:44:33Z</time>
      </trkpt>
      <trkpt lat="47.20983" lon="-1.56182">
        <ele>5.51</ele>
        <time>2020-05-21T10:44:35Z</time>
      </trkpt>
      <trkpt lat="47.20969" lon="-1.56178">
        <ele>5.78</ele>
        <time>2020-05-21T10:44:37Z</time>
      </trkpt>
      <trkpt lat="47.20956" lon="-1.56174">
        <ele>6.2</ele>
        <time>2020-05-21T10:44:39Z</time>
      </trkpt>
      <trkpt lat="47.20943" lon="-1.56169">
        <ele>7.03</ele>
        <time>2020-05-21T10:44:41Z</time>
      </trkpt>
      <trkpt lat="47.20929" lon="-1.56165">
        <ele>7.81</ele>
        <time>2020-05-21T10:44:43Z</time>
      </trkpt>
      <trkpt lat="47.20918" lon="-1.56164">
        <ele>8.11</ele>
        <time>2020-05-21T10:44:45Z</time>
      </trkpt>
      <trkpt lat="47.20906" lon="-1.56161">
        <ele>7.64</ele>
        <time>2020-05-21T10:44:47Z</time>
      </trkpt>
      <trkpt lat="47.20892" lon="-1.56159">
        <ele>7.18</ele>
        <time>2020-05-21T10:44:49Z</time>
      </trkpt>
      <trkpt lat="47.20878" lon="-1.56156">
        <ele>7.02</ele>
        <time>2020-05-21T10:44:51Z</time>
      </trkpt>
      <trkpt lat="47.20868" lon="-1.56153">
        <ele>6.88</ele>
        <time>2020-05-21T10:44:53Z</time>
      </trkpt>
      <trkpt lat="47.20855" lon="-1.5615">
        <ele>6.67</ele>
        <time>2020-05-21T10:44:55Z</time>
      </trkpt>
      <trkpt lat="47.2084" lon="-1.56147">
        <ele>6.82</ele>
        <time>2020-05-21T10:44:57Z</time>
      </trkpt>
      <trkpt lat="47.20833" lon="-1.56154">
        <ele>6.39</ele>
        <time>2020-05-21T10:44:59Z</time>
      </trkpt>
      <trkpt lat="47.20832" lon="-1.5617">
        <ele>6.68</ele>
        <time>2020-05-21T10:45:01Z</time>
      </trkpt>
      <trkpt lat="47.20831" lon="-1.56192">
        <ele>7.9</ele>
        <time>2020-05-21T10:45:03Z</time>
      </trkpt>
      <trkpt lat="47.20828" lon="-1.56215">
        <ele>8.93</ele>
        <time>2020-05-21T10:45:05Z</time>
      </trkpt>
      <trkpt lat="47.20826" lon="-1.56234">
        <ele>9.71</ele>
        <time>2020-05-21T10:45:07Z</time>
      </trkpt>
      <trkpt lat="47.20825" lon="-1.56254">
        <ele>10.81</ele>
        <time>2020-05-21T10:45:09Z</time>
      </trkpt>
      <trkpt lat="47.20823" lon="-1.56276">
        <ele>10.92</ele>
        <time>2020-05-21T10:45:12Z</time>
      </trkpt>
      <trkpt lat="47.20822" lon="-1.5629">
        <ele>9.9</ele>
        <time>2020-05-21T10:45:13Z</time>
      </trkpt>
      <trkpt lat="47.20821" lon="-1.5631">
        <ele>7.89</ele>
        <time>2020-05-21T10:45:16Z</time>
      </trkpt>
      <trkpt lat="47.20819" lon="-1.56326">
        <ele>6.6</ele>
        <time>2020-05-21T10:45:18Z</time>
      </trkpt>
      <trkpt lat="47.20815" lon="-1.56346">
        <ele>6.04</ele>
        <time>2020-05-21T10:45:20Z</time>
      </trkpt>
      <trkpt lat="47.20812" lon="-1.56363">
        <ele>7.15</ele>
        <time>2020-05-21T10:45:22Z</time>
      </trkpt>
      <trkpt lat="47.20808" lon="-1.56383">
        <ele>9.36</ele>
        <time>2020-05-21T10:45:24Z</time>
      </trkpt>
      <trkpt lat="47.20804" lon="-1.564">
        <ele>10.39</ele>
        <time>2020-05-21T10:45:26Z</time>
      </trkpt>
      <trkpt lat="47.20799" lon="-1.56419">
        <ele>11.03</ele>
        <time>2020-05-21T10:45:28Z</time>
      </trkpt>
      <trkpt lat="47.20795" lon="-1.56438">
        <ele>10.32</ele>
        <time>2020-05-21T10:45:30Z</time>
      </trkpt>
      <trkpt lat="47.20791" lon="-1.56453">
        <ele>9.55</ele>
        <time>2020-05-21T10:45:32Z</time>
      </trkpt>
      <trkpt lat="47.20786" lon="-1.5647">
        <ele>9.86</ele>
        <time>2020-05-21T10:45:34Z</time>
      </trkpt>
      <trkpt lat="47.20781" lon="-1.5649">
        <ele>10.65</ele>
        <time>2020-05-21T10:45:36Z</time>
      </trkpt>
      <trkpt lat="47.20776" lon="-1.56507">
        <ele>11.07</ele>
        <time>2020-05-21T10:45:38Z</time>
      </trkpt>
      <trkpt lat="47.20768" lon="-1.56517">
        <ele>10.82</ele>
        <time>2020-05-21T10:45:41Z</time>
      </trkpt>
      <trkpt lat="47.20753" lon="-1.56513">
        <ele>8</ele>
        <time>2020-05-21T10:45:43Z</time>
      </trkpt>
      <trkpt lat="47.20742" lon="-1.56506">
        <ele>4.73</ele>
        <time>2020-05-21T10:45:45Z</time>
      </trkpt>
      <trkpt lat="47.20733" lon="-1.56501">
        <ele>3.85</ele>
        <time>2020-05-21T10:45:48Z</time>
      </trkpt>
      <trkpt lat="47.20727" lon="-1.56518">
        <ele>6.26</ele>
        <time>2020-05-21T10:45:51Z</time>
      </trkpt>
      <trkpt lat="47.20726" lon="-1.56534">
        <ele>7.11</ele>
        <time>2020-05-21T10:45:53Z</time>
      </trkpt>
      <trkpt lat="47.20722" lon="-1.56547">
        <ele>6.88</ele>
        <time>2020-05-21T10:45:55Z</time>
      </trkpt>
      <trkpt lat="47.20715" lon="-1.56561">
        <ele>5.88</ele>
        <time>2020-05-21T10:45:57Z</time>
      </trkpt>
      <trkpt lat="47.20707" lon="-1.56572">
        <ele>5.23</ele>
        <time>2020-05-21T10:45:59Z</time>
      </trkpt>
      <trkpt lat="47.20696" lon="-1.56576">
        <ele>5.35</ele>
        <time>2020-05-21T10:46:01Z</time>
      </trkpt>
      <trkpt lat="47.20684" lon="-1.56583">
        <ele>4.86</ele>
        <time>2020-05-21T10:46:03Z</time>
      </trkpt>
      <trkpt lat="47.20671" lon="-1.56594">
        <ele>4.53</ele>
        <time>2020-05-21T10:46:05Z</time>
      </trkpt>
      <trkpt lat="47.20657" lon="-1.56606">
        <ele>4.97</ele>
        <time>2020-05-21T10:46:07Z</time>
      </trkpt>
      <trkpt lat="47.20646" lon="-1.56611">
        <ele>5.6</ele>
        <time>2020-05-21T10:46:09Z</time>
      </trkpt>
      <trkpt lat="47.20633" lon="-1.56618">
        <ele>6.81</ele>
        <time>2020-05-21T10:46:11Z</time>
      </trkpt>
      <trkpt lat="47.20619" lon="-1.56623">
        <ele>7.92</ele>
        <time>2020-05-21T10:46:13Z</time>
      </trkpt>
      <trkpt lat="47.20606" lon="-1.56626">
        <ele>8.46</ele>
        <time>2020-05-21T10:46:15Z</time>
      </trkpt>
      <trkpt lat="47.20593" lon="-1.5663">
        <ele>8</ele>
        <time>2020-05-21T10:46:17Z</time>
      </trkpt>
      <trkpt lat="47.20582" lon="-1.56639">
        <ele>7.38</ele>
        <time>2020-05-21T10:46:19Z</time>
      </trkpt>
      <trkpt lat="47.20573" lon="-1.56653">
        <ele>5.53</ele>
        <time>2020-05-21T10:46:21Z</time>
      </trkpt>
      <trkpt lat="47.20566" lon="-1.56668">
        <ele>4.09</ele>
        <time>2020-05-21T10:46:23Z</time>
      </trkpt>
      <trkpt lat="47.20558" lon="-1.56682">
        <ele>3.79</ele>
        <time>2020-05-21T10:46:25Z</time>
      </trkpt>
      <trkpt lat="47.20548" lon="-1.56695">
        <ele>3.62</ele>
        <time>2020-05-21T10:46:27Z</time>
      </trkpt>
      <trkpt lat="47.20538" lon="-1.56706">
        <ele>3.65</ele>
        <time>2020-05-21T10:46:29Z</time>
      </trkpt>
      <trkpt lat="47.20528" lon="-1.56715">
        <ele>4.25</ele>
        <time>2020-05-21T10:46:31Z</time>
      </trkpt>
      <trkpt lat="47.20515" lon="-1.56726">
        <ele>4.91</ele>
        <time>2020-05-21T10:46:33Z</time>
      </trkpt>
      <trkpt lat="47.20505" lon="-1.56726">
        <ele>5</ele>
        <time>2020-05-21T10:46:35Z</time>
      </trkpt>
      <trkpt lat="47.20491" lon="-1.56725">
        <ele>4.55</ele>
        <time>2020-05-21T10:46:37Z</time>
      </trkpt>
      <trkpt lat="47.20477" lon="-1.56723">
        <ele>3.9</ele>
        <time>2020-05-21T10:46:39Z</time>
      </trkpt>
      <trkpt lat="47.20465" lon="-1.5672">
        <ele>3.63</ele>
        <time>2020-05-21T10:46:41Z</time>
      </trkpt>
      <trkpt lat="47.20452" lon="-1.56717">
        <ele>4.71</ele>
        <time>2020-05-21T10:46:43Z</time>
      </trkpt>
      <trkpt lat="47.2044" lon="-1.56713">
        <ele>5.24</ele>
        <time>2020-05-21T10:46:45Z</time>
      </trkpt>
      <trkpt lat="47.20427" lon="-1.56709">
        <ele>4.33</ele>
        <time>2020-05-21T10:46:47Z</time>
      </trkpt>
      <trkpt lat="47.20415" lon="-1.56706">
        <ele>4.77</ele>
        <time>2020-05-21T10:46:49Z</time>
      </trkpt>
      <trkpt lat="47.20405" lon="-1.56708">
        <ele>5.51</ele>
        <time>2020-05-21T10:46:51Z</time>
      </trkpt>
      <trkpt lat="47.20399" lon="-1.56721">
        <ele>6.72</ele>
        <time>2020-05-21T10:46:53Z</time>
      </trkpt>
      <trkpt lat="47.20394" lon="-1.56738">
        <ele>6.72</ele>
        <time>2020-05-21T10:46:55Z</time>
      </trkpt>
      <trkpt lat="47.20391" lon="-1.56755">
        <ele>6.71</ele>
        <time>2020-05-21T10:46:57Z</time>
      </trkpt>
      <trkpt lat="47.20389" lon="-1.56777">
        <ele>7.8</ele>
        <time>2020-05-21T10:46:59Z</time>
      </trkpt>
      <trkpt lat="47.20387" lon="-1.56793">
        <ele>9.71</ele>
        <time>2020-05-21T10:47:01Z</time>
      </trkpt>
      <trkpt lat="47.20385" lon="-1.56808">
        <ele>11.89</ele>
        <time>2020-05-21T10:47:03Z</time>
      </trkpt>
      <trkpt lat="47.20383" lon="-1.56829">
        <ele>15.5</ele>
        <time>2020-05-21T10:47:05Z</time>
      </trkpt>
      <trkpt lat="47.20382" lon="-1.56847">
        <ele>18.24</ele>
        <time>2020-05-21T10:47:07Z</time>
      </trkpt>
      <trkpt lat="47.2038" lon="-1.56862">
        <ele>19.41</ele>
        <time>2020-05-21T10:47:09Z</time>
      </trkpt>
      <trkpt lat="47.2038" lon="-1.5688">
        <ele>18.86</ele>
        <time>2020-05-21T10:47:11Z</time>
      </trkpt>
      <trkpt lat="47.20378" lon="-1.56895">
        <ele>16.9</ele>
        <time>2020-05-21T10:47:13Z</time>
      </trkpt>
      <trkpt lat="47.20373" lon="-1.56914">
        <ele>16.26</ele>
        <time>2020-05-21T10:47:15Z</time>
      </trkpt>
      <trkpt lat="47.20372" lon="-1.56932">
        <ele>16.53</ele>
        <time>2020-05-21T10:47:17Z</time>
      </trkpt>
      <trkpt lat="47.2037" lon="-1.5695">
        <ele>16.59</ele>
        <time>2020-05-21T10:47:19Z</time>
      </trkpt>
      <trkpt lat="47.20367" lon="-1.5697">
        <ele>17.14</ele>
        <time>2020-05-21T10:47:21Z</time>
      </trkpt>
      <trkpt lat="47.20365" lon="-1.56991">
        <ele>15.61</ele>
        <time>2020-05-21T10:47:23Z</time>
      </trkpt>
      <trkpt lat="47.20363" lon="-1.57011">
        <ele>13.66</ele>
        <time>2020-05-21T10:47:25Z</time>
      </trkpt>
      <trkpt lat="47.20361" lon="-1.57032">
        <ele>12.32</ele>
        <time>2020-05-21T10:47:27Z</time>
      </trkpt>
      <trkpt lat="47.20358" lon="-1.5705">
        <ele>11.4</ele>
        <time>2020-05-21T10:47:29Z</time>
      </trkpt>
      <trkpt lat="47.20353" lon="-1.57065">
        <ele>10.17</ele>
        <time>2020-05-21T10:47:31Z</time>
      </trkpt>
      <trkpt lat="47.20347" lon="-1.57078">
        <ele>9.28</ele>
        <time>2020-05-21T10:47:33Z</time>
      </trkpt>
      <trkpt lat="47.20341" lon="-1.57092">
        <ele>8.31</ele>
        <time>2020-05-21T10:47:35Z</time>
      </trkpt>
      <trkpt lat="47.20334" lon="-1.57108">
        <ele>7.66</ele>
        <time>2020-05-21T10:47:37Z</time>
      </trkpt>
      <trkpt lat="47.20325" lon="-1.57117">
        <ele>6.86</ele>
        <time>2020-05-21T10:47:39Z</time>
      </trkpt>
      <trkpt lat="47.20316" lon="-1.57126">
        <ele>7.11</ele>
        <time>2020-05-21T10:47:41Z</time>
      </trkpt>
      <trkpt lat="47.20305" lon="-1.57134">
        <ele>7.59</ele>
        <time>2020-05-21T10:47:44Z</time>
      </trkpt>
      <trkpt lat="47.20295" lon="-1.57139">
        <ele>7.78</ele>
        <time>2020-05-21T10:47:46Z</time>
      </trkpt>
      <trkpt lat="47.2028" lon="-1.57149">
        <ele>8.19</ele>
        <time>2020-05-21T10:47:48Z</time>
      </trkpt>
      <trkpt lat="47.20267" lon="-1.57156">
        <ele>8.08</ele>
        <time>2020-05-21T10:47:50Z</time>
      </trkpt>
      <trkpt lat="47.20254" lon="-1.57163">
        <ele>8.04</ele>
        <time>2020-05-21T10:47:52Z</time>
      </trkpt>
      <trkpt lat="47.20243" lon="-1.57171">
        <ele>6.66</ele>
        <time>2020-05-21T10:47:54Z</time>
      </trkpt>
      <trkpt lat="47.20231" lon="-1.57179">
        <ele>5.19</ele>
        <time>2020-05-21T10:47:56Z</time>
      </trkpt>
      <trkpt lat="47.20218" lon="-1.57187">
        <ele>4.76</ele>
        <time>2020-05-21T10:47:58Z</time>
      </trkpt>
      <trkpt lat="47.20205" lon="-1.57195">
        <ele>4.35</ele>
        <time>2020-05-21T10:48:00Z</time>
      </trkpt>
      <trkpt lat="47.20193" lon="-1.57202">
        <ele>4.14</ele>
        <time>2020-05-21T10:48:02Z</time>
      </trkpt>
      <trkpt lat="47.20182" lon="-1.57211">
        <ele>3.61</ele>
        <time>2020-05-21T10:48:04Z</time>
      </trkpt>
      <trkpt lat="47.20169" lon="-1.5722">
        <ele>4.4</ele>
        <time>2020-05-21T10:48:06Z</time>
      </trkpt>
      <trkpt lat="47.20155" lon="-1.57229">
        <ele>4.76</ele>
        <time>2020-05-21T10:48:09Z</time>
      </trkpt>
      <trkpt lat="47.20143" lon="-1.57238">
        <ele>4.79</ele>
        <time>2020-05-21T10:48:11Z</time>
      </trkpt>
      <trkpt lat="47.20131" lon="-1.57246">
        <ele>4.09</ele>
        <time>2020-05-21T10:48:13Z</time>
      </trkpt>
      <trkpt lat="47.20118" lon="-1.57255">
        <ele>4.02</ele>
        <time>2020-05-21T10:48:15Z</time>
      </trkpt>
      <trkpt lat="47.20105" lon="-1.57264">
        <ele>4.13</ele>
        <time>2020-05-21T10:48:17Z</time>
      </trkpt>
      <trkpt lat="47.20093" lon="-1.57271">
        <ele>4.28</ele>
        <time>2020-05-21T10:48:19Z</time>
      </trkpt>
      <trkpt lat="47.20081" lon="-1.5728">
        <ele>3.53</ele>
        <time>2020-05-21T10:48:21Z</time>
      </trkpt>
      <trkpt lat="47.2007" lon="-1.5729">
        <ele>2.97</ele>
        <time>2020-05-21T10:48:23Z</time>
      </trkpt>
      <trkpt lat="47.20062" lon="-1.57298">
        <ele>2.06</ele>
        <time>2020-05-21T10:48:25Z</time>
      </trkpt>
      <trkpt lat="47.20049" lon="-1.5731">
        <ele>1.88</ele>
        <time>2020-05-21T10:48:27Z</time>
      </trkpt>
      <trkpt lat="47.20038" lon="-1.57319">
        <ele>1.29</ele>
        <time>2020-05-21T10:48:29Z</time>
      </trkpt>
      <trkpt lat="47.20028" lon="-1.57327">
        <ele>0.84</ele>
        <time>2020-05-21T10:48:31Z</time>
      </trkpt>
      <trkpt lat="47.20015" lon="-1.57336">
        <ele>1.81</ele>
        <time>2020-05-21T10:48:33Z</time>
      </trkpt>
      <trkpt lat="47.20004" lon="-1.57343">
        <ele>2.46</ele>
        <time>2020-05-21T10:48:35Z</time>
      </trkpt>
      <trkpt lat="47.19994" lon="-1.57347">
        <ele>2.51</ele>
        <time>2020-05-21T10:48:37Z</time>
      </trkpt>
      <trkpt lat="47.19983" lon="-1.57339">
        <ele>2.38</ele>
        <time>2020-05-21T10:48:39Z</time>
      </trkpt>
      <trkpt lat="47.19978" lon="-1.57322">
        <ele>2.69</ele>
        <time>2020-05-21T10:48:41Z</time>
      </trkpt>
      <trkpt lat="47.19976" lon="-1.57302">
        <ele>3.18</ele>
        <time>2020-05-21T10:48:43Z</time>
      </trkpt>
      <trkpt lat="47.19974" lon="-1.57285">
        <ele>4.31</ele>
        <time>2020-05-21T10:48:45Z</time>
      </trkpt>
      <trkpt lat="47.19973" lon="-1.57267">
        <ele>5.3</ele>
        <time>2020-05-21T10:48:47Z</time>
      </trkpt>
      <trkpt lat="47.19972" lon="-1.57248">
        <ele>5.65</ele>
        <time>2020-05-21T10:48:49Z</time>
      </trkpt>
      <trkpt lat="47.19973" lon="-1.5723">
        <ele>5.49</ele>
        <time>2020-05-21T10:48:51Z</time>
      </trkpt>
      <trkpt lat="47.19974" lon="-1.57212">
        <ele>6.28</ele>
        <time>2020-05-21T10:48:53Z</time>
      </trkpt>
      <trkpt lat="47.19974" lon="-1.57194">
        <ele>7.79</ele>
        <time>2020-05-21T10:48:55Z</time>
      </trkpt>
      <trkpt lat="47.19975" lon="-1.57175">
        <ele>9.23</ele>
        <time>2020-05-21T10:48:57Z</time>
      </trkpt>
      <trkpt lat="47.19975" lon="-1.57156">
        <ele>10.1</ele>
        <time>2020-05-21T10:48:59Z</time>
      </trkpt>
      <trkpt lat="47.19976" lon="-1.5714">
        <ele>9.68</ele>
        <time>2020-05-21T10:49:01Z</time>
      </trkpt>
      <trkpt lat="47.19974" lon="-1.57126">
        <ele>9.36</ele>
        <time>2020-05-21T10:49:03Z</time>
      </trkpt>
      <trkpt lat="47.1997" lon="-1.57107">
        <ele>8.23</ele>
        <time>2020-05-21T10:49:05Z</time>
      </trkpt>
      <trkpt lat="47.19966" lon="-1.57089">
        <ele>7.48</ele>
        <time>2020-05-21T10:49:07Z</time>
      </trkpt>
      <trkpt lat="47.19962" lon="-1.57072">
        <ele>7.57</ele>
        <time>2020-05-21T10:49:09Z</time>
      </trkpt>
      <trkpt lat="47.19956" lon="-1.57051">
        <ele>8.36</ele>
        <time>2020-05-21T10:49:11Z</time>
      </trkpt>
      <trkpt lat="47.19951" lon="-1.57039">
        <ele>8.19</ele>
        <time>2020-05-21T10:49:13Z</time>
      </trkpt>
      <trkpt lat="47.19948" lon="-1.57024">
        <ele>7.88</ele>
        <time>2020-05-21T10:49:15Z</time>
      </trkpt>
      <trkpt lat="47.19947" lon="-1.57005">
        <ele>7.73</ele>
        <time>2020-05-21T10:49:17Z</time>
      </trkpt>
      <trkpt lat="47.19946" lon="-1.5699">
        <ele>8.9</ele>
        <time>2020-05-21T10:49:19Z</time>
      </trkpt>
      <trkpt lat="47.19945" lon="-1.56974">
        <ele>8.94</ele>
        <time>2020-05-21T10:49:21Z</time>
      </trkpt>
      <trkpt lat="47.19946" lon="-1.56959">
        <ele>8.97</ele>
        <time>2020-05-21T10:49:23Z</time>
      </trkpt>
      <trkpt lat="47.19947" lon="-1.56942">
        <ele>9.38</ele>
        <time>2020-05-21T10:49:25Z</time>
      </trkpt>
      <trkpt lat="47.19947" lon="-1.56924">
        <ele>10.69</ele>
        <time>2020-05-21T10:49:27Z</time>
      </trkpt>
      <trkpt lat="47.19949" lon="-1.56907">
        <ele>10.41</ele>
        <time>2020-05-21T10:49:29Z</time>
      </trkpt>
      <trkpt lat="47.1995" lon="-1.56893">
        <ele>9.73</ele>
        <time>2020-05-21T10:49:31Z</time>
      </trkpt>
      <trkpt lat="47.19951" lon="-1.56878">
        <ele>9.7</ele>
        <time>2020-05-21T10:49:33Z</time>
      </trkpt>
      <trkpt lat="47.19951" lon="-1.56863">
        <ele>8.4</ele>
        <time>2020-05-21T10:49:35Z</time>
      </trkpt>
      <trkpt lat="47.1995" lon="-1.56842">
        <ele>6.59</ele>
        <time>2020-05-21T10:49:37Z</time>
      </trkpt>
      <trkpt lat="47.1995" lon="-1.56828">
        <ele>5.96</ele>
        <time>2020-05-21T10:49:39Z</time>
      </trkpt>
      <trkpt lat="47.19949" lon="-1.56812">
        <ele>5.51</ele>
        <time>2020-05-21T10:49:41Z</time>
      </trkpt>
      <trkpt lat="47.19949" lon="-1.56796">
        <ele>5.62</ele>
        <time>2020-05-21T10:49:43Z</time>
      </trkpt>
      <trkpt lat="47.19951" lon="-1.56779">
        <ele>8.58</ele>
        <time>2020-05-21T10:49:45Z</time>
      </trkpt>
      <trkpt lat="47.19955" lon="-1.56757">
        <ele>10.42</ele>
        <time>2020-05-21T10:49:47Z</time>
      </trkpt>
      <trkpt lat="47.19958" lon="-1.56737">
        <ele>11.68</ele>
        <time>2020-05-21T10:49:49Z</time>
      </trkpt>
      <trkpt lat="47.19959" lon="-1.56721">
        <ele>12.56</ele>
        <time>2020-05-21T10:49:51Z</time>
      </trkpt>
      <trkpt lat="47.19958" lon="-1.56708">
        <ele>11.68</ele>
        <time>2020-05-21T10:49:53Z</time>
      </trkpt>
      <trkpt lat="47.19958" lon="-1.56692">
        <ele>10.23</ele>
        <time>2020-05-21T10:49:55Z</time>
      </trkpt>
      <trkpt lat="47.19957" lon="-1.56674">
        <ele>9.94</ele>
        <time>2020-05-21T10:49:57Z</time>
      </trkpt>
      <trkpt lat="47.19956" lon="-1.56658">
        <ele>10.17</ele>
        <time>2020-05-21T10:49:59Z</time>
      </trkpt>
      <trkpt lat="47.19955" lon="-1.56641">
        <ele>10.47</ele>
        <time>2020-05-21T10:50:01Z</time>
      </trkpt>
      <trkpt lat="47.19954" lon="-1.56621">
        <ele>9.16</ele>
        <time>2020-05-21T10:50:03Z</time>
      </trkpt>
      <trkpt lat="47.19953" lon="-1.56606">
        <ele>7.88</ele>
        <time>2020-05-21T10:50:05Z</time>
      </trkpt>
      <trkpt lat="47.19952" lon="-1.56588">
        <ele>6.49</ele>
        <time>2020-05-21T10:50:07Z</time>
      </trkpt>
      <trkpt lat="47.19951" lon="-1.56572">
        <ele>5.26</ele>
        <time>2020-05-21T10:50:09Z</time>
      </trkpt>
      <trkpt lat="47.19951" lon="-1.56556">
        <ele>5.24</ele>
        <time>2020-05-21T10:50:11Z</time>
      </trkpt>
      <trkpt lat="47.1995" lon="-1.56539">
        <ele>5.26</ele>
        <time>2020-05-21T10:50:13Z</time>
      </trkpt>
      <trkpt lat="47.1995" lon="-1.56521">
        <ele>4.84</ele>
        <time>2020-05-21T10:50:15Z</time>
      </trkpt>
      <trkpt lat="47.1995" lon="-1.56504">
        <ele>5.02</ele>
        <time>2020-05-21T10:50:17Z</time>
      </trkpt>
      <trkpt lat="47.1995" lon="-1.56491">
        <ele>5.4</ele>
        <time>2020-05-21T10:50:19Z</time>
      </trkpt>
      <trkpt lat="47.19951" lon="-1.56474">
        <ele>5.04</ele>
        <time>2020-05-21T10:50:21Z</time>
      </trkpt>
      <trkpt lat="47.19953" lon="-1.56458">
        <ele>4.27</ele>
        <time>2020-05-21T10:50:23Z</time>
      </trkpt>
      <trkpt lat="47.19957" lon="-1.56442">
        <ele>4.82</ele>
        <time>2020-05-21T10:50:25Z</time>
      </trkpt>
      <trkpt lat="47.19962" lon="-1.56423">
        <ele>5.19</ele>
        <time>2020-05-21T10:50:27Z</time>
      </trkpt>
      <trkpt lat="47.19966" lon="-1.56405">
        <ele>4.82</ele>
        <time>2020-05-21T10:50:29Z</time>
      </trkpt>
      <trkpt lat="47.19967" lon="-1.56388">
        <ele>4.49</ele>
        <time>2020-05-21T10:50:31Z</time>
      </trkpt>
      <trkpt lat="47.19968" lon="-1.5637">
        <ele>4.99</ele>
        <time>2020-05-21T10:50:33Z</time>
      </trkpt>
      <trkpt lat="47.19969" lon="-1.56352">
        <ele>5.12</ele>
        <time>2020-05-21T10:50:35Z</time>
      </trkpt>
      <trkpt lat="47.1997" lon="-1.56334">
        <ele>5.2</ele>
        <time>2020-05-21T10:50:37Z</time>
      </trkpt>
      <trkpt lat="47.19971" lon="-1.56315">
        <ele>5.78</ele>
        <time>2020-05-21T10:50:39Z</time>
      </trkpt>
      <trkpt lat="47.19972" lon="-1.56293">
        <ele>4.8</ele>
        <time>2020-05-21T10:50:42Z</time>
      </trkpt>
      <trkpt lat="47.19972" lon="-1.56276">
        <ele>4.31</ele>
        <time>2020-05-21T10:50:44Z</time>
      </trkpt>
      <trkpt lat="47.19972" lon="-1.56258">
        <ele>4.18</ele>
        <time>2020-05-21T10:50:46Z</time>
      </trkpt>
      <trkpt lat="47.19973" lon="-1.56243">
        <ele>4.08</ele>
        <time>2020-05-21T10:50:48Z</time>
      </trkpt>
      <trkpt lat="47.19973" lon="-1.56227">
        <ele>4.39</ele>
        <time>2020-05-21T10:50:50Z</time>
      </trkpt>
      <trkpt lat="47.19972" lon="-1.5621">
        <ele>5.01</ele>
        <time>2020-05-21T10:50:52Z</time>
      </trkpt>
      <trkpt lat="47.19972" lon="-1.56195">
        <ele>5.04</ele>
        <time>2020-05-21T10:50:54Z</time>
      </trkpt>
      <trkpt lat="47.19971" lon="-1.5618">
        <ele>4.62</ele>
        <time>2020-05-21T10:50:56Z</time>
      </trkpt>
      <trkpt lat="47.19962" lon="-1.56172">
        <ele>3.61</ele>
        <time>2020-05-21T10:50:58Z</time>
      </trkpt>
      <trkpt lat="47.19949" lon="-1.56175">
        <ele>2.71</ele>
        <time>2020-05-21T10:51:00Z</time>
      </trkpt>
      <trkpt lat="47.19937" lon="-1.56177">
        <ele>4.19</ele>
        <time>2020-05-21T10:51:02Z</time>
      </trkpt>
      <trkpt lat="47.19926" lon="-1.56179">
        <ele>6.07</ele>
        <time>2020-05-21T10:51:04Z</time>
      </trkpt>
      <trkpt lat="47.19916" lon="-1.56182">
        <ele>7.64</ele>
        <time>2020-05-21T10:51:06Z</time>
      </trkpt>
      <trkpt lat="47.19906" lon="-1.56183">
        <ele>8.75</ele>
        <time>2020-05-21T10:51:08Z</time>
      </trkpt>
      <trkpt lat="47.19895" lon="-1.56185">
        <ele>9.3</ele>
        <time>2020-05-21T10:51:10Z</time>
      </trkpt>
      <trkpt lat="47.19882" lon="-1.56187">
        <ele>9.45</ele>
        <time>2020-05-21T10:51:12Z</time>
      </trkpt>
      <trkpt lat="47.1987" lon="-1.56189">
        <ele>9.89</ele>
        <time>2020-05-21T10:51:14Z</time>
      </trkpt>
      <trkpt lat="47.19859" lon="-1.56191">
        <ele>10.09</ele>
        <time>2020-05-21T10:51:16Z</time>
      </trkpt>
      <trkpt lat="47.19846" lon="-1.56193">
        <ele>9.87</ele>
        <time>2020-05-21T10:51:18Z</time>
      </trkpt>
      <trkpt lat="47.19832" lon="-1.56197">
        <ele>10.72</ele>
        <time>2020-05-21T10:51:21Z</time>
      </trkpt>
      <trkpt lat="47.19822" lon="-1.56199">
        <ele>10.62</ele>
        <time>2020-05-21T10:51:23Z</time>
      </trkpt>
      <trkpt lat="47.19812" lon="-1.56201">
        <ele>10.9</ele>
        <time>2020-05-21T10:51:25Z</time>
      </trkpt>
      <trkpt lat="47.19802" lon="-1.56203">
        <ele>10.62</ele>
        <time>2020-05-21T10:51:27Z</time>
      </trkpt>
      <trkpt lat="47.19791" lon="-1.56204">
        <ele>10.55</ele>
        <time>2020-05-21T10:51:29Z</time>
      </trkpt>
      <trkpt lat="47.1978" lon="-1.56206">
        <ele>10.46</ele>
        <time>2020-05-21T10:51:31Z</time>
      </trkpt>
      <trkpt lat="47.19769" lon="-1.56208">
        <ele>10.42</ele>
        <time>2020-05-21T10:51:33Z</time>
      </trkpt>
      <trkpt lat="47.19755" lon="-1.5621">
        <ele>9.92</ele>
        <time>2020-05-21T10:51:35Z</time>
      </trkpt>
      <trkpt lat="47.19744" lon="-1.56212">
        <ele>10.37</ele>
        <time>2020-05-21T10:51:37Z</time>
      </trkpt>
      <trkpt lat="47.19729" lon="-1.56214">
        <ele>10.86</ele>
        <time>2020-05-21T10:51:39Z</time>
      </trkpt>
      <trkpt lat="47.19715" lon="-1.56216">
        <ele>11.04</ele>
        <time>2020-05-21T10:51:41Z</time>
      </trkpt>
      <trkpt lat="47.19701" lon="-1.56219">
        <ele>10.75</ele>
        <time>2020-05-21T10:51:43Z</time>
      </trkpt>
      <trkpt lat="47.19689" lon="-1.56221">
        <ele>8.47</ele>
        <time>2020-05-21T10:51:45Z</time>
      </trkpt>
      <trkpt lat="47.19674" lon="-1.56224">
        <ele>6.62</ele>
        <time>2020-05-21T10:51:47Z</time>
      </trkpt>
      <trkpt lat="47.19665" lon="-1.56226">
        <ele>6.16</ele>
        <time>2020-05-21T10:51:48Z</time>
      </trkpt>
      <trkpt lat="47.19647" lon="-1.56232">
        <ele>5.72</ele>
        <time>2020-05-21T10:51:50Z</time>
      </trkpt>
      <trkpt lat="47.19638" lon="-1.56235">
        <ele>5.29</ele>
        <time>2020-05-21T10:51:51Z</time>
      </trkpt>
      <trkpt lat="47.19627" lon="-1.5625">
        <ele>4.99</ele>
        <time>2020-05-21T10:51:53Z</time>
      </trkpt>
      <trkpt lat="47.19623" lon="-1.56277">
        <ele>4.96</ele>
        <time>2020-05-21T10:51:55Z</time>
      </trkpt>
      <trkpt lat="47.19622" lon="-1.56301">
        <ele>3.74</ele>
        <time>2020-05-21T10:51:57Z</time>
      </trkpt>
      <trkpt lat="47.19622" lon="-1.56321">
        <ele>3.23</ele>
        <time>2020-05-21T10:51:59Z</time>
      </trkpt>
      <trkpt lat="47.19623" lon="-1.56342">
        <ele>2.68</ele>
        <time>2020-05-21T10:52:01Z</time>
      </trkpt>
      <trkpt lat="47.19622" lon="-1.56365">
        <ele>2.87</ele>
        <time>2020-05-21T10:52:03Z</time>
      </trkpt>
      <trkpt lat="47.19622" lon="-1.56384">
        <ele>2.95</ele>
        <time>2020-05-21T10:52:05Z</time>
      </trkpt>
      <trkpt lat="47.19623" lon="-1.56405">
        <ele>2.3</ele>
        <time>2020-05-21T10:52:07Z</time>
      </trkpt>
      <trkpt lat="47.19625" lon="-1.56425">
        <ele>1.88</ele>
        <time>2020-05-21T10:52:09Z</time>
      </trkpt>
      <trkpt lat="47.19626" lon="-1.56446">
        <ele>2.16</ele>
        <time>2020-05-21T10:52:11Z</time>
      </trkpt>
      <trkpt lat="47.19626" lon="-1.56468">
        <ele>2.92</ele>
        <time>2020-05-21T10:52:13Z</time>
      </trkpt>
      <trkpt lat="47.19628" lon="-1.5649">
        <ele>2.92</ele>
        <time>2020-05-21T10:52:15Z</time>
      </trkpt>
      <trkpt lat="47.19629" lon="-1.56509">
        <ele>3.39</ele>
        <time>2020-05-21T10:52:17Z</time>
      </trkpt>
      <trkpt lat="47.19629" lon="-1.5653">
        <ele>3.46</ele>
        <time>2020-05-21T10:52:19Z</time>
      </trkpt>
      <trkpt lat="47.19628" lon="-1.56551">
        <ele>3.78</ele>
        <time>2020-05-21T10:52:21Z</time>
      </trkpt>
      <trkpt lat="47.19628" lon="-1.56572">
        <ele>3.77</ele>
        <time>2020-05-21T10:52:23Z</time>
      </trkpt>
      <trkpt lat="47.19627" lon="-1.56593">
        <ele>3.12</ele>
        <time>2020-05-21T10:52:25Z</time>
      </trkpt>
      <trkpt lat="47.19626" lon="-1.56613">
        <ele>4.03</ele>
        <time>2020-05-21T10:52:27Z</time>
      </trkpt>
      <trkpt lat="47.19625" lon="-1.56634">
        <ele>5.17</ele>
        <time>2020-05-21T10:52:29Z</time>
      </trkpt>
      <trkpt lat="47.19624" lon="-1.56655">
        <ele>5.74</ele>
        <time>2020-05-21T10:52:31Z</time>
      </trkpt>
      <trkpt lat="47.19623" lon="-1.56677">
        <ele>5.05</ele>
        <time>2020-05-21T10:52:33Z</time>
      </trkpt>
      <trkpt lat="47.19622" lon="-1.56699">
        <ele>4.3</ele>
        <time>2020-05-21T10:52:35Z</time>
      </trkpt>
      <trkpt lat="47.19621" lon="-1.56719">
        <ele>3.71</ele>
        <time>2020-05-21T10:52:37Z</time>
      </trkpt>
      <trkpt lat="47.1962" lon="-1.5674">
        <ele>3.43</ele>
        <time>2020-05-21T10:52:39Z</time>
      </trkpt>
      <trkpt lat="47.19618" lon="-1.56761">
        <ele>2.12</ele>
        <time>2020-05-21T10:52:41Z</time>
      </trkpt>
      <trkpt lat="47.19616" lon="-1.56781">
        <ele>1.92</ele>
        <time>2020-05-21T10:52:43Z</time>
      </trkpt>
      <trkpt lat="47.19615" lon="-1.568">
        <ele>2.32</ele>
        <time>2020-05-21T10:52:45Z</time>
      </trkpt>
      <trkpt lat="47.19613" lon="-1.56821">
        <ele>2.14</ele>
        <time>2020-05-21T10:52:47Z</time>
      </trkpt>
      <trkpt lat="47.19612" lon="-1.56841">
        <ele>2.32</ele>
        <time>2020-05-21T10:52:49Z</time>
      </trkpt>
      <trkpt lat="47.1961" lon="-1.56859">
        <ele>2.21</ele>
        <time>2020-05-21T10:52:51Z</time>
      </trkpt>
      <trkpt lat="47.19609" lon="-1.56872">
        <ele>2.32</ele>
        <time>2020-05-21T10:52:52Z</time>
      </trkpt>
      <trkpt lat="47.19609" lon="-1.56892">
        <ele>2.06</ele>
        <time>2020-05-21T10:52:54Z</time>
      </trkpt>
      <trkpt lat="47.19607" lon="-1.56909">
        <ele>2.16</ele>
        <time>2020-05-21T10:52:56Z</time>
      </trkpt>
      <trkpt lat="47.19606" lon="-1.5693">
        <ele>2.2</ele>
        <time>2020-05-21T10:52:58Z</time>
      </trkpt>
      <trkpt lat="47.19605" lon="-1.56947">
        <ele>2.14</ele>
        <time>2020-05-21T10:53:00Z</time>
      </trkpt>
      <trkpt lat="47.19604" lon="-1.56968">
        <ele>2.51</ele>
        <time>2020-05-21T10:53:02Z</time>
      </trkpt>
      <trkpt lat="47.19602" lon="-1.56988">
        <ele>2.99</ele>
        <time>2020-05-21T10:53:04Z</time>
      </trkpt>
      <trkpt lat="47.196" lon="-1.5701">
        <ele>3.63</ele>
        <time>2020-05-21T10:53:06Z</time>
      </trkpt>
      <trkpt lat="47.19595" lon="-1.57028">
        <ele>4.34</ele>
        <time>2020-05-21T10:53:08Z</time>
      </trkpt>
      <trkpt lat="47.19594" lon="-1.57046">
        <ele>4.76</ele>
        <time>2020-05-21T10:53:10Z</time>
      </trkpt>
      <trkpt lat="47.19593" lon="-1.57067">
        <ele>5.47</ele>
        <time>2020-05-21T10:53:12Z</time>
      </trkpt>
      <trkpt lat="47.19592" lon="-1.57086">
        <ele>6.35</ele>
        <time>2020-05-21T10:53:14Z</time>
      </trkpt>
      <trkpt lat="47.19592" lon="-1.57106">
        <ele>5.6</ele>
        <time>2020-05-21T10:53:16Z</time>
      </trkpt>
      <trkpt lat="47.19592" lon="-1.57126">
        <ele>4.98</ele>
        <time>2020-05-21T10:53:18Z</time>
      </trkpt>
      <trkpt lat="47.19591" lon="-1.57145">
        <ele>4.5</ele>
        <time>2020-05-21T10:53:20Z</time>
      </trkpt>
      <trkpt lat="47.19591" lon="-1.57163">
        <ele>4.87</ele>
        <time>2020-05-21T10:53:22Z</time>
      </trkpt>
      <trkpt lat="47.19589" lon="-1.57184">
        <ele>5.23</ele>
        <time>2020-05-21T10:53:24Z</time>
      </trkpt>
      <trkpt lat="47.19588" lon="-1.57199">
        <ele>5.7</ele>
        <time>2020-05-21T10:53:26Z</time>
      </trkpt>
      <trkpt lat="47.19587" lon="-1.5722">
        <ele>6.08</ele>
        <time>2020-05-21T10:53:28Z</time>
      </trkpt>
      <trkpt lat="47.19586" lon="-1.5724">
        <ele>5.25</ele>
        <time>2020-05-21T10:53:30Z</time>
      </trkpt>
      <trkpt lat="47.19585" lon="-1.57262">
        <ele>3.98</ele>
        <time>2020-05-21T10:53:32Z</time>
      </trkpt>
      <trkpt lat="47.19583" lon="-1.57283">
        <ele>2.94</ele>
        <time>2020-05-21T10:53:34Z</time>
      </trkpt>
      <trkpt lat="47.19581" lon="-1.573">
        <ele>2.55</ele>
        <time>2020-05-21T10:53:36Z</time>
      </trkpt>
      <trkpt lat="47.1958" lon="-1.57319">
        <ele>2.94</ele>
        <time>2020-05-21T10:53:38Z</time>
      </trkpt>
      <trkpt lat="47.19578" lon="-1.57338">
        <ele>3.18</ele>
        <time>2020-05-21T10:53:40Z</time>
      </trkpt>
      <trkpt lat="47.19575" lon="-1.57355">
        <ele>3.7</ele>
        <time>2020-05-21T10:53:42Z</time>
      </trkpt>
      <trkpt lat="47.19573" lon="-1.57374">
        <ele>4.4</ele>
        <time>2020-05-21T10:53:44Z</time>
      </trkpt>
      <trkpt lat="47.19569" lon="-1.57391">
        <ele>4.54</ele>
        <time>2020-05-21T10:53:46Z</time>
      </trkpt>
      <trkpt lat="47.19566" lon="-1.57406">
        <ele>5.01</ele>
        <time>2020-05-21T10:53:48Z</time>
      </trkpt>
      <trkpt lat="47.19561" lon="-1.57426">
        <ele>6.66</ele>
        <time>2020-05-21T10:53:50Z</time>
      </trkpt>
      <trkpt lat="47.19557" lon="-1.57441">
        <ele>8.16</ele>
        <time>2020-05-21T10:53:52Z</time>
      </trkpt>
      <trkpt lat="47.19553" lon="-1.5746">
        <ele>7.64</ele>
        <time>2020-05-21T10:53:54Z</time>
      </trkpt>
      <trkpt lat="47.19549" lon="-1.57482">
        <ele>7.52</ele>
        <time>2020-05-21T10:53:56Z</time>
      </trkpt>
      <trkpt lat="47.19547" lon="-1.57503">
        <ele>7.53</ele>
        <time>2020-05-21T10:53:58Z</time>
      </trkpt>
      <trkpt lat="47.19543" lon="-1.57522">
        <ele>6.92</ele>
        <time>2020-05-21T10:54:00Z</time>
      </trkpt>
      <trkpt lat="47.1954" lon="-1.57541">
        <ele>6.34</ele>
        <time>2020-05-21T10:54:02Z</time>
      </trkpt>
      <trkpt lat="47.19537" lon="-1.57559">
        <ele>6.09</ele>
        <time>2020-05-21T10:54:04Z</time>
      </trkpt>
      <trkpt lat="47.19532" lon="-1.57579">
        <ele>5.95</ele>
        <time>2020-05-21T10:54:06Z</time>
      </trkpt>
      <trkpt lat="47.19528" lon="-1.57598">
        <ele>6.3</ele>
        <time>2020-05-21T10:54:08Z</time>
      </trkpt>
      <trkpt lat="47.19525" lon="-1.57617">
        <ele>6.87</ele>
        <time>2020-05-21T10:54:10Z</time>
      </trkpt>
      <trkpt lat="47.1952" lon="-1.57636">
        <ele>6.42</ele>
        <time>2020-05-21T10:54:12Z</time>
      </trkpt>
      <trkpt lat="47.19515" lon="-1.57656">
        <ele>5.85</ele>
        <time>2020-05-21T10:54:14Z</time>
      </trkpt>
      <trkpt lat="47.19509" lon="-1.57678">
        <ele>4.92</ele>
        <time>2020-05-21T10:54:16Z</time>
      </trkpt>
      <trkpt lat="47.19505" lon="-1.57697">
        <ele>3.91</ele>
        <time>2020-05-21T10:54:18Z</time>
      </trkpt>
      <trkpt lat="47.19501" lon="-1.57715">
        <ele>3.08</ele>
        <time>2020-05-21T10:54:20Z</time>
      </trkpt>
      <trkpt lat="47.19497" lon="-1.57733">
        <ele>2.79</ele>
        <time>2020-05-21T10:54:22Z</time>
      </trkpt>
      <trkpt lat="47.19494" lon="-1.57749">
        <ele>3.74</ele>
        <time>2020-05-21T10:54:24Z</time>
      </trkpt>
      <trkpt lat="47.19491" lon="-1.57766">
        <ele>4.83</ele>
        <time>2020-05-21T10:54:26Z</time>
      </trkpt>
      <trkpt lat="47.19486" lon="-1.57788">
        <ele>5.75</ele>
        <time>2020-05-21T10:54:28Z</time>
      </trkpt>
      <trkpt lat="47.19482" lon="-1.57807">
        <ele>5.94</ele>
        <time>2020-05-21T10:54:30Z</time>
      </trkpt>
      <trkpt lat="47.19478" lon="-1.57825">
        <ele>5.11</ele>
        <time>2020-05-21T10:54:32Z</time>
      </trkpt>
      <trkpt lat="47.19474" lon="-1.57844">
        <ele>4.42</ele>
        <time>2020-05-21T10:54:34Z</time>
      </trkpt>
      <trkpt lat="47.19471" lon="-1.57862">
        <ele>4.18</ele>
        <time>2020-05-21T10:54:36Z</time>
      </trkpt>
      <trkpt lat="47.19469" lon="-1.57881">
        <ele>3.63</ele>
        <time>2020-05-21T10:54:38Z</time>
      </trkpt>
      <trkpt lat="47.19466" lon="-1.57901">
        <ele>3.02</ele>
        <time>2020-05-21T10:54:40Z</time>
      </trkpt>
      <trkpt lat="47.19464" lon="-1.57918">
        <ele>1.98</ele>
        <time>2020-05-21T10:54:42Z</time>
      </trkpt>
      <trkpt lat="47.19463" lon="-1.57938">
        <ele>1.75</ele>
        <time>2020-05-21T10:54:44Z</time>
      </trkpt>
      <trkpt lat="47.19461" lon="-1.57956">
        <ele>2.46</ele>
        <time>2020-05-21T10:54:46Z</time>
      </trkpt>
      <trkpt lat="47.19458" lon="-1.57976">
        <ele>2.4</ele>
        <time>2020-05-21T10:54:48Z</time>
      </trkpt>
      <trkpt lat="47.19457" lon="-1.57992">
        <ele>2.71</ele>
        <time>2020-05-21T10:54:50Z</time>
      </trkpt>
      <trkpt lat="47.19455" lon="-1.58013">
        <ele>3.01</ele>
        <time>2020-05-21T10:54:52Z</time>
      </trkpt>
      <trkpt lat="47.19454" lon="-1.58031">
        <ele>2.31</ele>
        <time>2020-05-21T10:54:54Z</time>
      </trkpt>
      <trkpt lat="47.19453" lon="-1.58047">
        <ele>3.85</ele>
        <time>2020-05-21T10:54:56Z</time>
      </trkpt>
      <trkpt lat="47.19452" lon="-1.58063">
        <ele>3.74</ele>
        <time>2020-05-21T10:54:58Z</time>
      </trkpt>
      <trkpt lat="47.1945" lon="-1.58081">
        <ele>3.93</ele>
        <time>2020-05-21T10:55:00Z</time>
      </trkpt>
      <trkpt lat="47.19447" lon="-1.58096">
        <ele>4.65</ele>
        <time>2020-05-21T10:55:01Z</time>
      </trkpt>
      <trkpt lat="47.19441" lon="-1.5811">
        <ele>3.92</ele>
        <time>2020-05-21T10:55:03Z</time>
      </trkpt>
      <trkpt lat="47.19433" lon="-1.58121">
        <ele>3.11</ele>
        <time>2020-05-21T10:55:05Z</time>
      </trkpt>
      <trkpt lat="47.19423" lon="-1.58133">
        <ele>3</ele>
        <time>2020-05-21T10:55:07Z</time>
      </trkpt>
      <trkpt lat="47.19413" lon="-1.58145">
        <ele>2.8</ele>
        <time>2020-05-21T10:55:09Z</time>
      </trkpt>
      <trkpt lat="47.194" lon="-1.58159">
        <ele>2.62</ele>
        <time>2020-05-21T10:55:11Z</time>
      </trkpt>
      <trkpt lat="47.1939" lon="-1.58172">
        <ele>3.52</ele>
        <time>2020-05-21T10:55:13Z</time>
      </trkpt>
      <trkpt lat="47.19384" lon="-1.58183">
        <ele>4.9</ele>
        <time>2020-05-21T10:55:15Z</time>
      </trkpt>
      <trkpt lat="47.19377" lon="-1.58198">
        <ele>5.88</ele>
        <time>2020-05-21T10:55:17Z</time>
      </trkpt>
      <trkpt lat="47.1937" lon="-1.58214">
        <ele>6.17</ele>
        <time>2020-05-21T10:55:19Z</time>
      </trkpt>
      <trkpt lat="47.19364" lon="-1.5823">
        <ele>6.04</ele>
        <time>2020-05-21T10:55:21Z</time>
      </trkpt>
      <trkpt lat="47.19356" lon="-1.58251">
        <ele>6</ele>
        <time>2020-05-21T10:55:23Z</time>
      </trkpt>
      <trkpt lat="47.1935" lon="-1.58268">
        <ele>6.38</ele>
        <time>2020-05-21T10:55:25Z</time>
      </trkpt>
      <trkpt lat="47.19343" lon="-1.58283">
        <ele>6.98</ele>
        <time>2020-05-21T10:55:27Z</time>
      </trkpt>
      <trkpt lat="47.19334" lon="-1.58297">
        <ele>6.81</ele>
        <time>2020-05-21T10:55:29Z</time>
      </trkpt>
      <trkpt lat="47.19324" lon="-1.58308">
        <ele>6.27</ele>
        <time>2020-05-21T10:55:31Z</time>
      </trkpt>
      <trkpt lat="47.19313" lon="-1.58319">
        <ele>4.39</ele>
        <time>2020-05-21T10:55:33Z</time>
      </trkpt>
      <trkpt lat="47.19299" lon="-1.58331">
        <ele>2.25</ele>
        <time>2020-05-21T10:55:35Z</time>
      </trkpt>
      <trkpt lat="47.19288" lon="-1.58341">
        <ele>0.99</ele>
        <time>2020-05-21T10:55:37Z</time>
      </trkpt>
      <trkpt lat="47.19277" lon="-1.5835">
        <ele>1.04</ele>
        <time>2020-05-21T10:55:39Z</time>
      </trkpt>
      <trkpt lat="47.19265" lon="-1.58362">
        <ele>1.19</ele>
        <time>2020-05-21T10:55:41Z</time>
      </trkpt>
      <trkpt lat="47.19254" lon="-1.58373">
        <ele>1.96</ele>
        <time>2020-05-21T10:55:43Z</time>
      </trkpt>
      <trkpt lat="47.19243" lon="-1.58383">
        <ele>3.1</ele>
        <time>2020-05-21T10:55:45Z</time>
      </trkpt>
      <trkpt lat="47.19234" lon="-1.5839">
        <ele>3.88</ele>
        <time>2020-05-21T10:55:47Z</time>
      </trkpt>
      <trkpt lat="47.1922" lon="-1.58403">
        <ele>4.11</ele>
        <time>2020-05-21T10:55:49Z</time>
      </trkpt>
      <trkpt lat="47.19208" lon="-1.58413">
        <ele>3.18</ele>
        <time>2020-05-21T10:55:51Z</time>
      </trkpt>
      <trkpt lat="47.19199" lon="-1.58422">
        <ele>2.08</ele>
        <time>2020-05-21T10:55:53Z</time>
      </trkpt>
      <trkpt lat="47.19189" lon="-1.58431">
        <ele>1.66</ele>
        <time>2020-05-21T10:55:55Z</time>
      </trkpt>
      <trkpt lat="47.19177" lon="-1.58444">
        <ele>1.21</ele>
        <time>2020-05-21T10:55:57Z</time>
      </trkpt>
      <trkpt lat="47.19168" lon="-1.58454">
        <ele>1.01</ele>
        <time>2020-05-21T10:55:59Z</time>
      </trkpt>
      <trkpt lat="47.19157" lon="-1.58464">
        <ele>0.01</ele>
        <time>2020-05-21T10:56:01Z</time>
      </trkpt>
      <trkpt lat="47.19148" lon="-1.58473">
        <ele>-0.59</ele>
        <time>2020-05-21T10:56:03Z</time>
      </trkpt>
      <trkpt lat="47.19138" lon="-1.58483">
        <ele>-0.77</ele>
        <time>2020-05-21T10:56:05Z</time>
      </trkpt>
      <trkpt lat="47.19127" lon="-1.58493">
        <ele>-0.99</ele>
        <time>2020-05-21T10:56:07Z</time>
      </trkpt>
      <trkpt lat="47.19118" lon="-1.58501">
        <ele>-1.15</ele>
        <time>2020-05-21T10:56:08Z</time>
      </trkpt>
      <trkpt lat="47.19108" lon="-1.58512">
        <ele>-1.44</ele>
        <time>2020-05-21T10:56:10Z</time>
      </trkpt>
      <trkpt lat="47.19097" lon="-1.58522">
        <ele>-1.19</ele>
        <time>2020-05-21T10:56:12Z</time>
      </trkpt>
      <trkpt lat="47.19086" lon="-1.58533">
        <ele>-0.02</ele>
        <time>2020-05-21T10:56:14Z</time>
      </trkpt>
      <trkpt lat="47.19075" lon="-1.58545">
        <ele>1.41</ele>
        <time>2020-05-21T10:56:16Z</time>
      </trkpt>
      <trkpt lat="47.19064" lon="-1.58555">
        <ele>2.26</ele>
        <time>2020-05-21T10:56:18Z</time>
      </trkpt>
      <trkpt lat="47.19053" lon="-1.58567">
        <ele>2.56</ele>
        <time>2020-05-21T10:56:20Z</time>
      </trkpt>
      <trkpt lat="47.19043" lon="-1.58578">
        <ele>2.44</ele>
        <time>2020-05-21T10:56:22Z</time>
      </trkpt>
      <trkpt lat="47.19031" lon="-1.58588">
        <ele>2.94</ele>
        <time>2020-05-21T10:56:24Z</time>
      </trkpt>
      <trkpt lat="47.1902" lon="-1.58599">
        <ele>4.13</ele>
        <time>2020-05-21T10:56:26Z</time>
      </trkpt>
      <trkpt lat="47.1901" lon="-1.58609">
        <ele>5.32</ele>
        <time>2020-05-21T10:56:28Z</time>
      </trkpt>
      <trkpt lat="47.19001" lon="-1.5862">
        <ele>5.43</ele>
        <time>2020-05-21T10:56:30Z</time>
      </trkpt>
      <trkpt lat="47.18991" lon="-1.58629">
        <ele>5.59</ele>
        <time>2020-05-21T10:56:32Z</time>
      </trkpt>
      <trkpt lat="47.18982" lon="-1.58639">
        <ele>4.03</ele>
        <time>2020-05-21T10:56:34Z</time>
      </trkpt>
      <trkpt lat="47.18971" lon="-1.5865">
        <ele>1.78</ele>
        <time>2020-05-21T10:56:36Z</time>
      </trkpt>
      <trkpt lat="47.1896" lon="-1.58662">
        <ele>0.36</ele>
        <time>2020-05-21T10:56:38Z</time>
      </trkpt>
      <trkpt lat="47.18949" lon="-1.58671">
        <ele>-0.18</ele>
        <time>2020-05-21T10:56:40Z</time>
      </trkpt>
      <trkpt lat="47.18937" lon="-1.58681">
        <ele>-0.22</ele>
        <time>2020-05-21T10:56:42Z</time>
      </trkpt>
      <trkpt lat="47.18927" lon="-1.58691">
        <ele>0.46</ele>
        <time>2020-05-21T10:56:44Z</time>
      </trkpt>
      <trkpt lat="47.18915" lon="-1.58702">
        <ele>1.79</ele>
        <time>2020-05-21T10:56:46Z</time>
      </trkpt>
      <trkpt lat="47.18905" lon="-1.58712">
        <ele>2.76</ele>
        <time>2020-05-21T10:56:48Z</time>
      </trkpt>
      <trkpt lat="47.18893" lon="-1.58721">
        <ele>3.61</ele>
        <time>2020-05-21T10:56:50Z</time>
      </trkpt>
      <trkpt lat="47.18881" lon="-1.58728">
        <ele>4.45</ele>
        <time>2020-05-21T10:56:52Z</time>
      </trkpt>
      <trkpt lat="47.18869" lon="-1.58735">
        <ele>3.51</ele>
        <time>2020-05-21T10:56:54Z</time>
      </trkpt>
      <trkpt lat="47.18858" lon="-1.58741">
        <ele>3.3</ele>
        <time>2020-05-21T10:56:56Z</time>
      </trkpt>
      <trkpt lat="47.18847" lon="-1.58746">
        <ele>2.79</ele>
        <time>2020-05-21T10:56:58Z</time>
      </trkpt>
      <trkpt lat="47.18837" lon="-1.58751">
        <ele>2.64</ele>
        <time>2020-05-21T10:57:00Z</time>
      </trkpt>
      <trkpt lat="47.18828" lon="-1.58759">
        <ele>1.82</ele>
        <time>2020-05-21T10:57:02Z</time>
      </trkpt>
      <trkpt lat="47.18823" lon="-1.58777">
        <ele>2.29</ele>
        <time>2020-05-21T10:57:04Z</time>
      </trkpt>
      <trkpt lat="47.18819" lon="-1.58792">
        <ele>2.7</ele>
        <time>2020-05-21T10:57:06Z</time>
      </trkpt>
      <trkpt lat="47.1881" lon="-1.58806">
        <ele>3.02</ele>
        <time>2020-05-21T10:57:08Z</time>
      </trkpt>
      <trkpt lat="47.18802" lon="-1.58817">
        <ele>4.11</ele>
        <time>2020-05-21T10:57:10Z</time>
      </trkpt>
      <trkpt lat="47.18792" lon="-1.58823">
        <ele>4.97</ele>
        <time>2020-05-21T10:57:12Z</time>
      </trkpt>
      <trkpt lat="47.18785" lon="-1.58833">
        <ele>4.18</ele>
        <time>2020-05-21T10:57:14Z</time>
      </trkpt>
      <trkpt lat="47.18779" lon="-1.5885">
        <ele>3.03</ele>
        <time>2020-05-21T10:57:16Z</time>
      </trkpt>
      <trkpt lat="47.18774" lon="-1.58865">
        <ele>3.34</ele>
        <time>2020-05-21T10:57:18Z</time>
      </trkpt>
      <trkpt lat="47.18771" lon="-1.58884">
        <ele>3.19</ele>
        <time>2020-05-21T10:57:20Z</time>
      </trkpt>
      <trkpt lat="47.18768" lon="-1.58902">
        <ele>2.42</ele>
        <time>2020-05-21T10:57:22Z</time>
      </trkpt>
      <trkpt lat="47.18765" lon="-1.58923">
        <ele>3.18</ele>
        <time>2020-05-21T10:57:24Z</time>
      </trkpt>
      <trkpt lat="47.18763" lon="-1.58941">
        <ele>3.69</ele>
        <time>2020-05-21T10:57:26Z</time>
      </trkpt>
      <trkpt lat="47.1876" lon="-1.58962">
        <ele>3.98</ele>
        <time>2020-05-21T10:57:28Z</time>
      </trkpt>
      <trkpt lat="47.18758" lon="-1.5898">
        <ele>5.06</ele>
        <time>2020-05-21T10:57:30Z</time>
      </trkpt>
      <trkpt lat="47.18757" lon="-1.58999">
        <ele>5.61</ele>
        <time>2020-05-21T10:57:32Z</time>
      </trkpt>
      <trkpt lat="47.18755" lon="-1.5902">
        <ele>6.36</ele>
        <time>2020-05-21T10:57:34Z</time>
      </trkpt>
      <trkpt lat="47.18752" lon="-1.59039">
        <ele>7.45</ele>
        <time>2020-05-21T10:57:36Z</time>
      </trkpt>
      <trkpt lat="47.1875" lon="-1.59058">
        <ele>7.64</ele>
        <time>2020-05-21T10:57:38Z</time>
      </trkpt>
      <trkpt lat="47.18748" lon="-1.59076">
        <ele>7.51</ele>
        <time>2020-05-21T10:57:40Z</time>
      </trkpt>
      <trkpt lat="47.18746" lon="-1.59097">
        <ele>6.93</ele>
        <time>2020-05-21T10:57:42Z</time>
      </trkpt>
      <trkpt lat="47.18743" lon="-1.59117">
        <ele>7.34</ele>
        <time>2020-05-21T10:57:44Z</time>
      </trkpt>
      <trkpt lat="47.18741" lon="-1.59138">
        <ele>8.94</ele>
        <time>2020-05-21T10:57:46Z</time>
      </trkpt>
      <trkpt lat="47.18739" lon="-1.59157">
        <ele>9.83</ele>
        <time>2020-05-21T10:57:48Z</time>
      </trkpt>
      <trkpt lat="47.18737" lon="-1.59174">
        <ele>9.32</ele>
        <time>2020-05-21T10:57:50Z</time>
      </trkpt>
      <trkpt lat="47.18735" lon="-1.59193">
        <ele>8.57</ele>
        <time>2020-05-21T10:57:52Z</time>
      </trkpt>
      <trkpt lat="47.18734" lon="-1.59212">
        <ele>7.54</ele>
        <time>2020-05-21T10:57:54Z</time>
      </trkpt>
      <trkpt lat="47.18733" lon="-1.5923">
        <ele>6.85</ele>
        <time>2020-05-21T10:57:56Z</time>
      </trkpt>
      <trkpt lat="47.1873" lon="-1.59253">
        <ele>6.21</ele>
        <time>2020-05-21T10:57:58Z</time>
      </trkpt>
      <trkpt lat="47.18728" lon="-1.59273">
        <ele>5.87</ele>
        <time>2020-05-21T10:58:00Z</time>
      </trkpt>
      <trkpt lat="47.18725" lon="-1.59293">
        <ele>5.38</ele>
        <time>2020-05-21T10:58:02Z</time>
      </trkpt>
      <trkpt lat="47.18723" lon="-1.59312">
        <ele>5.07</ele>
        <time>2020-05-21T10:58:04Z</time>
      </trkpt>
      <trkpt lat="47.18721" lon="-1.59331">
        <ele>4.74</ele>
        <time>2020-05-21T10:58:06Z</time>
      </trkpt>
      <trkpt lat="47.18718" lon="-1.59353">
        <ele>4.63</ele>
        <time>2020-05-21T10:58:08Z</time>
      </trkpt>
      <trkpt lat="47.18716" lon="-1.59371">
        <ele>5.21</ele>
        <time>2020-05-21T10:58:10Z</time>
      </trkpt>
      <trkpt lat="47.18715" lon="-1.59389">
        <ele>5.57</ele>
        <time>2020-05-21T10:58:12Z</time>
      </trkpt>
      <trkpt lat="47.18713" lon="-1.59407">
        <ele>5.32</ele>
        <time>2020-05-21T10:58:14Z</time>
      </trkpt>
      <trkpt lat="47.1871" lon="-1.59427">
        <ele>5.31</ele>
        <time>2020-05-21T10:58:16Z</time>
      </trkpt>
      <trkpt lat="47.18708" lon="-1.59445">
        <ele>5.04</ele>
        <time>2020-05-21T10:58:18Z</time>
      </trkpt>
      <trkpt lat="47.18706" lon="-1.59466">
        <ele>5.4</ele>
        <time>2020-05-21T10:58:20Z</time>
      </trkpt>
      <trkpt lat="47.18705" lon="-1.59485">
        <ele>5.31</ele>
        <time>2020-05-21T10:58:22Z</time>
      </trkpt>
      <trkpt lat="47.18702" lon="-1.59506">
        <ele>5.23</ele>
        <time>2020-05-21T10:58:24Z</time>
      </trkpt>
      <trkpt lat="47.18699" lon="-1.59525">
        <ele>5.77</ele>
        <time>2020-05-21T10:58:26Z</time>
      </trkpt>
      <trkpt lat="47.18697" lon="-1.59545">
        <ele>5.64</ele>
        <time>2020-05-21T10:58:28Z</time>
      </trkpt>
      <trkpt lat="47.18695" lon="-1.59563">
        <ele>6.16</ele>
        <time>2020-05-21T10:58:30Z</time>
      </trkpt>
      <trkpt lat="47.18693" lon="-1.59584">
        <ele>6.29</ele>
        <time>2020-05-21T10:58:32Z</time>
      </trkpt>
      <trkpt lat="47.18691" lon="-1.59603">
        <ele>6.16</ele>
        <time>2020-05-21T10:58:34Z</time>
      </trkpt>
      <trkpt lat="47.18688" lon="-1.59624">
        <ele>6.23</ele>
        <time>2020-05-21T10:58:36Z</time>
      </trkpt>
      <trkpt lat="47.18685" lon="-1.59644">
        <ele>7.28</ele>
        <time>2020-05-21T10:58:38Z</time>
      </trkpt>
      <trkpt lat="47.18683" lon="-1.59664">
        <ele>7.9</ele>
        <time>2020-05-21T10:58:40Z</time>
      </trkpt>
      <trkpt lat="47.18681" lon="-1.59681">
        <ele>8.34</ele>
        <time>2020-05-21T10:58:42Z</time>
      </trkpt>
      <trkpt lat="47.18679" lon="-1.59699">
        <ele>7.97</ele>
        <time>2020-05-21T10:58:44Z</time>
      </trkpt>
      <trkpt lat="47.18676" lon="-1.5972">
        <ele>8.34</ele>
        <time>2020-05-21T10:58:46Z</time>
      </trkpt>
      <trkpt lat="47.18675" lon="-1.5974">
        <ele>6.91</ele>
        <time>2020-05-21T10:58:48Z</time>
      </trkpt>
      <trkpt lat="47.18674" lon="-1.59757">
        <ele>5.87</ele>
        <time>2020-05-21T10:58:50Z</time>
      </trkpt>
      <trkpt lat="47.18675" lon="-1.59776">
        <ele>5.86</ele>
        <time>2020-05-21T10:58:52Z</time>
      </trkpt>
      <trkpt lat="47.18675" lon="-1.59796">
        <ele>5.39</ele>
        <time>2020-05-21T10:58:54Z</time>
      </trkpt>
      <trkpt lat="47.18675" lon="-1.59813">
        <ele>4.38</ele>
        <time>2020-05-21T10:58:56Z</time>
      </trkpt>
      <trkpt lat="47.18672" lon="-1.59832">
        <ele>3.77</ele>
        <time>2020-05-21T10:58:58Z</time>
      </trkpt>
      <trkpt lat="47.18662" lon="-1.59846">
        <ele>3.8</ele>
        <time>2020-05-21T10:59:00Z</time>
      </trkpt>
      <trkpt lat="47.18649" lon="-1.59854">
        <ele>4.92</ele>
        <time>2020-05-21T10:59:02Z</time>
      </trkpt>
      <trkpt lat="47.18637" lon="-1.5985">
        <ele>4.04</ele>
        <time>2020-05-21T10:59:04Z</time>
      </trkpt>
      <trkpt lat="47.18626" lon="-1.5984">
        <ele>3.08</ele>
        <time>2020-05-21T10:59:06Z</time>
      </trkpt>
      <trkpt lat="47.18615" lon="-1.59839">
        <ele>2.36</ele>
        <time>2020-05-21T10:59:08Z</time>
      </trkpt>
      <trkpt lat="47.18615" lon="-1.59855">
        <ele>3.31</ele>
        <time>2020-05-21T10:59:11Z</time>
      </trkpt>
      <trkpt lat="47.18617" lon="-1.59871">
        <ele>3.94</ele>
        <time>2020-05-21T10:59:13Z</time>
      </trkpt>
      <trkpt lat="47.18612" lon="-1.59893">
        <ele>4.58</ele>
        <time>2020-05-21T10:59:15Z</time>
      </trkpt>
      <trkpt lat="47.18609" lon="-1.59913">
        <ele>4.98</ele>
        <time>2020-05-21T10:59:17Z</time>
      </trkpt>
      <trkpt lat="47.18604" lon="-1.59931">
        <ele>4.87</ele>
        <time>2020-05-21T10:59:19Z</time>
      </trkpt>
      <trkpt lat="47.18599" lon="-1.59949">
        <ele>4.3</ele>
        <time>2020-05-21T10:59:21Z</time>
      </trkpt>
      <trkpt lat="47.18594" lon="-1.59966">
        <ele>3.75</ele>
        <time>2020-05-21T10:59:23Z</time>
      </trkpt>
      <trkpt lat="47.18588" lon="-1.59985">
        <ele>3.27</ele>
        <time>2020-05-21T10:59:25Z</time>
      </trkpt>
      <trkpt lat="47.18583" lon="-1.60005">
        <ele>2.84</ele>
        <time>2020-05-21T10:59:27Z</time>
      </trkpt>
      <trkpt lat="47.18577" lon="-1.60023">
        <ele>3.1</ele>
        <time>2020-05-21T10:59:29Z</time>
      </trkpt>
      <trkpt lat="47.1857" lon="-1.60042">
        <ele>3.93</ele>
        <time>2020-05-21T10:59:31Z</time>
      </trkpt>
      <trkpt lat="47.18564" lon="-1.60058">
        <ele>4.38</ele>
        <time>2020-05-21T10:59:33Z</time>
      </trkpt>
      <trkpt lat="47.18558" lon="-1.60077">
        <ele>4.97</ele>
        <time>2020-05-21T10:59:35Z</time>
      </trkpt>
      <trkpt lat="47.18552" lon="-1.60094">
        <ele>6.2</ele>
        <time>2020-05-21T10:59:37Z</time>
      </trkpt>
      <trkpt lat="47.18545" lon="-1.6011">
        <ele>6.68</ele>
        <time>2020-05-21T10:59:39Z</time>
      </trkpt>
      <trkpt lat="47.18537" lon="-1.60129">
        <ele>6.91</ele>
        <time>2020-05-21T10:59:41Z</time>
      </trkpt>
      <trkpt lat="47.1853" lon="-1.60143">
        <ele>6.83</ele>
        <time>2020-05-21T10:59:43Z</time>
      </trkpt>
      <trkpt lat="47.18522" lon="-1.60158">
        <ele>6.78</ele>
        <time>2020-05-21T10:59:45Z</time>
      </trkpt>
      <trkpt lat="47.18513" lon="-1.60174">
        <ele>7.15</ele>
        <time>2020-05-21T10:59:47Z</time>
      </trkpt>
      <trkpt lat="47.18504" lon="-1.60192">
        <ele>7.63</ele>
        <time>2020-05-21T10:59:49Z</time>
      </trkpt>
      <trkpt lat="47.18496" lon="-1.60207">
        <ele>7.31</ele>
        <time>2020-05-21T10:59:51Z</time>
      </trkpt>
      <trkpt lat="47.18487" lon="-1.60223">
        <ele>6.96</ele>
        <time>2020-05-21T10:59:53Z</time>
      </trkpt>
      <trkpt lat="47.1848" lon="-1.60238">
        <ele>6.22</ele>
        <time>2020-05-21T10:59:55Z</time>
      </trkpt>
      <trkpt lat="47.18472" lon="-1.60253">
        <ele>5.09</ele>
        <time>2020-05-21T10:59:57Z</time>
      </trkpt>
      <trkpt lat="47.18464" lon="-1.60269">
        <ele>3.93</ele>
        <time>2020-05-21T10:59:59Z</time>
      </trkpt>
      <trkpt lat="47.18456" lon="-1.60283">
        <ele>2.65</ele>
        <time>2020-05-21T11:00:01Z</time>
      </trkpt>
      <trkpt lat="47.18448" lon="-1.60298">
        <ele>1.62</ele>
        <time>2020-05-21T11:00:03Z</time>
      </trkpt>
      <trkpt lat="47.18441" lon="-1.60312">
        <ele>1.59</ele>
        <time>2020-05-21T11:00:05Z</time>
      </trkpt>
      <trkpt lat="47.18432" lon="-1.60327">
        <ele>1.79</ele>
        <time>2020-05-21T11:00:07Z</time>
      </trkpt>
      <trkpt lat="47.18423" lon="-1.6034">
        <ele>1.96</ele>
        <time>2020-05-21T11:00:09Z</time>
      </trkpt>
      <trkpt lat="47.18414" lon="-1.60355">
        <ele>1.94</ele>
        <time>2020-05-21T11:00:11Z</time>
      </trkpt>
      <trkpt lat="47.18404" lon="-1.60369">
        <ele>2.04</ele>
        <time>2020-05-21T11:00:13Z</time>
      </trkpt>
      <trkpt lat="47.18395" lon="-1.60382">
        <ele>2.08</ele>
        <time>2020-05-21T11:00:15Z</time>
      </trkpt>
      <trkpt lat="47.18386" lon="-1.60393">
        <ele>2.27</ele>
        <time>2020-05-21T11:00:17Z</time>
      </trkpt>
      <trkpt lat="47.18377" lon="-1.60405">
        <ele>2.78</ele>
        <time>2020-05-21T11:00:19Z</time>
      </trkpt>
      <trkpt lat="47.18366" lon="-1.60417">
        <ele>3.55</ele>
        <time>2020-05-21T11:00:21Z</time>
      </trkpt>
      <trkpt lat="47.18355" lon="-1.60431">
        <ele>4.32</ele>
        <time>2020-05-21T11:00:23Z</time>
      </trkpt>
      <trkpt lat="47.18344" lon="-1.60444">
        <ele>5.83</ele>
        <time>2020-05-21T11:00:25Z</time>
      </trkpt>
      <trkpt lat="47.18335" lon="-1.60455">
        <ele>5.64</ele>
        <time>2020-05-21T11:00:27Z</time>
      </trkpt>
      <trkpt lat="47.18324" lon="-1.60468">
        <ele>4.38</ele>
        <time>2020-05-21T11:00:29Z</time>
      </trkpt>
      <trkpt lat="47.18315" lon="-1.60479">
        <ele>3.68</ele>
        <time>2020-05-21T11:00:31Z</time>
      </trkpt>
      <trkpt lat="47.18305" lon="-1.60491">
        <ele>3.93</ele>
        <time>2020-05-21T11:00:33Z</time>
      </trkpt>
      <trkpt lat="47.18295" lon="-1.60502">
        <ele>3.99</ele>
        <time>2020-05-21T11:00:35Z</time>
      </trkpt>
      <trkpt lat="47.18283" lon="-1.60516">
        <ele>4.17</ele>
        <time>2020-05-21T11:00:37Z</time>
      </trkpt>
      <trkpt lat="47.18273" lon="-1.60526">
        <ele>4</ele>
        <time>2020-05-21T11:00:39Z</time>
      </trkpt>
      <trkpt lat="47.18263" lon="-1.60537">
        <ele>3.34</ele>
        <time>2020-05-21T11:00:41Z</time>
      </trkpt>
      <trkpt lat="47.18252" lon="-1.60547">
        <ele>2.37</ele>
        <time>2020-05-21T11:00:43Z</time>
      </trkpt>
      <trkpt lat="47.18242" lon="-1.60555">
        <ele>1.69</ele>
        <time>2020-05-21T11:00:45Z</time>
      </trkpt>
      <trkpt lat="47.18231" lon="-1.60563">
        <ele>1.72</ele>
        <time>2020-05-21T11:00:47Z</time>
      </trkpt>
      <trkpt lat="47.18217" lon="-1.60571">
        <ele>1.89</ele>
        <time>2020-05-21T11:00:49Z</time>
      </trkpt>
      <trkpt lat="47.18205" lon="-1.60577">
        <ele>1.62</ele>
        <time>2020-05-21T11:00:51Z</time>
      </trkpt>
      <trkpt lat="47.18195" lon="-1.60583">
        <ele>1.74</ele>
        <time>2020-05-21T11:00:53Z</time>
      </trkpt>
      <trkpt lat="47.18186" lon="-1.60588">
        <ele>2.56</ele>
        <time>2020-05-21T11:00:55Z</time>
      </trkpt>
      <trkpt lat="47.18179" lon="-1.60605">
        <ele>4.12</ele>
        <time>2020-05-21T11:00:58Z</time>
      </trkpt>
      <trkpt lat="47.18168" lon="-1.60607">
        <ele>4.49</ele>
        <time>2020-05-21T11:01:00Z</time>
      </trkpt>
      <trkpt lat="47.18153" lon="-1.60611">
        <ele>4.99</ele>
        <time>2020-05-21T11:01:02Z</time>
      </trkpt>
      <trkpt lat="47.18139" lon="-1.60612">
        <ele>5.68</ele>
        <time>2020-05-21T11:01:04Z</time>
      </trkpt>
      <trkpt lat="47.18129" lon="-1.60611">
        <ele>5.77</ele>
        <time>2020-05-21T11:01:06Z</time>
      </trkpt>
      <trkpt lat="47.18117" lon="-1.60607">
        <ele>5.05</ele>
        <time>2020-05-21T11:01:08Z</time>
      </trkpt>
      <trkpt lat="47.18104" lon="-1.60603">
        <ele>4.95</ele>
        <time>2020-05-21T11:01:10Z</time>
      </trkpt>
      <trkpt lat="47.18091" lon="-1.60598">
        <ele>4.61</ele>
        <time>2020-05-21T11:01:12Z</time>
      </trkpt>
      <trkpt lat="47.18077" lon="-1.60591">
        <ele>4.38</ele>
        <time>2020-05-21T11:01:14Z</time>
      </trkpt>
      <trkpt lat="47.18063" lon="-1.60585">
        <ele>4.21</ele>
        <time>2020-05-21T11:01:16Z</time>
      </trkpt>
      <trkpt lat="47.18053" lon="-1.60578">
        <ele>3.82</ele>
        <time>2020-05-21T11:01:18Z</time>
      </trkpt>
      <trkpt lat="47.18043" lon="-1.60572">
        <ele>3.25</ele>
        <time>2020-05-21T11:01:20Z</time>
      </trkpt>
      <trkpt lat="47.18031" lon="-1.60565">
        <ele>1.94</ele>
        <time>2020-05-21T11:01:22Z</time>
      </trkpt>
      <trkpt lat="47.18019" lon="-1.6056">
        <ele>1.77</ele>
        <time>2020-05-21T11:01:24Z</time>
      </trkpt>
      <trkpt lat="47.18007" lon="-1.6056">
        <ele>2.82</ele>
        <time>2020-05-21T11:01:26Z</time>
      </trkpt>
      <trkpt lat="47.17991" lon="-1.60563">
        <ele>3.19</ele>
        <time>2020-05-21T11:01:28Z</time>
      </trkpt>
      <trkpt lat="47.17981" lon="-1.60566">
        <ele>3.57</ele>
        <time>2020-05-21T11:01:30Z</time>
      </trkpt>
      <trkpt lat="47.17969" lon="-1.60571">
        <ele>3.86</ele>
        <time>2020-05-21T11:01:32Z</time>
      </trkpt>
      <trkpt lat="47.1796" lon="-1.60575">
        <ele>3.46</ele>
        <time>2020-05-21T11:01:34Z</time>
      </trkpt>
      <trkpt lat="47.1795" lon="-1.6058">
        <ele>3.2</ele>
        <time>2020-05-21T11:01:36Z</time>
      </trkpt>
      <trkpt lat="47.17941" lon="-1.60585">
        <ele>3.71</ele>
        <time>2020-05-21T11:01:38Z</time>
      </trkpt>
      <trkpt lat="47.17929" lon="-1.60592">
        <ele>4.42</ele>
        <time>2020-05-21T11:01:40Z</time>
      </trkpt>
      <trkpt lat="47.1792" lon="-1.60594">
        <ele>5.17</ele>
        <time>2020-05-21T11:01:42Z</time>
      </trkpt>
      <trkpt lat="47.17907" lon="-1.60599">
        <ele>3.46</ele>
        <time>2020-05-21T11:01:45Z</time>
      </trkpt>
      <trkpt lat="47.179" lon="-1.60615">
        <ele>3.09</ele>
        <time>2020-05-21T11:01:47Z</time>
      </trkpt>
      <trkpt lat="47.17895" lon="-1.60634">
        <ele>3.75</ele>
        <time>2020-05-21T11:01:49Z</time>
      </trkpt>
      <trkpt lat="47.17889" lon="-1.60652">
        <ele>4.03</ele>
        <time>2020-05-21T11:01:51Z</time>
      </trkpt>
      <trkpt lat="47.17884" lon="-1.60668">
        <ele>3.25</ele>
        <time>2020-05-21T11:01:53Z</time>
      </trkpt>
      <trkpt lat="47.17878" lon="-1.60686">
        <ele>2.31</ele>
        <time>2020-05-21T11:01:55Z</time>
      </trkpt>
      <trkpt lat="47.17873" lon="-1.60702">
        <ele>1.73</ele>
        <time>2020-05-21T11:01:57Z</time>
      </trkpt>
      <trkpt lat="47.17869" lon="-1.60716">
        <ele>1.48</ele>
        <time>2020-05-21T11:01:59Z</time>
      </trkpt>
      <trkpt lat="47.17864" lon="-1.60734">
        <ele>0.97</ele>
        <time>2020-05-21T11:02:01Z</time>
      </trkpt>
      <trkpt lat="47.1786" lon="-1.6075">
        <ele>1.7</ele>
        <time>2020-05-21T11:02:03Z</time>
      </trkpt>
      <trkpt lat="47.17856" lon="-1.60767">
        <ele>2.69</ele>
        <time>2020-05-21T11:02:05Z</time>
      </trkpt>
      <trkpt lat="47.17852" lon="-1.60785">
        <ele>2.63</ele>
        <time>2020-05-21T11:02:07Z</time>
      </trkpt>
      <trkpt lat="47.17848" lon="-1.60803">
        <ele>2.18</ele>
        <time>2020-05-21T11:02:09Z</time>
      </trkpt>
      <trkpt lat="47.17844" lon="-1.6082">
        <ele>2.47</ele>
        <time>2020-05-21T11:02:11Z</time>
      </trkpt>
      <trkpt lat="47.1784" lon="-1.60838">
        <ele>3.39</ele>
        <time>2020-05-21T11:02:13Z</time>
      </trkpt>
      <trkpt lat="47.17834" lon="-1.60856">
        <ele>3.72</ele>
        <time>2020-05-21T11:02:15Z</time>
      </trkpt>
      <trkpt lat="47.17826" lon="-1.6087">
        <ele>3.55</ele>
        <time>2020-05-21T11:02:17Z</time>
      </trkpt>
      <trkpt lat="47.17818" lon="-1.60883">
        <ele>2.8</ele>
        <time>2020-05-21T11:02:19Z</time>
      </trkpt>
      <trkpt lat="47.17811" lon="-1.60895">
        <ele>2.48</ele>
        <time>2020-05-21T11:02:21Z</time>
      </trkpt>
      <trkpt lat="47.178" lon="-1.60907">
        <ele>2.88</ele>
        <time>2020-05-21T11:02:23Z</time>
      </trkpt>
      <trkpt lat="47.17788" lon="-1.60917">
        <ele>3.66</ele>
        <time>2020-05-21T11:02:25Z</time>
      </trkpt>
      <trkpt lat="47.17777" lon="-1.60926">
        <ele>4.55</ele>
        <time>2020-05-21T11:02:27Z</time>
      </trkpt>
      <trkpt lat="47.17768" lon="-1.6093">
        <ele>5.31</ele>
        <time>2020-05-21T11:02:29Z</time>
      </trkpt>
      <trkpt lat="47.17758" lon="-1.60938">
        <ele>5.02</ele>
        <time>2020-05-21T11:02:31Z</time>
      </trkpt>
      <trkpt lat="47.17748" lon="-1.60945">
        <ele>4.26</ele>
        <time>2020-05-21T11:02:33Z</time>
      </trkpt>
      <trkpt lat="47.17737" lon="-1.60953">
        <ele>2.97</ele>
        <time>2020-05-21T11:02:35Z</time>
      </trkpt>
      <trkpt lat="47.17726" lon="-1.60961">
        <ele>3.03</ele>
        <time>2020-05-21T11:02:37Z</time>
      </trkpt>
      <trkpt lat="47.17715" lon="-1.60969">
        <ele>3.41</ele>
        <time>2020-05-21T11:02:39Z</time>
      </trkpt>
      <trkpt lat="47.17706" lon="-1.60975">
        <ele>3.88</ele>
        <time>2020-05-21T11:02:41Z</time>
      </trkpt>
      <trkpt lat="47.17694" lon="-1.60983">
        <ele>3.07</ele>
        <time>2020-05-21T11:02:43Z</time>
      </trkpt>
      <trkpt lat="47.17683" lon="-1.60987">
        <ele>3.24</ele>
        <time>2020-05-21T11:02:45Z</time>
      </trkpt>
      <trkpt lat="47.17669" lon="-1.60984">
        <ele>3.29</ele>
        <time>2020-05-21T11:02:47Z</time>
      </trkpt>
      <trkpt lat="47.17655" lon="-1.60986">
        <ele>1.92</ele>
        <time>2020-05-21T11:02:49Z</time>
      </trkpt>
      <trkpt lat="47.17642" lon="-1.60992">
        <ele>1.18</ele>
        <time>2020-05-21T11:02:51Z</time>
      </trkpt>
      <trkpt lat="47.17632" lon="-1.60999">
        <ele>1.16</ele>
        <time>2020-05-21T11:02:53Z</time>
      </trkpt>
      <trkpt lat="47.17622" lon="-1.61006">
        <ele>1.94</ele>
        <time>2020-05-21T11:02:55Z</time>
      </trkpt>
      <trkpt lat="47.1761" lon="-1.61014">
        <ele>2.73</ele>
        <time>2020-05-21T11:02:57Z</time>
      </trkpt>
      <trkpt lat="47.17599" lon="-1.61024">
        <ele>3.63</ele>
        <time>2020-05-21T11:02:59Z</time>
      </trkpt>
      <trkpt lat="47.17588" lon="-1.61034">
        <ele>3.9</ele>
        <time>2020-05-21T11:03:01Z</time>
      </trkpt>
      <trkpt lat="47.17575" lon="-1.61044">
        <ele>4.28</ele>
        <time>2020-05-21T11:03:03Z</time>
      </trkpt>
      <trkpt lat="47.17565" lon="-1.61052">
        <ele>4.85</ele>
        <time>2020-05-21T11:03:05Z</time>
      </trkpt>
      <trkpt lat="47.17554" lon="-1.61062">
        <ele>6.29</ele>
        <time>2020-05-21T11:03:07Z</time>
      </trkpt>
      <trkpt lat="47.17544" lon="-1.61072">
        <ele>6.99</ele>
        <time>2020-05-21T11:03:09Z</time>
      </trkpt>
      <trkpt lat="47.17533" lon="-1.61082">
        <ele>8.04</ele>
        <time>2020-05-21T11:03:11Z</time>
      </trkpt>
      <trkpt lat="47.17522" lon="-1.61092">
        <ele>8.27</ele>
        <time>2020-05-21T11:03:13Z</time>
      </trkpt>
      <trkpt lat="47.17513" lon="-1.61101">
        <ele>7.95</ele>
        <time>2020-05-21T11:03:15Z</time>
      </trkpt>
      <trkpt lat="47.17504" lon="-1.61108">
        <ele>7.26</ele>
        <time>2020-05-21T11:03:17Z</time>
      </trkpt>
      <trkpt lat="47.17491" lon="-1.61113">
        <ele>7.28</ele>
        <time>2020-05-21T11:03:19Z</time>
      </trkpt>
      <trkpt lat="47.17482" lon="-1.61114">
        <ele>6.62</ele>
        <time>2020-05-21T11:03:21Z</time>
      </trkpt>
      <trkpt lat="47.17469" lon="-1.61112">
        <ele>5.08</ele>
        <time>2020-05-21T11:03:23Z</time>
      </trkpt>
      <trkpt lat="47.17459" lon="-1.61105">
        <ele>4.1</ele>
        <time>2020-05-21T11:03:25Z</time>
      </trkpt>
      <trkpt lat="47.17448" lon="-1.61095">
        <ele>4.02</ele>
        <time>2020-05-21T11:03:27Z</time>
      </trkpt>
      <trkpt lat="47.17438" lon="-1.61084">
        <ele>3.39</ele>
        <time>2020-05-21T11:03:29Z</time>
      </trkpt>
      <trkpt lat="47.17433" lon="-1.61072">
        <ele>3.61</ele>
        <time>2020-05-21T11:03:31Z</time>
      </trkpt>
      <trkpt lat="47.17428" lon="-1.61058">
        <ele>4.62</ele>
        <time>2020-05-21T11:03:33Z</time>
      </trkpt>
      <trkpt lat="47.17424" lon="-1.61042">
        <ele>5.9</ele>
        <time>2020-05-21T11:03:35Z</time>
      </trkpt>
      <trkpt lat="47.1742" lon="-1.6103">
        <ele>7.4</ele>
        <time>2020-05-21T11:03:37Z</time>
      </trkpt>
      <trkpt lat="47.17411" lon="-1.61025">
        <ele>7.93</ele>
        <time>2020-05-21T11:03:40Z</time>
      </trkpt>
      <trkpt lat="47.17412" lon="-1.6104">
        <ele>9.05</ele>
        <time>2020-05-21T11:03:42Z</time>
      </trkpt>
      <trkpt lat="47.17417" lon="-1.61057">
        <ele>9.08</ele>
        <time>2020-05-21T11:03:44Z</time>
      </trkpt>
      <trkpt lat="47.17424" lon="-1.61073">
        <ele>9.43</ele>
        <time>2020-05-21T11:03:47Z</time>
      </trkpt>
      <trkpt lat="47.17432" lon="-1.61092">
        <ele>10.16</ele>
        <time>2020-05-21T11:03:49Z</time>
      </trkpt>
      <trkpt lat="47.17439" lon="-1.61108">
        <ele>9.01</ele>
        <time>2020-05-21T11:03:51Z</time>
      </trkpt>
      <trkpt lat="47.17445" lon="-1.61122">
        <ele>8.05</ele>
        <time>2020-05-21T11:03:53Z</time>
      </trkpt>
      <trkpt lat="47.17452" lon="-1.6114">
        <ele>8.41</ele>
        <time>2020-05-21T11:03:56Z</time>
      </trkpt>
      <trkpt lat="47.17457" lon="-1.61152">
        <ele>9.72</ele>
        <time>2020-05-21T11:03:58Z</time>
      </trkpt>
      <trkpt lat="47.17463" lon="-1.61168">
        <ele>10.92</ele>
        <time>2020-05-21T11:04:00Z</time>
      </trkpt>
      <trkpt lat="47.17469" lon="-1.61182">
        <ele>10.78</ele>
        <time>2020-05-21T11:04:02Z</time>
      </trkpt>
      <trkpt lat="47.17474" lon="-1.61197">
        <ele>10.14</ele>
        <time>2020-05-21T11:04:04Z</time>
      </trkpt>
      <trkpt lat="47.17481" lon="-1.61212">
        <ele>9.29</ele>
        <time>2020-05-21T11:04:06Z</time>
      </trkpt>
      <trkpt lat="47.17487" lon="-1.61226">
        <ele>9.61</ele>
        <time>2020-05-21T11:04:08Z</time>
      </trkpt>
      <trkpt lat="47.17494" lon="-1.61242">
        <ele>10.36</ele>
        <time>2020-05-21T11:04:10Z</time>
      </trkpt>
      <trkpt lat="47.17499" lon="-1.61255">
        <ele>11.11</ele>
        <time>2020-05-21T11:04:12Z</time>
      </trkpt>
      <trkpt lat="47.17506" lon="-1.61269">
        <ele>11.72</ele>
        <time>2020-05-21T11:04:14Z</time>
      </trkpt>
      <trkpt lat="47.17512" lon="-1.61281">
        <ele>12.08</ele>
        <time>2020-05-21T11:04:16Z</time>
      </trkpt>
      <trkpt lat="47.17521" lon="-1.61291">
        <ele>12.72</ele>
        <time>2020-05-21T11:04:18Z</time>
      </trkpt>
      <trkpt lat="47.17532" lon="-1.61299">
        <ele>13.05</ele>
        <time>2020-05-21T11:04:20Z</time>
      </trkpt>
      <trkpt lat="47.17542" lon="-1.61306">
        <ele>12.71</ele>
        <time>2020-05-21T11:04:22Z</time>
      </trkpt>
      <trkpt lat="47.1755" lon="-1.61314">
        <ele>13.04</ele>
        <time>2020-05-21T11:04:24Z</time>
      </trkpt>
      <trkpt lat="47.17554" lon="-1.61332">
        <ele>12.28</ele>
        <time>2020-05-21T11:04:26Z</time>
      </trkpt>
      <trkpt lat="47.1755" lon="-1.6135">
        <ele>11.91</ele>
        <time>2020-05-21T11:04:28Z</time>
      </trkpt>
      <trkpt lat="47.17542" lon="-1.61361">
        <ele>12.5</ele>
        <time>2020-05-21T11:04:30Z</time>
      </trkpt>
      <trkpt lat="47.17532" lon="-1.61369">
        <ele>13.18</ele>
        <time>2020-05-21T11:04:32Z</time>
      </trkpt>
      <trkpt lat="47.17524" lon="-1.61382">
        <ele>13.69</ele>
        <time>2020-05-21T11:04:34Z</time>
      </trkpt>
      <trkpt lat="47.17519" lon="-1.61397">
        <ele>13.28</ele>
        <time>2020-05-21T11:04:36Z</time>
      </trkpt>
      <trkpt lat="47.17514" lon="-1.61414">
        <ele>13.17</ele>
        <time>2020-05-21T11:04:38Z</time>
      </trkpt>
      <trkpt lat="47.17511" lon="-1.61427">
        <ele>12.98</ele>
        <time>2020-05-21T11:04:40Z</time>
      </trkpt>
      <trkpt lat="47.17508" lon="-1.61441">
        <ele>13.56</ele>
        <time>2020-05-21T11:04:42Z</time>
      </trkpt>
      <trkpt lat="47.17506" lon="-1.61456">
        <ele>14.46</ele>
        <time>2020-05-21T11:04:44Z</time>
      </trkpt>
      <trkpt lat="47.175" lon="-1.61468">
        <ele>15.37</ele>
        <time>2020-05-21T11:04:47Z</time>
      </trkpt>
      <trkpt lat="47.17488" lon="-1.61477">
        <ele>15.3</ele>
        <time>2020-05-21T11:04:49Z</time>
      </trkpt>
      <trkpt lat="47.17477" lon="-1.61481">
        <ele>15.11</ele>
        <time>2020-05-21T11:04:51Z</time>
      </trkpt>
      <trkpt lat="47.17466" lon="-1.61485">
        <ele>15.19</ele>
        <time>2020-05-21T11:04:54Z</time>
      </trkpt>
      <trkpt lat="47.17456" lon="-1.61489">
        <ele>16.76</ele>
        <time>2020-05-21T11:04:56Z</time>
      </trkpt>
      <trkpt lat="47.17446" lon="-1.61494">
        <ele>17.94</ele>
        <time>2020-05-21T11:04:58Z</time>
      </trkpt>
      <trkpt lat="47.17437" lon="-1.61498">
        <ele>18.58</ele>
        <time>2020-05-21T11:05:00Z</time>
      </trkpt>
      <trkpt lat="47.17427" lon="-1.61503">
        <ele>19.49</ele>
        <time>2020-05-21T11:05:02Z</time>
      </trkpt>
      <trkpt lat="47.17418" lon="-1.61507">
        <ele>20.31</ele>
        <time>2020-05-21T11:05:04Z</time>
      </trkpt>
      <trkpt lat="47.17406" lon="-1.61516">
        <ele>22.55</ele>
        <time>2020-05-21T11:05:07Z</time>
      </trkpt>
      <trkpt lat="47.17396" lon="-1.61522">
        <ele>23.83</ele>
        <time>2020-05-21T11:05:09Z</time>
      </trkpt>
      <trkpt lat="47.17387" lon="-1.61528">
        <ele>25.29</ele>
        <time>2020-05-21T11:05:11Z</time>
      </trkpt>
      <trkpt lat="47.17378" lon="-1.61535">
        <ele>27.61</ele>
        <time>2020-05-21T11:05:13Z</time>
      </trkpt>
      <trkpt lat="47.17371" lon="-1.61543">
        <ele>29.23</ele>
        <time>2020-05-21T11:05:15Z</time>
      </trkpt>
      <trkpt lat="47.17359" lon="-1.61554">
        <ele>28.36</ele>
        <time>2020-05-21T11:05:18Z</time>
      </trkpt>
      <trkpt lat="47.17352" lon="-1.61562">
        <ele>27.2</ele>
        <time>2020-05-21T11:05:20Z</time>
      </trkpt>
      <trkpt lat="47.17343" lon="-1.61572">
        <ele>26.62</ele>
        <time>2020-05-21T11:05:22Z</time>
      </trkpt>
      <trkpt lat="47.17335" lon="-1.61581">
        <ele>25.76</ele>
        <time>2020-05-21T11:05:24Z</time>
      </trkpt>
      <trkpt lat="47.17325" lon="-1.61594">
        <ele>25.01</ele>
        <time>2020-05-21T11:05:27Z</time>
      </trkpt>
      <trkpt lat="47.17316" lon="-1.61606">
        <ele>23.36</ele>
        <time>2020-05-21T11:05:29Z</time>
      </trkpt>
      <trkpt lat="47.1731" lon="-1.61616">
        <ele>22.04</ele>
        <time>2020-05-21T11:05:31Z</time>
      </trkpt>
      <trkpt lat="47.17303" lon="-1.61627">
        <ele>20.56</ele>
        <time>2020-05-21T11:05:33Z</time>
      </trkpt>
      <trkpt lat="47.17295" lon="-1.61639">
        <ele>19.78</ele>
        <time>2020-05-21T11:05:35Z</time>
      </trkpt>
      <trkpt lat="47.17286" lon="-1.61653">
        <ele>18.36</ele>
        <time>2020-05-21T11:05:37Z</time>
      </trkpt>
      <trkpt lat="47.17281" lon="-1.61663">
        <ele>18.96</ele>
        <time>2020-05-21T11:05:39Z</time>
      </trkpt>
      <trkpt lat="47.17274" lon="-1.61678">
        <ele>20.49</ele>
        <time>2020-05-21T11:05:41Z</time>
      </trkpt>
      <trkpt lat="47.17267" lon="-1.61693">
        <ele>20.59</ele>
        <time>2020-05-21T11:05:43Z</time>
      </trkpt>
      <trkpt lat="47.17261" lon="-1.61704">
        <ele>20</ele>
        <time>2020-05-21T11:05:45Z</time>
      </trkpt>
      <trkpt lat="47.17255" lon="-1.61716">
        <ele>18.98</ele>
        <time>2020-05-21T11:05:47Z</time>
      </trkpt>
      <trkpt lat="47.17248" lon="-1.6173">
        <ele>18.62</ele>
        <time>2020-05-21T11:05:49Z</time>
      </trkpt>
      <trkpt lat="47.17243" lon="-1.61742">
        <ele>18.58</ele>
        <time>2020-05-21T11:05:51Z</time>
      </trkpt>
      <trkpt lat="47.17238" lon="-1.61759">
        <ele>19.16</ele>
        <time>2020-05-21T11:05:53Z</time>
      </trkpt>
      <trkpt lat="47.17236" lon="-1.61776">
        <ele>19.54</ele>
        <time>2020-05-21T11:05:55Z</time>
      </trkpt>
      <trkpt lat="47.17229" lon="-1.6179">
        <ele>19.28</ele>
        <time>2020-05-21T11:05:57Z</time>
      </trkpt>
      <trkpt lat="47.17218" lon="-1.61799">
        <ele>19.79</ele>
        <time>2020-05-21T11:05:59Z</time>
      </trkpt>
      <trkpt lat="47.17208" lon="-1.61809">
        <ele>20.21</ele>
        <time>2020-05-21T11:06:01Z</time>
      </trkpt>
      <trkpt lat="47.17198" lon="-1.61819">
        <ele>19.99</ele>
        <time>2020-05-21T11:06:03Z</time>
      </trkpt>
      <trkpt lat="47.17187" lon="-1.61829">
        <ele>20.2</ele>
        <time>2020-05-21T11:06:05Z</time>
      </trkpt>
      <trkpt lat="47.17177" lon="-1.61838">
        <ele>20.8</ele>
        <time>2020-05-21T11:06:07Z</time>
      </trkpt>
      <trkpt lat="47.17169" lon="-1.61844">
        <ele>22.31</ele>
        <time>2020-05-21T11:06:09Z</time>
      </trkpt>
      <trkpt lat="47.1716" lon="-1.61853">
        <ele>22.86</ele>
        <time>2020-05-21T11:06:11Z</time>
      </trkpt>
      <trkpt lat="47.1715" lon="-1.61862">
        <ele>23.66</ele>
        <time>2020-05-21T11:06:13Z</time>
      </trkpt>
      <trkpt lat="47.17139" lon="-1.61873">
        <ele>24.16</ele>
        <time>2020-05-21T11:06:15Z</time>
      </trkpt>
      <trkpt lat="47.17129" lon="-1.61882">
        <ele>25.17</ele>
        <time>2020-05-21T11:06:17Z</time>
      </trkpt>
      <trkpt lat="47.1712" lon="-1.6189">
        <ele>25.18</ele>
        <time>2020-05-21T11:06:19Z</time>
      </trkpt>
      <trkpt lat="47.17109" lon="-1.61898">
        <ele>25.63</ele>
        <time>2020-05-21T11:06:21Z</time>
      </trkpt>
      <trkpt lat="47.171" lon="-1.61908">
        <ele>24.83</ele>
        <time>2020-05-21T11:06:23Z</time>
      </trkpt>
      <trkpt lat="47.17091" lon="-1.61917">
        <ele>24.11</ele>
        <time>2020-05-21T11:06:25Z</time>
      </trkpt>
      <trkpt lat="47.17081" lon="-1.61927">
        <ele>23.55</ele>
        <time>2020-05-21T11:06:27Z</time>
      </trkpt>
      <trkpt lat="47.17074" lon="-1.61935">
        <ele>22.59</ele>
        <time>2020-05-21T11:06:29Z</time>
      </trkpt>
      <trkpt lat="47.17063" lon="-1.61946">
        <ele>22</ele>
        <time>2020-05-21T11:06:31Z</time>
      </trkpt>
      <trkpt lat="47.17054" lon="-1.61958">
        <ele>22.87</ele>
        <time>2020-05-21T11:06:33Z</time>
      </trkpt>
      <trkpt lat="47.17045" lon="-1.61969">
        <ele>23.53</ele>
        <time>2020-05-21T11:06:35Z</time>
      </trkpt>
      <trkpt lat="47.17037" lon="-1.61979">
        <ele>23.29</ele>
        <time>2020-05-21T11:06:37Z</time>
      </trkpt>
      <trkpt lat="47.17029" lon="-1.61991">
        <ele>23.14</ele>
        <time>2020-05-21T11:06:39Z</time>
      </trkpt>
      <trkpt lat="47.17021" lon="-1.62003">
        <ele>23.26</ele>
        <time>2020-05-21T11:06:41Z</time>
      </trkpt>
      <trkpt lat="47.17013" lon="-1.62016">
        <ele>22.01</ele>
        <time>2020-05-21T11:06:43Z</time>
      </trkpt>
      <trkpt lat="47.17005" lon="-1.62029">
        <ele>21.11</ele>
        <time>2020-05-21T11:06:45Z</time>
      </trkpt>
      <trkpt lat="47.16996" lon="-1.62042">
        <ele>20.58</ele>
        <time>2020-05-21T11:06:47Z</time>
      </trkpt>
      <trkpt lat="47.16987" lon="-1.62056">
        <ele>20.41</ele>
        <time>2020-05-21T11:06:49Z</time>
      </trkpt>
      <trkpt lat="47.1698" lon="-1.6207">
        <ele>21.07</ele>
        <time>2020-05-21T11:06:51Z</time>
      </trkpt>
      <trkpt lat="47.16972" lon="-1.62084">
        <ele>21.02</ele>
        <time>2020-05-21T11:06:53Z</time>
      </trkpt>
      <trkpt lat="47.16965" lon="-1.62096">
        <ele>20.33</ele>
        <time>2020-05-21T11:06:55Z</time>
      </trkpt>
      <trkpt lat="47.16958" lon="-1.6211">
        <ele>19.27</ele>
        <time>2020-05-21T11:06:57Z</time>
      </trkpt>
      <trkpt lat="47.1695" lon="-1.62126">
        <ele>18.33</ele>
        <time>2020-05-21T11:06:59Z</time>
      </trkpt>
      <trkpt lat="47.16943" lon="-1.6214">
        <ele>18.71</ele>
        <time>2020-05-21T11:07:01Z</time>
      </trkpt>
      <trkpt lat="47.16936" lon="-1.62154">
        <ele>19.14</ele>
        <time>2020-05-21T11:07:03Z</time>
      </trkpt>
      <trkpt lat="47.16928" lon="-1.62169">
        <ele>19.39</ele>
        <time>2020-05-21T11:07:05Z</time>
      </trkpt>
      <trkpt lat="47.16922" lon="-1.62183">
        <ele>19.36</ele>
        <time>2020-05-21T11:07:07Z</time>
      </trkpt>
      <trkpt lat="47.16915" lon="-1.62198">
        <ele>20.07</ele>
        <time>2020-05-21T11:07:09Z</time>
      </trkpt>
      <trkpt lat="47.16908" lon="-1.62211">
        <ele>20.85</ele>
        <time>2020-05-21T11:07:11Z</time>
      </trkpt>
      <trkpt lat="47.16899" lon="-1.62222">
        <ele>22.36</ele>
        <time>2020-05-21T11:07:13Z</time>
      </trkpt>
      <trkpt lat="47.16892" lon="-1.62232">
        <ele>23.49</ele>
        <time>2020-05-21T11:07:15Z</time>
      </trkpt>
      <trkpt lat="47.16883" lon="-1.62245">
        <ele>23.24</ele>
        <time>2020-05-21T11:07:17Z</time>
      </trkpt>
      <trkpt lat="47.16872" lon="-1.62259">
        <ele>22.5</ele>
        <time>2020-05-21T11:07:19Z</time>
      </trkpt>
      <trkpt lat="47.16864" lon="-1.62268">
        <ele>22.54</ele>
        <time>2020-05-21T11:07:21Z</time>
      </trkpt>
      <trkpt lat="47.16856" lon="-1.62278">
        <ele>22.13</ele>
        <time>2020-05-21T11:07:23Z</time>
      </trkpt>
      <trkpt lat="47.16847" lon="-1.62289">
        <ele>22.26</ele>
        <time>2020-05-21T11:07:25Z</time>
      </trkpt>
      <trkpt lat="47.16837" lon="-1.62302">
        <ele>21.95</ele>
        <time>2020-05-21T11:07:27Z</time>
      </trkpt>
      <trkpt lat="47.16827" lon="-1.62314">
        <ele>20.98</ele>
        <time>2020-05-21T11:07:29Z</time>
      </trkpt>
      <trkpt lat="47.16817" lon="-1.62325">
        <ele>21.18</ele>
        <time>2020-05-21T11:07:31Z</time>
      </trkpt>
      <trkpt lat="47.16807" lon="-1.62332">
        <ele>21.63</ele>
        <time>2020-05-21T11:07:33Z</time>
      </trkpt>
      <trkpt lat="47.16797" lon="-1.62338">
        <ele>20.67</ele>
        <time>2020-05-21T11:07:35Z</time>
      </trkpt>
      <trkpt lat="47.16786" lon="-1.62344">
        <ele>18.33</ele>
        <time>2020-05-21T11:07:37Z</time>
      </trkpt>
      <trkpt lat="47.16774" lon="-1.62349">
        <ele>17.3</ele>
        <time>2020-05-21T11:07:39Z</time>
      </trkpt>
      <trkpt lat="47.16761" lon="-1.62356">
        <ele>16.85</ele>
        <time>2020-05-21T11:07:41Z</time>
      </trkpt>
      <trkpt lat="47.16749" lon="-1.62363">
        <ele>16.03</ele>
        <time>2020-05-21T11:07:43Z</time>
      </trkpt>
      <trkpt lat="47.16739" lon="-1.62373">
        <ele>15.23</ele>
        <time>2020-05-21T11:07:45Z</time>
      </trkpt>
      <trkpt lat="47.16729" lon="-1.62389">
        <ele>14.89</ele>
        <time>2020-05-21T11:07:47Z</time>
      </trkpt>
      <trkpt lat="47.16722" lon="-1.62407">
        <ele>15.27</ele>
        <time>2020-05-21T11:07:49Z</time>
      </trkpt>
      <trkpt lat="47.1672" lon="-1.62424">
        <ele>15.25</ele>
        <time>2020-05-21T11:07:51Z</time>
      </trkpt>
      <trkpt lat="47.16718" lon="-1.6244">
        <ele>16.29</ele>
        <time>2020-05-21T11:07:53Z</time>
      </trkpt>
      <trkpt lat="47.16717" lon="-1.62454">
        <ele>16.19</ele>
        <time>2020-05-21T11:07:55Z</time>
      </trkpt>
      <trkpt lat="47.16713" lon="-1.6247">
        <ele>16.26</ele>
        <time>2020-05-21T11:07:57Z</time>
      </trkpt>
      <trkpt lat="47.16709" lon="-1.62486">
        <ele>16.59</ele>
        <time>2020-05-21T11:07:59Z</time>
      </trkpt>
      <trkpt lat="47.16709" lon="-1.62505">
        <ele>17.61</ele>
        <time>2020-05-21T11:08:01Z</time>
      </trkpt>
      <trkpt lat="47.16722" lon="-1.62515">
        <ele>17.24</ele>
        <time>2020-05-21T11:08:04Z</time>
      </trkpt>
      <trkpt lat="47.16736" lon="-1.62521">
        <ele>17.64</ele>
        <time>2020-05-21T11:08:06Z</time>
      </trkpt>
      <trkpt lat="47.1675" lon="-1.62526">
        <ele>17.62</ele>
        <time>2020-05-21T11:08:08Z</time>
      </trkpt>
      <trkpt lat="47.16761" lon="-1.62531">
        <ele>17.37</ele>
        <time>2020-05-21T11:08:10Z</time>
      </trkpt>
      <trkpt lat="47.16773" lon="-1.62537">
        <ele>17.68</ele>
        <time>2020-05-21T11:08:12Z</time>
      </trkpt>
      <trkpt lat="47.16783" lon="-1.62542">
        <ele>16.93</ele>
        <time>2020-05-21T11:08:14Z</time>
      </trkpt>
      <trkpt lat="47.16793" lon="-1.62548">
        <ele>16.4</ele>
        <time>2020-05-21T11:08:16Z</time>
      </trkpt>
      <trkpt lat="47.16804" lon="-1.62555">
        <ele>15.8</ele>
        <time>2020-05-21T11:08:18Z</time>
      </trkpt>
      <trkpt lat="47.16814" lon="-1.62563">
        <ele>16.19</ele>
        <time>2020-05-21T11:08:20Z</time>
      </trkpt>
      <trkpt lat="47.16823" lon="-1.62572">
        <ele>15.95</ele>
        <time>2020-05-21T11:08:22Z</time>
      </trkpt>
      <trkpt lat="47.16829" lon="-1.62589">
        <ele>15.9</ele>
        <time>2020-05-21T11:08:24Z</time>
      </trkpt>
      <trkpt lat="47.16819" lon="-1.62607">
        <ele>16.87</ele>
        <time>2020-05-21T11:08:26Z</time>
      </trkpt>
      <trkpt lat="47.1681" lon="-1.6262">
        <ele>17.86</ele>
        <time>2020-05-21T11:08:28Z</time>
      </trkpt>
      <trkpt lat="47.16802" lon="-1.62633">
        <ele>18.36</ele>
        <time>2020-05-21T11:08:30Z</time>
      </trkpt>
      <trkpt lat="47.16793" lon="-1.62646">
        <ele>18.69</ele>
        <time>2020-05-21T11:08:32Z</time>
      </trkpt>
      <trkpt lat="47.16786" lon="-1.62655">
        <ele>19.53</ele>
        <time>2020-05-21T11:08:34Z</time>
      </trkpt>
      <trkpt lat="47.16779" lon="-1.62667">
        <ele>21.09</ele>
        <time>2020-05-21T11:08:37Z</time>
      </trkpt>
      <trkpt lat="47.16769" lon="-1.62661">
        <ele>21.32</ele>
        <time>2020-05-21T11:08:41Z</time>
      </trkpt>
    </trkseg>
  </trk>
</gpx>